<?xml version="1.0" encoding="UTF-8" standalone="no"?>
<gpx xmlns="http://www.topografix.com/GPX/1/1" creator="GPS Master" version="1.1"
xmlns:xsi="http://www.w3.org/2001/XMLSchema-instance"
xsi:schemaLocation="http://www.topografix.com/GPX/1/1 http://www.topografix.com/GPX/1/1/gpx.xsd"
xmlns:gpxtpx="http://www.garmin.com/xmlschemas/TrackPointExtension/v1">
<trk>
 <name>1 (2013-09-25 09:31:32)</name>
 <number>1</number>
 <trkseg>
 <trkpt lat="47.760838300" lon="12.638086600"><ele>669</ele><time>2013-09-25T08:31:32Z</time></trkpt>
 <trkpt lat="47.760835000" lon="12.638086600"><ele>668</ele><time>2013-09-25T08:31:35Z</time></trkpt>
 <trkpt lat="47.760864900" lon="12.638072800"><ele>668</ele><time>2013-09-25T08:31:39Z</time></trkpt>
 <trkpt lat="47.760889900" lon="12.638079500"><ele>668</ele><time>2013-09-25T08:31:43Z</time></trkpt>
 <trkpt lat="47.760882800" lon="12.638078300"><ele>668</ele><time>2013-09-25T08:31:47Z</time></trkpt>
 <trkpt lat="47.760875800" lon="12.638079100"><ele>668</ele><time>2013-09-25T08:31:51Z</time></trkpt>
 <trkpt lat="47.760868300" lon="12.638078300"><ele>668</ele><time>2013-09-25T08:31:55Z</time></trkpt>
 <trkpt lat="47.760861600" lon="12.638078300"><ele>668</ele><time>2013-09-25T08:31:59Z</time></trkpt>
 <trkpt lat="47.760867400" lon="12.638071200"><ele>668</ele><time>2013-09-25T08:32:03Z</time></trkpt>
 <trkpt lat="47.760867400" lon="12.638071200"><ele>668</ele><time>2013-09-25T08:32:07Z</time></trkpt>
 <trkpt lat="47.760888700" lon="12.638071200"><ele>668</ele><time>2013-09-25T08:32:11Z</time></trkpt>
 <trkpt lat="47.760942000" lon="12.638080800"><ele>668</ele><time>2013-09-25T08:32:15Z</time></trkpt>
 <trkpt lat="47.760987800" lon="12.638097800"><ele>668</ele><time>2013-09-25T08:32:19Z</time></trkpt>
 <trkpt lat="47.761019500" lon="12.638116600"><ele>668</ele><time>2013-09-25T08:32:23Z</time></trkpt>
 <trkpt lat="47.761059900" lon="12.638161600"><ele>668</ele><time>2013-09-25T08:32:27Z</time></trkpt>
 <trkpt lat="47.761109900" lon="12.638219100"><ele>668</ele><time>2013-09-25T08:32:31Z</time></trkpt>
 <trkpt lat="47.761142900" lon="12.638289500"><ele>668</ele><time>2013-09-25T08:32:35Z</time></trkpt>
 <trkpt lat="47.761187800" lon="12.638363700"><ele>668</ele><time>2013-09-25T08:32:39Z</time></trkpt>
 <trkpt lat="47.761232000" lon="12.638399100"><ele>668</ele><time>2013-09-25T08:32:43Z</time></trkpt>
 <trkpt lat="47.761271600" lon="12.638437400"><ele>668</ele><time>2013-09-25T08:32:47Z</time></trkpt>
 <trkpt lat="47.761304100" lon="12.638480300"><ele>668</ele><time>2013-09-25T08:32:51Z</time></trkpt>
 <trkpt lat="47.761348300" lon="12.638536600"><ele>668</ele><time>2013-09-25T08:32:55Z</time></trkpt>
 <trkpt lat="47.761376200" lon="12.638588700"><ele>668</ele><time>2013-09-25T08:32:59Z</time></trkpt>
 <trkpt lat="47.761400800" lon="12.638640800"><ele>668</ele><time>2013-09-25T08:33:03Z</time></trkpt>
 <trkpt lat="47.761419500" lon="12.638693700"><ele>668</ele><time>2013-09-25T08:33:07Z</time></trkpt>
 <trkpt lat="47.761423700" lon="12.638746200"><ele>669</ele><time>2013-09-25T08:33:11Z</time></trkpt>
 <trkpt lat="47.761403300" lon="12.638797900"><ele>669</ele><time>2013-09-25T08:33:15Z</time></trkpt>
 <trkpt lat="47.761361200" lon="12.638842000"><ele>670</ele><time>2013-09-25T08:33:19Z</time></trkpt>
 <trkpt lat="47.761303300" lon="12.638903700"><ele>670</ele><time>2013-09-25T08:33:23Z</time></trkpt>
 <trkpt lat="47.761284500" lon="12.638963300"><ele>671</ele><time>2013-09-25T08:33:27Z</time></trkpt>
 <trkpt lat="47.761273200" lon="12.639012900"><ele>672</ele><time>2013-09-25T08:33:31Z</time></trkpt>
 <trkpt lat="47.761286200" lon="12.639036600"><ele>673</ele><time>2013-09-25T08:33:35Z</time></trkpt>
 <trkpt lat="47.761287000" lon="12.639057800"><ele>674</ele><time>2013-09-25T08:33:39Z</time></trkpt>
 <trkpt lat="47.761277400" lon="12.639080800"><ele>675</ele><time>2013-09-25T08:33:43Z</time></trkpt>
 <trkpt lat="47.761256600" lon="12.639130800"><ele>676</ele><time>2013-09-25T08:33:47Z</time></trkpt>
 <trkpt lat="47.761266200" lon="12.639192500"><ele>677</ele><time>2013-09-25T08:33:51Z</time></trkpt>
 <trkpt lat="47.761310400" lon="12.639254900"><ele>678</ele><time>2013-09-25T08:33:55Z</time></trkpt>
 <trkpt lat="47.761351600" lon="12.639309100"><ele>679</ele><time>2013-09-25T08:33:59Z</time></trkpt>
 <trkpt lat="47.761402900" lon="12.639361600"><ele>680</ele><time>2013-09-25T08:34:03Z</time></trkpt>
 <trkpt lat="47.761455400" lon="12.639410300"><ele>681</ele><time>2013-09-25T08:34:07Z</time></trkpt>
 <trkpt lat="47.761504900" lon="12.639462800"><ele>682</ele><time>2013-09-25T08:34:11Z</time></trkpt>
 <trkpt lat="47.761550400" lon="12.639494100"><ele>683</ele><time>2013-09-25T08:34:15Z</time></trkpt>
 <trkpt lat="47.761597400" lon="12.639522000"><ele>683</ele><time>2013-09-25T08:34:19Z</time></trkpt>
 <trkpt lat="47.761645700" lon="12.639547000"><ele>684</ele><time>2013-09-25T08:34:23Z</time></trkpt>
 <trkpt lat="47.761682900" lon="12.639582000"><ele>685</ele><time>2013-09-25T08:34:27Z</time></trkpt>
 <trkpt lat="47.761716600" lon="12.639596200"><ele>685</ele><time>2013-09-25T08:34:31Z</time></trkpt>
 <trkpt lat="47.761767900" lon="12.639607800"><ele>685</ele><time>2013-09-25T08:34:35Z</time></trkpt>
 <trkpt lat="47.761808700" lon="12.639633300"><ele>685</ele><time>2013-09-25T08:34:39Z</time></trkpt>
 <trkpt lat="47.761862900" lon="12.639670800"><ele>685</ele><time>2013-09-25T08:34:43Z</time></trkpt>
 <trkpt lat="47.761918300" lon="12.639742900"><ele>685</ele><time>2013-09-25T08:34:47Z</time></trkpt>
 <trkpt lat="47.761969100" lon="12.639790300"><ele>685</ele><time>2013-09-25T08:34:51Z</time></trkpt>
 <trkpt lat="47.762000300" lon="12.639785300"><ele>685</ele><time>2013-09-25T08:34:55Z</time></trkpt>
 <trkpt lat="47.762023300" lon="12.639786200"><ele>685</ele><time>2013-09-25T08:34:59Z</time></trkpt>
 <trkpt lat="47.762067000" lon="12.639824900"><ele>685</ele><time>2013-09-25T08:35:03Z</time></trkpt>
 <trkpt lat="47.762120300" lon="12.639852000"><ele>685</ele><time>2013-09-25T08:35:07Z</time></trkpt>
 <trkpt lat="47.762170000" lon="12.639888700"><ele>685</ele><time>2013-09-25T08:35:11Z</time></trkpt>
 <trkpt lat="47.762212400" lon="12.639918300"><ele>686</ele><time>2013-09-25T08:35:15Z</time></trkpt>
 <trkpt lat="47.762252400" lon="12.639943700"><ele>686</ele><time>2013-09-25T08:35:19Z</time></trkpt>
 <trkpt lat="47.762284900" lon="12.639959500"><ele>686</ele><time>2013-09-25T08:35:23Z</time></trkpt>
 <trkpt lat="47.762323700" lon="12.639981200"><ele>687</ele><time>2013-09-25T08:35:27Z</time></trkpt>
 <trkpt lat="47.762367800" lon="12.640000300"><ele>687</ele><time>2013-09-25T08:35:31Z</time></trkpt>
 <trkpt lat="47.762405700" lon="12.640021200"><ele>687</ele><time>2013-09-25T08:35:35Z</time></trkpt>
 <trkpt lat="47.762436200" lon="12.640036600"><ele>687</ele><time>2013-09-25T08:35:39Z</time></trkpt>
 <trkpt lat="47.762470800" lon="12.640053700"><ele>688</ele><time>2013-09-25T08:35:43Z</time></trkpt>
 <trkpt lat="47.762510800" lon="12.640072000"><ele>688</ele><time>2013-09-25T08:35:47Z</time></trkpt>
 <trkpt lat="47.762573700" lon="12.640096200"><ele>688</ele><time>2013-09-25T08:35:51Z</time></trkpt>
 <trkpt lat="47.762631600" lon="12.640109100"><ele>688</ele><time>2013-09-25T08:35:55Z</time></trkpt>
 <trkpt lat="47.762694100" lon="12.640114900"><ele>687</ele><time>2013-09-25T08:35:59Z</time></trkpt>
 <trkpt lat="47.762749900" lon="12.640116200"><ele>687</ele><time>2013-09-25T08:36:03Z</time></trkpt>
 <trkpt lat="47.762805300" lon="12.640102400"><ele>686</ele><time>2013-09-25T08:36:07Z</time></trkpt>
 <trkpt lat="47.762860700" lon="12.640112000"><ele>686</ele><time>2013-09-25T08:36:11Z</time></trkpt>
 <trkpt lat="47.762902000" lon="12.640130800"><ele>685</ele><time>2013-09-25T08:36:15Z</time></trkpt>
 <trkpt lat="47.762943700" lon="12.640086600"><ele>684</ele><time>2013-09-25T08:36:19Z</time></trkpt>
 <trkpt lat="47.762989100" lon="12.640073200"><ele>682</ele><time>2013-09-25T08:36:23Z</time></trkpt>
 <trkpt lat="47.763017000" lon="12.640046200"><ele>681</ele><time>2013-09-25T08:36:27Z</time></trkpt>
 <trkpt lat="47.763045800" lon="12.640022900"><ele>680</ele><time>2013-09-25T08:36:31Z</time></trkpt>
 <trkpt lat="47.763093300" lon="12.639997400"><ele>679</ele><time>2013-09-25T08:36:35Z</time></trkpt>
 <trkpt lat="47.763137900" lon="12.639955300"><ele>677</ele><time>2013-09-25T08:36:39Z</time></trkpt>
 <trkpt lat="47.763195300" lon="12.639921200"><ele>676</ele><time>2013-09-25T08:36:43Z</time></trkpt>
 <trkpt lat="47.763242000" lon="12.639895400"><ele>675</ele><time>2013-09-25T08:36:47Z</time></trkpt>
 <trkpt lat="47.763291200" lon="12.639881600"><ele>674</ele><time>2013-09-25T08:36:51Z</time></trkpt>
 <trkpt lat="47.763346200" lon="12.639836200"><ele>672</ele><time>2013-09-25T08:36:55Z</time></trkpt>
 <trkpt lat="47.763399900" lon="12.639795300"><ele>671</ele><time>2013-09-25T08:36:59Z</time></trkpt>
 <trkpt lat="47.763450300" lon="12.639770800"><ele>670</ele><time>2013-09-25T08:37:03Z</time></trkpt>
 <trkpt lat="47.763502800" lon="12.639747000"><ele>670</ele><time>2013-09-25T08:37:07Z</time></trkpt>
 <trkpt lat="47.763558700" lon="12.639721600"><ele>669</ele><time>2013-09-25T08:37:11Z</time></trkpt>
 <trkpt lat="47.763606600" lon="12.639709500"><ele>669</ele><time>2013-09-25T08:37:15Z</time></trkpt>
 <trkpt lat="47.763654900" lon="12.639697400"><ele>668</ele><time>2013-09-25T08:37:19Z</time></trkpt>
 <trkpt lat="47.763698700" lon="12.639657400"><ele>668</ele><time>2013-09-25T08:37:23Z</time></trkpt>
 <trkpt lat="47.763709100" lon="12.639584100"><ele>668</ele><time>2013-09-25T08:37:27Z</time></trkpt>
 <trkpt lat="47.763695400" lon="12.639504900"><ele>668</ele><time>2013-09-25T08:37:31Z</time></trkpt>
 <trkpt lat="47.763670800" lon="12.639431600"><ele>668</ele><time>2013-09-25T08:37:35Z</time></trkpt>
 <trkpt lat="47.763644500" lon="12.639349900"><ele>668</ele><time>2013-09-25T08:37:39Z</time></trkpt>
 <trkpt lat="47.763637800" lon="12.639289100"><ele>668</ele><time>2013-09-25T08:37:43Z</time></trkpt>
 <trkpt lat="47.763625300" lon="12.639234500"><ele>669</ele><time>2013-09-25T08:37:47Z</time></trkpt>
 <trkpt lat="47.763614100" lon="12.639188300"><ele>669</ele><time>2013-09-25T08:37:51Z</time></trkpt>
 <trkpt lat="47.763602400" lon="12.639119100"><ele>670</ele><time>2013-09-25T08:37:55Z</time></trkpt>
 <trkpt lat="47.763605800" lon="12.639062400"><ele>670</ele><time>2013-09-25T08:37:59Z</time></trkpt>
 <trkpt lat="47.763605400" lon="12.638985800"><ele>671</ele><time>2013-09-25T08:38:03Z</time></trkpt>
 <trkpt lat="47.763606200" lon="12.638920300"><ele>671</ele><time>2013-09-25T08:38:07Z</time></trkpt>
 <trkpt lat="47.763627400" lon="12.638877400"><ele>672</ele><time>2013-09-25T08:38:11Z</time></trkpt>
 <trkpt lat="47.763667800" lon="12.638834500"><ele>672</ele><time>2013-09-25T08:38:15Z</time></trkpt>
 <trkpt lat="47.763685800" lon="12.638760800"><ele>673</ele><time>2013-09-25T08:38:19Z</time></trkpt>
 <trkpt lat="47.763712000" lon="12.638697900"><ele>673</ele><time>2013-09-25T08:38:23Z</time></trkpt>
 <trkpt lat="47.763733700" lon="12.638632400"><ele>674</ele><time>2013-09-25T08:38:27Z</time></trkpt>
 <trkpt lat="47.763745800" lon="12.638558300"><ele>674</ele><time>2013-09-25T08:38:31Z</time></trkpt>
 <trkpt lat="47.763757800" lon="12.638484100"><ele>675</ele><time>2013-09-25T08:38:35Z</time></trkpt>
 <trkpt lat="47.763762000" lon="12.638414500"><ele>675</ele><time>2013-09-25T08:38:39Z</time></trkpt>
 <trkpt lat="47.763757800" lon="12.638339900"><ele>675</ele><time>2013-09-25T08:38:43Z</time></trkpt>
 <trkpt lat="47.763744100" lon="12.638273700"><ele>675</ele><time>2013-09-25T08:38:47Z</time></trkpt>
 <trkpt lat="47.763729900" lon="12.638205800"><ele>676</ele><time>2013-09-25T08:38:51Z</time></trkpt>
 <trkpt lat="47.763714500" lon="12.638144900"><ele>676</ele><time>2013-09-25T08:38:55Z</time></trkpt>
 <trkpt lat="47.763697500" lon="12.638077400"><ele>676</ele><time>2013-09-25T08:38:59Z</time></trkpt>
 <trkpt lat="47.763677900" lon="12.638017000"><ele>676</ele><time>2013-09-25T08:39:03Z</time></trkpt>
 <trkpt lat="47.763659100" lon="12.637959100"><ele>676</ele><time>2013-09-25T08:39:07Z</time></trkpt>
 <trkpt lat="47.763633700" lon="12.637904900"><ele>676</ele><time>2013-09-25T08:39:11Z</time></trkpt>
 <trkpt lat="47.763610400" lon="12.637847000"><ele>676</ele><time>2013-09-25T08:39:15Z</time></trkpt>
 <trkpt lat="47.763588700" lon="12.637787000"><ele>676</ele><time>2013-09-25T08:39:19Z</time></trkpt>
 <trkpt lat="47.763566200" lon="12.637726200"><ele>676</ele><time>2013-09-25T08:39:23Z</time></trkpt>
 <trkpt lat="47.763545300" lon="12.637672400"><ele>676</ele><time>2013-09-25T08:39:27Z</time></trkpt>
 <trkpt lat="47.763523300" lon="12.637618700"><ele>676</ele><time>2013-09-25T08:39:31Z</time></trkpt>
 <trkpt lat="47.763502000" lon="12.637564900"><ele>676</ele><time>2013-09-25T08:39:35Z</time></trkpt>
 <trkpt lat="47.763480300" lon="12.637506600"><ele>676</ele><time>2013-09-25T08:39:39Z</time></trkpt>
 <trkpt lat="47.763456200" lon="12.637467900"><ele>677</ele><time>2013-09-25T08:39:43Z</time></trkpt>
 <trkpt lat="47.763443700" lon="12.637426200"><ele>677</ele><time>2013-09-25T08:39:47Z</time></trkpt>
 <trkpt lat="47.763419100" lon="12.637364500"><ele>678</ele><time>2013-09-25T08:39:51Z</time></trkpt>
 <trkpt lat="47.763403300" lon="12.637303700"><ele>678</ele><time>2013-09-25T08:39:55Z</time></trkpt>
 <trkpt lat="47.763381200" lon="12.637249500"><ele>679</ele><time>2013-09-25T08:39:59Z</time></trkpt>
 <trkpt lat="47.763362400" lon="12.637204900"><ele>679</ele><time>2013-09-25T08:40:03Z</time></trkpt>
 <trkpt lat="47.763349100" lon="12.637153700"><ele>680</ele><time>2013-09-25T08:40:07Z</time></trkpt>
 <trkpt lat="47.763337400" lon="12.637099500"><ele>681</ele><time>2013-09-25T08:40:11Z</time></trkpt>
 <trkpt lat="47.763325800" lon="12.637037400"><ele>682</ele><time>2013-09-25T08:40:15Z</time></trkpt>
 <trkpt lat="47.763317400" lon="12.636983700"><ele>682</ele><time>2013-09-25T08:40:19Z</time></trkpt>
 <trkpt lat="47.763307400" lon="12.636929500"><ele>683</ele><time>2013-09-25T08:40:23Z</time></trkpt>
 <trkpt lat="47.763294500" lon="12.636864500"><ele>684</ele><time>2013-09-25T08:40:27Z</time></trkpt>
 <trkpt lat="47.763278300" lon="12.636794500"><ele>685</ele><time>2013-09-25T08:40:31Z</time></trkpt>
 <trkpt lat="47.763273300" lon="12.636739500"><ele>686</ele><time>2013-09-25T08:40:35Z</time></trkpt>
 <trkpt lat="47.763267800" lon="12.636689100"><ele>686</ele><time>2013-09-25T08:40:39Z</time></trkpt>
 <trkpt lat="47.763269500" lon="12.636639900"><ele>687</ele><time>2013-09-25T08:40:43Z</time></trkpt>
 <trkpt lat="47.763281200" lon="12.636579100"><ele>687</ele><time>2013-09-25T08:40:47Z</time></trkpt>
 <trkpt lat="47.763273700" lon="12.636512800"><ele>688</ele><time>2013-09-25T08:40:51Z</time></trkpt>
 <trkpt lat="47.763269500" lon="12.636449100"><ele>688</ele><time>2013-09-25T08:40:55Z</time></trkpt>
 <trkpt lat="47.763262800" lon="12.636405400"><ele>689</ele><time>2013-09-25T08:40:59Z</time></trkpt>
 <trkpt lat="47.763249500" lon="12.636352400"><ele>689</ele><time>2013-09-25T08:41:03Z</time></trkpt>
 <trkpt lat="47.763254900" lon="12.636334100"><ele>690</ele><time>2013-09-25T08:41:07Z</time></trkpt>
 <trkpt lat="47.763281600" lon="12.636324500"><ele>690</ele><time>2013-09-25T08:41:11Z</time></trkpt>
 <trkpt lat="47.763287000" lon="12.636323300"><ele>690</ele><time>2013-09-25T08:41:15Z</time></trkpt>
 <trkpt lat="47.763287000" lon="12.636323300"><ele>690</ele><time>2013-09-25T08:41:19Z</time></trkpt>
 <trkpt lat="47.763291200" lon="12.636317400"><ele>690</ele><time>2013-09-25T08:41:23Z</time></trkpt>
 <trkpt lat="47.763295800" lon="12.636300800"><ele>690</ele><time>2013-09-25T08:41:27Z</time></trkpt>
 <trkpt lat="47.763273700" lon="12.636247000"><ele>689</ele><time>2013-09-25T08:41:31Z</time></trkpt>
 <trkpt lat="47.763250300" lon="12.636182400"><ele>689</ele><time>2013-09-25T08:41:35Z</time></trkpt>
 <trkpt lat="47.763248700" lon="12.636137400"><ele>689</ele><time>2013-09-25T08:41:39Z</time></trkpt>
 <trkpt lat="47.763237400" lon="12.636087400"><ele>688</ele><time>2013-09-25T08:41:43Z</time></trkpt>
 <trkpt lat="47.763230300" lon="12.636039100"><ele>687</ele><time>2013-09-25T08:41:47Z</time></trkpt>
 <trkpt lat="47.763237000" lon="12.635989900"><ele>687</ele><time>2013-09-25T08:41:51Z</time></trkpt>
 <trkpt lat="47.763238300" lon="12.635934500"><ele>686</ele><time>2013-09-25T08:41:55Z</time></trkpt>
 <trkpt lat="47.763238300" lon="12.635878700"><ele>685</ele><time>2013-09-25T08:41:59Z</time></trkpt>
 <trkpt lat="47.763237000" lon="12.635814500"><ele>684</ele><time>2013-09-25T08:42:03Z</time></trkpt>
 <trkpt lat="47.763223700" lon="12.635736600"><ele>683</ele><time>2013-09-25T08:42:07Z</time></trkpt>
 <trkpt lat="47.763217800" lon="12.635672400"><ele>682</ele><time>2013-09-25T08:42:11Z</time></trkpt>
 <trkpt lat="47.763220800" lon="12.635614100"><ele>681</ele><time>2013-09-25T08:42:15Z</time></trkpt>
 <trkpt lat="47.763222800" lon="12.635555800"><ele>680</ele><time>2013-09-25T08:42:19Z</time></trkpt>
 <trkpt lat="47.763228300" lon="12.635497400"><ele>679</ele><time>2013-09-25T08:42:23Z</time></trkpt>
 <trkpt lat="47.763237000" lon="12.635438300"><ele>678</ele><time>2013-09-25T08:42:27Z</time></trkpt>
 <trkpt lat="47.763238700" lon="12.635382000"><ele>678</ele><time>2013-09-25T08:42:31Z</time></trkpt>
 <trkpt lat="47.763246200" lon="12.635331600"><ele>677</ele><time>2013-09-25T08:42:35Z</time></trkpt>
 <trkpt lat="47.763251600" lon="12.635312900"><ele>676</ele><time>2013-09-25T08:42:39Z</time></trkpt>
 <trkpt lat="47.763257800" lon="12.635278300"><ele>676</ele><time>2013-09-25T08:42:43Z</time></trkpt>
 <trkpt lat="47.763260300" lon="12.635242800"><ele>675</ele><time>2013-09-25T08:42:47Z</time></trkpt>
 <trkpt lat="47.763246200" lon="12.635194100"><ele>675</ele><time>2013-09-25T08:42:51Z</time></trkpt>
 <trkpt lat="47.763239500" lon="12.635141600"><ele>675</ele><time>2013-09-25T08:42:55Z</time></trkpt>
 <trkpt lat="47.763254900" lon="12.635120800"><ele>674</ele><time>2013-09-25T08:42:59Z</time></trkpt>
 <trkpt lat="47.763266600" lon="12.635109900"><ele>674</ele><time>2013-09-25T08:43:03Z</time></trkpt>
 <trkpt lat="47.763266600" lon="12.635109900"><ele>674</ele><time>2013-09-25T08:43:07Z</time></trkpt>
 <trkpt lat="47.763266600" lon="12.635109900"><ele>674</ele><time>2013-09-25T08:43:11Z</time></trkpt>
 <trkpt lat="47.763266600" lon="12.635109900"><ele>674</ele><time>2013-09-25T08:43:15Z</time></trkpt>
 <trkpt lat="47.763266600" lon="12.635109900"><ele>674</ele><time>2013-09-25T08:43:19Z</time></trkpt>
 <trkpt lat="47.763266600" lon="12.635109900"><ele>674</ele><time>2013-09-25T08:43:23Z</time></trkpt>
 <trkpt lat="47.763264900" lon="12.635081600"><ele>674</ele><time>2013-09-25T08:43:27Z</time></trkpt>
 <trkpt lat="47.763231200" lon="12.635026600"><ele>674</ele><time>2013-09-25T08:43:31Z</time></trkpt>
 <trkpt lat="47.763204500" lon="12.634978300"><ele>674</ele><time>2013-09-25T08:43:35Z</time></trkpt>
 <trkpt lat="47.763186200" lon="12.634936200"><ele>674</ele><time>2013-09-25T08:43:39Z</time></trkpt>
 <trkpt lat="47.763167900" lon="12.634892900"><ele>674</ele><time>2013-09-25T08:43:43Z</time></trkpt>
 <trkpt lat="47.763151200" lon="12.634844100"><ele>674</ele><time>2013-09-25T08:43:47Z</time></trkpt>
 <trkpt lat="47.763137000" lon="12.634784500"><ele>674</ele><time>2013-09-25T08:43:51Z</time></trkpt>
 <trkpt lat="47.763123700" lon="12.634730800"><ele>674</ele><time>2013-09-25T08:43:55Z</time></trkpt>
 <trkpt lat="47.763108700" lon="12.634682400"><ele>673</ele><time>2013-09-25T08:43:59Z</time></trkpt>
 <trkpt lat="47.763087800" lon="12.634633700"><ele>673</ele><time>2013-09-25T08:44:03Z</time></trkpt>
 <trkpt lat="47.763073700" lon="12.634582000"><ele>673</ele><time>2013-09-25T08:44:07Z</time></trkpt>
 <trkpt lat="47.763068300" lon="12.634526200"><ele>673</ele><time>2013-09-25T08:44:11Z</time></trkpt>
 <trkpt lat="47.763033700" lon="12.634493700"><ele>673</ele><time>2013-09-25T08:44:15Z</time></trkpt>
 <trkpt lat="47.763009100" lon="12.634460400"><ele>673</ele><time>2013-09-25T08:44:19Z</time></trkpt>
 <trkpt lat="47.762984500" lon="12.634400300"><ele>673</ele><time>2013-09-25T08:44:23Z</time></trkpt>
 <trkpt lat="47.762962400" lon="12.634344900"><ele>673</ele><time>2013-09-25T08:44:27Z</time></trkpt>
 <trkpt lat="47.762942400" lon="12.634278300"><ele>673</ele><time>2013-09-25T08:44:31Z</time></trkpt>
 <trkpt lat="47.762931600" lon="12.634192400"><ele>672</ele><time>2013-09-25T08:44:35Z</time></trkpt>
 <trkpt lat="47.762914100" lon="12.634107000"><ele>672</ele><time>2013-09-25T08:44:39Z</time></trkpt>
 <trkpt lat="47.762889900" lon="12.634031200"><ele>673</ele><time>2013-09-25T08:44:43Z</time></trkpt>
 <trkpt lat="47.762853300" lon="12.633993700"><ele>673</ele><time>2013-09-25T08:44:47Z</time></trkpt>
 <trkpt lat="47.762810300" lon="12.633984500"><ele>673</ele><time>2013-09-25T08:44:51Z</time></trkpt>
 <trkpt lat="47.762770800" lon="12.633972900"><ele>673</ele><time>2013-09-25T08:44:55Z</time></trkpt>
 <trkpt lat="47.762737400" lon="12.633940800"><ele>674</ele><time>2013-09-25T08:44:59Z</time></trkpt>
 <trkpt lat="47.762697400" lon="12.633908700"><ele>675</ele><time>2013-09-25T08:45:03Z</time></trkpt>
 <trkpt lat="47.762653700" lon="12.633884100"><ele>676</ele><time>2013-09-25T08:45:07Z</time></trkpt>
 <trkpt lat="47.762602800" lon="12.633860300"><ele>677</ele><time>2013-09-25T08:45:11Z</time></trkpt>
 <trkpt lat="47.762567800" lon="12.633822400"><ele>678</ele><time>2013-09-25T08:45:15Z</time></trkpt>
 <trkpt lat="47.762552400" lon="12.633766600"><ele>680</ele><time>2013-09-25T08:45:19Z</time></trkpt>
 <trkpt lat="47.762510800" lon="12.633734500"><ele>681</ele><time>2013-09-25T08:45:23Z</time></trkpt>
 <trkpt lat="47.762468300" lon="12.633708700"><ele>683</ele><time>2013-09-25T08:45:27Z</time></trkpt>
 <trkpt lat="47.762421200" lon="12.633686200"><ele>686</ele><time>2013-09-25T08:45:31Z</time></trkpt>
 <trkpt lat="47.762384500" lon="12.633651600"><ele>688</ele><time>2013-09-25T08:45:35Z</time></trkpt>
 <trkpt lat="47.762341600" lon="12.633599900"><ele>690</ele><time>2013-09-25T08:45:39Z</time></trkpt>
 <trkpt lat="47.762295800" lon="12.633550800"><ele>693</ele><time>2013-09-25T08:45:43Z</time></trkpt>
 <trkpt lat="47.762260300" lon="12.633494500"><ele>695</ele><time>2013-09-25T08:45:47Z</time></trkpt>
 <trkpt lat="47.762224500" lon="12.633436600"><ele>698</ele><time>2013-09-25T08:45:51Z</time></trkpt>
 <trkpt lat="47.762198300" lon="12.633384900"><ele>700</ele><time>2013-09-25T08:45:55Z</time></trkpt>
 <trkpt lat="47.762172800" lon="12.633334100"><ele>703</ele><time>2013-09-25T08:45:59Z</time></trkpt>
 <trkpt lat="47.762139100" lon="12.633284900"><ele>705</ele><time>2013-09-25T08:46:03Z</time></trkpt>
 <trkpt lat="47.762092000" lon="12.633255800"><ele>707</ele><time>2013-09-25T08:46:07Z</time></trkpt>
 <trkpt lat="47.762042000" lon="12.633238700"><ele>709</ele><time>2013-09-25T08:46:11Z</time></trkpt>
 <trkpt lat="47.762008300" lon="12.633207000"><ele>710</ele><time>2013-09-25T08:46:15Z</time></trkpt>
 <trkpt lat="47.761984500" lon="12.633179100"><ele>712</ele><time>2013-09-25T08:46:19Z</time></trkpt>
 <trkpt lat="47.761970300" lon="12.633168200"><ele>713</ele><time>2013-09-25T08:46:23Z</time></trkpt>
 <trkpt lat="47.761958700" lon="12.633153300"><ele>714</ele><time>2013-09-25T08:46:27Z</time></trkpt>
 <trkpt lat="47.761944500" lon="12.633143700"><ele>715</ele><time>2013-09-25T08:46:31Z</time></trkpt>
 <trkpt lat="47.761924100" lon="12.633116600"><ele>716</ele><time>2013-09-25T08:46:35Z</time></trkpt>
 <trkpt lat="47.761891600" lon="12.633065800"><ele>716</ele><time>2013-09-25T08:46:39Z</time></trkpt>
 <trkpt lat="47.761857800" lon="12.633015300"><ele>716</ele><time>2013-09-25T08:46:43Z</time></trkpt>
 <trkpt lat="47.761816600" lon="12.632976600"><ele>717</ele><time>2013-09-25T08:46:47Z</time></trkpt>
 <trkpt lat="47.761762000" lon="12.632960800"><ele>717</ele><time>2013-09-25T08:46:51Z</time></trkpt>
 <trkpt lat="47.761725800" lon="12.632935800"><ele>717</ele><time>2013-09-25T08:46:55Z</time></trkpt>
 <trkpt lat="47.761682400" lon="12.632901200"><ele>717</ele><time>2013-09-25T08:46:59Z</time></trkpt>
 <trkpt lat="47.761644500" lon="12.632854100"><ele>717</ele><time>2013-09-25T08:47:03Z</time></trkpt>
 <trkpt lat="47.761613700" lon="12.632812800"><ele>717</ele><time>2013-09-25T08:47:07Z</time></trkpt>
 <trkpt lat="47.761579500" lon="12.632774900"><ele>717</ele><time>2013-09-25T08:47:11Z</time></trkpt>
 <trkpt lat="47.761537400" lon="12.632730800"><ele>717</ele><time>2013-09-25T08:47:15Z</time></trkpt>
 <trkpt lat="47.761497400" lon="12.632688700"><ele>717</ele><time>2013-09-25T08:47:19Z</time></trkpt>
 <trkpt lat="47.761460300" lon="12.632663700"><ele>717</ele><time>2013-09-25T08:47:23Z</time></trkpt>
 <trkpt lat="47.761419100" lon="12.632631600"><ele>718</ele><time>2013-09-25T08:47:27Z</time></trkpt>
 <trkpt lat="47.761377000" lon="12.632590400"><ele>718</ele><time>2013-09-25T08:47:31Z</time></trkpt>
 <trkpt lat="47.761344100" lon="12.632540800"><ele>718</ele><time>2013-09-25T08:47:35Z</time></trkpt>
 <trkpt lat="47.761318700" lon="12.632495300"><ele>718</ele><time>2013-09-25T08:47:39Z</time></trkpt>
 <trkpt lat="47.761284500" lon="12.632442400"><ele>719</ele><time>2013-09-25T08:47:43Z</time></trkpt>
 <trkpt lat="47.761253700" lon="12.632402400"><ele>719</ele><time>2013-09-25T08:47:47Z</time></trkpt>
 <trkpt lat="47.761224500" lon="12.632360300"><ele>719</ele><time>2013-09-25T08:47:51Z</time></trkpt>
 <trkpt lat="47.761193700" lon="12.632309100"><ele>719</ele><time>2013-09-25T08:47:55Z</time></trkpt>
 <trkpt lat="47.761159100" lon="12.632283700"><ele>720</ele><time>2013-09-25T08:47:59Z</time></trkpt>
 <trkpt lat="47.761108300" lon="12.632255400"><ele>720</ele><time>2013-09-25T08:48:03Z</time></trkpt>
 <trkpt lat="47.761054900" lon="12.632229100"><ele>720</ele><time>2013-09-25T08:48:07Z</time></trkpt>
 <trkpt lat="47.761014100" lon="12.632206600"><ele>720</ele><time>2013-09-25T08:48:11Z</time></trkpt>
 <trkpt lat="47.760961600" lon="12.632183300"><ele>720</ele><time>2013-09-25T08:48:15Z</time></trkpt>
 <trkpt lat="47.760911600" lon="12.632146200"><ele>720</ele><time>2013-09-25T08:48:19Z</time></trkpt>
 <trkpt lat="47.760877000" lon="12.632120400"><ele>720</ele><time>2013-09-25T08:48:23Z</time></trkpt>
 <trkpt lat="47.760832400" lon="12.632102000"><ele>720</ele><time>2013-09-25T08:48:27Z</time></trkpt>
 <trkpt lat="47.760791600" lon="12.632069900"><ele>719</ele><time>2013-09-25T08:48:31Z</time></trkpt>
 <trkpt lat="47.760746200" lon="12.632051200"><ele>719</ele><time>2013-09-25T08:48:35Z</time></trkpt>
 <trkpt lat="47.760703300" lon="12.632038700"><ele>719</ele><time>2013-09-25T08:48:39Z</time></trkpt>
 <trkpt lat="47.760654500" lon="12.632022000"><ele>718</ele><time>2013-09-25T08:48:43Z</time></trkpt>
 <trkpt lat="47.760614500" lon="12.631998300"><ele>718</ele><time>2013-09-25T08:48:47Z</time></trkpt>
 <trkpt lat="47.760587000" lon="12.631985300"><ele>717</ele><time>2013-09-25T08:48:51Z</time></trkpt>
 <trkpt lat="47.760549900" lon="12.631975800"><ele>717</ele><time>2013-09-25T08:48:55Z</time></trkpt>
 <trkpt lat="47.760544100" lon="12.631974100"><ele>716</ele><time>2013-09-25T08:48:59Z</time></trkpt>
 <trkpt lat="47.760544100" lon="12.631974100"><ele>716</ele><time>2013-09-25T08:49:03Z</time></trkpt>
 <trkpt lat="47.760538300" lon="12.631969900"><ele>715</ele><time>2013-09-25T08:49:07Z</time></trkpt>
 <trkpt lat="47.760511600" lon="12.631952800"><ele>714</ele><time>2013-09-25T08:49:11Z</time></trkpt>
 <trkpt lat="47.760474500" lon="12.631935300"><ele>713</ele><time>2013-09-25T08:49:15Z</time></trkpt>
 <trkpt lat="47.760433300" lon="12.631913300"><ele>712</ele><time>2013-09-25T08:49:19Z</time></trkpt>
 <trkpt lat="47.760391600" lon="12.631872400"><ele>711</ele><time>2013-09-25T08:49:23Z</time></trkpt>
 <trkpt lat="47.760345300" lon="12.631842900"><ele>710</ele><time>2013-09-25T08:49:27Z</time></trkpt>
 <trkpt lat="47.760300800" lon="12.631814500"><ele>709</ele><time>2013-09-25T08:49:31Z</time></trkpt>
 <trkpt lat="47.760265300" lon="12.631778700"><ele>707</ele><time>2013-09-25T08:49:35Z</time></trkpt>
 <trkpt lat="47.760223300" lon="12.631739100"><ele>706</ele><time>2013-09-25T08:49:39Z</time></trkpt>
 <trkpt lat="47.760180400" lon="12.631702400"><ele>705</ele><time>2013-09-25T08:49:43Z</time></trkpt>
 <trkpt lat="47.760139100" lon="12.631667800"><ele>703</ele><time>2013-09-25T08:49:47Z</time></trkpt>
 <trkpt lat="47.760108300" lon="12.631616600"><ele>702</ele><time>2013-09-25T08:49:51Z</time></trkpt>
 <trkpt lat="47.760072400" lon="12.631562400"><ele>701</ele><time>2013-09-25T08:49:55Z</time></trkpt>
 <trkpt lat="47.760031600" lon="12.631516600"><ele>700</ele><time>2013-09-25T08:49:59Z</time></trkpt>
 <trkpt lat="47.760006200" lon="12.631464100"><ele>698</ele><time>2013-09-25T08:50:03Z</time></trkpt>
 <trkpt lat="47.759979100" lon="12.631407800"><ele>697</ele><time>2013-09-25T08:50:07Z</time></trkpt>
 <trkpt lat="47.759955800" lon="12.631354900"><ele>696</ele><time>2013-09-25T08:50:11Z</time></trkpt>
 <trkpt lat="47.759934500" lon="12.631348700"><ele>695</ele><time>2013-09-25T08:50:15Z</time></trkpt>
 <trkpt lat="47.759923700" lon="12.631356200"><ele>694</ele><time>2013-09-25T08:50:19Z</time></trkpt>
 <trkpt lat="47.759896600" lon="12.631328700"><ele>693</ele><time>2013-09-25T08:50:23Z</time></trkpt>
 <trkpt lat="47.759877400" lon="12.631266200"><ele>693</ele><time>2013-09-25T08:50:27Z</time></trkpt>
 <trkpt lat="47.759861200" lon="12.631204900"><ele>692</ele><time>2013-09-25T08:50:31Z</time></trkpt>
 <trkpt lat="47.759848700" lon="12.631134900"><ele>691</ele><time>2013-09-25T08:50:35Z</time></trkpt>
 <trkpt lat="47.759840400" lon="12.631060300"><ele>691</ele><time>2013-09-25T08:50:39Z</time></trkpt>
 <trkpt lat="47.759844900" lon="12.630975800"><ele>690</ele><time>2013-09-25T08:50:43Z</time></trkpt>
 <trkpt lat="47.759830800" lon="12.630907400"><ele>690</ele><time>2013-09-25T08:50:47Z</time></trkpt>
 <trkpt lat="47.759816600" lon="12.630840300"><ele>689</ele><time>2013-09-25T08:50:51Z</time></trkpt>
 <trkpt lat="47.759800800" lon="12.630779100"><ele>689</ele><time>2013-09-25T08:50:55Z</time></trkpt>
 <trkpt lat="47.759780400" lon="12.630716600"><ele>689</ele><time>2013-09-25T08:50:59Z</time></trkpt>
 <trkpt lat="47.759758300" lon="12.630652400"><ele>689</ele><time>2013-09-25T08:51:03Z</time></trkpt>
 <trkpt lat="47.759741600" lon="12.630586600"><ele>689</ele><time>2013-09-25T08:51:07Z</time></trkpt>
 <trkpt lat="47.759726600" lon="12.630520800"><ele>688</ele><time>2013-09-25T08:51:11Z</time></trkpt>
 <trkpt lat="47.759707000" lon="12.630453700"><ele>688</ele><time>2013-09-25T08:51:15Z</time></trkpt>
 <trkpt lat="47.759681600" lon="12.630392400"><ele>688</ele><time>2013-09-25T08:51:19Z</time></trkpt>
 <trkpt lat="47.759659900" lon="12.630331600"><ele>688</ele><time>2013-09-25T08:51:23Z</time></trkpt>
 <trkpt lat="47.759645700" lon="12.630295300"><ele>688</ele><time>2013-09-25T08:51:27Z</time></trkpt>
 <trkpt lat="47.759641200" lon="12.630288300"><ele>688</ele><time>2013-09-25T08:51:31Z</time></trkpt>
 <trkpt lat="47.759635800" lon="12.630290000"><ele>688</ele><time>2013-09-25T08:51:35Z</time></trkpt>
 <trkpt lat="47.759632800" lon="12.630268700"><ele>688</ele><time>2013-09-25T08:51:39Z</time></trkpt>
 <trkpt lat="47.759632800" lon="12.630222000"><ele>689</ele><time>2013-09-25T08:51:43Z</time></trkpt>
 <trkpt lat="47.759625400" lon="12.630169500"><ele>689</ele><time>2013-09-25T08:51:47Z</time></trkpt>
 <trkpt lat="47.759600000" lon="12.630109100"><ele>689</ele><time>2013-09-25T08:51:51Z</time></trkpt>
 <trkpt lat="47.759561200" lon="12.630054900"><ele>689</ele><time>2013-09-25T08:51:55Z</time></trkpt>
 <trkpt lat="47.759525800" lon="12.630007000"><ele>689</ele><time>2013-09-25T08:51:59Z</time></trkpt>
 <trkpt lat="47.759494500" lon="12.629956200"><ele>688</ele><time>2013-09-25T08:52:03Z</time></trkpt>
 <trkpt lat="47.759458300" lon="12.629937900"><ele>688</ele><time>2013-09-25T08:52:07Z</time></trkpt>
 <trkpt lat="47.759417800" lon="12.629929900"><ele>688</ele><time>2013-09-25T08:52:11Z</time></trkpt>
 <trkpt lat="47.759379900" lon="12.629938700"><ele>688</ele><time>2013-09-25T08:52:15Z</time></trkpt>
 <trkpt lat="47.759347000" lon="12.629965700"><ele>688</ele><time>2013-09-25T08:52:19Z</time></trkpt>
 <trkpt lat="47.759310400" lon="12.629992000"><ele>688</ele><time>2013-09-25T08:52:23Z</time></trkpt>
 <trkpt lat="47.759273700" lon="12.630017000"><ele>689</ele><time>2013-09-25T08:52:27Z</time></trkpt>
 <trkpt lat="47.759227000" lon="12.630042000"><ele>689</ele><time>2013-09-25T08:52:31Z</time></trkpt>
 <trkpt lat="47.759172000" lon="12.630077400"><ele>689</ele><time>2013-09-25T08:52:35Z</time></trkpt>
 <trkpt lat="47.759141200" lon="12.630117000"><ele>689</ele><time>2013-09-25T08:52:39Z</time></trkpt>
 <trkpt lat="47.759101600" lon="12.630161200"><ele>690</ele><time>2013-09-25T08:52:43Z</time></trkpt>
 <trkpt lat="47.759049500" lon="12.630201200"><ele>690</ele><time>2013-09-25T08:52:47Z</time></trkpt>
 <trkpt lat="47.759013300" lon="12.630243700"><ele>691</ele><time>2013-09-25T08:52:51Z</time></trkpt>
 <trkpt lat="47.758980700" lon="12.630262900"><ele>691</ele><time>2013-09-25T08:52:55Z</time></trkpt>
 <trkpt lat="47.758942000" lon="12.630266200"><ele>691</ele><time>2013-09-25T08:52:59Z</time></trkpt>
 <trkpt lat="47.758914500" lon="12.630264500"><ele>692</ele><time>2013-09-25T08:53:03Z</time></trkpt>
 <trkpt lat="47.758890300" lon="12.630241200"><ele>692</ele><time>2013-09-25T08:53:07Z</time></trkpt>
 <trkpt lat="47.758882800" lon="12.630224500"><ele>693</ele><time>2013-09-25T08:53:11Z</time></trkpt>
 <trkpt lat="47.758882800" lon="12.630224500"><ele>693</ele><time>2013-09-25T08:53:15Z</time></trkpt>
 <trkpt lat="47.758889100" lon="12.630225800"><ele>694</ele><time>2013-09-25T08:53:19Z</time></trkpt>
 <trkpt lat="47.758889100" lon="12.630225800"><ele>694</ele><time>2013-09-25T08:53:23Z</time></trkpt>
 <trkpt lat="47.758889100" lon="12.630225800"><ele>694</ele><time>2013-09-25T08:53:27Z</time></trkpt>
 <trkpt lat="47.758889100" lon="12.630225800"><ele>694</ele><time>2013-09-25T08:53:31Z</time></trkpt>
 <trkpt lat="47.758889100" lon="12.630225800"><ele>694</ele><time>2013-09-25T08:53:35Z</time></trkpt>
 <trkpt lat="47.758883700" lon="12.630227400"><ele>694</ele><time>2013-09-25T08:53:39Z</time></trkpt>
 <trkpt lat="47.758862400" lon="12.630242400"><ele>694</ele><time>2013-09-25T08:53:43Z</time></trkpt>
 <trkpt lat="47.758826200" lon="12.630266200"><ele>693</ele><time>2013-09-25T08:53:47Z</time></trkpt>
 <trkpt lat="47.758780800" lon="12.630294900"><ele>693</ele><time>2013-09-25T08:53:51Z</time></trkpt>
 <trkpt lat="47.758739900" lon="12.630327400"><ele>693</ele><time>2013-09-25T08:53:55Z</time></trkpt>
 <trkpt lat="47.758691200" lon="12.630362400"><ele>692</ele><time>2013-09-25T08:53:59Z</time></trkpt>
 <trkpt lat="47.758641200" lon="12.630360400"><ele>692</ele><time>2013-09-25T08:54:03Z</time></trkpt>
 <trkpt lat="47.758596200" lon="12.630347000"><ele>692</ele><time>2013-09-25T08:54:07Z</time></trkpt>
 <trkpt lat="47.758546600" lon="12.630329100"><ele>691</ele><time>2013-09-25T08:54:11Z</time></trkpt>
 <trkpt lat="47.758502400" lon="12.630317800"><ele>691</ele><time>2013-09-25T08:54:15Z</time></trkpt>
 <trkpt lat="47.758462000" lon="12.630288300"><ele>690</ele><time>2013-09-25T08:54:19Z</time></trkpt>
 <trkpt lat="47.758422400" lon="12.630269500"><ele>690</ele><time>2013-09-25T08:54:23Z</time></trkpt>
 <trkpt lat="47.758385800" lon="12.630254500"><ele>689</ele><time>2013-09-25T08:54:27Z</time></trkpt>
 <trkpt lat="47.758347000" lon="12.630236600"><ele>689</ele><time>2013-09-25T08:54:31Z</time></trkpt>
 <trkpt lat="47.758309900" lon="12.630218300"><ele>688</ele><time>2013-09-25T08:54:35Z</time></trkpt>
 <trkpt lat="47.758272400" lon="12.630194900"><ele>688</ele><time>2013-09-25T08:54:39Z</time></trkpt>
 <trkpt lat="47.758227000" lon="12.630169500"><ele>687</ele><time>2013-09-25T08:54:43Z</time></trkpt>
 <trkpt lat="47.758183700" lon="12.630144100"><ele>687</ele><time>2013-09-25T08:54:47Z</time></trkpt>
 <trkpt lat="47.758145800" lon="12.630132000"><ele>687</ele><time>2013-09-25T08:54:51Z</time></trkpt>
 <trkpt lat="47.758099100" lon="12.630113700"><ele>687</ele><time>2013-09-25T08:54:55Z</time></trkpt>
 <trkpt lat="47.758048300" lon="12.630090800"><ele>686</ele><time>2013-09-25T08:54:59Z</time></trkpt>
 <trkpt lat="47.758010800" lon="12.630061600"><ele>686</ele><time>2013-09-25T08:55:03Z</time></trkpt>
 <trkpt lat="47.757973300" lon="12.630039900"><ele>687</ele><time>2013-09-25T08:55:07Z</time></trkpt>
 <trkpt lat="47.757940800" lon="12.630020800"><ele>687</ele><time>2013-09-25T08:55:11Z</time></trkpt>
 <trkpt lat="47.757906200" lon="12.629992900"><ele>687</ele><time>2013-09-25T08:55:15Z</time></trkpt>
 <trkpt lat="47.757875300" lon="12.629967000"><ele>687</ele><time>2013-09-25T08:55:19Z</time></trkpt>
 <trkpt lat="47.757843300" lon="12.629972000"><ele>687</ele><time>2013-09-25T08:55:23Z</time></trkpt>
 <trkpt lat="47.757814500" lon="12.629962400"><ele>688</ele><time>2013-09-25T08:55:27Z</time></trkpt>
 <trkpt lat="47.757788300" lon="12.629943700"><ele>688</ele><time>2013-09-25T08:55:31Z</time></trkpt>
 <trkpt lat="47.757760800" lon="12.629918300"><ele>688</ele><time>2013-09-25T08:55:35Z</time></trkpt>
 <trkpt lat="47.757723700" lon="12.629894100"><ele>689</ele><time>2013-09-25T08:55:39Z</time></trkpt>
 <trkpt lat="47.757689100" lon="12.629867400"><ele>689</ele><time>2013-09-25T08:55:43Z</time></trkpt>
 <trkpt lat="47.757657000" lon="12.629844500"><ele>690</ele><time>2013-09-25T08:55:47Z</time></trkpt>
 <trkpt lat="47.757624900" lon="12.629813300"><ele>691</ele><time>2013-09-25T08:55:51Z</time></trkpt>
 <trkpt lat="47.757592400" lon="12.629783300"><ele>691</ele><time>2013-09-25T08:55:55Z</time></trkpt>
 <trkpt lat="47.757559900" lon="12.629753300"><ele>692</ele><time>2013-09-25T08:55:59Z</time></trkpt>
 <trkpt lat="47.757528700" lon="12.629722400"><ele>692</ele><time>2013-09-25T08:56:03Z</time></trkpt>
 <trkpt lat="47.757500400" lon="12.629684900"><ele>693</ele><time>2013-09-25T08:56:07Z</time></trkpt>
 <trkpt lat="47.757469100" lon="12.629641600"><ele>693</ele><time>2013-09-25T08:56:11Z</time></trkpt>
 <trkpt lat="47.757436600" lon="12.629599100"><ele>693</ele><time>2013-09-25T08:56:15Z</time></trkpt>
 <trkpt lat="47.757406600" lon="12.629561200"><ele>694</ele><time>2013-09-25T08:56:19Z</time></trkpt>
 <trkpt lat="47.757382000" lon="12.629525700"><ele>694</ele><time>2013-09-25T08:56:23Z</time></trkpt>
 <trkpt lat="47.757355300" lon="12.629489900"><ele>695</ele><time>2013-09-25T08:56:27Z</time></trkpt>
 <trkpt lat="47.757348300" lon="12.629471600"><ele>695</ele><time>2013-09-25T08:56:31Z</time></trkpt>
 <trkpt lat="47.757352900" lon="12.629453300"><ele>696</ele><time>2013-09-25T08:56:35Z</time></trkpt>
 <trkpt lat="47.757324100" lon="12.629419900"><ele>696</ele><time>2013-09-25T08:56:39Z</time></trkpt>
 <trkpt lat="47.757291600" lon="12.629382900"><ele>697</ele><time>2013-09-25T08:56:43Z</time></trkpt>
 <trkpt lat="47.757257800" lon="12.629340300"><ele>697</ele><time>2013-09-25T08:56:47Z</time></trkpt>
 <trkpt lat="47.757221600" lon="12.629303700"><ele>698</ele><time>2013-09-25T08:56:51Z</time></trkpt>
 <trkpt lat="47.757190800" lon="12.629277400"><ele>698</ele><time>2013-09-25T08:56:55Z</time></trkpt>
 <trkpt lat="47.757162400" lon="12.629238700"><ele>699</ele><time>2013-09-25T08:56:59Z</time></trkpt>
 <trkpt lat="47.757133300" lon="12.629194500"><ele>700</ele><time>2013-09-25T08:57:03Z</time></trkpt>
 <trkpt lat="47.757104500" lon="12.629139500"><ele>701</ele><time>2013-09-25T08:57:07Z</time></trkpt>
 <trkpt lat="47.757078200" lon="12.629076600"><ele>702</ele><time>2013-09-25T08:57:11Z</time></trkpt>
 <trkpt lat="47.757043300" lon="12.629018200"><ele>703</ele><time>2013-09-25T08:57:15Z</time></trkpt>
 <trkpt lat="47.757015800" lon="12.628969900"><ele>704</ele><time>2013-09-25T08:57:19Z</time></trkpt>
 <trkpt lat="47.756995800" lon="12.628919900"><ele>706</ele><time>2013-09-25T08:57:23Z</time></trkpt>
 <trkpt lat="47.756968700" lon="12.628878300"><ele>707</ele><time>2013-09-25T08:57:27Z</time></trkpt>
 <trkpt lat="47.756934900" lon="12.628834500"><ele>708</ele><time>2013-09-25T08:57:31Z</time></trkpt>
 <trkpt lat="47.756910800" lon="12.628795800"><ele>710</ele><time>2013-09-25T08:57:35Z</time></trkpt>
 <trkpt lat="47.756879500" lon="12.628764500"><ele>711</ele><time>2013-09-25T08:57:39Z</time></trkpt>
 <trkpt lat="47.756843700" lon="12.628734900"><ele>713</ele><time>2013-09-25T08:57:43Z</time></trkpt>
 <trkpt lat="47.756807800" lon="12.628705800"><ele>715</ele><time>2013-09-25T08:57:47Z</time></trkpt>
 <trkpt lat="47.756772800" lon="12.628673300"><ele>716</ele><time>2013-09-25T08:57:51Z</time></trkpt>
 <trkpt lat="47.756745800" lon="12.628634500"><ele>718</ele><time>2013-09-25T08:57:55Z</time></trkpt>
 <trkpt lat="47.756721200" lon="12.628607000"><ele>719</ele><time>2013-09-25T08:57:59Z</time></trkpt>
 <trkpt lat="47.756696600" lon="12.628586600"><ele>721</ele><time>2013-09-25T08:58:03Z</time></trkpt>
 <trkpt lat="47.756665400" lon="12.628563700"><ele>722</ele><time>2013-09-25T08:58:07Z</time></trkpt>
 <trkpt lat="47.756630800" lon="12.628536600"><ele>724</ele><time>2013-09-25T08:58:11Z</time></trkpt>
 <trkpt lat="47.756594500" lon="12.628506200"><ele>725</ele><time>2013-09-25T08:58:15Z</time></trkpt>
 <trkpt lat="47.756542400" lon="12.628480300"><ele>726</ele><time>2013-09-25T08:58:19Z</time></trkpt>
 <trkpt lat="47.756485300" lon="12.628449900"><ele>727</ele><time>2013-09-25T08:58:23Z</time></trkpt>
 <trkpt lat="47.756450800" lon="12.628431600"><ele>728</ele><time>2013-09-25T08:58:27Z</time></trkpt>
 <trkpt lat="47.756434100" lon="12.628413300"><ele>729</ele><time>2013-09-25T08:58:31Z</time></trkpt>
 <trkpt lat="47.756413700" lon="12.628398700"><ele>730</ele><time>2013-09-25T08:58:35Z</time></trkpt>
 <trkpt lat="47.756374500" lon="12.628379500"><ele>730</ele><time>2013-09-25T08:58:39Z</time></trkpt>
 <trkpt lat="47.756329900" lon="12.628352000"><ele>731</ele><time>2013-09-25T08:58:43Z</time></trkpt>
 <trkpt lat="47.756293200" lon="12.628340800"><ele>731</ele><time>2013-09-25T08:58:47Z</time></trkpt>
 <trkpt lat="47.756287800" lon="12.628341200"><ele>732</ele><time>2013-09-25T08:58:51Z</time></trkpt>
 <trkpt lat="47.756271600" lon="12.628326200"><ele>732</ele><time>2013-09-25T08:58:55Z</time></trkpt>
 <trkpt lat="47.756232800" lon="12.628311200"><ele>732</ele><time>2013-09-25T08:58:59Z</time></trkpt>
 <trkpt lat="47.756193200" lon="12.628291200"><ele>732</ele><time>2013-09-25T08:59:03Z</time></trkpt>
 <trkpt lat="47.756150300" lon="12.628274900"><ele>733</ele><time>2013-09-25T08:59:07Z</time></trkpt>
 <trkpt lat="47.756112000" lon="12.628254500"><ele>733</ele><time>2013-09-25T08:59:11Z</time></trkpt>
 <trkpt lat="47.756072000" lon="12.628234100"><ele>733</ele><time>2013-09-25T08:59:15Z</time></trkpt>
 <trkpt lat="47.756047000" lon="12.628199900"><ele>732</ele><time>2013-09-25T08:59:19Z</time></trkpt>
 <trkpt lat="47.756028300" lon="12.628151200"><ele>732</ele><time>2013-09-25T08:59:23Z</time></trkpt>
 <trkpt lat="47.756034500" lon="12.628110700"><ele>732</ele><time>2013-09-25T08:59:27Z</time></trkpt>
 <trkpt lat="47.756034500" lon="12.628074500"><ele>732</ele><time>2013-09-25T08:59:31Z</time></trkpt>
 <trkpt lat="47.756032000" lon="12.628066600"><ele>732</ele><time>2013-09-25T08:59:35Z</time></trkpt>
 <trkpt lat="47.756036200" lon="12.628060800"><ele>732</ele><time>2013-09-25T08:59:39Z</time></trkpt>
 <trkpt lat="47.756039100" lon="12.628052800"><ele>732</ele><time>2013-09-25T08:59:43Z</time></trkpt>
 <trkpt lat="47.756039100" lon="12.628052800"><ele>732</ele><time>2013-09-25T08:59:47Z</time></trkpt>
 <trkpt lat="47.756044900" lon="12.628051200"><ele>732</ele><time>2013-09-25T08:59:51Z</time></trkpt>
 <trkpt lat="47.756044900" lon="12.628051200"><ele>732</ele><time>2013-09-25T08:59:55Z</time></trkpt>
 <trkpt lat="47.756044900" lon="12.628059900"><ele>732</ele><time>2013-09-25T08:59:59Z</time></trkpt>
 <trkpt lat="47.756038700" lon="12.628077000"><ele>732</ele><time>2013-09-25T09:00:03Z</time></trkpt>
 <trkpt lat="47.756039900" lon="12.628086600"><ele>731</ele><time>2013-09-25T09:00:07Z</time></trkpt>
 <trkpt lat="47.756036200" lon="12.628092800"><ele>731</ele><time>2013-09-25T09:00:11Z</time></trkpt>
 <trkpt lat="47.756036200" lon="12.628092800"><ele>731</ele><time>2013-09-25T09:00:15Z</time></trkpt>
 <trkpt lat="47.756036200" lon="12.628092800"><ele>731</ele><time>2013-09-25T09:00:19Z</time></trkpt>
 <trkpt lat="47.756024500" lon="12.628105800"><ele>731</ele><time>2013-09-25T09:00:23Z</time></trkpt>
 <trkpt lat="47.756018300" lon="12.628110300"><ele>731</ele><time>2013-09-25T09:00:27Z</time></trkpt>
 <trkpt lat="47.756018300" lon="12.628110300"><ele>731</ele><time>2013-09-25T09:00:31Z</time></trkpt>
 <trkpt lat="47.756006600" lon="12.628113700"><ele>731</ele><time>2013-09-25T09:00:35Z</time></trkpt>
 <trkpt lat="47.756006600" lon="12.628113700"><ele>731</ele><time>2013-09-25T09:00:39Z</time></trkpt>
 <trkpt lat="47.756006600" lon="12.628113700"><ele>731</ele><time>2013-09-25T09:00:43Z</time></trkpt>
 <trkpt lat="47.756006600" lon="12.628113700"><ele>731</ele><time>2013-09-25T09:00:47Z</time></trkpt>
 <trkpt lat="47.756006600" lon="12.628113700"><ele>731</ele><time>2013-09-25T09:00:51Z</time></trkpt>
 <trkpt lat="47.756012400" lon="12.628114900"><ele>731</ele><time>2013-09-25T09:00:55Z</time></trkpt>
 <trkpt lat="47.756012400" lon="12.628114900"><ele>731</ele><time>2013-09-25T09:00:59Z</time></trkpt>
 <trkpt lat="47.756019500" lon="12.628117800"><ele>731</ele><time>2013-09-25T09:01:03Z</time></trkpt>
 <trkpt lat="47.756019500" lon="12.628117800"><ele>731</ele><time>2013-09-25T09:01:07Z</time></trkpt>
 <trkpt lat="47.756023300" lon="12.628124500"><ele>731</ele><time>2013-09-25T09:01:11Z</time></trkpt>
 <trkpt lat="47.756023300" lon="12.628124500"><ele>731</ele><time>2013-09-25T09:01:15Z</time></trkpt>
 <trkpt lat="47.756023300" lon="12.628124500"><ele>731</ele><time>2013-09-25T09:01:19Z</time></trkpt>
 <trkpt lat="47.756023300" lon="12.628124500"><ele>731</ele><time>2013-09-25T09:01:23Z</time></trkpt>
 <trkpt lat="47.756023300" lon="12.628124500"><ele>731</ele><time>2013-09-25T09:01:27Z</time></trkpt>
 <trkpt lat="47.756028700" lon="12.628124100"><ele>731</ele><time>2013-09-25T09:01:31Z</time></trkpt>
 <trkpt lat="47.756033700" lon="12.628119900"><ele>731</ele><time>2013-09-25T09:01:35Z</time></trkpt>
 <trkpt lat="47.756033700" lon="12.628119900"><ele>731</ele><time>2013-09-25T09:01:39Z</time></trkpt>
 <trkpt lat="47.756039500" lon="12.628120800"><ele>731</ele><time>2013-09-25T09:01:43Z</time></trkpt>
 <trkpt lat="47.756039500" lon="12.628120800"><ele>731</ele><time>2013-09-25T09:01:47Z</time></trkpt>
 <trkpt lat="47.756039500" lon="12.628120800"><ele>731</ele><time>2013-09-25T09:01:51Z</time></trkpt>
 <trkpt lat="47.756015800" lon="12.628125300"><ele>731</ele><time>2013-09-25T09:01:55Z</time></trkpt>
 <trkpt lat="47.755985300" lon="12.628089100"><ele>731</ele><time>2013-09-25T09:01:59Z</time></trkpt>
 <trkpt lat="47.755964900" lon="12.628041600"><ele>731</ele><time>2013-09-25T09:02:03Z</time></trkpt>
 <trkpt lat="47.755950800" lon="12.627981600"><ele>732</ele><time>2013-09-25T09:02:07Z</time></trkpt>
 <trkpt lat="47.755944900" lon="12.627922400"><ele>732</ele><time>2013-09-25T09:02:11Z</time></trkpt>
 <trkpt lat="47.755958200" lon="12.627867900"><ele>732</ele><time>2013-09-25T09:02:15Z</time></trkpt>
 <trkpt lat="47.755979900" lon="12.627822400"><ele>733</ele><time>2013-09-25T09:02:19Z</time></trkpt>
 <trkpt lat="47.756019100" lon="12.627790300"><ele>734</ele><time>2013-09-25T09:02:23Z</time></trkpt>
 <trkpt lat="47.756058200" lon="12.627759100"><ele>734</ele><time>2013-09-25T09:02:27Z</time></trkpt>
 <trkpt lat="47.756098300" lon="12.627730800"><ele>735</ele><time>2013-09-25T09:02:31Z</time></trkpt>
 <trkpt lat="47.756144500" lon="12.627702000"><ele>736</ele><time>2013-09-25T09:02:35Z</time></trkpt>
 <trkpt lat="47.756195800" lon="12.627677000"><ele>737</ele><time>2013-09-25T09:02:39Z</time></trkpt>
 <trkpt lat="47.756248700" lon="12.627648300"><ele>737</ele><time>2013-09-25T09:02:43Z</time></trkpt>
 <trkpt lat="47.756287900" lon="12.627625300"><ele>738</ele><time>2013-09-25T09:02:47Z</time></trkpt>
 <trkpt lat="47.756319500" lon="12.627613300"><ele>739</ele><time>2013-09-25T09:02:51Z</time></trkpt>
 <trkpt lat="47.756328300" lon="12.627575400"><ele>740</ele><time>2013-09-25T09:02:55Z</time></trkpt>
 <trkpt lat="47.756370800" lon="12.627552000"><ele>741</ele><time>2013-09-25T09:02:59Z</time></trkpt>
 <trkpt lat="47.756422000" lon="12.627538300"><ele>742</ele><time>2013-09-25T09:03:03Z</time></trkpt>
 <trkpt lat="47.756464900" lon="12.627522400"><ele>743</ele><time>2013-09-25T09:03:07Z</time></trkpt>
 <trkpt lat="47.756499900" lon="12.627498200"><ele>743</ele><time>2013-09-25T09:03:11Z</time></trkpt>
 <trkpt lat="47.756524900" lon="12.627474100"><ele>744</ele><time>2013-09-25T09:03:15Z</time></trkpt>
 <trkpt lat="47.756537400" lon="12.627464900"><ele>744</ele><time>2013-09-25T09:03:19Z</time></trkpt>
 <trkpt lat="47.756537400" lon="12.627464900"><ele>744</ele><time>2013-09-25T09:03:23Z</time></trkpt>
 <trkpt lat="47.756536600" lon="12.627472900"><ele>745</ele><time>2013-09-25T09:03:27Z</time></trkpt>
 <trkpt lat="47.756536600" lon="12.627472900"><ele>745</ele><time>2013-09-25T09:03:31Z</time></trkpt>
 <trkpt lat="47.756536600" lon="12.627472900"><ele>745</ele><time>2013-09-25T09:03:35Z</time></trkpt>
 <trkpt lat="47.756551600" lon="12.627457400"><ele>745</ele><time>2013-09-25T09:03:39Z</time></trkpt>
 <trkpt lat="47.756581200" lon="12.627424500"><ele>745</ele><time>2013-09-25T09:03:43Z</time></trkpt>
 <trkpt lat="47.756623700" lon="12.627378300"><ele>745</ele><time>2013-09-25T09:03:47Z</time></trkpt>
 <trkpt lat="47.756674100" lon="12.627342400"><ele>745</ele><time>2013-09-25T09:03:51Z</time></trkpt>
 <trkpt lat="47.756703300" lon="12.627315800"><ele>745</ele><time>2013-09-25T09:03:55Z</time></trkpt>
 <trkpt lat="47.756741200" lon="12.627290400"><ele>745</ele><time>2013-09-25T09:03:59Z</time></trkpt>
 <trkpt lat="47.756775300" lon="12.627263700"><ele>745</ele><time>2013-09-25T09:04:03Z</time></trkpt>
 <trkpt lat="47.756802900" lon="12.627229900"><ele>745</ele><time>2013-09-25T09:04:07Z</time></trkpt>
 <trkpt lat="47.756834500" lon="12.627200300"><ele>745</ele><time>2013-09-25T09:04:11Z</time></trkpt>
 <trkpt lat="47.756870400" lon="12.627173700"><ele>745</ele><time>2013-09-25T09:04:15Z</time></trkpt>
 <trkpt lat="47.756917000" lon="12.627146600"><ele>745</ele><time>2013-09-25T09:04:19Z</time></trkpt>
 <trkpt lat="47.756966600" lon="12.627124900"><ele>744</ele><time>2013-09-25T09:04:23Z</time></trkpt>
 <trkpt lat="47.757006600" lon="12.627097800"><ele>744</ele><time>2013-09-25T09:04:27Z</time></trkpt>
 <trkpt lat="47.757037500" lon="12.627056600"><ele>744</ele><time>2013-09-25T09:04:31Z</time></trkpt>
 <trkpt lat="47.757071200" lon="12.627017900"><ele>743</ele><time>2013-09-25T09:04:35Z</time></trkpt>
 <trkpt lat="47.757102800" lon="12.626982400"><ele>743</ele><time>2013-09-25T09:04:39Z</time></trkpt>
 <trkpt lat="47.757143700" lon="12.626948200"><ele>743</ele><time>2013-09-25T09:04:43Z</time></trkpt>
 <trkpt lat="47.757180800" lon="12.626907900"><ele>742</ele><time>2013-09-25T09:04:47Z</time></trkpt>
 <trkpt lat="47.757221600" lon="12.626860700"><ele>742</ele><time>2013-09-25T09:04:51Z</time></trkpt>
 <trkpt lat="47.757253300" lon="12.626812000"><ele>742</ele><time>2013-09-25T09:04:55Z</time></trkpt>
 <trkpt lat="47.757272000" lon="12.626763700"><ele>741</ele><time>2013-09-25T09:04:59Z</time></trkpt>
 <trkpt lat="47.757292000" lon="12.626714500"><ele>741</ele><time>2013-09-25T09:05:03Z</time></trkpt>
 <trkpt lat="47.757312800" lon="12.626662000"><ele>741</ele><time>2013-09-25T09:05:07Z</time></trkpt>
 <trkpt lat="47.757322000" lon="12.626596600"><ele>741</ele><time>2013-09-25T09:05:11Z</time></trkpt>
 <trkpt lat="47.757329900" lon="12.626529100"><ele>741</ele><time>2013-09-25T09:05:15Z</time></trkpt>
 <trkpt lat="47.757328300" lon="12.626465800"><ele>741</ele><time>2013-09-25T09:05:19Z</time></trkpt>
 <trkpt lat="47.757316600" lon="12.626437000"><ele>741</ele><time>2013-09-25T09:05:23Z</time></trkpt>
 <trkpt lat="47.757306600" lon="12.626407000"><ele>741</ele><time>2013-09-25T09:05:27Z</time></trkpt>
 <trkpt lat="47.757303300" lon="12.626399500"><ele>742</ele><time>2013-09-25T09:05:31Z</time></trkpt>
 <trkpt lat="47.757290400" lon="12.626346600"><ele>743</ele><time>2013-09-25T09:05:35Z</time></trkpt>
 <trkpt lat="47.757276200" lon="12.626286600"><ele>743</ele><time>2013-09-25T09:05:39Z</time></trkpt>
 <trkpt lat="47.757248700" lon="12.626242000"><ele>744</ele><time>2013-09-25T09:05:43Z</time></trkpt>
 <trkpt lat="47.757218700" lon="12.626199100"><ele>745</ele><time>2013-09-25T09:05:47Z</time></trkpt>
 <trkpt lat="47.757187900" lon="12.626154500"><ele>746</ele><time>2013-09-25T09:05:51Z</time></trkpt>
 <trkpt lat="47.757159100" lon="12.626114900"><ele>746</ele><time>2013-09-25T09:05:55Z</time></trkpt>
 <trkpt lat="47.757131200" lon="12.626094900"><ele>747</ele><time>2013-09-25T09:05:59Z</time></trkpt>
 <trkpt lat="47.757101200" lon="12.626070300"><ele>748</ele><time>2013-09-25T09:06:03Z</time></trkpt>
 <trkpt lat="47.757067400" lon="12.626048700"><ele>749</ele><time>2013-09-25T09:06:07Z</time></trkpt>
 <trkpt lat="47.757025800" lon="12.626028700"><ele>750</ele><time>2013-09-25T09:06:11Z</time></trkpt>
 <trkpt lat="47.756987000" lon="12.626003700"><ele>751</ele><time>2013-09-25T09:06:15Z</time></trkpt>
 <trkpt lat="47.756954900" lon="12.625994900"><ele>751</ele><time>2013-09-25T09:06:19Z</time></trkpt>
 <trkpt lat="47.756925700" lon="12.625991200"><ele>752</ele><time>2013-09-25T09:06:23Z</time></trkpt>
 <trkpt lat="47.756887800" lon="12.625980800"><ele>753</ele><time>2013-09-25T09:06:27Z</time></trkpt>
 <trkpt lat="47.756851600" lon="12.625964900"><ele>753</ele><time>2013-09-25T09:06:31Z</time></trkpt>
 <trkpt lat="47.756814900" lon="12.625948300"><ele>754</ele><time>2013-09-25T09:06:35Z</time></trkpt>
 <trkpt lat="47.756776200" lon="12.625937400"><ele>754</ele><time>2013-09-25T09:06:39Z</time></trkpt>
 <trkpt lat="47.756733300" lon="12.625919100"><ele>754</ele><time>2013-09-25T09:06:43Z</time></trkpt>
 <trkpt lat="47.756678300" lon="12.625914500"><ele>755</ele><time>2013-09-25T09:06:47Z</time></trkpt>
 <trkpt lat="47.756632500" lon="12.625891600"><ele>755</ele><time>2013-09-25T09:06:51Z</time></trkpt>
 <trkpt lat="47.756605000" lon="12.625883700"><ele>755</ele><time>2013-09-25T09:06:55Z</time></trkpt>
 <trkpt lat="47.756600000" lon="12.625892800"><ele>755</ele><time>2013-09-25T09:06:59Z</time></trkpt>
 <trkpt lat="47.756603700" lon="12.625872900"><ele>755</ele><time>2013-09-25T09:07:03Z</time></trkpt>
 <trkpt lat="47.756560300" lon="12.625867400"><ele>755</ele><time>2013-09-25T09:07:07Z</time></trkpt>
 <trkpt lat="47.756522400" lon="12.625871600"><ele>755</ele><time>2013-09-25T09:07:11Z</time></trkpt>
 <trkpt lat="47.756482800" lon="12.625867900"><ele>755</ele><time>2013-09-25T09:07:15Z</time></trkpt>
 <trkpt lat="47.756447000" lon="12.625859500"><ele>755</ele><time>2013-09-25T09:07:19Z</time></trkpt>
 <trkpt lat="47.756403700" lon="12.625842400"><ele>755</ele><time>2013-09-25T09:07:23Z</time></trkpt>
 <trkpt lat="47.756357400" lon="12.625828700"><ele>754</ele><time>2013-09-25T09:07:27Z</time></trkpt>
 <trkpt lat="47.756313300" lon="12.625813300"><ele>754</ele><time>2013-09-25T09:07:31Z</time></trkpt>
 <trkpt lat="47.756271200" lon="12.625791200"><ele>754</ele><time>2013-09-25T09:07:35Z</time></trkpt>
 <trkpt lat="47.756229500" lon="12.625770800"><ele>754</ele><time>2013-09-25T09:07:39Z</time></trkpt>
 <trkpt lat="47.756192800" lon="12.625754900"><ele>753</ele><time>2013-09-25T09:07:43Z</time></trkpt>
 <trkpt lat="47.756156600" lon="12.625722400"><ele>753</ele><time>2013-09-25T09:07:47Z</time></trkpt>
 <trkpt lat="47.756127000" lon="12.625677800"><ele>753</ele><time>2013-09-25T09:07:51Z</time></trkpt>
 <trkpt lat="47.756099900" lon="12.625637800"><ele>753</ele><time>2013-09-25T09:07:55Z</time></trkpt>
 <trkpt lat="47.756073700" lon="12.625597000"><ele>753</ele><time>2013-09-25T09:07:59Z</time></trkpt>
 <trkpt lat="47.756035300" lon="12.625564500"><ele>752</ele><time>2013-09-25T09:08:03Z</time></trkpt>
 <trkpt lat="47.756014500" lon="12.625552400"><ele>752</ele><time>2013-09-25T09:08:07Z</time></trkpt>
 <trkpt lat="47.756009500" lon="12.625556200"><ele>752</ele><time>2013-09-25T09:08:11Z</time></trkpt>
 <trkpt lat="47.756009500" lon="12.625556200"><ele>752</ele><time>2013-09-25T09:08:15Z</time></trkpt>
 <trkpt lat="47.756009500" lon="12.625556200"><ele>752</ele><time>2013-09-25T09:08:19Z</time></trkpt>
 <trkpt lat="47.755984500" lon="12.625521600"><ele>753</ele><time>2013-09-25T09:08:23Z</time></trkpt>
 <trkpt lat="47.755965300" lon="12.625472800"><ele>753</ele><time>2013-09-25T09:08:27Z</time></trkpt>
 <trkpt lat="47.755945300" lon="12.625419900"><ele>753</ele><time>2013-09-25T09:08:31Z</time></trkpt>
 <trkpt lat="47.755915400" lon="12.625378200"><ele>753</ele><time>2013-09-25T09:08:35Z</time></trkpt>
 <trkpt lat="47.755894100" lon="12.625357000"><ele>754</ele><time>2013-09-25T09:08:39Z</time></trkpt>
 <trkpt lat="47.755871200" lon="12.625352500"><ele>754</ele><time>2013-09-25T09:08:43Z</time></trkpt>
 <trkpt lat="47.755848300" lon="12.625317400"><ele>754</ele><time>2013-09-25T09:08:47Z</time></trkpt>
 <trkpt lat="47.755844500" lon="12.625309500"><ele>755</ele><time>2013-09-25T09:08:51Z</time></trkpt>
 <trkpt lat="47.755837000" lon="12.625294500"><ele>755</ele><time>2013-09-25T09:08:55Z</time></trkpt>
 <trkpt lat="47.755807000" lon="12.625256600"><ele>756</ele><time>2013-09-25T09:08:59Z</time></trkpt>
 <trkpt lat="47.755774100" lon="12.625217000"><ele>756</ele><time>2013-09-25T09:09:03Z</time></trkpt>
 <trkpt lat="47.755748700" lon="12.625179100"><ele>756</ele><time>2013-09-25T09:09:07Z</time></trkpt>
 <trkpt lat="47.755719500" lon="12.625153300"><ele>757</ele><time>2013-09-25T09:09:11Z</time></trkpt>
 <trkpt lat="47.755682400" lon="12.625123700"><ele>757</ele><time>2013-09-25T09:09:15Z</time></trkpt>
 <trkpt lat="47.755647800" lon="12.625082000"><ele>758</ele><time>2013-09-25T09:09:19Z</time></trkpt>
 <trkpt lat="47.755617000" lon="12.625037800"><ele>758</ele><time>2013-09-25T09:09:23Z</time></trkpt>
 <trkpt lat="47.755576200" lon="12.625004100"><ele>759</ele><time>2013-09-25T09:09:27Z</time></trkpt>
 <trkpt lat="47.755548300" lon="12.624966200"><ele>759</ele><time>2013-09-25T09:09:31Z</time></trkpt>
 <trkpt lat="47.755523300" lon="12.624937000"><ele>760</ele><time>2013-09-25T09:09:35Z</time></trkpt>
 <trkpt lat="47.755494100" lon="12.624927800"><ele>761</ele><time>2013-09-25T09:09:39Z</time></trkpt>
 <trkpt lat="47.755474500" lon="12.624926200"><ele>761</ele><time>2013-09-25T09:09:43Z</time></trkpt>
 <trkpt lat="47.755468700" lon="12.624927400"><ele>762</ele><time>2013-09-25T09:09:47Z</time></trkpt>
 <trkpt lat="47.755443200" lon="12.624883300"><ele>762</ele><time>2013-09-25T09:09:51Z</time></trkpt>
 <trkpt lat="47.755405400" lon="12.624828300"><ele>763</ele><time>2013-09-25T09:09:55Z</time></trkpt>
 <trkpt lat="47.755369900" lon="12.624807000"><ele>763</ele><time>2013-09-25T09:09:59Z</time></trkpt>
 <trkpt lat="47.755340800" lon="12.624788300"><ele>764</ele><time>2013-09-25T09:10:03Z</time></trkpt>
 <trkpt lat="47.755314900" lon="12.624774500"><ele>764</ele><time>2013-09-25T09:10:07Z</time></trkpt>
 <trkpt lat="47.755284900" lon="12.624750700"><ele>765</ele><time>2013-09-25T09:10:11Z</time></trkpt>
 <trkpt lat="47.755257000" lon="12.624719900"><ele>765</ele><time>2013-09-25T09:10:15Z</time></trkpt>
 <trkpt lat="47.755226600" lon="12.624697000"><ele>766</ele><time>2013-09-25T09:10:19Z</time></trkpt>
 <trkpt lat="47.755191600" lon="12.624670400"><ele>766</ele><time>2013-09-25T09:10:23Z</time></trkpt>
 <trkpt lat="47.755156200" lon="12.624638300"><ele>766</ele><time>2013-09-25T09:10:27Z</time></trkpt>
 <trkpt lat="47.755123300" lon="12.624600300"><ele>767</ele><time>2013-09-25T09:10:31Z</time></trkpt>
 <trkpt lat="47.755091600" lon="12.624578300"><ele>767</ele><time>2013-09-25T09:10:35Z</time></trkpt>
 <trkpt lat="47.755059100" lon="12.624541200"><ele>767</ele><time>2013-09-25T09:10:39Z</time></trkpt>
 <trkpt lat="47.755030800" lon="12.624500800"><ele>767</ele><time>2013-09-25T09:10:43Z</time></trkpt>
 <trkpt lat="47.755002400" lon="12.624465400"><ele>768</ele><time>2013-09-25T09:10:47Z</time></trkpt>
 <trkpt lat="47.754976200" lon="12.624429900"><ele>768</ele><time>2013-09-25T09:10:51Z</time></trkpt>
 <trkpt lat="47.754945400" lon="12.624394900"><ele>768</ele><time>2013-09-25T09:10:55Z</time></trkpt>
 <trkpt lat="47.754935300" lon="12.624367800"><ele>768</ele><time>2013-09-25T09:10:59Z</time></trkpt>
 <trkpt lat="47.754909100" lon="12.624332000"><ele>768</ele><time>2013-09-25T09:11:03Z</time></trkpt>
 <trkpt lat="47.754872000" lon="12.624292400"><ele>768</ele><time>2013-09-25T09:11:07Z</time></trkpt>
 <trkpt lat="47.754841200" lon="12.624245700"><ele>768</ele><time>2013-09-25T09:11:11Z</time></trkpt>
 <trkpt lat="47.754811600" lon="12.624194100"><ele>768</ele><time>2013-09-25T09:11:15Z</time></trkpt>
 <trkpt lat="47.754777400" lon="12.624149500"><ele>768</ele><time>2013-09-25T09:11:19Z</time></trkpt>
 <trkpt lat="47.754742400" lon="12.624105800"><ele>768</ele><time>2013-09-25T09:11:23Z</time></trkpt>
 <trkpt lat="47.754713300" lon="12.624057000"><ele>769</ele><time>2013-09-25T09:11:27Z</time></trkpt>
 <trkpt lat="47.754694100" lon="12.624021200"><ele>769</ele><time>2013-09-25T09:11:31Z</time></trkpt>
 <trkpt lat="47.754674500" lon="12.623955300"><ele>769</ele><time>2013-09-25T09:11:35Z</time></trkpt>
 <trkpt lat="47.754677400" lon="12.623917800"><ele>769</ele><time>2013-09-25T09:11:39Z</time></trkpt>
 <trkpt lat="47.754680800" lon="12.623902800"><ele>769</ele><time>2013-09-25T09:11:43Z</time></trkpt>
 <trkpt lat="47.754687000" lon="12.623921200"><ele>770</ele><time>2013-09-25T09:11:47Z</time></trkpt>
 <trkpt lat="47.754687800" lon="12.623932000"><ele>770</ele><time>2013-09-25T09:11:51Z</time></trkpt>
 <trkpt lat="47.754687800" lon="12.623932000"><ele>770</ele><time>2013-09-25T09:11:55Z</time></trkpt>
 <trkpt lat="47.754687800" lon="12.623932000"><ele>771</ele><time>2013-09-25T09:11:59Z</time></trkpt>
 <trkpt lat="47.754687800" lon="12.623932000"><ele>771</ele><time>2013-09-25T09:12:03Z</time></trkpt>
 <trkpt lat="47.754683300" lon="12.623949900"><ele>771</ele><time>2013-09-25T09:12:07Z</time></trkpt>
 <trkpt lat="47.754683300" lon="12.623949900"><ele>772</ele><time>2013-09-25T09:12:11Z</time></trkpt>
 <trkpt lat="47.754680800" lon="12.623942000"><ele>772</ele><time>2013-09-25T09:12:15Z</time></trkpt>
 <trkpt lat="47.754672000" lon="12.623954500"><ele>772</ele><time>2013-09-25T09:12:19Z</time></trkpt>
 <trkpt lat="47.754663300" lon="12.623966200"><ele>773</ele><time>2013-09-25T09:12:23Z</time></trkpt>
 <trkpt lat="47.754651600" lon="12.623959100"><ele>773</ele><time>2013-09-25T09:12:27Z</time></trkpt>
 <trkpt lat="47.754649500" lon="12.623940300"><ele>773</ele><time>2013-09-25T09:12:31Z</time></trkpt>
 <trkpt lat="47.754650800" lon="12.623921200"><ele>774</ele><time>2013-09-25T09:12:35Z</time></trkpt>
 <trkpt lat="47.754659100" lon="12.623908700"><ele>774</ele><time>2013-09-25T09:12:39Z</time></trkpt>
 <trkpt lat="47.754659100" lon="12.623908700"><ele>774</ele><time>2013-09-25T09:12:43Z</time></trkpt>
 <trkpt lat="47.754664900" lon="12.623909500"><ele>775</ele><time>2013-09-25T09:12:47Z</time></trkpt>
 <trkpt lat="47.754651600" lon="12.623901200"><ele>775</ele><time>2013-09-25T09:12:51Z</time></trkpt>
 <trkpt lat="47.754636600" lon="12.623896200"><ele>775</ele><time>2013-09-25T09:12:55Z</time></trkpt>
 <trkpt lat="47.754629100" lon="12.623895400"><ele>776</ele><time>2013-09-25T09:12:59Z</time></trkpt>
 <trkpt lat="47.754620800" lon="12.623880300"><ele>776</ele><time>2013-09-25T09:13:03Z</time></trkpt>
 <trkpt lat="47.754617800" lon="12.623872000"><ele>776</ele><time>2013-09-25T09:13:07Z</time></trkpt>
 <trkpt lat="47.754619100" lon="12.623899100"><ele>776</ele><time>2013-09-25T09:13:11Z</time></trkpt>
 <trkpt lat="47.754617400" lon="12.623917800"><ele>776</ele><time>2013-09-25T09:13:15Z</time></trkpt>
 <trkpt lat="47.754618300" lon="12.623926200"><ele>776</ele><time>2013-09-25T09:13:19Z</time></trkpt>
 <trkpt lat="47.754614900" lon="12.623935800"><ele>776</ele><time>2013-09-25T09:13:23Z</time></trkpt>
 <trkpt lat="47.754606600" lon="12.623956200"><ele>776</ele><time>2013-09-25T09:13:27Z</time></trkpt>
 <trkpt lat="47.754602000" lon="12.623963700"><ele>777</ele><time>2013-09-25T09:13:31Z</time></trkpt>
 <trkpt lat="47.754599500" lon="12.623985800"><ele>777</ele><time>2013-09-25T09:13:35Z</time></trkpt>
 <trkpt lat="47.754597800" lon="12.623994900"><ele>777</ele><time>2013-09-25T09:13:39Z</time></trkpt>
 <trkpt lat="47.754595400" lon="12.624012000"><ele>777</ele><time>2013-09-25T09:13:43Z</time></trkpt>
 <trkpt lat="47.754592000" lon="12.624020800"><ele>777</ele><time>2013-09-25T09:13:47Z</time></trkpt>
 <trkpt lat="47.754592000" lon="12.624020800"><ele>777</ele><time>2013-09-25T09:13:51Z</time></trkpt>
 <trkpt lat="47.754592000" lon="12.624020800"><ele>777</ele><time>2013-09-25T09:13:55Z</time></trkpt>
 <trkpt lat="47.754593300" lon="12.624029500"><ele>777</ele><time>2013-09-25T09:13:59Z</time></trkpt>
 <trkpt lat="47.754592000" lon="12.624037800"><ele>777</ele><time>2013-09-25T09:14:03Z</time></trkpt>
 <trkpt lat="47.754596200" lon="12.624045300"><ele>777</ele><time>2013-09-25T09:14:07Z</time></trkpt>
 <trkpt lat="47.754596600" lon="12.624055700"><ele>777</ele><time>2013-09-25T09:14:11Z</time></trkpt>
 <trkpt lat="47.754594500" lon="12.624034900"><ele>777</ele><time>2013-09-25T09:14:15Z</time></trkpt>
 <trkpt lat="47.754596600" lon="12.624024900"><ele>777</ele><time>2013-09-25T09:14:19Z</time></trkpt>
 <trkpt lat="47.754603300" lon="12.624025400"><ele>777</ele><time>2013-09-25T09:14:23Z</time></trkpt>
 <trkpt lat="47.754610400" lon="12.624024900"><ele>777</ele><time>2013-09-25T09:14:27Z</time></trkpt>
 <trkpt lat="47.754625300" lon="12.624054100"><ele>777</ele><time>2013-09-25T09:14:31Z</time></trkpt>
 <trkpt lat="47.754636600" lon="12.624072900"><ele>777</ele><time>2013-09-25T09:14:35Z</time></trkpt>
 <trkpt lat="47.754646200" lon="12.624082800"><ele>778</ele><time>2013-09-25T09:14:39Z</time></trkpt>
 <trkpt lat="47.754652000" lon="12.624083200"><ele>778</ele><time>2013-09-25T09:14:43Z</time></trkpt>
 <trkpt lat="47.754656200" lon="12.624091200"><ele>778</ele><time>2013-09-25T09:14:47Z</time></trkpt>
 <trkpt lat="47.754661200" lon="12.624096200"><ele>778</ele><time>2013-09-25T09:14:51Z</time></trkpt>
 <trkpt lat="47.754672000" lon="12.624086600"><ele>778</ele><time>2013-09-25T09:14:55Z</time></trkpt>
 <trkpt lat="47.754667000" lon="12.624104100"><ele>778</ele><time>2013-09-25T09:14:59Z</time></trkpt>
 <trkpt lat="47.754664100" lon="12.624121200"><ele>778</ele><time>2013-09-25T09:15:03Z</time></trkpt>
 <trkpt lat="47.754639900" lon="12.624091600"><ele>778</ele><time>2013-09-25T09:15:07Z</time></trkpt>
 <trkpt lat="47.754632900" lon="12.624082800"><ele>778</ele><time>2013-09-25T09:15:11Z</time></trkpt>
 <trkpt lat="47.754627000" lon="12.624080400"><ele>779</ele><time>2013-09-25T09:15:15Z</time></trkpt>
 <trkpt lat="47.754627000" lon="12.624089900"><ele>779</ele><time>2013-09-25T09:15:19Z</time></trkpt>
 <trkpt lat="47.754634900" lon="12.624073700"><ele>779</ele><time>2013-09-25T09:15:23Z</time></trkpt>
 <trkpt lat="47.754641200" lon="12.624054500"><ele>779</ele><time>2013-09-25T09:15:27Z</time></trkpt>
 <trkpt lat="47.754649500" lon="12.624039900"><ele>779</ele><time>2013-09-25T09:15:31Z</time></trkpt>
 <trkpt lat="47.754650800" lon="12.623991200"><ele>779</ele><time>2013-09-25T09:15:35Z</time></trkpt>
 <trkpt lat="47.754602800" lon="12.623934500"><ele>779</ele><time>2013-09-25T09:15:39Z</time></trkpt>
 <trkpt lat="47.754560300" lon="12.623884500"><ele>779</ele><time>2013-09-25T09:15:43Z</time></trkpt>
 <trkpt lat="47.754521200" lon="12.623837400"><ele>780</ele><time>2013-09-25T09:15:47Z</time></trkpt>
 <trkpt lat="47.754472400" lon="12.623779500"><ele>780</ele><time>2013-09-25T09:15:51Z</time></trkpt>
 <trkpt lat="47.754427800" lon="12.623747000"><ele>780</ele><time>2013-09-25T09:15:55Z</time></trkpt>
 <trkpt lat="47.754389500" lon="12.623713700"><ele>780</ele><time>2013-09-25T09:15:59Z</time></trkpt>
 <trkpt lat="47.754346200" lon="12.623678700"><ele>780</ele><time>2013-09-25T09:16:03Z</time></trkpt>
 <trkpt lat="47.754300300" lon="12.623668300"><ele>780</ele><time>2013-09-25T09:16:07Z</time></trkpt>
 <trkpt lat="47.754265300" lon="12.623652000"><ele>780</ele><time>2013-09-25T09:16:11Z</time></trkpt>
 <trkpt lat="47.754228300" lon="12.623637400"><ele>781</ele><time>2013-09-25T09:16:15Z</time></trkpt>
 <trkpt lat="47.754186200" lon="12.623629900"><ele>781</ele><time>2013-09-25T09:16:19Z</time></trkpt>
 <trkpt lat="47.754153300" lon="12.623618300"><ele>781</ele><time>2013-09-25T09:16:23Z</time></trkpt>
 <trkpt lat="47.754118700" lon="12.623629500"><ele>782</ele><time>2013-09-25T09:16:27Z</time></trkpt>
 <trkpt lat="47.754082400" lon="12.623618200"><ele>782</ele><time>2013-09-25T09:16:31Z</time></trkpt>
 <trkpt lat="47.754042000" lon="12.623628300"><ele>782</ele><time>2013-09-25T09:16:35Z</time></trkpt>
 <trkpt lat="47.754030300" lon="12.623640300"><ele>783</ele><time>2013-09-25T09:16:39Z</time></trkpt>
 <trkpt lat="47.754028300" lon="12.623649100"><ele>783</ele><time>2013-09-25T09:16:43Z</time></trkpt>
 <trkpt lat="47.754008300" lon="12.623648300"><ele>783</ele><time>2013-09-25T09:16:47Z</time></trkpt>
 <trkpt lat="47.753963700" lon="12.623655800"><ele>784</ele><time>2013-09-25T09:16:51Z</time></trkpt>
 <trkpt lat="47.753915300" lon="12.623669100"><ele>784</ele><time>2013-09-25T09:16:55Z</time></trkpt>
 <trkpt lat="47.753870800" lon="12.623673300"><ele>785</ele><time>2013-09-25T09:16:59Z</time></trkpt>
 <trkpt lat="47.753836200" lon="12.623679100"><ele>785</ele><time>2013-09-25T09:17:03Z</time></trkpt>
 <trkpt lat="47.753788300" lon="12.623672800"><ele>786</ele><time>2013-09-25T09:17:07Z</time></trkpt>
 <trkpt lat="47.753748700" lon="12.623682400"><ele>786</ele><time>2013-09-25T09:17:11Z</time></trkpt>
 <trkpt lat="47.753716200" lon="12.623685800"><ele>787</ele><time>2013-09-25T09:17:15Z</time></trkpt>
 <trkpt lat="47.753673700" lon="12.623697900"><ele>787</ele><time>2013-09-25T09:17:19Z</time></trkpt>
 <trkpt lat="47.753637800" lon="12.623712400"><ele>788</ele><time>2013-09-25T09:17:23Z</time></trkpt>
 <trkpt lat="47.753604100" lon="12.623714100"><ele>788</ele><time>2013-09-25T09:17:27Z</time></trkpt>
 <trkpt lat="47.753558700" lon="12.623708200"><ele>789</ele><time>2013-09-25T09:17:31Z</time></trkpt>
 <trkpt lat="47.753518200" lon="12.623733300"><ele>789</ele><time>2013-09-25T09:17:35Z</time></trkpt>
 <trkpt lat="47.753477000" lon="12.623741600"><ele>790</ele><time>2013-09-25T09:17:39Z</time></trkpt>
 <trkpt lat="47.753444900" lon="12.623744500"><ele>791</ele><time>2013-09-25T09:17:43Z</time></trkpt>
 <trkpt lat="47.753417000" lon="12.623751600"><ele>791</ele><time>2013-09-25T09:17:47Z</time></trkpt>
 <trkpt lat="47.753381600" lon="12.623765400"><ele>792</ele><time>2013-09-25T09:17:51Z</time></trkpt>
 <trkpt lat="47.753340300" lon="12.623773300"><ele>792</ele><time>2013-09-25T09:17:55Z</time></trkpt>
 <trkpt lat="47.753304100" lon="12.623780800"><ele>793</ele><time>2013-09-25T09:17:59Z</time></trkpt>
 <trkpt lat="47.753253700" lon="12.623790300"><ele>794</ele><time>2013-09-25T09:18:03Z</time></trkpt>
 <trkpt lat="47.753209500" lon="12.623805400"><ele>794</ele><time>2013-09-25T09:18:07Z</time></trkpt>
 <trkpt lat="47.753163700" lon="12.623836600"><ele>795</ele><time>2013-09-25T09:18:11Z</time></trkpt>
 <trkpt lat="47.753105300" lon="12.623861600"><ele>796</ele><time>2013-09-25T09:18:15Z</time></trkpt>
 <trkpt lat="47.753057800" lon="12.623874900"><ele>796</ele><time>2013-09-25T09:18:19Z</time></trkpt>
 <trkpt lat="47.753031600" lon="12.623888700"><ele>797</ele><time>2013-09-25T09:18:23Z</time></trkpt>
 <trkpt lat="47.753001200" lon="12.623902800"><ele>798</ele><time>2013-09-25T09:18:27Z</time></trkpt>
 <trkpt lat="47.752957800" lon="12.623927900"><ele>798</ele><time>2013-09-25T09:18:31Z</time></trkpt>
 <trkpt lat="47.752919900" lon="12.623937800"><ele>799</ele><time>2013-09-25T09:18:35Z</time></trkpt>
 <trkpt lat="47.752877000" lon="12.623947800"><ele>800</ele><time>2013-09-25T09:18:39Z</time></trkpt>
 <trkpt lat="47.752831200" lon="12.623951600"><ele>801</ele><time>2013-09-25T09:18:43Z</time></trkpt>
 <trkpt lat="47.752798300" lon="12.623938700"><ele>801</ele><time>2013-09-25T09:18:47Z</time></trkpt>
 <trkpt lat="47.752766600" lon="12.623937000"><ele>802</ele><time>2013-09-25T09:18:51Z</time></trkpt>
 <trkpt lat="47.752727000" lon="12.623932400"><ele>803</ele><time>2013-09-25T09:18:55Z</time></trkpt>
 <trkpt lat="47.752686600" lon="12.623942000"><ele>803</ele><time>2013-09-25T09:18:59Z</time></trkpt>
 <trkpt lat="47.752636600" lon="12.623957900"><ele>804</ele><time>2013-09-25T09:19:03Z</time></trkpt>
 <trkpt lat="47.752573700" lon="12.623974100"><ele>805</ele><time>2013-09-25T09:19:07Z</time></trkpt>
 <trkpt lat="47.752529100" lon="12.623991600"><ele>806</ele><time>2013-09-25T09:19:11Z</time></trkpt>
 <trkpt lat="47.752487800" lon="12.623999500"><ele>806</ele><time>2013-09-25T09:19:15Z</time></trkpt>
 <trkpt lat="47.752477400" lon="12.624009100"><ele>807</ele><time>2013-09-25T09:19:19Z</time></trkpt>
 <trkpt lat="47.752478700" lon="12.624052900"><ele>808</ele><time>2013-09-25T09:19:23Z</time></trkpt>
 <trkpt lat="47.752484900" lon="12.624103700"><ele>808</ele><time>2013-09-25T09:19:27Z</time></trkpt>
 <trkpt lat="47.752489900" lon="12.624156600"><ele>809</ele><time>2013-09-25T09:19:31Z</time></trkpt>
 <trkpt lat="47.752478300" lon="12.624195800"><ele>810</ele><time>2013-09-25T09:19:35Z</time></trkpt>
 <trkpt lat="47.752446600" lon="12.624193300"><ele>810</ele><time>2013-09-25T09:19:39Z</time></trkpt>
 <trkpt lat="47.752469100" lon="12.624149100"><ele>811</ele><time>2013-09-25T09:19:43Z</time></trkpt>
 <trkpt lat="47.752489900" lon="12.624053700"><ele>812</ele><time>2013-09-25T09:19:47Z</time></trkpt>
 <trkpt lat="47.752485800" lon="12.623978700"><ele>812</ele><time>2013-09-25T09:19:51Z</time></trkpt>
 <trkpt lat="47.752468700" lon="12.623935000"><ele>813</ele><time>2013-09-25T09:19:55Z</time></trkpt>
 <trkpt lat="47.752447800" lon="12.623882000"><ele>814</ele><time>2013-09-25T09:19:59Z</time></trkpt>
 <trkpt lat="47.752431200" lon="12.623829500"><ele>815</ele><time>2013-09-25T09:20:03Z</time></trkpt>
 <trkpt lat="47.752424900" lon="12.623792400"><ele>815</ele><time>2013-09-25T09:20:07Z</time></trkpt>
 <trkpt lat="47.752404900" lon="12.623730400"><ele>816</ele><time>2013-09-25T09:20:11Z</time></trkpt>
 <trkpt lat="47.752387900" lon="12.623692400"><ele>816</ele><time>2013-09-25T09:20:15Z</time></trkpt>
 <trkpt lat="47.752374900" lon="12.623658700"><ele>817</ele><time>2013-09-25T09:20:19Z</time></trkpt>
 <trkpt lat="47.752365800" lon="12.623617000"><ele>817</ele><time>2013-09-25T09:20:23Z</time></trkpt>
 <trkpt lat="47.752353700" lon="12.623580300"><ele>818</ele><time>2013-09-25T09:20:27Z</time></trkpt>
 <trkpt lat="47.752345800" lon="12.623567000"><ele>818</ele><time>2013-09-25T09:20:31Z</time></trkpt>
 <trkpt lat="47.752355300" lon="12.623557000"><ele>818</ele><time>2013-09-25T09:20:35Z</time></trkpt>
 <trkpt lat="47.752361200" lon="12.623558700"><ele>819</ele><time>2013-09-25T09:20:39Z</time></trkpt>
 <trkpt lat="47.752354100" lon="12.623567800"><ele>819</ele><time>2013-09-25T09:20:43Z</time></trkpt>
 <trkpt lat="47.752344100" lon="12.623579100"><ele>819</ele><time>2013-09-25T09:20:47Z</time></trkpt>
 <trkpt lat="47.752338700" lon="12.623580300"><ele>819</ele><time>2013-09-25T09:20:51Z</time></trkpt>
 <trkpt lat="47.752319900" lon="12.623567400"><ele>819</ele><time>2013-09-25T09:20:55Z</time></trkpt>
 <trkpt lat="47.752312800" lon="12.623561600"><ele>819</ele><time>2013-09-25T09:20:59Z</time></trkpt>
 <trkpt lat="47.752300700" lon="12.623546600"><ele>819</ele><time>2013-09-25T09:21:03Z</time></trkpt>
 <trkpt lat="47.752276600" lon="12.623479100"><ele>819</ele><time>2013-09-25T09:21:07Z</time></trkpt>
 <trkpt lat="47.752252900" lon="12.623402000"><ele>819</ele><time>2013-09-25T09:21:11Z</time></trkpt>
 <trkpt lat="47.752232500" lon="12.623343200"><ele>819</ele><time>2013-09-25T09:21:15Z</time></trkpt>
 <trkpt lat="47.752216600" lon="12.623282400"><ele>819</ele><time>2013-09-25T09:21:19Z</time></trkpt>
 <trkpt lat="47.752206600" lon="12.623212500"><ele>819</ele><time>2013-09-25T09:21:23Z</time></trkpt>
 <trkpt lat="47.752200800" lon="12.623152400"><ele>818</ele><time>2013-09-25T09:21:27Z</time></trkpt>
 <trkpt lat="47.752197400" lon="12.623089900"><ele>818</ele><time>2013-09-25T09:21:31Z</time></trkpt>
 <trkpt lat="47.752190800" lon="12.623030700"><ele>818</ele><time>2013-09-25T09:21:35Z</time></trkpt>
 <trkpt lat="47.752188300" lon="12.622979500"><ele>818</ele><time>2013-09-25T09:21:39Z</time></trkpt>
 <trkpt lat="47.752192400" lon="12.622921600"><ele>818</ele><time>2013-09-25T09:21:43Z</time></trkpt>
 <trkpt lat="47.752188300" lon="12.622859500"><ele>818</ele><time>2013-09-25T09:21:47Z</time></trkpt>
 <trkpt lat="47.752184500" lon="12.622800300"><ele>818</ele><time>2013-09-25T09:21:51Z</time></trkpt>
 <trkpt lat="47.752174500" lon="12.622740800"><ele>818</ele><time>2013-09-25T09:21:55Z</time></trkpt>
 <trkpt lat="47.752166600" lon="12.622679900"><ele>818</ele><time>2013-09-25T09:21:59Z</time></trkpt>
 <trkpt lat="47.752169900" lon="12.622624100"><ele>818</ele><time>2013-09-25T09:22:03Z</time></trkpt>
 <trkpt lat="47.752177400" lon="12.622570400"><ele>818</ele><time>2013-09-25T09:22:07Z</time></trkpt>
 <trkpt lat="47.752189100" lon="12.622515400"><ele>818</ele><time>2013-09-25T09:22:11Z</time></trkpt>
 <trkpt lat="47.752207400" lon="12.622467400"><ele>819</ele><time>2013-09-25T09:22:15Z</time></trkpt>
 <trkpt lat="47.752218700" lon="12.622450800"><ele>819</ele><time>2013-09-25T09:22:19Z</time></trkpt>
 <trkpt lat="47.752218700" lon="12.622450800"><ele>819</ele><time>2013-09-25T09:22:23Z</time></trkpt>
 <trkpt lat="47.752224100" lon="12.622454900"><ele>819</ele><time>2013-09-25T09:22:27Z</time></trkpt>
 <trkpt lat="47.752232000" lon="12.622434100"><ele>820</ele><time>2013-09-25T09:22:31Z</time></trkpt>
 <trkpt lat="47.752236200" lon="12.622391200"><ele>820</ele><time>2013-09-25T09:22:35Z</time></trkpt>
 <trkpt lat="47.752237900" lon="12.622342800"><ele>820</ele><time>2013-09-25T09:22:39Z</time></trkpt>
 <trkpt lat="47.752232800" lon="12.622286600"><ele>820</ele><time>2013-09-25T09:22:43Z</time></trkpt>
 <trkpt lat="47.752229100" lon="12.622230300"><ele>820</ele><time>2013-09-25T09:22:47Z</time></trkpt>
 <trkpt lat="47.752225800" lon="12.622186600"><ele>820</ele><time>2013-09-25T09:22:51Z</time></trkpt>
 <trkpt lat="47.752229100" lon="12.622131200"><ele>820</ele><time>2013-09-25T09:22:55Z</time></trkpt>
 <trkpt lat="47.752226600" lon="12.622071600"><ele>821</ele><time>2013-09-25T09:22:59Z</time></trkpt>
 <trkpt lat="47.752229500" lon="12.622024900"><ele>821</ele><time>2013-09-25T09:23:03Z</time></trkpt>
 <trkpt lat="47.752245300" lon="12.621984500"><ele>821</ele><time>2013-09-25T09:23:07Z</time></trkpt>
 <trkpt lat="47.752267900" lon="12.621945400"><ele>821</ele><time>2013-09-25T09:23:11Z</time></trkpt>
 <trkpt lat="47.752294100" lon="12.621907400"><ele>821</ele><time>2013-09-25T09:23:15Z</time></trkpt>
 <trkpt lat="47.752315800" lon="12.621866600"><ele>821</ele><time>2013-09-25T09:23:19Z</time></trkpt>
 <trkpt lat="47.752342800" lon="12.621829900"><ele>821</ele><time>2013-09-25T09:23:23Z</time></trkpt>
 <trkpt lat="47.752372400" lon="12.621797800"><ele>822</ele><time>2013-09-25T09:23:27Z</time></trkpt>
 <trkpt lat="47.752397000" lon="12.621773700"><ele>822</ele><time>2013-09-25T09:23:31Z</time></trkpt>
 <trkpt lat="47.752426600" lon="12.621752900"><ele>822</ele><time>2013-09-25T09:23:35Z</time></trkpt>
 <trkpt lat="47.752457800" lon="12.621733700"><ele>823</ele><time>2013-09-25T09:23:39Z</time></trkpt>
 <trkpt lat="47.752484500" lon="12.621727000"><ele>823</ele><time>2013-09-25T09:23:43Z</time></trkpt>
 <trkpt lat="47.752512400" lon="12.621723700"><ele>823</ele><time>2013-09-25T09:23:47Z</time></trkpt>
 <trkpt lat="47.752538700" lon="12.621723700"><ele>824</ele><time>2013-09-25T09:23:51Z</time></trkpt>
 <trkpt lat="47.752567400" lon="12.621726600"><ele>824</ele><time>2013-09-25T09:23:55Z</time></trkpt>
 <trkpt lat="47.752593700" lon="12.621724100"><ele>825</ele><time>2013-09-25T09:23:59Z</time></trkpt>
 <trkpt lat="47.752621600" lon="12.621717000"><ele>826</ele><time>2013-09-25T09:24:03Z</time></trkpt>
 <trkpt lat="47.752644900" lon="12.621705300"><ele>826</ele><time>2013-09-25T09:24:07Z</time></trkpt>
 <trkpt lat="47.752672800" lon="12.621693700"><ele>827</ele><time>2013-09-25T09:24:11Z</time></trkpt>
 <trkpt lat="47.752695800" lon="12.621684500"><ele>827</ele><time>2013-09-25T09:24:15Z</time></trkpt>
 <trkpt lat="47.752710400" lon="12.621654500"><ele>828</ele><time>2013-09-25T09:24:19Z</time></trkpt>
 <trkpt lat="47.752719900" lon="12.621629100"><ele>828</ele><time>2013-09-25T09:24:23Z</time></trkpt>
 <trkpt lat="47.752719900" lon="12.621629100"><ele>829</ele><time>2013-09-25T09:24:27Z</time></trkpt>
 <trkpt lat="47.752719900" lon="12.621629100"><ele>829</ele><time>2013-09-25T09:24:31Z</time></trkpt>
 <trkpt lat="47.752720000" lon="12.621619900"><ele>829</ele><time>2013-09-25T09:24:35Z</time></trkpt>
 <trkpt lat="47.752720000" lon="12.621619900"><ele>830</ele><time>2013-09-25T09:24:39Z</time></trkpt>
 <trkpt lat="47.752703700" lon="12.621619500"><ele>830</ele><time>2013-09-25T09:24:43Z</time></trkpt>
 <trkpt lat="47.752697800" lon="12.621622000"><ele>830</ele><time>2013-09-25T09:24:47Z</time></trkpt>
 <trkpt lat="47.752697800" lon="12.621622000"><ele>830</ele><time>2013-09-25T09:24:51Z</time></trkpt>
 <trkpt lat="47.752693700" lon="12.621613700"><ele>830</ele><time>2013-09-25T09:24:55Z</time></trkpt>
 <trkpt lat="47.752719900" lon="12.621611200"><ele>830</ele><time>2013-09-25T09:24:59Z</time></trkpt>
 <trkpt lat="47.752724500" lon="12.621618300"><ele>830</ele><time>2013-09-25T09:25:03Z</time></trkpt>
 <trkpt lat="47.752727800" lon="12.621627000"><ele>830</ele><time>2013-09-25T09:25:07Z</time></trkpt>
 <trkpt lat="47.752720400" lon="12.621618700"><ele>830</ele><time>2013-09-25T09:25:11Z</time></trkpt>
 <trkpt lat="47.752714900" lon="12.621614100"><ele>830</ele><time>2013-09-25T09:25:15Z</time></trkpt>
 <trkpt lat="47.752708700" lon="12.621558300"><ele>830</ele><time>2013-09-25T09:25:19Z</time></trkpt>
 <trkpt lat="47.752725800" lon="12.621501600"><ele>830</ele><time>2013-09-25T09:25:23Z</time></trkpt>
 <trkpt lat="47.752744900" lon="12.621454500"><ele>830</ele><time>2013-09-25T09:25:27Z</time></trkpt>
 <trkpt lat="47.752744100" lon="12.621394900"><ele>830</ele><time>2013-09-25T09:25:31Z</time></trkpt>
 <trkpt lat="47.752740300" lon="12.621345400"><ele>830</ele><time>2013-09-25T09:25:35Z</time></trkpt>
 <trkpt lat="47.752752000" lon="12.621304100"><ele>829</ele><time>2013-09-25T09:25:39Z</time></trkpt>
 <trkpt lat="47.752757800" lon="12.621278300"><ele>829</ele><time>2013-09-25T09:25:43Z</time></trkpt>
 <trkpt lat="47.752755400" lon="12.621234100"><ele>829</ele><time>2013-09-25T09:25:47Z</time></trkpt>
 <trkpt lat="47.752759900" lon="12.621185300"><ele>829</ele><time>2013-09-25T09:25:51Z</time></trkpt>
 <trkpt lat="47.752785300" lon="12.621152000"><ele>829</ele><time>2013-09-25T09:25:55Z</time></trkpt>
 <trkpt lat="47.752812000" lon="12.621124500"><ele>829</ele><time>2013-09-25T09:25:59Z</time></trkpt>
 <trkpt lat="47.752828700" lon="12.621103700"><ele>829</ele><time>2013-09-25T09:26:03Z</time></trkpt>
 <trkpt lat="47.752843700" lon="12.621104100"><ele>829</ele><time>2013-09-25T09:26:07Z</time></trkpt>
 <trkpt lat="47.752847800" lon="12.621097800"><ele>829</ele><time>2013-09-25T09:26:11Z</time></trkpt>
 <trkpt lat="47.752861200" lon="12.621103700"><ele>829</ele><time>2013-09-25T09:26:15Z</time></trkpt>
 <trkpt lat="47.752861200" lon="12.621103700"><ele>829</ele><time>2013-09-25T09:26:19Z</time></trkpt>
 <trkpt lat="47.752881600" lon="12.621063700"><ele>829</ele><time>2013-09-25T09:26:23Z</time></trkpt>
 <trkpt lat="47.752902800" lon="12.621032900"><ele>829</ele><time>2013-09-25T09:26:27Z</time></trkpt>
 <trkpt lat="47.752923700" lon="12.620993700"><ele>829</ele><time>2013-09-25T09:26:31Z</time></trkpt>
 <trkpt lat="47.752960800" lon="12.620954900"><ele>829</ele><time>2013-09-25T09:26:35Z</time></trkpt>
 <trkpt lat="47.752992800" lon="12.620923700"><ele>829</ele><time>2013-09-25T09:26:39Z</time></trkpt>
 <trkpt lat="47.753016600" lon="12.620891200"><ele>829</ele><time>2013-09-25T09:26:43Z</time></trkpt>
 <trkpt lat="47.753047400" lon="12.620865400"><ele>829</ele><time>2013-09-25T09:26:47Z</time></trkpt>
 <trkpt lat="47.753087400" lon="12.620834100"><ele>829</ele><time>2013-09-25T09:26:51Z</time></trkpt>
 <trkpt lat="47.753129500" lon="12.620797800"><ele>829</ele><time>2013-09-25T09:26:55Z</time></trkpt>
 <trkpt lat="47.753163700" lon="12.620755800"><ele>829</ele><time>2013-09-25T09:26:59Z</time></trkpt>
 <trkpt lat="47.753199500" lon="12.620713700"><ele>829</ele><time>2013-09-25T09:27:03Z</time></trkpt>
 <trkpt lat="47.753244100" lon="12.620697400"><ele>829</ele><time>2013-09-25T09:27:07Z</time></trkpt>
 <trkpt lat="47.753289500" lon="12.620700700"><ele>829</ele><time>2013-09-25T09:27:11Z</time></trkpt>
 <trkpt lat="47.753327800" lon="12.620715800"><ele>829</ele><time>2013-09-25T09:27:15Z</time></trkpt>
 <trkpt lat="47.753364100" lon="12.620729100"><ele>829</ele><time>2013-09-25T09:27:19Z</time></trkpt>
 <trkpt lat="47.753397800" lon="12.620745800"><ele>829</ele><time>2013-09-25T09:27:23Z</time></trkpt>
 <trkpt lat="47.753419100" lon="12.620736200"><ele>829</ele><time>2013-09-25T09:27:27Z</time></trkpt>
 <trkpt lat="47.753419900" lon="12.620695800"><ele>829</ele><time>2013-09-25T09:27:31Z</time></trkpt>
 <trkpt lat="47.753416200" lon="12.620637000"><ele>829</ele><time>2013-09-25T09:27:35Z</time></trkpt>
 <trkpt lat="47.753417800" lon="12.620590400"><ele>829</ele><time>2013-09-25T09:27:39Z</time></trkpt>
 <trkpt lat="47.753416600" lon="12.620549500"><ele>829</ele><time>2013-09-25T09:27:43Z</time></trkpt>
 <trkpt lat="47.753416600" lon="12.620499100"><ele>830</ele><time>2013-09-25T09:27:47Z</time></trkpt>
 <trkpt lat="47.753417900" lon="12.620446200"><ele>830</ele><time>2013-09-25T09:27:51Z</time></trkpt>
 <trkpt lat="47.753424900" lon="12.620394900"><ele>830</ele><time>2013-09-25T09:27:55Z</time></trkpt>
 <trkpt lat="47.753443200" lon="12.620338300"><ele>830</ele><time>2013-09-25T09:27:59Z</time></trkpt>
 <trkpt lat="47.753466200" lon="12.620286200"><ele>831</ele><time>2013-09-25T09:28:03Z</time></trkpt>
 <trkpt lat="47.753475300" lon="12.620248700"><ele>831</ele><time>2013-09-25T09:28:07Z</time></trkpt>
 <trkpt lat="47.753482800" lon="12.620206600"><ele>831</ele><time>2013-09-25T09:28:11Z</time></trkpt>
 <trkpt lat="47.753492400" lon="12.620150400"><ele>831</ele><time>2013-09-25T09:28:15Z</time></trkpt>
 <trkpt lat="47.753499900" lon="12.620089900"><ele>832</ele><time>2013-09-25T09:28:19Z</time></trkpt>
 <trkpt lat="47.753504100" lon="12.620052800"><ele>832</ele><time>2013-09-25T09:28:23Z</time></trkpt>
 <trkpt lat="47.753504100" lon="12.620041200"><ele>832</ele><time>2013-09-25T09:28:27Z</time></trkpt>
 <trkpt lat="47.753504100" lon="12.620041200"><ele>832</ele><time>2013-09-25T09:28:31Z</time></trkpt>
 <trkpt lat="47.753508300" lon="12.620034900"><ele>833</ele><time>2013-09-25T09:28:35Z</time></trkpt>
 <trkpt lat="47.753508300" lon="12.620034900"><ele>833</ele><time>2013-09-25T09:28:39Z</time></trkpt>
 <trkpt lat="47.753511600" lon="12.620042000"><ele>833</ele><time>2013-09-25T09:28:43Z</time></trkpt>
 <trkpt lat="47.753511600" lon="12.620051200"><ele>833</ele><time>2013-09-25T09:28:47Z</time></trkpt>
 <trkpt lat="47.753506600" lon="12.620059500"><ele>833</ele><time>2013-09-25T09:28:51Z</time></trkpt>
 <trkpt lat="47.753514100" lon="12.620074500"><ele>833</ele><time>2013-09-25T09:28:55Z</time></trkpt>
 <trkpt lat="47.753518700" lon="12.620079900"><ele>833</ele><time>2013-09-25T09:28:59Z</time></trkpt>
 <trkpt lat="47.753518700" lon="12.620079900"><ele>833</ele><time>2013-09-25T09:29:03Z</time></trkpt>
 <trkpt lat="47.753523700" lon="12.620085000"><ele>833</ele><time>2013-09-25T09:29:07Z</time></trkpt>
 <trkpt lat="47.753529100" lon="12.620085400"><ele>834</ele><time>2013-09-25T09:29:11Z</time></trkpt>
 <trkpt lat="47.753534500" lon="12.620089100"><ele>834</ele><time>2013-09-25T09:29:15Z</time></trkpt>
 <trkpt lat="47.753527800" lon="12.620076600"><ele>834</ele><time>2013-09-25T09:29:19Z</time></trkpt>
 <trkpt lat="47.753539100" lon="12.620003300"><ele>834</ele><time>2013-09-25T09:29:23Z</time></trkpt>
 <trkpt lat="47.753547400" lon="12.619942400"><ele>834</ele><time>2013-09-25T09:29:27Z</time></trkpt>
 <trkpt lat="47.753549900" lon="12.619887800"><ele>834</ele><time>2013-09-25T09:29:31Z</time></trkpt>
 <trkpt lat="47.753551200" lon="12.619844900"><ele>834</ele><time>2013-09-25T09:29:35Z</time></trkpt>
 <trkpt lat="47.753545400" lon="12.619781600"><ele>835</ele><time>2013-09-25T09:29:39Z</time></trkpt>
 <trkpt lat="47.753521200" lon="12.619719500"><ele>835</ele><time>2013-09-25T09:29:43Z</time></trkpt>
 <trkpt lat="47.753517000" lon="12.619674900"><ele>835</ele><time>2013-09-25T09:29:47Z</time></trkpt>
 <trkpt lat="47.753528700" lon="12.619638300"><ele>836</ele><time>2013-09-25T09:29:51Z</time></trkpt>
 <trkpt lat="47.753542400" lon="12.619605300"><ele>836</ele><time>2013-09-25T09:29:55Z</time></trkpt>
 <trkpt lat="47.753556600" lon="12.619567400"><ele>836</ele><time>2013-09-25T09:29:59Z</time></trkpt>
 <trkpt lat="47.753575800" lon="12.619531200"><ele>837</ele><time>2013-09-25T09:30:03Z</time></trkpt>
 <trkpt lat="47.753586200" lon="12.619482800"><ele>837</ele><time>2013-09-25T09:30:07Z</time></trkpt>
 <trkpt lat="47.753590800" lon="12.619435800"><ele>838</ele><time>2013-09-25T09:30:11Z</time></trkpt>
 <trkpt lat="47.753583300" lon="12.619377800"><ele>838</ele><time>2013-09-25T09:30:15Z</time></trkpt>
 <trkpt lat="47.753565800" lon="12.619331600"><ele>839</ele><time>2013-09-25T09:30:19Z</time></trkpt>
 <trkpt lat="47.753550800" lon="12.619307000"><ele>839</ele><time>2013-09-25T09:30:23Z</time></trkpt>
 <trkpt lat="47.753546200" lon="12.619312400"><ele>840</ele><time>2013-09-25T09:30:27Z</time></trkpt>
 <trkpt lat="47.753546200" lon="12.619312400"><ele>840</ele><time>2013-09-25T09:30:31Z</time></trkpt>
 <trkpt lat="47.753541600" lon="12.619307800"><ele>841</ele><time>2013-09-25T09:30:35Z</time></trkpt>
 <trkpt lat="47.753541600" lon="12.619307800"><ele>841</ele><time>2013-09-25T09:30:39Z</time></trkpt>
 <trkpt lat="47.753549100" lon="12.619280800"><ele>842</ele><time>2013-09-25T09:30:43Z</time></trkpt>
 <trkpt lat="47.753559100" lon="12.619241200"><ele>842</ele><time>2013-09-25T09:30:47Z</time></trkpt>
 <trkpt lat="47.753576200" lon="12.619181600"><ele>843</ele><time>2013-09-25T09:30:51Z</time></trkpt>
 <trkpt lat="47.753604500" lon="12.619135300"><ele>843</ele><time>2013-09-25T09:30:55Z</time></trkpt>
 <trkpt lat="47.753627800" lon="12.619098300"><ele>844</ele><time>2013-09-25T09:30:59Z</time></trkpt>
 <trkpt lat="47.753651600" lon="12.619066600"><ele>845</ele><time>2013-09-25T09:31:03Z</time></trkpt>
 <trkpt lat="47.753669100" lon="12.619030300"><ele>845</ele><time>2013-09-25T09:31:07Z</time></trkpt>
 <trkpt lat="47.753679100" lon="12.618990800"><ele>846</ele><time>2013-09-25T09:31:11Z</time></trkpt>
 <trkpt lat="47.753685700" lon="12.618955300"><ele>846</ele><time>2013-09-25T09:31:15Z</time></trkpt>
 <trkpt lat="47.753696200" lon="12.618915400"><ele>847</ele><time>2013-09-25T09:31:19Z</time></trkpt>
 <trkpt lat="47.753706200" lon="12.618877000"><ele>848</ele><time>2013-09-25T09:31:23Z</time></trkpt>
 <trkpt lat="47.753730300" lon="12.618849500"><ele>848</ele><time>2013-09-25T09:31:27Z</time></trkpt>
 <trkpt lat="47.753764100" lon="12.618808700"><ele>849</ele><time>2013-09-25T09:31:31Z</time></trkpt>
 <trkpt lat="47.753767400" lon="12.618767400"><ele>850</ele><time>2013-09-25T09:31:35Z</time></trkpt>
 <trkpt lat="47.753768300" lon="12.618745400"><ele>850</ele><time>2013-09-25T09:31:39Z</time></trkpt>
 <trkpt lat="47.753753700" lon="12.618716200"><ele>851</ele><time>2013-09-25T09:31:43Z</time></trkpt>
 <trkpt lat="47.753760300" lon="12.618712000"><ele>851</ele><time>2013-09-25T09:31:47Z</time></trkpt>
 <trkpt lat="47.753760300" lon="12.618712000"><ele>852</ele><time>2013-09-25T09:31:51Z</time></trkpt>
 <trkpt lat="47.753766600" lon="12.618712000"><ele>852</ele><time>2013-09-25T09:31:55Z</time></trkpt>
 <trkpt lat="47.753769500" lon="12.618719900"><ele>853</ele><time>2013-09-25T09:31:59Z</time></trkpt>
 <trkpt lat="47.753768700" lon="12.618740800"><ele>853</ele><time>2013-09-25T09:32:03Z</time></trkpt>
 <trkpt lat="47.753783300" lon="12.618775800"><ele>853</ele><time>2013-09-25T09:32:07Z</time></trkpt>
 <trkpt lat="47.753776600" lon="12.618782400"><ele>854</ele><time>2013-09-25T09:32:11Z</time></trkpt>
 <trkpt lat="47.753774900" lon="12.618791200"><ele>854</ele><time>2013-09-25T09:32:15Z</time></trkpt>
 <trkpt lat="47.753774900" lon="12.618791200"><ele>854</ele><time>2013-09-25T09:32:19Z</time></trkpt>
 <trkpt lat="47.753774900" lon="12.618791200"><ele>854</ele><time>2013-09-25T09:32:23Z</time></trkpt>
 <trkpt lat="47.753781200" lon="12.618793700"><ele>854</ele><time>2013-09-25T09:32:27Z</time></trkpt>
 <trkpt lat="47.753785800" lon="12.618786600"><ele>854</ele><time>2013-09-25T09:32:31Z</time></trkpt>
 <trkpt lat="47.753785800" lon="12.618786600"><ele>854</ele><time>2013-09-25T09:32:35Z</time></trkpt>
 <trkpt lat="47.753785800" lon="12.618786600"><ele>854</ele><time>2013-09-25T09:32:39Z</time></trkpt>
 <trkpt lat="47.753780800" lon="12.618792000"><ele>854</ele><time>2013-09-25T09:32:43Z</time></trkpt>
 <trkpt lat="47.753774900" lon="12.618792000"><ele>854</ele><time>2013-09-25T09:32:47Z</time></trkpt>
 <trkpt lat="47.753734900" lon="12.618779900"><ele>855</ele><time>2013-09-25T09:32:51Z</time></trkpt>
 <trkpt lat="47.753704500" lon="12.618759900"><ele>855</ele><time>2013-09-25T09:32:55Z</time></trkpt>
 <trkpt lat="47.753704500" lon="12.618759900"><ele>855</ele><time>2013-09-25T09:32:59Z</time></trkpt>
 <trkpt lat="47.753708300" lon="12.618720700"><ele>855</ele><time>2013-09-25T09:33:03Z</time></trkpt>
 <trkpt lat="47.753721600" lon="12.618652400"><ele>855</ele><time>2013-09-25T09:33:07Z</time></trkpt>
 <trkpt lat="47.753722400" lon="12.618600800"><ele>855</ele><time>2013-09-25T09:33:11Z</time></trkpt>
 <trkpt lat="47.753736200" lon="12.618558300"><ele>856</ele><time>2013-09-25T09:33:15Z</time></trkpt>
 <trkpt lat="47.753740400" lon="12.618513300"><ele>856</ele><time>2013-09-25T09:33:19Z</time></trkpt>
 <trkpt lat="47.753760800" lon="12.618489500"><ele>856</ele><time>2013-09-25T09:33:23Z</time></trkpt>
 <trkpt lat="47.753789900" lon="12.618441600"><ele>857</ele><time>2013-09-25T09:33:27Z</time></trkpt>
 <trkpt lat="47.753807000" lon="12.618407400"><ele>857</ele><time>2013-09-25T09:33:31Z</time></trkpt>
 <trkpt lat="47.753830800" lon="12.618361600"><ele>858</ele><time>2013-09-25T09:33:35Z</time></trkpt>
 <trkpt lat="47.753832900" lon="12.618324900"><ele>858</ele><time>2013-09-25T09:33:39Z</time></trkpt>
 <trkpt lat="47.753839500" lon="12.618286600"><ele>859</ele><time>2013-09-25T09:33:43Z</time></trkpt>
 <trkpt lat="47.753864500" lon="12.618252000"><ele>859</ele><time>2013-09-25T09:33:47Z</time></trkpt>
 <trkpt lat="47.753888300" lon="12.618222400"><ele>860</ele><time>2013-09-25T09:33:51Z</time></trkpt>
 <trkpt lat="47.753904100" lon="12.618190700"><ele>861</ele><time>2013-09-25T09:33:55Z</time></trkpt>
 <trkpt lat="47.753934500" lon="12.618172800"><ele>861</ele><time>2013-09-25T09:33:59Z</time></trkpt>
 <trkpt lat="47.753942800" lon="12.618144500"><ele>862</ele><time>2013-09-25T09:34:03Z</time></trkpt>
 <trkpt lat="47.753945000" lon="12.618117400"><ele>863</ele><time>2013-09-25T09:34:07Z</time></trkpt>
 <trkpt lat="47.753957800" lon="12.618099100"><ele>863</ele><time>2013-09-25T09:34:11Z</time></trkpt>
 <trkpt lat="47.753978200" lon="12.618069900"><ele>864</ele><time>2013-09-25T09:34:15Z</time></trkpt>
 <trkpt lat="47.753988700" lon="12.618032000"><ele>865</ele><time>2013-09-25T09:34:19Z</time></trkpt>
 <trkpt lat="47.754001200" lon="12.617989900"><ele>865</ele><time>2013-09-25T09:34:23Z</time></trkpt>
 <trkpt lat="47.754009900" lon="12.617944500"><ele>866</ele><time>2013-09-25T09:34:27Z</time></trkpt>
 <trkpt lat="47.754022000" lon="12.617899500"><ele>867</ele><time>2013-09-25T09:34:31Z</time></trkpt>
 <trkpt lat="47.754042800" lon="12.617850300"><ele>868</ele><time>2013-09-25T09:34:35Z</time></trkpt>
 <trkpt lat="47.754044500" lon="12.617808300"><ele>868</ele><time>2013-09-25T09:34:39Z</time></trkpt>
 <trkpt lat="47.754037800" lon="12.617789500"><ele>869</ele><time>2013-09-25T09:34:43Z</time></trkpt>
 <trkpt lat="47.754042000" lon="12.617765400"><ele>870</ele><time>2013-09-25T09:34:47Z</time></trkpt>
 <trkpt lat="47.754057000" lon="12.617741600"><ele>871</ele><time>2013-09-25T09:34:51Z</time></trkpt>
 <trkpt lat="47.754062400" lon="12.617742800"><ele>871</ele><time>2013-09-25T09:34:55Z</time></trkpt>
 <trkpt lat="47.754062400" lon="12.617742800"><ele>872</ele><time>2013-09-25T09:34:59Z</time></trkpt>
 <trkpt lat="47.754082400" lon="12.617718300"><ele>873</ele><time>2013-09-25T09:35:03Z</time></trkpt>
 <trkpt lat="47.754101600" lon="12.617674100"><ele>873</ele><time>2013-09-25T09:35:07Z</time></trkpt>
 <trkpt lat="47.754111600" lon="12.617643700"><ele>874</ele><time>2013-09-25T09:35:11Z</time></trkpt>
 <trkpt lat="47.754124900" lon="12.617598700"><ele>875</ele><time>2013-09-25T09:35:15Z</time></trkpt>
 <trkpt lat="47.754143300" lon="12.617552900"><ele>876</ele><time>2013-09-25T09:35:19Z</time></trkpt>
 <trkpt lat="47.754159100" lon="12.617510400"><ele>876</ele><time>2013-09-25T09:35:23Z</time></trkpt>
 <trkpt lat="47.754168700" lon="12.617467800"><ele>877</ele><time>2013-09-25T09:35:27Z</time></trkpt>
 <trkpt lat="47.754169500" lon="12.617429500"><ele>878</ele><time>2013-09-25T09:35:31Z</time></trkpt>
 <trkpt lat="47.754170800" lon="12.617405800"><ele>878</ele><time>2013-09-25T09:35:35Z</time></trkpt>
 <trkpt lat="47.754173700" lon="12.617357800"><ele>879</ele><time>2013-09-25T09:35:39Z</time></trkpt>
 <trkpt lat="47.754180300" lon="12.617306600"><ele>880</ele><time>2013-09-25T09:35:43Z</time></trkpt>
 <trkpt lat="47.754193700" lon="12.617267900"><ele>880</ele><time>2013-09-25T09:35:47Z</time></trkpt>
 <trkpt lat="47.754204100" lon="12.617225400"><ele>881</ele><time>2013-09-25T09:35:51Z</time></trkpt>
 <trkpt lat="47.754207000" lon="12.617203300"><ele>882</ele><time>2013-09-25T09:35:55Z</time></trkpt>
 <trkpt lat="47.754198300" lon="12.617167900"><ele>882</ele><time>2013-09-25T09:35:59Z</time></trkpt>
 <trkpt lat="47.754199500" lon="12.617133300"><ele>883</ele><time>2013-09-25T09:36:03Z</time></trkpt>
 <trkpt lat="47.754215300" lon="12.617094100"><ele>884</ele><time>2013-09-25T09:36:07Z</time></trkpt>
 <trkpt lat="47.754218700" lon="12.617058700"><ele>884</ele><time>2013-09-25T09:36:11Z</time></trkpt>
 <trkpt lat="47.754213300" lon="12.617026600"><ele>885</ele><time>2013-09-25T09:36:15Z</time></trkpt>
 <trkpt lat="47.754209500" lon="12.617002400"><ele>885</ele><time>2013-09-25T09:36:19Z</time></trkpt>
 <trkpt lat="47.754196600" lon="12.617000800"><ele>886</ele><time>2013-09-25T09:36:23Z</time></trkpt>
 <trkpt lat="47.754207800" lon="12.617004100"><ele>887</ele><time>2013-09-25T09:36:27Z</time></trkpt>
 <trkpt lat="47.754224900" lon="12.617004100"><ele>887</ele><time>2013-09-25T09:36:31Z</time></trkpt>
 <trkpt lat="47.754233700" lon="12.616997000"><ele>888</ele><time>2013-09-25T09:36:35Z</time></trkpt>
 <trkpt lat="47.754239900" lon="12.616992400"><ele>888</ele><time>2013-09-25T09:36:39Z</time></trkpt>
 <trkpt lat="47.754239900" lon="12.616992400"><ele>888</ele><time>2013-09-25T09:36:43Z</time></trkpt>
 <trkpt lat="47.754239900" lon="12.616992400"><ele>889</ele><time>2013-09-25T09:36:47Z</time></trkpt>
 <trkpt lat="47.754239900" lon="12.616992400"><ele>889</ele><time>2013-09-25T09:36:51Z</time></trkpt>
 <trkpt lat="47.754239900" lon="12.616992400"><ele>889</ele><time>2013-09-25T09:36:55Z</time></trkpt>
 <trkpt lat="47.754227000" lon="12.616994500"><ele>890</ele><time>2013-09-25T09:36:59Z</time></trkpt>
 <trkpt lat="47.754221200" lon="12.616997000"><ele>890</ele><time>2013-09-25T09:37:03Z</time></trkpt>
 <trkpt lat="47.754239900" lon="12.616996200"><ele>890</ele><time>2013-09-25T09:37:07Z</time></trkpt>
 <trkpt lat="47.754254100" lon="12.617004900"><ele>890</ele><time>2013-09-25T09:37:11Z</time></trkpt>
 <trkpt lat="47.754259900" lon="12.617011200"><ele>891</ele><time>2013-09-25T09:37:15Z</time></trkpt>
 <trkpt lat="47.754264900" lon="12.617014900"><ele>891</ele><time>2013-09-25T09:37:19Z</time></trkpt>
 <trkpt lat="47.754272000" lon="12.617030800"><ele>891</ele><time>2013-09-25T09:37:23Z</time></trkpt>
 <trkpt lat="47.754267400" lon="12.617026600"><ele>891</ele><time>2013-09-25T09:37:27Z</time></trkpt>
 <trkpt lat="47.754265800" lon="12.617010000"><ele>891</ele><time>2013-09-25T09:37:31Z</time></trkpt>
 <trkpt lat="47.754265800" lon="12.617010000"><ele>891</ele><time>2013-09-25T09:37:35Z</time></trkpt>
 <trkpt lat="47.754253700" lon="12.616994500"><ele>891</ele><time>2013-09-25T09:37:39Z</time></trkpt>
 <trkpt lat="47.754232000" lon="12.616978300"><ele>892</ele><time>2013-09-25T09:37:43Z</time></trkpt>
 <trkpt lat="47.754213700" lon="12.616963700"><ele>892</ele><time>2013-09-25T09:37:47Z</time></trkpt>
 <trkpt lat="47.754207400" lon="12.616958700"><ele>892</ele><time>2013-09-25T09:37:51Z</time></trkpt>
 <trkpt lat="47.754204100" lon="12.616950300"><ele>892</ele><time>2013-09-25T09:37:55Z</time></trkpt>
 <trkpt lat="47.754204100" lon="12.616950300"><ele>892</ele><time>2013-09-25T09:37:59Z</time></trkpt>
 <trkpt lat="47.754205800" lon="12.616941600"><ele>892</ele><time>2013-09-25T09:38:03Z</time></trkpt>
 <trkpt lat="47.754219100" lon="12.616929900"><ele>892</ele><time>2013-09-25T09:38:07Z</time></trkpt>
 <trkpt lat="47.754242000" lon="12.616898300"><ele>893</ele><time>2013-09-25T09:38:11Z</time></trkpt>
 <trkpt lat="47.754247000" lon="12.616868200"><ele>893</ele><time>2013-09-25T09:38:15Z</time></trkpt>
 <trkpt lat="47.754255300" lon="12.616837400"><ele>893</ele><time>2013-09-25T09:38:19Z</time></trkpt>
 <trkpt lat="47.754272400" lon="12.616799900"><ele>893</ele><time>2013-09-25T09:38:23Z</time></trkpt>
 <trkpt lat="47.754280800" lon="12.616749500"><ele>894</ele><time>2013-09-25T09:38:27Z</time></trkpt>
 <trkpt lat="47.754273700" lon="12.616690800"><ele>894</ele><time>2013-09-25T09:38:31Z</time></trkpt>
 <trkpt lat="47.754273700" lon="12.616640400"><ele>894</ele><time>2013-09-25T09:38:35Z</time></trkpt>
 <trkpt lat="47.754287800" lon="12.616583700"><ele>895</ele><time>2013-09-25T09:38:39Z</time></trkpt>
 <trkpt lat="47.754302000" lon="12.616539500"><ele>895</ele><time>2013-09-25T09:38:43Z</time></trkpt>
 <trkpt lat="47.754303300" lon="12.616492900"><ele>895</ele><time>2013-09-25T09:38:47Z</time></trkpt>
 <trkpt lat="47.754304900" lon="12.616450800"><ele>896</ele><time>2013-09-25T09:38:51Z</time></trkpt>
 <trkpt lat="47.754313700" lon="12.616413300"><ele>896</ele><time>2013-09-25T09:38:55Z</time></trkpt>
 <trkpt lat="47.754314900" lon="12.616374500"><ele>897</ele><time>2013-09-25T09:38:59Z</time></trkpt>
 <trkpt lat="47.754324500" lon="12.616329100"><ele>898</ele><time>2013-09-25T09:39:03Z</time></trkpt>
 <trkpt lat="47.754318700" lon="12.616275700"><ele>898</ele><time>2013-09-25T09:39:07Z</time></trkpt>
 <trkpt lat="47.754302000" lon="12.616218700"><ele>899</ele><time>2013-09-25T09:39:11Z</time></trkpt>
 <trkpt lat="47.754314100" lon="12.616178700"><ele>899</ele><time>2013-09-25T09:39:15Z</time></trkpt>
 <trkpt lat="47.754342900" lon="12.616162800"><ele>900</ele><time>2013-09-25T09:39:19Z</time></trkpt>
 <trkpt lat="47.754358700" lon="12.616148300"><ele>900</ele><time>2013-09-25T09:39:23Z</time></trkpt>
 <trkpt lat="47.754357000" lon="12.616139100"><ele>901</ele><time>2013-09-25T09:39:27Z</time></trkpt>
 <trkpt lat="47.754349900" lon="12.616112800"><ele>901</ele><time>2013-09-25T09:39:31Z</time></trkpt>
 <trkpt lat="47.754342800" lon="12.616094100"><ele>901</ele><time>2013-09-25T09:39:35Z</time></trkpt>
 <trkpt lat="47.754349900" lon="12.616095300"><ele>902</ele><time>2013-09-25T09:39:39Z</time></trkpt>
 <trkpt lat="47.754355000" lon="12.616099100"><ele>902</ele><time>2013-09-25T09:39:43Z</time></trkpt>
 <trkpt lat="47.754355000" lon="12.616099100"><ele>903</ele><time>2013-09-25T09:39:47Z</time></trkpt>
 <trkpt lat="47.754369500" lon="12.616068300"><ele>903</ele><time>2013-09-25T09:39:51Z</time></trkpt>
 <trkpt lat="47.754383700" lon="12.616029900"><ele>904</ele><time>2013-09-25T09:39:55Z</time></trkpt>
 <trkpt lat="47.754396600" lon="12.615965400"><ele>904</ele><time>2013-09-25T09:39:59Z</time></trkpt>
 <trkpt lat="47.754409500" lon="12.615869100"><ele>904</ele><time>2013-09-25T09:40:03Z</time></trkpt>
 <trkpt lat="47.754402400" lon="12.615824500"><ele>905</ele><time>2013-09-25T09:40:07Z</time></trkpt>
 <trkpt lat="47.754406600" lon="12.615773300"><ele>905</ele><time>2013-09-25T09:40:11Z</time></trkpt>
 <trkpt lat="47.754409900" lon="12.615736200"><ele>905</ele><time>2013-09-25T09:40:15Z</time></trkpt>
 <trkpt lat="47.754431600" lon="12.615702000"><ele>905</ele><time>2013-09-25T09:40:19Z</time></trkpt>
 <trkpt lat="47.754443300" lon="12.615665400"><ele>906</ele><time>2013-09-25T09:40:23Z</time></trkpt>
 <trkpt lat="47.754451600" lon="12.615638300"><ele>906</ele><time>2013-09-25T09:40:27Z</time></trkpt>
 <trkpt lat="47.754454500" lon="12.615625800"><ele>906</ele><time>2013-09-25T09:40:31Z</time></trkpt>
 <trkpt lat="47.754464900" lon="12.615584900"><ele>906</ele><time>2013-09-25T09:40:35Z</time></trkpt>
 <trkpt lat="47.754474100" lon="12.615550800"><ele>906</ele><time>2013-09-25T09:40:39Z</time></trkpt>
 <trkpt lat="47.754473700" lon="12.615525400"><ele>906</ele><time>2013-09-25T09:40:43Z</time></trkpt>
 <trkpt lat="47.754476200" lon="12.615489500"><ele>907</ele><time>2013-09-25T09:40:47Z</time></trkpt>
 <trkpt lat="47.754484900" lon="12.615431600"><ele>907</ele><time>2013-09-25T09:40:51Z</time></trkpt>
 <trkpt lat="47.754490800" lon="12.615389100"><ele>907</ele><time>2013-09-25T09:40:55Z</time></trkpt>
 <trkpt lat="47.754511200" lon="12.615340400"><ele>907</ele><time>2013-09-25T09:40:59Z</time></trkpt>
 <trkpt lat="47.754523300" lon="12.615274100"><ele>907</ele><time>2013-09-25T09:41:03Z</time></trkpt>
 <trkpt lat="47.754498300" lon="12.615208300"><ele>907</ele><time>2013-09-25T09:41:07Z</time></trkpt>
 <trkpt lat="47.754492400" lon="12.615175300"><ele>908</ele><time>2013-09-25T09:41:11Z</time></trkpt>
 <trkpt lat="47.754486200" lon="12.615135300"><ele>908</ele><time>2013-09-25T09:41:15Z</time></trkpt>
 <trkpt lat="47.754473300" lon="12.615088700"><ele>908</ele><time>2013-09-25T09:41:19Z</time></trkpt>
 <trkpt lat="47.754477000" lon="12.615044900"><ele>909</ele><time>2013-09-25T09:41:23Z</time></trkpt>
 <trkpt lat="47.754495700" lon="12.615003700"><ele>909</ele><time>2013-09-25T09:41:27Z</time></trkpt>
 <trkpt lat="47.754514100" lon="12.614955800"><ele>909</ele><time>2013-09-25T09:41:31Z</time></trkpt>
 <trkpt lat="47.754522000" lon="12.614883700"><ele>910</ele><time>2013-09-25T09:41:35Z</time></trkpt>
 <trkpt lat="47.754519100" lon="12.614824500"><ele>910</ele><time>2013-09-25T09:41:39Z</time></trkpt>
 <trkpt lat="47.754520300" lon="12.614775800"><ele>911</ele><time>2013-09-25T09:41:43Z</time></trkpt>
 <trkpt lat="47.754524900" lon="12.614738300"><ele>911</ele><time>2013-09-25T09:41:47Z</time></trkpt>
 <trkpt lat="47.754517900" lon="12.614700800"><ele>912</ele><time>2013-09-25T09:41:51Z</time></trkpt>
 <trkpt lat="47.754502000" lon="12.614666200"><ele>912</ele><time>2013-09-25T09:41:55Z</time></trkpt>
 <trkpt lat="47.754491600" lon="12.614633200"><ele>913</ele><time>2013-09-25T09:41:59Z</time></trkpt>
 <trkpt lat="47.754484100" lon="12.614615300"><ele>913</ele><time>2013-09-25T09:42:03Z</time></trkpt>
 <trkpt lat="47.754480300" lon="12.614631200"><ele>914</ele><time>2013-09-25T09:42:07Z</time></trkpt>
 <trkpt lat="47.754480400" lon="12.614657000"><ele>914</ele><time>2013-09-25T09:42:11Z</time></trkpt>
 <trkpt lat="47.754480400" lon="12.614657000"><ele>914</ele><time>2013-09-25T09:42:15Z</time></trkpt>
 <trkpt lat="47.754481200" lon="12.614666200"><ele>915</ele><time>2013-09-25T09:42:19Z</time></trkpt>
 <trkpt lat="47.754481200" lon="12.614666200"><ele>915</ele><time>2013-09-25T09:42:23Z</time></trkpt>
 <trkpt lat="47.754481200" lon="12.614666200"><ele>915</ele><time>2013-09-25T09:42:27Z</time></trkpt>
 <trkpt lat="47.754481200" lon="12.614666200"><ele>916</ele><time>2013-09-25T09:42:31Z</time></trkpt>
 <trkpt lat="47.754481200" lon="12.614666200"><ele>916</ele><time>2013-09-25T09:42:35Z</time></trkpt>
 <trkpt lat="47.754487800" lon="12.614656600"><ele>916</ele><time>2013-09-25T09:42:39Z</time></trkpt>
 <trkpt lat="47.754484900" lon="12.614637900"><ele>916</ele><time>2013-09-25T09:42:43Z</time></trkpt>
 <trkpt lat="47.754472400" lon="12.614604900"><ele>916</ele><time>2013-09-25T09:42:47Z</time></trkpt>
 <trkpt lat="47.754460800" lon="12.614542800"><ele>917</ele><time>2013-09-25T09:42:51Z</time></trkpt>
 <trkpt lat="47.754448700" lon="12.614475400"><ele>917</ele><time>2013-09-25T09:42:55Z</time></trkpt>
 <trkpt lat="47.754454100" lon="12.614418700"><ele>917</ele><time>2013-09-25T09:42:59Z</time></trkpt>
 <trkpt lat="47.754467000" lon="12.614365800"><ele>917</ele><time>2013-09-25T09:43:03Z</time></trkpt>
 <trkpt lat="47.754464500" lon="12.614307000"><ele>917</ele><time>2013-09-25T09:43:07Z</time></trkpt>
 <trkpt lat="47.754477800" lon="12.614249100"><ele>918</ele><time>2013-09-25T09:43:11Z</time></trkpt>
 <trkpt lat="47.754482900" lon="12.614192000"><ele>918</ele><time>2013-09-25T09:43:15Z</time></trkpt>
 <trkpt lat="47.754492400" lon="12.614133700"><ele>918</ele><time>2013-09-25T09:43:19Z</time></trkpt>
 <trkpt lat="47.754507800" lon="12.614063300"><ele>919</ele><time>2013-09-25T09:43:23Z</time></trkpt>
 <trkpt lat="47.754516600" lon="12.613987400"><ele>919</ele><time>2013-09-25T09:43:27Z</time></trkpt>
 <trkpt lat="47.754526600" lon="12.613930300"><ele>920</ele><time>2013-09-25T09:43:31Z</time></trkpt>
 <trkpt lat="47.754542000" lon="12.613883300"><ele>920</ele><time>2013-09-25T09:43:35Z</time></trkpt>
 <trkpt lat="47.754563700" lon="12.613837800"><ele>921</ele><time>2013-09-25T09:43:39Z</time></trkpt>
 <trkpt lat="47.754590800" lon="12.613792900"><ele>922</ele><time>2013-09-25T09:43:43Z</time></trkpt>
 <trkpt lat="47.754614500" lon="12.613757000"><ele>922</ele><time>2013-09-25T09:43:47Z</time></trkpt>
 <trkpt lat="47.754645800" lon="12.613747800"><ele>923</ele><time>2013-09-25T09:43:51Z</time></trkpt>
 <trkpt lat="47.754659500" lon="12.613754100"><ele>924</ele><time>2013-09-25T09:43:55Z</time></trkpt>
 <trkpt lat="47.754659500" lon="12.613754100"><ele>924</ele><time>2013-09-25T09:43:59Z</time></trkpt>
 <trkpt lat="47.754660800" lon="12.613746200"><ele>925</ele><time>2013-09-25T09:44:03Z</time></trkpt>
 <trkpt lat="47.754679100" lon="12.613694900"><ele>925</ele><time>2013-09-25T09:44:07Z</time></trkpt>
 <trkpt lat="47.754696200" lon="12.613647800"><ele>926</ele><time>2013-09-25T09:44:11Z</time></trkpt>
 <trkpt lat="47.754694100" lon="12.613582800"><ele>926</ele><time>2013-09-25T09:44:15Z</time></trkpt>
 <trkpt lat="47.754675300" lon="12.613521600"><ele>927</ele><time>2013-09-25T09:44:19Z</time></trkpt>
 <trkpt lat="47.754672400" lon="12.613466600"><ele>927</ele><time>2013-09-25T09:44:23Z</time></trkpt>
 <trkpt lat="47.754666600" lon="12.613444500"><ele>928</ele><time>2013-09-25T09:44:27Z</time></trkpt>
 <trkpt lat="47.754654500" lon="12.613436600"><ele>928</ele><time>2013-09-25T09:44:31Z</time></trkpt>
 <trkpt lat="47.754649100" lon="12.613433700"><ele>929</ele><time>2013-09-25T09:44:35Z</time></trkpt>
 <trkpt lat="47.754647000" lon="12.613425800"><ele>929</ele><time>2013-09-25T09:44:39Z</time></trkpt>
 <trkpt lat="47.754643700" lon="12.613419100"><ele>929</ele><time>2013-09-25T09:44:43Z</time></trkpt>
 <trkpt lat="47.754637900" lon="12.613412400"><ele>930</ele><time>2013-09-25T09:44:47Z</time></trkpt>
 <trkpt lat="47.754633700" lon="12.613406600"><ele>930</ele><time>2013-09-25T09:44:51Z</time></trkpt>
 <trkpt lat="47.754630400" lon="12.613399500"><ele>930</ele><time>2013-09-25T09:44:55Z</time></trkpt>
 <trkpt lat="47.754621600" lon="12.613365800"><ele>930</ele><time>2013-09-25T09:44:59Z</time></trkpt>
 <trkpt lat="47.754619500" lon="12.613336200"><ele>930</ele><time>2013-09-25T09:45:03Z</time></trkpt>
 <trkpt lat="47.754620400" lon="12.613291600"><ele>930</ele><time>2013-09-25T09:45:07Z</time></trkpt>
 <trkpt lat="47.754626600" lon="12.613258300"><ele>930</ele><time>2013-09-25T09:45:11Z</time></trkpt>
 <trkpt lat="47.754634900" lon="12.613224900"><ele>931</ele><time>2013-09-25T09:45:15Z</time></trkpt>
 <trkpt lat="47.754636600" lon="12.613183200"><ele>931</ele><time>2013-09-25T09:45:19Z</time></trkpt>
 <trkpt lat="47.754629900" lon="12.613150300"><ele>931</ele><time>2013-09-25T09:45:23Z</time></trkpt>
 <trkpt lat="47.754633700" lon="12.613114100"><ele>931</ele><time>2013-09-25T09:45:27Z</time></trkpt>
 <trkpt lat="47.754633300" lon="12.613077400"><ele>932</ele><time>2013-09-25T09:45:31Z</time></trkpt>
 <trkpt lat="47.754634100" lon="12.613053700"><ele>932</ele><time>2013-09-25T09:45:35Z</time></trkpt>
 <trkpt lat="47.754627000" lon="12.613014500"><ele>932</ele><time>2013-09-25T09:45:39Z</time></trkpt>
 <trkpt lat="47.754612400" lon="12.612972000"><ele>932</ele><time>2013-09-25T09:45:43Z</time></trkpt>
 <trkpt lat="47.754607800" lon="12.612930300"><ele>933</ele><time>2013-09-25T09:45:47Z</time></trkpt>
 <trkpt lat="47.754598700" lon="12.612904500"><ele>933</ele><time>2013-09-25T09:45:51Z</time></trkpt>
 <trkpt lat="47.754590300" lon="12.612887000"><ele>933</ele><time>2013-09-25T09:45:55Z</time></trkpt>
 <trkpt lat="47.754595300" lon="12.612879100"><ele>934</ele><time>2013-09-25T09:45:59Z</time></trkpt>
 <trkpt lat="47.754595300" lon="12.612879100"><ele>934</ele><time>2013-09-25T09:46:03Z</time></trkpt>
 <trkpt lat="47.754591600" lon="12.612886200"><ele>934</ele><time>2013-09-25T09:46:07Z</time></trkpt>
 <trkpt lat="47.754584500" lon="12.612899500"><ele>935</ele><time>2013-09-25T09:46:11Z</time></trkpt>
 <trkpt lat="47.754578700" lon="12.612902400"><ele>935</ele><time>2013-09-25T09:46:15Z</time></trkpt>
 <trkpt lat="47.754555800" lon="12.612902000"><ele>935</ele><time>2013-09-25T09:46:19Z</time></trkpt>
 <trkpt lat="47.754543700" lon="12.612902800"><ele>935</ele><time>2013-09-25T09:46:23Z</time></trkpt>
 <trkpt lat="47.754531200" lon="12.612909900"><ele>935</ele><time>2013-09-25T09:46:27Z</time></trkpt>
 <trkpt lat="47.754535800" lon="12.612889500"><ele>935</ele><time>2013-09-25T09:46:31Z</time></trkpt>
 <trkpt lat="47.754551200" lon="12.612826600"><ele>936</ele><time>2013-09-25T09:46:35Z</time></trkpt>
 <trkpt lat="47.754553700" lon="12.612767800"><ele>936</ele><time>2013-09-25T09:46:39Z</time></trkpt>
 <trkpt lat="47.754544500" lon="12.612714500"><ele>936</ele><time>2013-09-25T09:46:43Z</time></trkpt>
 <trkpt lat="47.754545400" lon="12.612669500"><ele>936</ele><time>2013-09-25T09:46:47Z</time></trkpt>
 <trkpt lat="47.754537000" lon="12.612626200"><ele>936</ele><time>2013-09-25T09:46:51Z</time></trkpt>
 <trkpt lat="47.754523700" lon="12.612581600"><ele>936</ele><time>2013-09-25T09:46:55Z</time></trkpt>
 <trkpt lat="47.754512400" lon="12.612537400"><ele>936</ele><time>2013-09-25T09:46:59Z</time></trkpt>
 <trkpt lat="47.754514900" lon="12.612500800"><ele>936</ele><time>2013-09-25T09:47:03Z</time></trkpt>
 <trkpt lat="47.754525800" lon="12.612462900"><ele>936</ele><time>2013-09-25T09:47:07Z</time></trkpt>
 <trkpt lat="47.754535300" lon="12.612422800"><ele>936</ele><time>2013-09-25T09:47:11Z</time></trkpt>
 <trkpt lat="47.754532400" lon="12.612386200"><ele>936</ele><time>2013-09-25T09:47:15Z</time></trkpt>
 <trkpt lat="47.754545800" lon="12.612334100"><ele>936</ele><time>2013-09-25T09:47:19Z</time></trkpt>
 <trkpt lat="47.754565300" lon="12.612295000"><ele>937</ele><time>2013-09-25T09:47:23Z</time></trkpt>
 <trkpt lat="47.754579900" lon="12.612252000"><ele>937</ele><time>2013-09-25T09:47:27Z</time></trkpt>
 <trkpt lat="47.754584100" lon="12.612208200"><ele>937</ele><time>2013-09-25T09:47:31Z</time></trkpt>
 <trkpt lat="47.754587000" lon="12.612169500"><ele>937</ele><time>2013-09-25T09:47:35Z</time></trkpt>
 <trkpt lat="47.754564500" lon="12.612129500"><ele>937</ele><time>2013-09-25T09:47:39Z</time></trkpt>
 <trkpt lat="47.754538200" lon="12.612092900"><ele>938</ele><time>2013-09-25T09:47:43Z</time></trkpt>
 <trkpt lat="47.754524500" lon="12.612057400"><ele>938</ele><time>2013-09-25T09:47:47Z</time></trkpt>
 <trkpt lat="47.754514500" lon="12.612021200"><ele>938</ele><time>2013-09-25T09:47:51Z</time></trkpt>
 <trkpt lat="47.754520800" lon="12.611989500"><ele>938</ele><time>2013-09-25T09:47:55Z</time></trkpt>
 <trkpt lat="47.754536600" lon="12.611956200"><ele>939</ele><time>2013-09-25T09:47:59Z</time></trkpt>
 <trkpt lat="47.754535400" lon="12.611925800"><ele>939</ele><time>2013-09-25T09:48:03Z</time></trkpt>
 <trkpt lat="47.754521600" lon="12.611892900"><ele>940</ele><time>2013-09-25T09:48:07Z</time></trkpt>
 <trkpt lat="47.754529900" lon="12.611849100"><ele>940</ele><time>2013-09-25T09:48:11Z</time></trkpt>
 <trkpt lat="47.754546600" lon="12.611800400"><ele>941</ele><time>2013-09-25T09:48:15Z</time></trkpt>
 <trkpt lat="47.754581200" lon="12.611739900"><ele>941</ele><time>2013-09-25T09:48:19Z</time></trkpt>
 <trkpt lat="47.754583700" lon="12.611698700"><ele>942</ele><time>2013-09-25T09:48:23Z</time></trkpt>
 <trkpt lat="47.754583700" lon="12.611698700"><ele>942</ele><time>2013-09-25T09:48:27Z</time></trkpt>
 <trkpt lat="47.754589500" lon="12.611698700"><ele>942</ele><time>2013-09-25T09:48:31Z</time></trkpt>
 <trkpt lat="47.754589500" lon="12.611698700"><ele>943</ele><time>2013-09-25T09:48:35Z</time></trkpt>
 <trkpt lat="47.754589500" lon="12.611698700"><ele>943</ele><time>2013-09-25T09:48:39Z</time></trkpt>
 <trkpt lat="47.754594900" lon="12.611697400"><ele>943</ele><time>2013-09-25T09:48:43Z</time></trkpt>
 <trkpt lat="47.754594900" lon="12.611697400"><ele>944</ele><time>2013-09-25T09:48:47Z</time></trkpt>
 <trkpt lat="47.754601200" lon="12.611695300"><ele>944</ele><time>2013-09-25T09:48:51Z</time></trkpt>
 <trkpt lat="47.754605300" lon="12.611688200"><ele>944</ele><time>2013-09-25T09:48:55Z</time></trkpt>
 <trkpt lat="47.754612400" lon="12.611684100"><ele>944</ele><time>2013-09-25T09:48:59Z</time></trkpt>
 <trkpt lat="47.754619100" lon="12.611683300"><ele>944</ele><time>2013-09-25T09:49:03Z</time></trkpt>
 <trkpt lat="47.754624500" lon="12.611686600"><ele>945</ele><time>2013-09-25T09:49:07Z</time></trkpt>
 <trkpt lat="47.754630800" lon="12.611684100"><ele>945</ele><time>2013-09-25T09:49:11Z</time></trkpt>
 <trkpt lat="47.754637000" lon="12.611679900"><ele>945</ele><time>2013-09-25T09:49:15Z</time></trkpt>
 <trkpt lat="47.754631600" lon="12.611655700"><ele>945</ele><time>2013-09-25T09:49:19Z</time></trkpt>
 <trkpt lat="47.754629500" lon="12.611625300"><ele>945</ele><time>2013-09-25T09:49:23Z</time></trkpt>
 <trkpt lat="47.754626200" lon="12.611595300"><ele>945</ele><time>2013-09-25T09:49:27Z</time></trkpt>
 <trkpt lat="47.754626200" lon="12.611584100"><ele>945</ele><time>2013-09-25T09:49:31Z</time></trkpt>
 <trkpt lat="47.754621200" lon="12.611574100"><ele>945</ele><time>2013-09-25T09:49:35Z</time></trkpt>
 <trkpt lat="47.754565800" lon="12.611727400"><ele>945</ele><time>2013-09-25T09:49:39Z</time></trkpt>
 <trkpt lat="47.754522000" lon="12.611744500"><ele>944</ele><time>2013-09-25T09:49:43Z</time></trkpt>
 <trkpt lat="47.754509900" lon="12.611742800"><ele>944</ele><time>2013-09-25T09:49:47Z</time></trkpt>
 <trkpt lat="47.754511600" lon="12.611722000"><ele>944</ele><time>2013-09-25T09:49:51Z</time></trkpt>
 <trkpt lat="47.754507000" lon="12.611702800"><ele>944</ele><time>2013-09-25T09:49:55Z</time></trkpt>
 <trkpt lat="47.754500800" lon="12.611698700"><ele>944</ele><time>2013-09-25T09:49:59Z</time></trkpt>
 <trkpt lat="47.754490800" lon="12.611687000"><ele>944</ele><time>2013-09-25T09:50:03Z</time></trkpt>
 <trkpt lat="47.754473700" lon="12.611679100"><ele>944</ele><time>2013-09-25T09:50:07Z</time></trkpt>
 <trkpt lat="47.754460800" lon="12.611683700"><ele>944</ele><time>2013-09-25T09:50:11Z</time></trkpt>
 <trkpt lat="47.754454500" lon="12.611681600"><ele>944</ele><time>2013-09-25T09:50:15Z</time></trkpt>
 <trkpt lat="47.754449900" lon="12.611677000"><ele>943</ele><time>2013-09-25T09:50:19Z</time></trkpt>
 <trkpt lat="47.754449900" lon="12.611677000"><ele>943</ele><time>2013-09-25T09:50:23Z</time></trkpt>
 <trkpt lat="47.754444100" lon="12.611676200"><ele>943</ele><time>2013-09-25T09:50:27Z</time></trkpt>
 <trkpt lat="47.754439500" lon="12.611666200"><ele>943</ele><time>2013-09-25T09:50:31Z</time></trkpt>
 <trkpt lat="47.754435800" lon="12.611634100"><ele>943</ele><time>2013-09-25T09:50:35Z</time></trkpt>
 <trkpt lat="47.754432400" lon="12.611594900"><ele>943</ele><time>2013-09-25T09:50:39Z</time></trkpt>
 <trkpt lat="47.754442000" lon="12.611564900"><ele>943</ele><time>2013-09-25T09:50:43Z</time></trkpt>
 <trkpt lat="47.754464100" lon="12.611539900"><ele>943</ele><time>2013-09-25T09:50:47Z</time></trkpt>
 <trkpt lat="47.754476600" lon="12.611512000"><ele>943</ele><time>2013-09-25T09:50:51Z</time></trkpt>
 <trkpt lat="47.754487400" lon="12.611479900"><ele>943</ele><time>2013-09-25T09:50:55Z</time></trkpt>
 <trkpt lat="47.754502000" lon="12.611445400"><ele>943</ele><time>2013-09-25T09:50:59Z</time></trkpt>
 <trkpt lat="47.754512900" lon="12.611410400"><ele>943</ele><time>2013-09-25T09:51:03Z</time></trkpt>
 <trkpt lat="47.754520300" lon="12.611371200"><ele>943</ele><time>2013-09-25T09:51:07Z</time></trkpt>
 <trkpt lat="47.754529500" lon="12.611323700"><ele>944</ele><time>2013-09-25T09:51:11Z</time></trkpt>
 <trkpt lat="47.754534500" lon="12.611288300"><ele>944</ele><time>2013-09-25T09:51:15Z</time></trkpt>
 <trkpt lat="47.754546200" lon="12.611228300"><ele>944</ele><time>2013-09-25T09:51:19Z</time></trkpt>
 <trkpt lat="47.754554500" lon="12.611195300"><ele>945</ele><time>2013-09-25T09:51:23Z</time></trkpt>
 <trkpt lat="47.754543300" lon="12.611142400"><ele>945</ele><time>2013-09-25T09:51:27Z</time></trkpt>
 <trkpt lat="47.754542900" lon="12.611109900"><ele>945</ele><time>2013-09-25T09:51:31Z</time></trkpt>
 <trkpt lat="47.754531200" lon="12.611088300"><ele>946</ele><time>2013-09-25T09:51:35Z</time></trkpt>
 <trkpt lat="47.754515300" lon="12.611054100"><ele>947</ele><time>2013-09-25T09:51:39Z</time></trkpt>
 <trkpt lat="47.754506600" lon="12.611014900"><ele>947</ele><time>2013-09-25T09:51:43Z</time></trkpt>
 <trkpt lat="47.754506200" lon="12.610971200"><ele>948</ele><time>2013-09-25T09:51:47Z</time></trkpt>
 <trkpt lat="47.754497800" lon="12.610922000"><ele>949</ele><time>2013-09-25T09:51:51Z</time></trkpt>
 <trkpt lat="47.754494100" lon="12.610872000"><ele>950</ele><time>2013-09-25T09:51:55Z</time></trkpt>
 <trkpt lat="47.754490800" lon="12.610823300"><ele>951</ele><time>2013-09-25T09:51:59Z</time></trkpt>
 <trkpt lat="47.754492900" lon="12.610774100"><ele>951</ele><time>2013-09-25T09:52:03Z</time></trkpt>
 <trkpt lat="47.754484100" lon="12.610734900"><ele>952</ele><time>2013-09-25T09:52:07Z</time></trkpt>
 <trkpt lat="47.754473300" lon="12.610697000"><ele>953</ele><time>2013-09-25T09:52:11Z</time></trkpt>
 <trkpt lat="47.754476600" lon="12.610663300"><ele>954</ele><time>2013-09-25T09:52:15Z</time></trkpt>
 <trkpt lat="47.754482800" lon="12.610627400"><ele>956</ele><time>2013-09-25T09:52:19Z</time></trkpt>
 <trkpt lat="47.754486200" lon="12.610600400"><ele>957</ele><time>2013-09-25T09:52:23Z</time></trkpt>
 <trkpt lat="47.754491200" lon="12.610572800"><ele>958</ele><time>2013-09-25T09:52:27Z</time></trkpt>
 <trkpt lat="47.754491200" lon="12.610527000"><ele>959</ele><time>2013-09-25T09:52:31Z</time></trkpt>
 <trkpt lat="47.754484100" lon="12.610478300"><ele>961</ele><time>2013-09-25T09:52:35Z</time></trkpt>
 <trkpt lat="47.754478700" lon="12.610449500"><ele>962</ele><time>2013-09-25T09:52:39Z</time></trkpt>
 <trkpt lat="47.754467800" lon="12.610418300"><ele>963</ele><time>2013-09-25T09:52:43Z</time></trkpt>
 <trkpt lat="47.754467800" lon="12.610389500"><ele>965</ele><time>2013-09-25T09:52:47Z</time></trkpt>
 <trkpt lat="47.754467400" lon="12.610356200"><ele>966</ele><time>2013-09-25T09:52:51Z</time></trkpt>
 <trkpt lat="47.754478700" lon="12.610313300"><ele>968</ele><time>2013-09-25T09:52:55Z</time></trkpt>
 <trkpt lat="47.754487000" lon="12.610275800"><ele>969</ele><time>2013-09-25T09:52:59Z</time></trkpt>
 <trkpt lat="47.754489500" lon="12.610253700"><ele>971</ele><time>2013-09-25T09:53:03Z</time></trkpt>
 <trkpt lat="47.754506200" lon="12.610221200"><ele>972</ele><time>2013-09-25T09:53:07Z</time></trkpt>
 <trkpt lat="47.754516600" lon="12.610186200"><ele>974</ele><time>2013-09-25T09:53:11Z</time></trkpt>
 <trkpt lat="47.754523300" lon="12.610146200"><ele>975</ele><time>2013-09-25T09:53:15Z</time></trkpt>
 <trkpt lat="47.754512800" lon="12.610105800"><ele>977</ele><time>2013-09-25T09:53:19Z</time></trkpt>
 <trkpt lat="47.754502800" lon="12.610080800"><ele>978</ele><time>2013-09-25T09:53:23Z</time></trkpt>
 <trkpt lat="47.754496600" lon="12.610040400"><ele>980</ele><time>2013-09-25T09:53:27Z</time></trkpt>
 <trkpt lat="47.754490400" lon="12.609993700"><ele>981</ele><time>2013-09-25T09:53:31Z</time></trkpt>
 <trkpt lat="47.754489500" lon="12.609953300"><ele>983</ele><time>2013-09-25T09:53:35Z</time></trkpt>
 <trkpt lat="47.754501600" lon="12.609918300"><ele>984</ele><time>2013-09-25T09:53:39Z</time></trkpt>
 <trkpt lat="47.754505700" lon="12.609896200"><ele>986</ele><time>2013-09-25T09:53:43Z</time></trkpt>
 <trkpt lat="47.754521600" lon="12.609857800"><ele>987</ele><time>2013-09-25T09:53:47Z</time></trkpt>
 <trkpt lat="47.754526200" lon="12.609817000"><ele>989</ele><time>2013-09-25T09:53:51Z</time></trkpt>
 <trkpt lat="47.754519900" lon="12.609776600"><ele>990</ele><time>2013-09-25T09:53:55Z</time></trkpt>
 <trkpt lat="47.754512800" lon="12.609741600"><ele>991</ele><time>2013-09-25T09:53:59Z</time></trkpt>
 <trkpt lat="47.754507000" lon="12.609703700"><ele>993</ele><time>2013-09-25T09:54:03Z</time></trkpt>
 <trkpt lat="47.754510300" lon="12.609667000"><ele>994</ele><time>2013-09-25T09:54:07Z</time></trkpt>
 <trkpt lat="47.754522000" lon="12.609629100"><ele>995</ele><time>2013-09-25T09:54:11Z</time></trkpt>
 <trkpt lat="47.754519100" lon="12.609598700"><ele>997</ele><time>2013-09-25T09:54:15Z</time></trkpt>
 <trkpt lat="47.754521600" lon="12.609563700"><ele>998</ele><time>2013-09-25T09:54:19Z</time></trkpt>
 <trkpt lat="47.754534100" lon="12.609517400"><ele>999</ele><time>2013-09-25T09:54:23Z</time></trkpt>
 <trkpt lat="47.754532800" lon="12.609475800"><ele>1000</ele><time>2013-09-25T09:54:27Z</time></trkpt>
 <trkpt lat="47.754537800" lon="12.609435800"><ele>1002</ele><time>2013-09-25T09:54:31Z</time></trkpt>
 <trkpt lat="47.754532000" lon="12.609394100"><ele>1003</ele><time>2013-09-25T09:54:35Z</time></trkpt>
 <trkpt lat="47.754528300" lon="12.609359100"><ele>1004</ele><time>2013-09-25T09:54:39Z</time></trkpt>
 <trkpt lat="47.754523700" lon="12.609323700"><ele>1005</ele><time>2013-09-25T09:54:43Z</time></trkpt>
 <trkpt lat="47.754524100" lon="12.609292400"><ele>1006</ele><time>2013-09-25T09:54:47Z</time></trkpt>
 <trkpt lat="47.754522800" lon="12.609265700"><ele>1007</ele><time>2013-09-25T09:54:51Z</time></trkpt>
 <trkpt lat="47.754523700" lon="12.609240300"><ele>1009</ele><time>2013-09-25T09:54:55Z</time></trkpt>
 <trkpt lat="47.754534500" lon="12.609202000"><ele>1010</ele><time>2013-09-25T09:54:59Z</time></trkpt>
 <trkpt lat="47.754547400" lon="12.609174100"><ele>1011</ele><time>2013-09-25T09:55:03Z</time></trkpt>
 <trkpt lat="47.754554900" lon="12.609138300"><ele>1012</ele><time>2013-09-25T09:55:07Z</time></trkpt>
 <trkpt lat="47.754554500" lon="12.609098700"><ele>1012</ele><time>2013-09-25T09:55:11Z</time></trkpt>
 <trkpt lat="47.754555300" lon="12.609065800"><ele>1013</ele><time>2013-09-25T09:55:15Z</time></trkpt>
 <trkpt lat="47.754557400" lon="12.609057400"><ele>1014</ele><time>2013-09-25T09:55:19Z</time></trkpt>
 <trkpt lat="47.754557400" lon="12.609057400"><ele>1015</ele><time>2013-09-25T09:55:23Z</time></trkpt>
 <trkpt lat="47.754569100" lon="12.609054500"><ele>1015</ele><time>2013-09-25T09:55:27Z</time></trkpt>
 <trkpt lat="47.754574900" lon="12.609058300"><ele>1016</ele><time>2013-09-25T09:55:31Z</time></trkpt>
 <trkpt lat="47.754574900" lon="12.609058300"><ele>1016</ele><time>2013-09-25T09:55:35Z</time></trkpt>
 <trkpt lat="47.754574900" lon="12.609058300"><ele>1017</ele><time>2013-09-25T09:55:39Z</time></trkpt>
 <trkpt lat="47.754574900" lon="12.609058300"><ele>1017</ele><time>2013-09-25T09:55:43Z</time></trkpt>
 <trkpt lat="47.754573700" lon="12.609049100"><ele>1017</ele><time>2013-09-25T09:55:47Z</time></trkpt>
 <trkpt lat="47.754575800" lon="12.609041600"><ele>1017</ele><time>2013-09-25T09:55:51Z</time></trkpt>
 <trkpt lat="47.754576200" lon="12.609022800"><ele>1017</ele><time>2013-09-25T09:55:55Z</time></trkpt>
 <trkpt lat="47.754568300" lon="12.608999900"><ele>1017</ele><time>2013-09-25T09:55:59Z</time></trkpt>
 <trkpt lat="47.754558700" lon="12.608982400"><ele>1017</ele><time>2013-09-25T09:56:03Z</time></trkpt>
 <trkpt lat="47.754553700" lon="12.608977800"><ele>1017</ele><time>2013-09-25T09:56:07Z</time></trkpt>
 <trkpt lat="47.754542000" lon="12.608989900"><ele>1017</ele><time>2013-09-25T09:56:11Z</time></trkpt>
 <trkpt lat="47.754523700" lon="12.609014100"><ele>1017</ele><time>2013-09-25T09:56:15Z</time></trkpt>
 <trkpt lat="47.754512000" lon="12.609028700"><ele>1016</ele><time>2013-09-25T09:56:19Z</time></trkpt>
 <trkpt lat="47.754510300" lon="12.609038300"><ele>1016</ele><time>2013-09-25T09:56:23Z</time></trkpt>
 <trkpt lat="47.754511600" lon="12.609047000"><ele>1015</ele><time>2013-09-25T09:56:27Z</time></trkpt>
 <trkpt lat="47.754499100" lon="12.609037800"><ele>1015</ele><time>2013-09-25T09:56:31Z</time></trkpt>
 <trkpt lat="47.754483200" lon="12.609007900"><ele>1015</ele><time>2013-09-25T09:56:35Z</time></trkpt>
 <trkpt lat="47.754474900" lon="12.608965800"><ele>1014</ele><time>2013-09-25T09:56:39Z</time></trkpt>
 <trkpt lat="47.754474900" lon="12.608897800"><ele>1014</ele><time>2013-09-25T09:56:43Z</time></trkpt>
 <trkpt lat="47.754489900" lon="12.608842400"><ele>1013</ele><time>2013-09-25T09:56:47Z</time></trkpt>
 <trkpt lat="47.754519500" lon="12.608780300"><ele>1013</ele><time>2013-09-25T09:56:51Z</time></trkpt>
 <trkpt lat="47.754538700" lon="12.608731200"><ele>1013</ele><time>2013-09-25T09:56:55Z</time></trkpt>
 <trkpt lat="47.754534100" lon="12.608692400"><ele>1013</ele><time>2013-09-25T09:56:59Z</time></trkpt>
 <trkpt lat="47.754518300" lon="12.608652000"><ele>1013</ele><time>2013-09-25T09:57:03Z</time></trkpt>
 <trkpt lat="47.754520300" lon="12.608608700"><ele>1012</ele><time>2013-09-25T09:57:07Z</time></trkpt>
 <trkpt lat="47.754534900" lon="12.608565800"><ele>1012</ele><time>2013-09-25T09:57:11Z</time></trkpt>
 <trkpt lat="47.754554900" lon="12.608525400"><ele>1012</ele><time>2013-09-25T09:57:15Z</time></trkpt>
 <trkpt lat="47.754565400" lon="12.608487800"><ele>1012</ele><time>2013-09-25T09:57:19Z</time></trkpt>
 <trkpt lat="47.754560800" lon="12.608443700"><ele>1012</ele><time>2013-09-25T09:57:23Z</time></trkpt>
 <trkpt lat="47.754565700" lon="12.608415400"><ele>1012</ele><time>2013-09-25T09:57:27Z</time></trkpt>
 <trkpt lat="47.754562000" lon="12.608362400"><ele>1012</ele><time>2013-09-25T09:57:31Z</time></trkpt>
 <trkpt lat="47.754561600" lon="12.608313300"><ele>1012</ele><time>2013-09-25T09:57:35Z</time></trkpt>
 <trkpt lat="47.754558300" lon="12.608284900"><ele>1012</ele><time>2013-09-25T09:57:39Z</time></trkpt>
 <trkpt lat="47.754560400" lon="12.608235300"><ele>1012</ele><time>2013-09-25T09:57:43Z</time></trkpt>
 <trkpt lat="47.754565400" lon="12.608201600"><ele>1013</ele><time>2013-09-25T09:57:47Z</time></trkpt>
 <trkpt lat="47.754566200" lon="12.608169900"><ele>1013</ele><time>2013-09-25T09:57:51Z</time></trkpt>
 <trkpt lat="47.754546600" lon="12.608153300"><ele>1013</ele><time>2013-09-25T09:57:55Z</time></trkpt>
 <trkpt lat="47.754520800" lon="12.608146600"><ele>1013</ele><time>2013-09-25T09:57:59Z</time></trkpt>
 <trkpt lat="47.754513300" lon="12.608122000"><ele>1013</ele><time>2013-09-25T09:58:03Z</time></trkpt>
 <trkpt lat="47.754514500" lon="12.608089100"><ele>1013</ele><time>2013-09-25T09:58:07Z</time></trkpt>
 <trkpt lat="47.754522000" lon="12.608057800"><ele>1013</ele><time>2013-09-25T09:58:11Z</time></trkpt>
 <trkpt lat="47.754527000" lon="12.608023300"><ele>1013</ele><time>2013-09-25T09:58:15Z</time></trkpt>
 <trkpt lat="47.754542500" lon="12.607986200"><ele>1013</ele><time>2013-09-25T09:58:19Z</time></trkpt>
 <trkpt lat="47.754563300" lon="12.607940300"><ele>1014</ele><time>2013-09-25T09:58:23Z</time></trkpt>
 <trkpt lat="47.754580700" lon="12.607905800"><ele>1014</ele><time>2013-09-25T09:58:27Z</time></trkpt>
 <trkpt lat="47.754581200" lon="12.607880300"><ele>1014</ele><time>2013-09-25T09:58:31Z</time></trkpt>
 <trkpt lat="47.754590800" lon="12.607859900"><ele>1014</ele><time>2013-09-25T09:58:35Z</time></trkpt>
 <trkpt lat="47.754622900" lon="12.607825800"><ele>1014</ele><time>2013-09-25T09:58:39Z</time></trkpt>
 <trkpt lat="47.754659500" lon="12.607794900"><ele>1015</ele><time>2013-09-25T09:58:43Z</time></trkpt>
 <trkpt lat="47.754688300" lon="12.607759100"><ele>1015</ele><time>2013-09-25T09:58:47Z</time></trkpt>
 <trkpt lat="47.754692800" lon="12.607724900"><ele>1015</ele><time>2013-09-25T09:58:51Z</time></trkpt>
 <trkpt lat="47.754696600" lon="12.607703700"><ele>1015</ele><time>2013-09-25T09:58:55Z</time></trkpt>
 <trkpt lat="47.754711200" lon="12.607672800"><ele>1015</ele><time>2013-09-25T09:58:59Z</time></trkpt>
 <trkpt lat="47.754722400" lon="12.607640800"><ele>1016</ele><time>2013-09-25T09:59:03Z</time></trkpt>
 <trkpt lat="47.754737000" lon="12.607604100"><ele>1016</ele><time>2013-09-25T09:59:07Z</time></trkpt>
 <trkpt lat="47.754751600" lon="12.607568700"><ele>1016</ele><time>2013-09-25T09:59:11Z</time></trkpt>
 <trkpt lat="47.754768300" lon="12.607525300"><ele>1016</ele><time>2013-09-25T09:59:15Z</time></trkpt>
 <trkpt lat="47.754762000" lon="12.607494500"><ele>1016</ele><time>2013-09-25T09:59:19Z</time></trkpt>
 <trkpt lat="47.754762000" lon="12.607468700"><ele>1016</ele><time>2013-09-25T09:59:23Z</time></trkpt>
 <trkpt lat="47.754742000" lon="12.607426200"><ele>1016</ele><time>2013-09-25T09:59:27Z</time></trkpt>
 <trkpt lat="47.754738300" lon="12.607391200"><ele>1016</ele><time>2013-09-25T09:59:31Z</time></trkpt>
 <trkpt lat="47.754734100" lon="12.607356200"><ele>1017</ele><time>2013-09-25T09:59:35Z</time></trkpt>
 <trkpt lat="47.754726200" lon="12.607333700"><ele>1017</ele><time>2013-09-25T09:59:39Z</time></trkpt>
 <trkpt lat="47.754737800" lon="12.607300400"><ele>1017</ele><time>2013-09-25T09:59:43Z</time></trkpt>
 <trkpt lat="47.754744500" lon="12.607259900"><ele>1017</ele><time>2013-09-25T09:59:47Z</time></trkpt>
 <trkpt lat="47.754731600" lon="12.607224500"><ele>1017</ele><time>2013-09-25T09:59:51Z</time></trkpt>
 <trkpt lat="47.754733700" lon="12.607187000"><ele>1017</ele><time>2013-09-25T09:59:55Z</time></trkpt>
 <trkpt lat="47.754736600" lon="12.607145800"><ele>1017</ele><time>2013-09-25T09:59:59Z</time></trkpt>
 <trkpt lat="47.754732400" lon="12.607105300"><ele>1017</ele><time>2013-09-25T10:00:03Z</time></trkpt>
 <trkpt lat="47.754729100" lon="12.607074900"><ele>1017</ele><time>2013-09-25T10:00:07Z</time></trkpt>
 <trkpt lat="47.754749100" lon="12.607032900"><ele>1017</ele><time>2013-09-25T10:00:11Z</time></trkpt>
 <trkpt lat="47.754769100" lon="12.606992800"><ele>1018</ele><time>2013-09-25T10:00:15Z</time></trkpt>
 <trkpt lat="47.754780800" lon="12.606955400"><ele>1018</ele><time>2013-09-25T10:00:19Z</time></trkpt>
 <trkpt lat="47.754785800" lon="12.606933300"><ele>1018</ele><time>2013-09-25T10:00:23Z</time></trkpt>
 <trkpt lat="47.754787800" lon="12.606912000"><ele>1018</ele><time>2013-09-25T10:00:27Z</time></trkpt>
 <trkpt lat="47.754801600" lon="12.606885300"><ele>1018</ele><time>2013-09-25T10:00:31Z</time></trkpt>
 <trkpt lat="47.754816200" lon="12.606857800"><ele>1019</ele><time>2013-09-25T10:00:35Z</time></trkpt>
 <trkpt lat="47.754828700" lon="12.606824500"><ele>1019</ele><time>2013-09-25T10:00:39Z</time></trkpt>
 <trkpt lat="47.754833300" lon="12.606786600"><ele>1019</ele><time>2013-09-25T10:00:43Z</time></trkpt>
 <trkpt lat="47.754825300" lon="12.606754900"><ele>1019</ele><time>2013-09-25T10:00:47Z</time></trkpt>
 <trkpt lat="47.754819100" lon="12.606714900"><ele>1020</ele><time>2013-09-25T10:00:51Z</time></trkpt>
 <trkpt lat="47.754823700" lon="12.606681600"><ele>1020</ele><time>2013-09-25T10:00:55Z</time></trkpt>
 <trkpt lat="47.754830300" lon="12.606655300"><ele>1020</ele><time>2013-09-25T10:00:59Z</time></trkpt>
 <trkpt lat="47.754832800" lon="12.606645300"><ele>1020</ele><time>2013-09-25T10:01:03Z</time></trkpt>
 <trkpt lat="47.754835400" lon="12.606629100"><ele>1020</ele><time>2013-09-25T10:01:07Z</time></trkpt>
 <trkpt lat="47.754824900" lon="12.606581200"><ele>1021</ele><time>2013-09-25T10:01:11Z</time></trkpt>
 <trkpt lat="47.754832000" lon="12.606548700"><ele>1021</ele><time>2013-09-25T10:01:15Z</time></trkpt>
 <trkpt lat="47.754842000" lon="12.606511200"><ele>1021</ele><time>2013-09-25T10:01:19Z</time></trkpt>
 <trkpt lat="47.754851600" lon="12.606486200"><ele>1021</ele><time>2013-09-25T10:01:23Z</time></trkpt>
 <trkpt lat="47.754858700" lon="12.606462900"><ele>1021</ele><time>2013-09-25T10:01:27Z</time></trkpt>
 <trkpt lat="47.754859900" lon="12.606435300"><ele>1022</ele><time>2013-09-25T10:01:31Z</time></trkpt>
 <trkpt lat="47.754865800" lon="12.606419500"><ele>1022</ele><time>2013-09-25T10:01:35Z</time></trkpt>
 <trkpt lat="47.754865800" lon="12.606419500"><ele>1022</ele><time>2013-09-25T10:01:39Z</time></trkpt>
 <trkpt lat="47.754865800" lon="12.606419500"><ele>1022</ele><time>2013-09-25T10:01:43Z</time></trkpt>
 <trkpt lat="47.754860800" lon="12.606415000"><ele>1022</ele><time>2013-09-25T10:01:47Z</time></trkpt>
 <trkpt lat="47.754860800" lon="12.606415000"><ele>1022</ele><time>2013-09-25T10:01:51Z</time></trkpt>
 <trkpt lat="47.754857000" lon="12.606409100"><ele>1022</ele><time>2013-09-25T10:01:55Z</time></trkpt>
 <trkpt lat="47.754857000" lon="12.606409100"><ele>1022</ele><time>2013-09-25T10:01:59Z</time></trkpt>
 <trkpt lat="47.754857000" lon="12.606409100"><ele>1022</ele><time>2013-09-25T10:02:03Z</time></trkpt>
 <trkpt lat="47.754855000" lon="12.606417000"><ele>1022</ele><time>2013-09-25T10:02:07Z</time></trkpt>
 <trkpt lat="47.754855000" lon="12.606417000"><ele>1023</ele><time>2013-09-25T10:02:11Z</time></trkpt>
 <trkpt lat="47.754853700" lon="12.606403300"><ele>1023</ele><time>2013-09-25T10:02:15Z</time></trkpt>
 <trkpt lat="47.754852400" lon="12.606379900"><ele>1023</ele><time>2013-09-25T10:02:19Z</time></trkpt>
 <trkpt lat="47.754846200" lon="12.606357000"><ele>1023</ele><time>2013-09-25T10:02:23Z</time></trkpt>
 <trkpt lat="47.754848300" lon="12.606321200"><ele>1023</ele><time>2013-09-25T10:02:27Z</time></trkpt>
 <trkpt lat="47.754866200" lon="12.606290800"><ele>1023</ele><time>2013-09-25T10:02:31Z</time></trkpt>
 <trkpt lat="47.754901200" lon="12.606239500"><ele>1023</ele><time>2013-09-25T10:02:35Z</time></trkpt>
 <trkpt lat="47.754912400" lon="12.606204500"><ele>1024</ele><time>2013-09-25T10:02:39Z</time></trkpt>
 <trkpt lat="47.754936200" lon="12.606154900"><ele>1024</ele><time>2013-09-25T10:02:43Z</time></trkpt>
 <trkpt lat="47.754941200" lon="12.606116600"><ele>1024</ele><time>2013-09-25T10:02:47Z</time></trkpt>
 <trkpt lat="47.754928300" lon="12.606072000"><ele>1024</ele><time>2013-09-25T10:02:51Z</time></trkpt>
 <trkpt lat="47.754918700" lon="12.606050400"><ele>1025</ele><time>2013-09-25T10:02:55Z</time></trkpt>
 <trkpt lat="47.754909100" lon="12.606029100"><ele>1025</ele><time>2013-09-25T10:02:59Z</time></trkpt>
 <trkpt lat="47.754885800" lon="12.606007000"><ele>1025</ele><time>2013-09-25T10:03:03Z</time></trkpt>
 <trkpt lat="47.754871200" lon="12.605977000"><ele>1026</ele><time>2013-09-25T10:03:07Z</time></trkpt>
 <trkpt lat="47.754848700" lon="12.605956600"><ele>1026</ele><time>2013-09-25T10:03:11Z</time></trkpt>
 <trkpt lat="47.754842000" lon="12.605929100"><ele>1026</ele><time>2013-09-25T10:03:15Z</time></trkpt>
 <trkpt lat="47.754819900" lon="12.605905800"><ele>1026</ele><time>2013-09-25T10:03:19Z</time></trkpt>
 <trkpt lat="47.754811200" lon="12.605889500"><ele>1027</ele><time>2013-09-25T10:03:23Z</time></trkpt>
 <trkpt lat="47.754793700" lon="12.605878300"><ele>1027</ele><time>2013-09-25T10:03:27Z</time></trkpt>
 <trkpt lat="47.754787900" lon="12.605855800"><ele>1027</ele><time>2013-09-25T10:03:31Z</time></trkpt>
 <trkpt lat="47.754796600" lon="12.605817800"><ele>1027</ele><time>2013-09-25T10:03:35Z</time></trkpt>
 <trkpt lat="47.754795300" lon="12.605778700"><ele>1027</ele><time>2013-09-25T10:03:39Z</time></trkpt>
 <trkpt lat="47.754788300" lon="12.605759500"><ele>1028</ele><time>2013-09-25T10:03:43Z</time></trkpt>
 <trkpt lat="47.754785300" lon="12.605712400"><ele>1028</ele><time>2013-09-25T10:03:47Z</time></trkpt>
 <trkpt lat="47.754790700" lon="12.605683700"><ele>1028</ele><time>2013-09-25T10:03:51Z</time></trkpt>
 <trkpt lat="47.754794100" lon="12.605644900"><ele>1028</ele><time>2013-09-25T10:03:55Z</time></trkpt>
 <trkpt lat="47.754815800" lon="12.605607400"><ele>1028</ele><time>2013-09-25T10:03:59Z</time></trkpt>
 <trkpt lat="47.754836200" lon="12.605558300"><ele>1028</ele><time>2013-09-25T10:04:03Z</time></trkpt>
 <trkpt lat="47.754853700" lon="12.605518700"><ele>1028</ele><time>2013-09-25T10:04:07Z</time></trkpt>
 <trkpt lat="47.754878300" lon="12.605487900"><ele>1029</ele><time>2013-09-25T10:04:11Z</time></trkpt>
 <trkpt lat="47.754887900" lon="12.605467900"><ele>1029</ele><time>2013-09-25T10:04:15Z</time></trkpt>
 <trkpt lat="47.754893300" lon="12.605454500"><ele>1029</ele><time>2013-09-25T10:04:19Z</time></trkpt>
 <trkpt lat="47.754890400" lon="12.605462400"><ele>1029</ele><time>2013-09-25T10:04:23Z</time></trkpt>
 <trkpt lat="47.754890400" lon="12.605462400"><ele>1029</ele><time>2013-09-25T10:04:27Z</time></trkpt>
 <trkpt lat="47.754890400" lon="12.605462400"><ele>1029</ele><time>2013-09-25T10:04:31Z</time></trkpt>
 <trkpt lat="47.754895800" lon="12.605464500"><ele>1030</ele><time>2013-09-25T10:04:35Z</time></trkpt>
 <trkpt lat="47.754886200" lon="12.605447400"><ele>1030</ele><time>2013-09-25T10:04:39Z</time></trkpt>
 <trkpt lat="47.754865400" lon="12.605428300"><ele>1030</ele><time>2013-09-25T10:04:43Z</time></trkpt>
 <trkpt lat="47.754859100" lon="12.605422800"><ele>1030</ele><time>2013-09-25T10:04:47Z</time></trkpt>
 <trkpt lat="47.754879900" lon="12.605382000"><ele>1031</ele><time>2013-09-25T10:04:51Z</time></trkpt>
 <trkpt lat="47.754900300" lon="12.605355400"><ele>1031</ele><time>2013-09-25T10:04:55Z</time></trkpt>
 <trkpt lat="47.754927800" lon="12.605319500"><ele>1032</ele><time>2013-09-25T10:04:59Z</time></trkpt>
 <trkpt lat="47.754950300" lon="12.605299500"><ele>1032</ele><time>2013-09-25T10:05:03Z</time></trkpt>
 <trkpt lat="47.754969900" lon="12.605277800"><ele>1032</ele><time>2013-09-25T10:05:07Z</time></trkpt>
 <trkpt lat="47.754989900" lon="12.605258700"><ele>1033</ele><time>2013-09-25T10:05:11Z</time></trkpt>
 <trkpt lat="47.755003300" lon="12.605246200"><ele>1033</ele><time>2013-09-25T10:05:15Z</time></trkpt>
 <trkpt lat="47.755008700" lon="12.605224500"><ele>1034</ele><time>2013-09-25T10:05:19Z</time></trkpt>
 <trkpt lat="47.755022400" lon="12.605202400"><ele>1035</ele><time>2013-09-25T10:05:23Z</time></trkpt>
 <trkpt lat="47.755032500" lon="12.605185300"><ele>1035</ele><time>2013-09-25T10:05:27Z</time></trkpt>
 <trkpt lat="47.755040300" lon="12.605164500"><ele>1036</ele><time>2013-09-25T10:05:31Z</time></trkpt>
 <trkpt lat="47.755047000" lon="12.605128700"><ele>1036</ele><time>2013-09-25T10:05:35Z</time></trkpt>
 <trkpt lat="47.755053300" lon="12.605097000"><ele>1037</ele><time>2013-09-25T10:05:39Z</time></trkpt>
 <trkpt lat="47.755063700" lon="12.605049900"><ele>1037</ele><time>2013-09-25T10:05:43Z</time></trkpt>
 <trkpt lat="47.755077400" lon="12.605002000"><ele>1038</ele><time>2013-09-25T10:05:47Z</time></trkpt>
 <trkpt lat="47.755087000" lon="12.604952900"><ele>1038</ele><time>2013-09-25T10:05:51Z</time></trkpt>
 <trkpt lat="47.755099100" lon="12.604899900"><ele>1039</ele><time>2013-09-25T10:05:55Z</time></trkpt>
 <trkpt lat="47.755094900" lon="12.604882800"><ele>1039</ele><time>2013-09-25T10:05:59Z</time></trkpt>
 <trkpt lat="47.755081600" lon="12.604878700"><ele>1040</ele><time>2013-09-25T10:06:03Z</time></trkpt>
 <trkpt lat="47.755102000" lon="12.604831200"><ele>1040</ele><time>2013-09-25T10:06:07Z</time></trkpt>
 <trkpt lat="47.755169900" lon="12.604762000"><ele>1041</ele><time>2013-09-25T10:06:11Z</time></trkpt>
 <trkpt lat="47.755226200" lon="12.604710300"><ele>1041</ele><time>2013-09-25T10:06:15Z</time></trkpt>
 <trkpt lat="47.755249100" lon="12.604686200"><ele>1042</ele><time>2013-09-25T10:06:19Z</time></trkpt>
 <trkpt lat="47.755285800" lon="12.604641600"><ele>1042</ele><time>2013-09-25T10:06:23Z</time></trkpt>
 <trkpt lat="47.755312000" lon="12.604606200"><ele>1043</ele><time>2013-09-25T10:06:27Z</time></trkpt>
 <trkpt lat="47.755337000" lon="12.604555700"><ele>1044</ele><time>2013-09-25T10:06:31Z</time></trkpt>
 <trkpt lat="47.755351600" lon="12.604497400"><ele>1045</ele><time>2013-09-25T10:06:35Z</time></trkpt>
 <trkpt lat="47.755384900" lon="12.604445400"><ele>1045</ele><time>2013-09-25T10:06:39Z</time></trkpt>
 <trkpt lat="47.755419500" lon="12.604405800"><ele>1046</ele><time>2013-09-25T10:06:43Z</time></trkpt>
 <trkpt lat="47.755452000" lon="12.604366200"><ele>1047</ele><time>2013-09-25T10:06:47Z</time></trkpt>
 <trkpt lat="47.755469100" lon="12.604327000"><ele>1048</ele><time>2013-09-25T10:06:51Z</time></trkpt>
 <trkpt lat="47.755485300" lon="12.604289900"><ele>1049</ele><time>2013-09-25T10:06:55Z</time></trkpt>
 <trkpt lat="47.755495800" lon="12.604262800"><ele>1050</ele><time>2013-09-25T10:06:59Z</time></trkpt>
 <trkpt lat="47.755529900" lon="12.604218700"><ele>1051</ele><time>2013-09-25T10:07:03Z</time></trkpt>
 <trkpt lat="47.755572400" lon="12.604172800"><ele>1052</ele><time>2013-09-25T10:07:07Z</time></trkpt>
 <trkpt lat="47.755591600" lon="12.604115300"><ele>1053</ele><time>2013-09-25T10:07:11Z</time></trkpt>
 <trkpt lat="47.755613300" lon="12.604084100"><ele>1054</ele><time>2013-09-25T10:07:15Z</time></trkpt>
 <trkpt lat="47.755640800" lon="12.604059900"><ele>1055</ele><time>2013-09-25T10:07:19Z</time></trkpt>
 <trkpt lat="47.755646600" lon="12.604025300"><ele>1056</ele><time>2013-09-25T10:07:23Z</time></trkpt>
 <trkpt lat="47.755649100" lon="12.603999900"><ele>1057</ele><time>2013-09-25T10:07:27Z</time></trkpt>
 <trkpt lat="47.755669900" lon="12.603963300"><ele>1058</ele><time>2013-09-25T10:07:31Z</time></trkpt>
 <trkpt lat="47.755692800" lon="12.603931200"><ele>1059</ele><time>2013-09-25T10:07:35Z</time></trkpt>
 <trkpt lat="47.755705800" lon="12.603891200"><ele>1059</ele><time>2013-09-25T10:07:39Z</time></trkpt>
 <trkpt lat="47.755705800" lon="12.603857500"><ele>1060</ele><time>2013-09-25T10:07:43Z</time></trkpt>
 <trkpt lat="47.755700300" lon="12.603822000"><ele>1061</ele><time>2013-09-25T10:07:47Z</time></trkpt>
 <trkpt lat="47.755679500" lon="12.603792000"><ele>1062</ele><time>2013-09-25T10:07:51Z</time></trkpt>
 <trkpt lat="47.755686200" lon="12.603764100"><ele>1062</ele><time>2013-09-25T10:07:55Z</time></trkpt>
 <trkpt lat="47.755656600" lon="12.603724900"><ele>1063</ele><time>2013-09-25T10:07:59Z</time></trkpt>
 <trkpt lat="47.755625800" lon="12.603709100"><ele>1063</ele><time>2013-09-25T10:08:03Z</time></trkpt>
 <trkpt lat="47.755608700" lon="12.603681200"><ele>1064</ele><time>2013-09-25T10:08:07Z</time></trkpt>
 <trkpt lat="47.755575300" lon="12.603639100"><ele>1064</ele><time>2013-09-25T10:08:11Z</time></trkpt>
 <trkpt lat="47.755528700" lon="12.603601600"><ele>1064</ele><time>2013-09-25T10:08:15Z</time></trkpt>
 <trkpt lat="47.755491200" lon="12.603568700"><ele>1064</ele><time>2013-09-25T10:08:19Z</time></trkpt>
 <trkpt lat="47.755458200" lon="12.603541600"><ele>1064</ele><time>2013-09-25T10:08:23Z</time></trkpt>
 <trkpt lat="47.755417400" lon="12.603517400"><ele>1063</ele><time>2013-09-25T10:08:27Z</time></trkpt>
 <trkpt lat="47.755355300" lon="12.603477800"><ele>1063</ele><time>2013-09-25T10:08:31Z</time></trkpt>
 <trkpt lat="47.755324900" lon="12.603434900"><ele>1062</ele><time>2013-09-25T10:08:35Z</time></trkpt>
 <trkpt lat="47.755309500" lon="12.603379100"><ele>1061</ele><time>2013-09-25T10:08:39Z</time></trkpt>
 <trkpt lat="47.755291200" lon="12.603331600"><ele>1060</ele><time>2013-09-25T10:08:43Z</time></trkpt>
 <trkpt lat="47.755271600" lon="12.603282000"><ele>1059</ele><time>2013-09-25T10:08:47Z</time></trkpt>
 <trkpt lat="47.755259500" lon="12.603228300"><ele>1058</ele><time>2013-09-25T10:08:51Z</time></trkpt>
 <trkpt lat="47.755238300" lon="12.603127000"><ele>1057</ele><time>2013-09-25T10:08:55Z</time></trkpt>
 <trkpt lat="47.755238300" lon="12.603036600"><ele>1055</ele><time>2013-09-25T10:08:59Z</time></trkpt>
 <trkpt lat="47.755204100" lon="12.603072000"><ele>1054</ele><time>2013-09-25T10:09:03Z</time></trkpt>
 <trkpt lat="47.755196600" lon="12.602987000"><ele>1052</ele><time>2013-09-25T10:09:07Z</time></trkpt>
 <trkpt lat="47.755175300" lon="12.602937000"><ele>1050</ele><time>2013-09-25T10:09:11Z</time></trkpt>
 <trkpt lat="47.755154500" lon="12.602877400"><ele>1049</ele><time>2013-09-25T10:09:15Z</time></trkpt>
 <trkpt lat="47.755131200" lon="12.602827400"><ele>1047</ele><time>2013-09-25T10:09:19Z</time></trkpt>
 <trkpt lat="47.755118700" lon="12.602760800"><ele>1045</ele><time>2013-09-25T10:09:23Z</time></trkpt>
 <trkpt lat="47.755098300" lon="12.602705800"><ele>1043</ele><time>2013-09-25T10:09:27Z</time></trkpt>
 <trkpt lat="47.755057400" lon="12.602668700"><ele>1042</ele><time>2013-09-25T10:09:31Z</time></trkpt>
 <trkpt lat="47.755009500" lon="12.602652900"><ele>1040</ele><time>2013-09-25T10:09:35Z</time></trkpt>
 <trkpt lat="47.754955300" lon="12.602686600"><ele>1039</ele><time>2013-09-25T10:09:39Z</time></trkpt>
 <trkpt lat="47.754907400" lon="12.602704900"><ele>1037</ele><time>2013-09-25T10:09:43Z</time></trkpt>
 <trkpt lat="47.754865300" lon="12.602728300"><ele>1036</ele><time>2013-09-25T10:09:47Z</time></trkpt>
 <trkpt lat="47.754852800" lon="12.602719100"><ele>1034</ele><time>2013-09-25T10:09:51Z</time></trkpt>
 <trkpt lat="47.754813300" lon="12.602709900"><ele>1033</ele><time>2013-09-25T10:09:55Z</time></trkpt>
 <trkpt lat="47.754772900" lon="12.602695800"><ele>1031</ele><time>2013-09-25T10:09:59Z</time></trkpt>
 <trkpt lat="47.754733300" lon="12.602675800"><ele>1030</ele><time>2013-09-25T10:10:03Z</time></trkpt>
 <trkpt lat="47.754720400" lon="12.602650300"><ele>1029</ele><time>2013-09-25T10:10:07Z</time></trkpt>
 <trkpt lat="47.754716600" lon="12.602626200"><ele>1028</ele><time>2013-09-25T10:10:11Z</time></trkpt>
 <trkpt lat="47.754702400" lon="12.602598700"><ele>1027</ele><time>2013-09-25T10:10:15Z</time></trkpt>
 <trkpt lat="47.754663300" lon="12.602569900"><ele>1025</ele><time>2013-09-25T10:10:19Z</time></trkpt>
 <trkpt lat="47.754623700" lon="12.602540800"><ele>1024</ele><time>2013-09-25T10:10:23Z</time></trkpt>
 <trkpt lat="47.754608300" lon="12.602493300"><ele>1024</ele><time>2013-09-25T10:10:27Z</time></trkpt>
 <trkpt lat="47.754599500" lon="12.602462400"><ele>1023</ele><time>2013-09-25T10:10:31Z</time></trkpt>
 <trkpt lat="47.754591600" lon="12.602444500"><ele>1022</ele><time>2013-09-25T10:10:35Z</time></trkpt>
 <trkpt lat="47.754572000" lon="12.602441200"><ele>1021</ele><time>2013-09-25T10:10:39Z</time></trkpt>
 <trkpt lat="47.754552400" lon="12.602418700"><ele>1021</ele><time>2013-09-25T10:10:43Z</time></trkpt>
 <trkpt lat="47.754519100" lon="12.602396200"><ele>1020</ele><time>2013-09-25T10:10:47Z</time></trkpt>
 <trkpt lat="47.754498300" lon="12.602374100"><ele>1020</ele><time>2013-09-25T10:10:51Z</time></trkpt>
 <trkpt lat="47.754488700" lon="12.602338300"><ele>1019</ele><time>2013-09-25T10:10:55Z</time></trkpt>
 <trkpt lat="47.754439100" lon="12.602331200"><ele>1019</ele><time>2013-09-25T10:10:59Z</time></trkpt>
 <trkpt lat="47.754358300" lon="12.602314900"><ele>1019</ele><time>2013-09-25T10:11:03Z</time></trkpt>
 <trkpt lat="47.754314900" lon="12.602286200"><ele>1019</ele><time>2013-09-25T10:11:07Z</time></trkpt>
 <trkpt lat="47.754311600" lon="12.602279100"><ele>1019</ele><time>2013-09-25T10:11:11Z</time></trkpt>
 <trkpt lat="47.754290300" lon="12.602279500"><ele>1019</ele><time>2013-09-25T10:11:15Z</time></trkpt>
 <trkpt lat="47.754252800" lon="12.602284500"><ele>1019</ele><time>2013-09-25T10:11:19Z</time></trkpt>
 <trkpt lat="47.754265800" lon="12.602298300"><ele>1019</ele><time>2013-09-25T10:11:23Z</time></trkpt>
 <trkpt lat="47.754346600" lon="12.602297400"><ele>1019</ele><time>2013-09-25T10:11:27Z</time></trkpt>
 <trkpt lat="47.754421600" lon="12.602240800"><ele>1019</ele><time>2013-09-25T10:11:31Z</time></trkpt>
 <trkpt lat="47.754564100" lon="12.602159500"><ele>1019</ele><time>2013-09-25T10:11:35Z</time></trkpt>
 <trkpt lat="47.754629100" lon="12.602158200"><ele>1019</ele><time>2013-09-25T10:11:39Z</time></trkpt>
 <trkpt lat="47.754612400" lon="12.602104900"><ele>1019</ele><time>2013-09-25T10:11:43Z</time></trkpt>
 <trkpt lat="47.754608200" lon="12.602059900"><ele>1019</ele><time>2013-09-25T10:11:47Z</time></trkpt>
 <trkpt lat="47.754612400" lon="12.602053300"><ele>1019</ele><time>2013-09-25T10:11:51Z</time></trkpt>
 <trkpt lat="47.754612400" lon="12.602053300"><ele>1019</ele><time>2013-09-25T10:11:55Z</time></trkpt>
 <trkpt lat="47.754617000" lon="12.602048700"><ele>1019</ele><time>2013-09-25T10:11:59Z</time></trkpt>
 <trkpt lat="47.754617000" lon="12.602048700"><ele>1019</ele><time>2013-09-25T10:12:03Z</time></trkpt>
 <trkpt lat="47.754622400" lon="12.602052400"><ele>1019</ele><time>2013-09-25T10:12:07Z</time></trkpt>
 <trkpt lat="47.754622400" lon="12.602052400"><ele>1019</ele><time>2013-09-25T10:12:11Z</time></trkpt>
 <trkpt lat="47.754630400" lon="12.602082000"><ele>1019</ele><time>2013-09-25T10:12:15Z</time></trkpt>
 <trkpt lat="47.754632000" lon="12.602098700"><ele>1019</ele><time>2013-09-25T10:12:19Z</time></trkpt>
 <trkpt lat="47.754637000" lon="12.602092000"><ele>1019</ele><time>2013-09-25T10:12:23Z</time></trkpt>
 <trkpt lat="47.754639900" lon="12.602081600"><ele>1019</ele><time>2013-09-25T10:12:27Z</time></trkpt>
 <trkpt lat="47.754632800" lon="12.602076200"><ele>1019</ele><time>2013-09-25T10:12:31Z</time></trkpt>
 <trkpt lat="47.754632800" lon="12.602076200"><ele>1019</ele><time>2013-09-25T10:12:35Z</time></trkpt>
 <trkpt lat="47.754629900" lon="12.602085400"><ele>1020</ele><time>2013-09-25T10:12:39Z</time></trkpt>
 <trkpt lat="47.754615700" lon="12.602070400"><ele>1020</ele><time>2013-09-25T10:12:43Z</time></trkpt>
 <trkpt lat="47.754572800" lon="12.602046200"><ele>1020</ele><time>2013-09-25T10:12:47Z</time></trkpt>
 <trkpt lat="47.754528300" lon="12.602037000"><ele>1021</ele><time>2013-09-25T10:12:51Z</time></trkpt>
 <trkpt lat="47.754491200" lon="12.602012000"><ele>1022</ele><time>2013-09-25T10:12:55Z</time></trkpt>
 <trkpt lat="47.754488300" lon="12.601996200"><ele>1022</ele><time>2013-09-25T10:12:59Z</time></trkpt>
 <trkpt lat="47.754510800" lon="12.601973300"><ele>1023</ele><time>2013-09-25T10:13:03Z</time></trkpt>
 <trkpt lat="47.754554100" lon="12.601947000"><ele>1024</ele><time>2013-09-25T10:13:07Z</time></trkpt>
 <trkpt lat="47.754620800" lon="12.601954500"><ele>1025</ele><time>2013-09-25T10:13:11Z</time></trkpt>
 <trkpt lat="47.754644100" lon="12.601944500"><ele>1026</ele><time>2013-09-25T10:13:15Z</time></trkpt>
 <trkpt lat="47.754650800" lon="12.601937400"><ele>1028</ele><time>2013-09-25T10:13:19Z</time></trkpt>
 <trkpt lat="47.754661600" lon="12.601943700"><ele>1029</ele><time>2013-09-25T10:13:23Z</time></trkpt>
 <trkpt lat="47.754602500" lon="12.601942900"><ele>1030</ele><time>2013-09-25T10:13:27Z</time></trkpt>
 <trkpt lat="47.754586600" lon="12.601929100"><ele>1031</ele><time>2013-09-25T10:13:31Z</time></trkpt>
 <trkpt lat="47.754620300" lon="12.601897000"><ele>1033</ele><time>2013-09-25T10:13:35Z</time></trkpt>
 <trkpt lat="47.754640300" lon="12.601869100"><ele>1034</ele><time>2013-09-25T10:13:39Z</time></trkpt>
 <trkpt lat="47.754725700" lon="12.601823700"><ele>1035</ele><time>2013-09-25T10:13:43Z</time></trkpt>
 <trkpt lat="47.754777800" lon="12.601780400"><ele>1036</ele><time>2013-09-25T10:13:47Z</time></trkpt>
 <trkpt lat="47.754796200" lon="12.601759500"><ele>1037</ele><time>2013-09-25T10:13:51Z</time></trkpt>
 <trkpt lat="47.754815400" lon="12.601722800"><ele>1038</ele><time>2013-09-25T10:13:55Z</time></trkpt>
 <trkpt lat="47.754852900" lon="12.601683700"><ele>1038</ele><time>2013-09-25T10:13:59Z</time></trkpt>
 <trkpt lat="47.754944100" lon="12.601659900"><ele>1039</ele><time>2013-09-25T10:14:03Z</time></trkpt>
 <trkpt lat="47.754976200" lon="12.601620800"><ele>1040</ele><time>2013-09-25T10:14:07Z</time></trkpt>
 <trkpt lat="47.755040800" lon="12.601594900"><ele>1040</ele><time>2013-09-25T10:14:11Z</time></trkpt>
 <trkpt lat="47.755061600" lon="12.601552800"><ele>1041</ele><time>2013-09-25T10:14:15Z</time></trkpt>
 <trkpt lat="47.755092000" lon="12.601505300"><ele>1041</ele><time>2013-09-25T10:14:19Z</time></trkpt>
 <trkpt lat="47.755184500" lon="12.601449900"><ele>1041</ele><time>2013-09-25T10:14:23Z</time></trkpt>
 <trkpt lat="47.755242000" lon="12.601407400"><ele>1041</ele><time>2013-09-25T10:14:27Z</time></trkpt>
 <trkpt lat="47.755331200" lon="12.601373700"><ele>1041</ele><time>2013-09-25T10:14:31Z</time></trkpt>
 <trkpt lat="47.755420400" lon="12.601352400"><ele>1041</ele><time>2013-09-25T10:14:35Z</time></trkpt>
 <trkpt lat="47.755462000" lon="12.601349100"><ele>1041</ele><time>2013-09-25T10:14:39Z</time></trkpt>
 <trkpt lat="47.755517400" lon="12.601342400"><ele>1041</ele><time>2013-09-25T10:14:43Z</time></trkpt>
 <trkpt lat="47.755592800" lon="12.601315800"><ele>1040</ele><time>2013-09-25T10:14:47Z</time></trkpt>
 <trkpt lat="47.755659100" lon="12.601278300"><ele>1040</ele><time>2013-09-25T10:14:51Z</time></trkpt>
 <trkpt lat="47.755694500" lon="12.601239500"><ele>1040</ele><time>2013-09-25T10:14:55Z</time></trkpt>
 <trkpt lat="47.755738700" lon="12.601215300"><ele>1039</ele><time>2013-09-25T10:14:59Z</time></trkpt>
 <trkpt lat="47.755799900" lon="12.601204100"><ele>1039</ele><time>2013-09-25T10:15:03Z</time></trkpt>
 <trkpt lat="47.755807400" lon="12.601161600"><ele>1038</ele><time>2013-09-25T10:15:07Z</time></trkpt>
 <trkpt lat="47.755826200" lon="12.601119500"><ele>1038</ele><time>2013-09-25T10:15:11Z</time></trkpt>
 <trkpt lat="47.755837400" lon="12.601089500"><ele>1037</ele><time>2013-09-25T10:15:15Z</time></trkpt>
 <trkpt lat="47.755847000" lon="12.601057400"><ele>1036</ele><time>2013-09-25T10:15:19Z</time></trkpt>
 <trkpt lat="47.755868300" lon="12.601013300"><ele>1035</ele><time>2013-09-25T10:15:23Z</time></trkpt>
 <trkpt lat="47.755887000" lon="12.600982000"><ele>1035</ele><time>2013-09-25T10:15:27Z</time></trkpt>
 <trkpt lat="47.755884500" lon="12.600940000"><ele>1034</ele><time>2013-09-25T10:15:31Z</time></trkpt>
 <trkpt lat="47.755886200" lon="12.600905800"><ele>1033</ele><time>2013-09-25T10:15:35Z</time></trkpt>
 <trkpt lat="47.755880700" lon="12.600861200"><ele>1032</ele><time>2013-09-25T10:15:39Z</time></trkpt>
 <trkpt lat="47.755872800" lon="12.600828300"><ele>1031</ele><time>2013-09-25T10:15:43Z</time></trkpt>
 <trkpt lat="47.755885800" lon="12.600795700"><ele>1031</ele><time>2013-09-25T10:15:47Z</time></trkpt>
 <trkpt lat="47.755901200" lon="12.600769100"><ele>1030</ele><time>2013-09-25T10:15:51Z</time></trkpt>
 <trkpt lat="47.755929100" lon="12.600740400"><ele>1029</ele><time>2013-09-25T10:15:55Z</time></trkpt>
 <trkpt lat="47.755970400" lon="12.600703300"><ele>1028</ele><time>2013-09-25T10:15:59Z</time></trkpt>
 <trkpt lat="47.756014500" lon="12.600651600"><ele>1027</ele><time>2013-09-25T10:16:03Z</time></trkpt>
 <trkpt lat="47.756057800" lon="12.600608700"><ele>1027</ele><time>2013-09-25T10:16:07Z</time></trkpt>
 <trkpt lat="47.756095400" lon="12.600578300"><ele>1026</ele><time>2013-09-25T10:16:11Z</time></trkpt>
 <trkpt lat="47.756129500" lon="12.600538700"><ele>1025</ele><time>2013-09-25T10:16:15Z</time></trkpt>
 <trkpt lat="47.756153700" lon="12.600508300"><ele>1024</ele><time>2013-09-25T10:16:19Z</time></trkpt>
 <trkpt lat="47.756129100" lon="12.600452400"><ele>1023</ele><time>2013-09-25T10:16:23Z</time></trkpt>
 <trkpt lat="47.756161600" lon="12.600415300"><ele>1023</ele><time>2013-09-25T10:16:27Z</time></trkpt>
 <trkpt lat="47.756138700" lon="12.600358700"><ele>1022</ele><time>2013-09-25T10:16:31Z</time></trkpt>
 <trkpt lat="47.756142400" lon="12.600327400"><ele>1021</ele><time>2013-09-25T10:16:35Z</time></trkpt>
 <trkpt lat="47.756146600" lon="12.600298300"><ele>1021</ele><time>2013-09-25T10:16:39Z</time></trkpt>
 <trkpt lat="47.756149500" lon="12.600260400"><ele>1020</ele><time>2013-09-25T10:16:43Z</time></trkpt>
 <trkpt lat="47.756132000" lon="12.600212000"><ele>1020</ele><time>2013-09-25T10:16:47Z</time></trkpt>
 <trkpt lat="47.756151200" lon="12.600188700"><ele>1019</ele><time>2013-09-25T10:16:51Z</time></trkpt>
 <trkpt lat="47.756144900" lon="12.600154900"><ele>1019</ele><time>2013-09-25T10:16:55Z</time></trkpt>
 <trkpt lat="47.756123300" lon="12.600107000"><ele>1018</ele><time>2013-09-25T10:16:59Z</time></trkpt>
 <trkpt lat="47.756120400" lon="12.600065300"><ele>1018</ele><time>2013-09-25T10:17:03Z</time></trkpt>
 <trkpt lat="47.756092900" lon="12.600018200"><ele>1017</ele><time>2013-09-25T10:17:07Z</time></trkpt>
 <trkpt lat="47.756059900" lon="12.599989900"><ele>1017</ele><time>2013-09-25T10:17:11Z</time></trkpt>
 <trkpt lat="47.756050800" lon="12.599956600"><ele>1016</ele><time>2013-09-25T10:17:15Z</time></trkpt>
 <trkpt lat="47.756056200" lon="12.599938700"><ele>1016</ele><time>2013-09-25T10:17:19Z</time></trkpt>
 <trkpt lat="47.756037400" lon="12.599888700"><ele>1015</ele><time>2013-09-25T10:17:23Z</time></trkpt>
 <trkpt lat="47.756042000" lon="12.599857400"><ele>1015</ele><time>2013-09-25T10:17:27Z</time></trkpt>
 <trkpt lat="47.756030800" lon="12.599835800"><ele>1014</ele><time>2013-09-25T10:17:31Z</time></trkpt>
 <trkpt lat="47.756024500" lon="12.599816600"><ele>1014</ele><time>2013-09-25T10:17:35Z</time></trkpt>
 <trkpt lat="47.755991600" lon="12.599776200"><ele>1013</ele><time>2013-09-25T10:17:39Z</time></trkpt>
 <trkpt lat="47.755949900" lon="12.599713300"><ele>1013</ele><time>2013-09-25T10:17:43Z</time></trkpt>
 <trkpt lat="47.755898700" lon="12.599672000"><ele>1013</ele><time>2013-09-25T10:17:47Z</time></trkpt>
 <trkpt lat="47.755858700" lon="12.599633700"><ele>1012</ele><time>2013-09-25T10:17:51Z</time></trkpt>
 <trkpt lat="47.755835300" lon="12.599598700"><ele>1012</ele><time>2013-09-25T10:17:55Z</time></trkpt>
 <trkpt lat="47.755829500" lon="12.599560800"><ele>1012</ele><time>2013-09-25T10:17:59Z</time></trkpt>
 <trkpt lat="47.755783300" lon="12.599510800"><ele>1011</ele><time>2013-09-25T10:18:03Z</time></trkpt>
 <trkpt lat="47.755758300" lon="12.599467000"><ele>1011</ele><time>2013-09-25T10:18:07Z</time></trkpt>
 <trkpt lat="47.755764900" lon="12.599427400"><ele>1011</ele><time>2013-09-25T10:18:11Z</time></trkpt>
 <trkpt lat="47.755735800" lon="12.599380400"><ele>1010</ele><time>2013-09-25T10:18:15Z</time></trkpt>
 <trkpt lat="47.755709500" lon="12.599328700"><ele>1010</ele><time>2013-09-25T10:18:19Z</time></trkpt>
 <trkpt lat="47.755724900" lon="12.599276600"><ele>1010</ele><time>2013-09-25T10:18:23Z</time></trkpt>
 <trkpt lat="47.755731200" lon="12.599235400"><ele>1010</ele><time>2013-09-25T10:18:27Z</time></trkpt>
 <trkpt lat="47.755736200" lon="12.599195800"><ele>1009</ele><time>2013-09-25T10:18:31Z</time></trkpt>
 <trkpt lat="47.755747800" lon="12.599175400"><ele>1009</ele><time>2013-09-25T10:18:35Z</time></trkpt>
 <trkpt lat="47.755756600" lon="12.599150000"><ele>1009</ele><time>2013-09-25T10:18:39Z</time></trkpt>
 <trkpt lat="47.755749900" lon="12.599111600"><ele>1009</ele><time>2013-09-25T10:18:43Z</time></trkpt>
 <trkpt lat="47.755752000" lon="12.599077900"><ele>1009</ele><time>2013-09-25T10:18:47Z</time></trkpt>
 <trkpt lat="47.755784900" lon="12.599063700"><ele>1009</ele><time>2013-09-25T10:18:51Z</time></trkpt>
 <trkpt lat="47.755794500" lon="12.599037900"><ele>1009</ele><time>2013-09-25T10:18:55Z</time></trkpt>
 <trkpt lat="47.755825800" lon="12.599017000"><ele>1009</ele><time>2013-09-25T10:18:59Z</time></trkpt>
 <trkpt lat="47.755875300" lon="12.599001600"><ele>1009</ele><time>2013-09-25T10:19:03Z</time></trkpt>
 <trkpt lat="47.755869900" lon="12.598954100"><ele>1009</ele><time>2013-09-25T10:19:07Z</time></trkpt>
 <trkpt lat="47.755928300" lon="12.598892800"><ele>1009</ele><time>2013-09-25T10:19:11Z</time></trkpt>
 <trkpt lat="47.755987400" lon="12.598844100"><ele>1009</ele><time>2013-09-25T10:19:15Z</time></trkpt>
 <trkpt lat="47.756027400" lon="12.598809500"><ele>1009</ele><time>2013-09-25T10:19:19Z</time></trkpt>
 <trkpt lat="47.756049900" lon="12.598771600"><ele>1009</ele><time>2013-09-25T10:19:23Z</time></trkpt>
 <trkpt lat="47.756103700" lon="12.598739500"><ele>1010</ele><time>2013-09-25T10:19:27Z</time></trkpt>
 <trkpt lat="47.756111600" lon="12.598701200"><ele>1010</ele><time>2013-09-25T10:19:31Z</time></trkpt>
 <trkpt lat="47.756074100" lon="12.598641200"><ele>1010</ele><time>2013-09-25T10:19:35Z</time></trkpt>
 <trkpt lat="47.756095800" lon="12.598619900"><ele>1010</ele><time>2013-09-25T10:19:39Z</time></trkpt>
 <trkpt lat="47.756135300" lon="12.598592000"><ele>1011</ele><time>2013-09-25T10:19:43Z</time></trkpt>
 <trkpt lat="47.756132400" lon="12.598559100"><ele>1011</ele><time>2013-09-25T10:19:47Z</time></trkpt>
 <trkpt lat="47.756126600" lon="12.598524100"><ele>1011</ele><time>2013-09-25T10:19:51Z</time></trkpt>
 <trkpt lat="47.756100800" lon="12.598471600"><ele>1012</ele><time>2013-09-25T10:19:55Z</time></trkpt>
 <trkpt lat="47.756075800" lon="12.598436200"><ele>1012</ele><time>2013-09-25T10:19:59Z</time></trkpt>
 <trkpt lat="47.756057400" lon="12.598399900"><ele>1013</ele><time>2013-09-25T10:20:03Z</time></trkpt>
 <trkpt lat="47.756014900" lon="12.598357800"><ele>1013</ele><time>2013-09-25T10:20:07Z</time></trkpt>
 <trkpt lat="47.756029100" lon="12.598319500"><ele>1014</ele><time>2013-09-25T10:20:11Z</time></trkpt>
 <trkpt lat="47.756054900" lon="12.598271200"><ele>1014</ele><time>2013-09-25T10:20:15Z</time></trkpt>
 <trkpt lat="47.756097000" lon="12.598228700"><ele>1015</ele><time>2013-09-25T10:20:19Z</time></trkpt>
 <trkpt lat="47.756132000" lon="12.598174500"><ele>1016</ele><time>2013-09-25T10:20:23Z</time></trkpt>
 <trkpt lat="47.756167800" lon="12.598130300"><ele>1017</ele><time>2013-09-25T10:20:27Z</time></trkpt>
 <trkpt lat="47.756168300" lon="12.598090300"><ele>1018</ele><time>2013-09-25T10:20:31Z</time></trkpt>
 <trkpt lat="47.756171600" lon="12.598065800"><ele>1019</ele><time>2013-09-25T10:20:35Z</time></trkpt>
 <trkpt lat="47.756163700" lon="12.598045400"><ele>1020</ele><time>2013-09-25T10:20:39Z</time></trkpt>
 <trkpt lat="47.756175800" lon="12.598021200"><ele>1021</ele><time>2013-09-25T10:20:43Z</time></trkpt>
 <trkpt lat="47.756186600" lon="12.597984500"><ele>1022</ele><time>2013-09-25T10:20:47Z</time></trkpt>
 <trkpt lat="47.756193300" lon="12.597962000"><ele>1023</ele><time>2013-09-25T10:20:51Z</time></trkpt>
 <trkpt lat="47.756197800" lon="12.597913300"><ele>1024</ele><time>2013-09-25T10:20:55Z</time></trkpt>
 <trkpt lat="47.756198300" lon="12.597874500"><ele>1026</ele><time>2013-09-25T10:20:59Z</time></trkpt>
 <trkpt lat="47.756225800" lon="12.597837000"><ele>1027</ele><time>2013-09-25T10:21:03Z</time></trkpt>
 <trkpt lat="47.756266200" lon="12.597802400"><ele>1028</ele><time>2013-09-25T10:21:07Z</time></trkpt>
 <trkpt lat="47.756241200" lon="12.597759100"><ele>1030</ele><time>2013-09-25T10:21:11Z</time></trkpt>
 <trkpt lat="47.756198300" lon="12.597724100"><ele>1031</ele><time>2013-09-25T10:21:15Z</time></trkpt>
 <trkpt lat="47.756195400" lon="12.597712000"><ele>1032</ele><time>2013-09-25T10:21:19Z</time></trkpt>
 <trkpt lat="47.756197900" lon="12.597689900"><ele>1034</ele><time>2013-09-25T10:21:23Z</time></trkpt>
 <trkpt lat="47.756194500" lon="12.597656200"><ele>1035</ele><time>2013-09-25T10:21:27Z</time></trkpt>
 <trkpt lat="47.756249100" lon="12.597624900"><ele>1037</ele><time>2013-09-25T10:21:31Z</time></trkpt>
 <trkpt lat="47.756259500" lon="12.597595400"><ele>1039</ele><time>2013-09-25T10:21:35Z</time></trkpt>
 <trkpt lat="47.756224900" lon="12.597560800"><ele>1040</ele><time>2013-09-25T10:21:39Z</time></trkpt>
 <trkpt lat="47.756195400" lon="12.597531200"><ele>1042</ele><time>2013-09-25T10:21:43Z</time></trkpt>
 <trkpt lat="47.756140800" lon="12.597490800"><ele>1044</ele><time>2013-09-25T10:21:47Z</time></trkpt>
 <trkpt lat="47.756121200" lon="12.597443700"><ele>1045</ele><time>2013-09-25T10:21:51Z</time></trkpt>
 <trkpt lat="47.756109100" lon="12.597416600"><ele>1047</ele><time>2013-09-25T10:21:55Z</time></trkpt>
 <trkpt lat="47.756089100" lon="12.597380300"><ele>1049</ele><time>2013-09-25T10:21:59Z</time></trkpt>
 <trkpt lat="47.756089100" lon="12.597338300"><ele>1051</ele><time>2013-09-25T10:22:03Z</time></trkpt>
 <trkpt lat="47.756112400" lon="12.597270400"><ele>1053</ele><time>2013-09-25T10:22:07Z</time></trkpt>
 <trkpt lat="47.756137000" lon="12.597197800"><ele>1056</ele><time>2013-09-25T10:22:11Z</time></trkpt>
 <trkpt lat="47.756174900" lon="12.597142400"><ele>1058</ele><time>2013-09-25T10:22:15Z</time></trkpt>
 <trkpt lat="47.756247400" lon="12.597107000"><ele>1061</ele><time>2013-09-25T10:22:19Z</time></trkpt>
 <trkpt lat="47.756284500" lon="12.597059100"><ele>1064</ele><time>2013-09-25T10:22:23Z</time></trkpt>
 <trkpt lat="47.756294500" lon="12.597000800"><ele>1066</ele><time>2013-09-25T10:22:27Z</time></trkpt>
 <trkpt lat="47.756270300" lon="12.596936200"><ele>1069</ele><time>2013-09-25T10:22:31Z</time></trkpt>
 <trkpt lat="47.756238300" lon="12.596875300"><ele>1072</ele><time>2013-09-25T10:22:35Z</time></trkpt>
 <trkpt lat="47.756233700" lon="12.596832000"><ele>1075</ele><time>2013-09-25T10:22:39Z</time></trkpt>
 <trkpt lat="47.756225300" lon="12.596767400"><ele>1079</ele><time>2013-09-25T10:22:43Z</time></trkpt>
 <trkpt lat="47.756211200" lon="12.596715400"><ele>1082</ele><time>2013-09-25T10:22:47Z</time></trkpt>
 <trkpt lat="47.756182000" lon="12.596677000"><ele>1086</ele><time>2013-09-25T10:22:51Z</time></trkpt>
 <trkpt lat="47.756135300" lon="12.596637800"><ele>1089</ele><time>2013-09-25T10:22:55Z</time></trkpt>
 <trkpt lat="47.756119100" lon="12.596587000"><ele>1093</ele><time>2013-09-25T10:22:59Z</time></trkpt>
 <trkpt lat="47.756084900" lon="12.596533700"><ele>1097</ele><time>2013-09-25T10:23:03Z</time></trkpt>
 <trkpt lat="47.756061200" lon="12.596478300"><ele>1101</ele><time>2013-09-25T10:23:07Z</time></trkpt>
 <trkpt lat="47.756033700" lon="12.596428300"><ele>1104</ele><time>2013-09-25T10:23:11Z</time></trkpt>
 <trkpt lat="47.755996200" lon="12.596377800"><ele>1108</ele><time>2013-09-25T10:23:15Z</time></trkpt>
 <trkpt lat="47.755989100" lon="12.596340800"><ele>1112</ele><time>2013-09-25T10:23:19Z</time></trkpt>
 <trkpt lat="47.755965800" lon="12.596288700"><ele>1115</ele><time>2013-09-25T10:23:23Z</time></trkpt>
 <trkpt lat="47.755940800" lon="12.596223700"><ele>1119</ele><time>2013-09-25T10:23:27Z</time></trkpt>
 <trkpt lat="47.755947000" lon="12.596175300"><ele>1123</ele><time>2013-09-25T10:23:31Z</time></trkpt>
 <trkpt lat="47.755959900" lon="12.596148700"><ele>1126</ele><time>2013-09-25T10:23:35Z</time></trkpt>
 <trkpt lat="47.755973700" lon="12.596105800"><ele>1130</ele><time>2013-09-25T10:23:39Z</time></trkpt>
 <trkpt lat="47.755973300" lon="12.596060300"><ele>1133</ele><time>2013-09-25T10:23:43Z</time></trkpt>
 <trkpt lat="47.755939900" lon="12.596011200"><ele>1137</ele><time>2013-09-25T10:23:47Z</time></trkpt>
 <trkpt lat="47.755904100" lon="12.595964100"><ele>1140</ele><time>2013-09-25T10:23:51Z</time></trkpt>
 <trkpt lat="47.755866200" lon="12.595917000"><ele>1143</ele><time>2013-09-25T10:23:55Z</time></trkpt>
 <trkpt lat="47.755865800" lon="12.595862000"><ele>1146</ele><time>2013-09-25T10:23:59Z</time></trkpt>
 <trkpt lat="47.755836600" lon="12.595827000"><ele>1149</ele><time>2013-09-25T10:24:03Z</time></trkpt>
 <trkpt lat="47.755766600" lon="12.595779500"><ele>1152</ele><time>2013-09-25T10:24:07Z</time></trkpt>
 <trkpt lat="47.755704100" lon="12.595749500"><ele>1155</ele><time>2013-09-25T10:24:11Z</time></trkpt>
 <trkpt lat="47.755669500" lon="12.595716600"><ele>1158</ele><time>2013-09-25T10:24:15Z</time></trkpt>
 <trkpt lat="47.755643700" lon="12.595679900"><ele>1161</ele><time>2013-09-25T10:24:19Z</time></trkpt>
 <trkpt lat="47.755647800" lon="12.595637400"><ele>1164</ele><time>2013-09-25T10:24:23Z</time></trkpt>
 <trkpt lat="47.755624900" lon="12.595597000"><ele>1167</ele><time>2013-09-25T10:24:27Z</time></trkpt>
 <trkpt lat="47.755585700" lon="12.595527800"><ele>1170</ele><time>2013-09-25T10:24:31Z</time></trkpt>
 <trkpt lat="47.755559500" lon="12.595475400"><ele>1173</ele><time>2013-09-25T10:24:35Z</time></trkpt>
 <trkpt lat="47.755545800" lon="12.595438700"><ele>1177</ele><time>2013-09-25T10:24:39Z</time></trkpt>
 <trkpt lat="47.755548300" lon="12.595395300"><ele>1180</ele><time>2013-09-25T10:24:43Z</time></trkpt>
 <trkpt lat="47.755539900" lon="12.595346600"><ele>1183</ele><time>2013-09-25T10:24:47Z</time></trkpt>
 <trkpt lat="47.755503300" lon="12.595299500"><ele>1186</ele><time>2013-09-25T10:24:51Z</time></trkpt>
 <trkpt lat="47.755476600" lon="12.595253300"><ele>1189</ele><time>2013-09-25T10:24:55Z</time></trkpt>
 <trkpt lat="47.755464900" lon="12.595208700"><ele>1192</ele><time>2013-09-25T10:24:59Z</time></trkpt>
 <trkpt lat="47.755424100" lon="12.595164900"><ele>1195</ele><time>2013-09-25T10:25:03Z</time></trkpt>
 <trkpt lat="47.755390800" lon="12.595114100"><ele>1198</ele><time>2013-09-25T10:25:07Z</time></trkpt>
 <trkpt lat="47.755367400" lon="12.595057400"><ele>1201</ele><time>2013-09-25T10:25:11Z</time></trkpt>
 <trkpt lat="47.755333700" lon="12.595022900"><ele>1203</ele><time>2013-09-25T10:25:15Z</time></trkpt>
 <trkpt lat="47.755318700" lon="12.594984900"><ele>1206</ele><time>2013-09-25T10:25:19Z</time></trkpt>
 <trkpt lat="47.755310800" lon="12.594943700"><ele>1208</ele><time>2013-09-25T10:25:23Z</time></trkpt>
 <trkpt lat="47.755251200" lon="12.594911200"><ele>1209</ele><time>2013-09-25T10:25:27Z</time></trkpt>
 <trkpt lat="47.755241600" lon="12.594864100"><ele>1211</ele><time>2013-09-25T10:25:31Z</time></trkpt>
 <trkpt lat="47.755274100" lon="12.594820800"><ele>1212</ele><time>2013-09-25T10:25:35Z</time></trkpt>
 <trkpt lat="47.755350800" lon="12.594780800"><ele>1214</ele><time>2013-09-25T10:25:39Z</time></trkpt>
 <trkpt lat="47.755434900" lon="12.594733300"><ele>1215</ele><time>2013-09-25T10:25:43Z</time></trkpt>
 <trkpt lat="47.755467000" lon="12.594701200"><ele>1215</ele><time>2013-09-25T10:25:47Z</time></trkpt>
 <trkpt lat="47.755492000" lon="12.594686200"><ele>1216</ele><time>2013-09-25T10:25:51Z</time></trkpt>
 <trkpt lat="47.755511200" lon="12.594668300"><ele>1216</ele><time>2013-09-25T10:25:55Z</time></trkpt>
 <trkpt lat="47.755519100" lon="12.594669100"><ele>1216</ele><time>2013-09-25T10:25:59Z</time></trkpt>
 <trkpt lat="47.755590800" lon="12.594692000"><ele>1216</ele><time>2013-09-25T10:26:03Z</time></trkpt>
 <trkpt lat="47.755586600" lon="12.594672000"><ele>1216</ele><time>2013-09-25T10:26:07Z</time></trkpt>
 <trkpt lat="47.755562400" lon="12.594655400"><ele>1215</ele><time>2013-09-25T10:26:11Z</time></trkpt>
 <trkpt lat="47.755562400" lon="12.594655400"><ele>1215</ele><time>2013-09-25T10:26:15Z</time></trkpt>
 <trkpt lat="47.755533700" lon="12.594605800"><ele>1215</ele><time>2013-09-25T10:26:19Z</time></trkpt>
 <trkpt lat="47.755465300" lon="12.594552400"><ele>1214</ele><time>2013-09-25T10:26:23Z</time></trkpt>
 <trkpt lat="47.755399100" lon="12.594481200"><ele>1214</ele><time>2013-09-25T10:26:27Z</time></trkpt>
 <trkpt lat="47.755344500" lon="12.594484100"><ele>1213</ele><time>2013-09-25T10:26:31Z</time></trkpt>
 <trkpt lat="47.755300400" lon="12.594520800"><ele>1212</ele><time>2013-09-25T10:26:35Z</time></trkpt>
 <trkpt lat="47.755329100" lon="12.594537000"><ele>1212</ele><time>2013-09-25T10:26:39Z</time></trkpt>
 <trkpt lat="47.755409500" lon="12.594543700"><ele>1211</ele><time>2013-09-25T10:26:43Z</time></trkpt>
 <trkpt lat="47.755477000" lon="12.594545300"><ele>1210</ele><time>2013-09-25T10:26:47Z</time></trkpt>
 <trkpt lat="47.755600300" lon="12.594574900"><ele>1209</ele><time>2013-09-25T10:26:51Z</time></trkpt>
 <trkpt lat="47.755712800" lon="12.594602000"><ele>1208</ele><time>2013-09-25T10:26:55Z</time></trkpt>
 <trkpt lat="47.755727000" lon="12.594568700"><ele>1207</ele><time>2013-09-25T10:26:59Z</time></trkpt>
 <trkpt lat="47.755741600" lon="12.594550300"><ele>1205</ele><time>2013-09-25T10:27:03Z</time></trkpt>
 <trkpt lat="47.755760300" lon="12.594512400"><ele>1204</ele><time>2013-09-25T10:27:07Z</time></trkpt>
 <trkpt lat="47.755773700" lon="12.594479500"><ele>1202</ele><time>2013-09-25T10:27:11Z</time></trkpt>
 <trkpt lat="47.755802800" lon="12.594452900"><ele>1200</ele><time>2013-09-25T10:27:15Z</time></trkpt>
 <trkpt lat="47.755826200" lon="12.594439100"><ele>1198</ele><time>2013-09-25T10:27:19Z</time></trkpt>
 <trkpt lat="47.755826200" lon="12.594396200"><ele>1196</ele><time>2013-09-25T10:27:23Z</time></trkpt>
 <trkpt lat="47.755850300" lon="12.594376600"><ele>1194</ele><time>2013-09-25T10:27:27Z</time></trkpt>
 <trkpt lat="47.755880800" lon="12.594352000"><ele>1193</ele><time>2013-09-25T10:27:31Z</time></trkpt>
 <trkpt lat="47.755901600" lon="12.594316200"><ele>1191</ele><time>2013-09-25T10:27:35Z</time></trkpt>
 <trkpt lat="47.755915300" lon="12.594280000"><ele>1189</ele><time>2013-09-25T10:27:39Z</time></trkpt>
 <trkpt lat="47.755929900" lon="12.594237800"><ele>1187</ele><time>2013-09-25T10:27:43Z</time></trkpt>
 <trkpt lat="47.755948300" lon="12.594189900"><ele>1185</ele><time>2013-09-25T10:27:47Z</time></trkpt>
 <trkpt lat="47.755954100" lon="12.594153700"><ele>1183</ele><time>2013-09-25T10:27:51Z</time></trkpt>
 <trkpt lat="47.755967000" lon="12.594127000"><ele>1181</ele><time>2013-09-25T10:27:55Z</time></trkpt>
 <trkpt lat="47.755987400" lon="12.594104500"><ele>1179</ele><time>2013-09-25T10:27:59Z</time></trkpt>
 <trkpt lat="47.756000300" lon="12.594060300"><ele>1178</ele><time>2013-09-25T10:28:03Z</time></trkpt>
 <trkpt lat="47.756008300" lon="12.594027000"><ele>1176</ele><time>2013-09-25T10:28:07Z</time></trkpt>
 <trkpt lat="47.756028300" lon="12.593992000"><ele>1175</ele><time>2013-09-25T10:28:11Z</time></trkpt>
 <trkpt lat="47.756047800" lon="12.593961200"><ele>1173</ele><time>2013-09-25T10:28:15Z</time></trkpt>
 <trkpt lat="47.756063700" lon="12.593934100"><ele>1172</ele><time>2013-09-25T10:28:19Z</time></trkpt>
 <trkpt lat="47.756085400" lon="12.593902000"><ele>1171</ele><time>2013-09-25T10:28:23Z</time></trkpt>
 <trkpt lat="47.756107400" lon="12.593872000"><ele>1169</ele><time>2013-09-25T10:28:27Z</time></trkpt>
 <trkpt lat="47.756127400" lon="12.593859500"><ele>1168</ele><time>2013-09-25T10:28:31Z</time></trkpt>
 <trkpt lat="47.756148700" lon="12.593859500"><ele>1167</ele><time>2013-09-25T10:28:35Z</time></trkpt>
 <trkpt lat="47.756175300" lon="12.593836600"><ele>1166</ele><time>2013-09-25T10:28:39Z</time></trkpt>
 <trkpt lat="47.756182000" lon="12.593831600"><ele>1165</ele><time>2013-09-25T10:28:43Z</time></trkpt>
 <trkpt lat="47.756185400" lon="12.593841200"><ele>1163</ele><time>2013-09-25T10:28:47Z</time></trkpt>
 <trkpt lat="47.756182900" lon="12.593827000"><ele>1162</ele><time>2013-09-25T10:28:51Z</time></trkpt>
 <trkpt lat="47.756202400" lon="12.593804100"><ele>1161</ele><time>2013-09-25T10:28:55Z</time></trkpt>
 <trkpt lat="47.756232900" lon="12.593782400"><ele>1160</ele><time>2013-09-25T10:28:59Z</time></trkpt>
 <trkpt lat="47.756262900" lon="12.593764100"><ele>1159</ele><time>2013-09-25T10:29:03Z</time></trkpt>
 <trkpt lat="47.756282800" lon="12.593742800"><ele>1157</ele><time>2013-09-25T10:29:07Z</time></trkpt>
 <trkpt lat="47.756282800" lon="12.593717400"><ele>1156</ele><time>2013-09-25T10:29:11Z</time></trkpt>
 <trkpt lat="47.756291200" lon="12.593697400"><ele>1155</ele><time>2013-09-25T10:29:15Z</time></trkpt>
 <trkpt lat="47.756315800" lon="12.593670800"><ele>1154</ele><time>2013-09-25T10:29:19Z</time></trkpt>
 <trkpt lat="47.756337400" lon="12.593632800"><ele>1153</ele><time>2013-09-25T10:29:23Z</time></trkpt>
 <trkpt lat="47.756345300" lon="12.593598300"><ele>1152</ele><time>2013-09-25T10:29:27Z</time></trkpt>
 <trkpt lat="47.756349900" lon="12.593562800"><ele>1151</ele><time>2013-09-25T10:29:31Z</time></trkpt>
 <trkpt lat="47.756368300" lon="12.593522400"><ele>1150</ele><time>2013-09-25T10:29:35Z</time></trkpt>
 <trkpt lat="47.756400800" lon="12.593460400"><ele>1149</ele><time>2013-09-25T10:29:39Z</time></trkpt>
 <trkpt lat="47.756422800" lon="12.593393700"><ele>1148</ele><time>2013-09-25T10:29:43Z</time></trkpt>
 <trkpt lat="47.756430300" lon="12.593339900"><ele>1147</ele><time>2013-09-25T10:29:47Z</time></trkpt>
 <trkpt lat="47.756429500" lon="12.593294100"><ele>1146</ele><time>2013-09-25T10:29:51Z</time></trkpt>
 <trkpt lat="47.756427400" lon="12.593252800"><ele>1146</ele><time>2013-09-25T10:29:55Z</time></trkpt>
 <trkpt lat="47.756440300" lon="12.593203300"><ele>1145</ele><time>2013-09-25T10:29:59Z</time></trkpt>
 <trkpt lat="47.756462500" lon="12.593167400"><ele>1144</ele><time>2013-09-25T10:30:03Z</time></trkpt>
 <trkpt lat="47.756482400" lon="12.593128300"><ele>1143</ele><time>2013-09-25T10:30:07Z</time></trkpt>
 <trkpt lat="47.756494900" lon="12.593101600"><ele>1142</ele><time>2013-09-25T10:30:11Z</time></trkpt>
 <trkpt lat="47.756509500" lon="12.593070300"><ele>1141</ele><time>2013-09-25T10:30:15Z</time></trkpt>
 <trkpt lat="47.756527900" lon="12.593030700"><ele>1140</ele><time>2013-09-25T10:30:19Z</time></trkpt>
 <trkpt lat="47.756538300" lon="12.593000300"><ele>1140</ele><time>2013-09-25T10:30:23Z</time></trkpt>
 <trkpt lat="47.756545800" lon="12.592978700"><ele>1139</ele><time>2013-09-25T10:30:27Z</time></trkpt>
 <trkpt lat="47.756558700" lon="12.592935800"><ele>1138</ele><time>2013-09-25T10:30:31Z</time></trkpt>
 <trkpt lat="47.756552400" lon="12.592896200"><ele>1137</ele><time>2013-09-25T10:30:35Z</time></trkpt>
 <trkpt lat="47.756555300" lon="12.592857900"><ele>1137</ele><time>2013-09-25T10:30:39Z</time></trkpt>
 <trkpt lat="47.756567800" lon="12.592807000"><ele>1136</ele><time>2013-09-25T10:30:43Z</time></trkpt>
 <trkpt lat="47.756594900" lon="12.592717000"><ele>1135</ele><time>2013-09-25T10:30:47Z</time></trkpt>
 <trkpt lat="47.756614500" lon="12.592686600"><ele>1134</ele><time>2013-09-25T10:30:51Z</time></trkpt>
 <trkpt lat="47.756624500" lon="12.592651600"><ele>1134</ele><time>2013-09-25T10:30:55Z</time></trkpt>
 <trkpt lat="47.756632400" lon="12.592631200"><ele>1133</ele><time>2013-09-25T10:30:59Z</time></trkpt>
 <trkpt lat="47.756646200" lon="12.592613700"><ele>1132</ele><time>2013-09-25T10:31:03Z</time></trkpt>
 <trkpt lat="47.756650300" lon="12.592605700"><ele>1131</ele><time>2013-09-25T10:31:07Z</time></trkpt>
 <trkpt lat="47.756644500" lon="12.592604500"><ele>1131</ele><time>2013-09-25T10:31:11Z</time></trkpt>
 <trkpt lat="47.756634500" lon="12.592568700"><ele>1130</ele><time>2013-09-25T10:31:15Z</time></trkpt>
 <trkpt lat="47.756631600" lon="12.592539500"><ele>1129</ele><time>2013-09-25T10:31:19Z</time></trkpt>
 <trkpt lat="47.756642400" lon="12.592491200"><ele>1128</ele><time>2013-09-25T10:31:23Z</time></trkpt>
 <trkpt lat="47.756654100" lon="12.592472400"><ele>1128</ele><time>2013-09-25T10:31:27Z</time></trkpt>
 <trkpt lat="47.756669100" lon="12.592427000"><ele>1127</ele><time>2013-09-25T10:31:31Z</time></trkpt>
 <trkpt lat="47.756693300" lon="12.592375300"><ele>1126</ele><time>2013-09-25T10:31:35Z</time></trkpt>
 <trkpt lat="47.756705400" lon="12.592331200"><ele>1125</ele><time>2013-09-25T10:31:39Z</time></trkpt>
 <trkpt lat="47.756725800" lon="12.592312800"><ele>1124</ele><time>2013-09-25T10:31:43Z</time></trkpt>
 <trkpt lat="47.756749900" lon="12.592310800"><ele>1124</ele><time>2013-09-25T10:31:47Z</time></trkpt>
 <trkpt lat="47.756771200" lon="12.592285800"><ele>1123</ele><time>2013-09-25T10:31:51Z</time></trkpt>
 <trkpt lat="47.756795400" lon="12.592252400"><ele>1122</ele><time>2013-09-25T10:31:55Z</time></trkpt>
 <trkpt lat="47.756821200" lon="12.592221200"><ele>1121</ele><time>2013-09-25T10:31:59Z</time></trkpt>
 <trkpt lat="47.756849900" lon="12.592177000"><ele>1121</ele><time>2013-09-25T10:32:03Z</time></trkpt>
 <trkpt lat="47.756872800" lon="12.592145300"><ele>1120</ele><time>2013-09-25T10:32:07Z</time></trkpt>
 <trkpt lat="47.756874900" lon="12.592111600"><ele>1119</ele><time>2013-09-25T10:32:11Z</time></trkpt>
 <trkpt lat="47.756877800" lon="12.592070400"><ele>1118</ele><time>2013-09-25T10:32:15Z</time></trkpt>
 <trkpt lat="47.756866200" lon="12.592033700"><ele>1118</ele><time>2013-09-25T10:32:19Z</time></trkpt>
 <trkpt lat="47.756849500" lon="12.591987800"><ele>1117</ele><time>2013-09-25T10:32:23Z</time></trkpt>
 <trkpt lat="47.756840000" lon="12.591944900"><ele>1116</ele><time>2013-09-25T10:32:27Z</time></trkpt>
 <trkpt lat="47.756835700" lon="12.591894500"><ele>1116</ele><time>2013-09-25T10:32:31Z</time></trkpt>
 <trkpt lat="47.756838200" lon="12.591844500"><ele>1115</ele><time>2013-09-25T10:32:35Z</time></trkpt>
 <trkpt lat="47.756849900" lon="12.591807900"><ele>1114</ele><time>2013-09-25T10:32:39Z</time></trkpt>
 <trkpt lat="47.756858300" lon="12.591782900"><ele>1114</ele><time>2013-09-25T10:32:43Z</time></trkpt>
 <trkpt lat="47.756864900" lon="12.591761200"><ele>1113</ele><time>2013-09-25T10:32:47Z</time></trkpt>
 <trkpt lat="47.756866200" lon="12.591723300"><ele>1113</ele><time>2013-09-25T10:32:51Z</time></trkpt>
 <trkpt lat="47.756879500" lon="12.591694500"><ele>1112</ele><time>2013-09-25T10:32:55Z</time></trkpt>
 <trkpt lat="47.756903300" lon="12.591674500"><ele>1112</ele><time>2013-09-25T10:32:59Z</time></trkpt>
 <trkpt lat="47.756914500" lon="12.591646600"><ele>1111</ele><time>2013-09-25T10:33:03Z</time></trkpt>
 <trkpt lat="47.756928300" lon="12.591598300"><ele>1111</ele><time>2013-09-25T10:33:07Z</time></trkpt>
 <trkpt lat="47.756939100" lon="12.591546200"><ele>1110</ele><time>2013-09-25T10:33:11Z</time></trkpt>
 <trkpt lat="47.756954100" lon="12.591503700"><ele>1110</ele><time>2013-09-25T10:33:15Z</time></trkpt>
 <trkpt lat="47.756968300" lon="12.591460800"><ele>1110</ele><time>2013-09-25T10:33:19Z</time></trkpt>
 <trkpt lat="47.756977000" lon="12.591422000"><ele>1109</ele><time>2013-09-25T10:33:23Z</time></trkpt>
 <trkpt lat="47.756984900" lon="12.591385800"><ele>1109</ele><time>2013-09-25T10:33:27Z</time></trkpt>
 <trkpt lat="47.756999900" lon="12.591339500"><ele>1108</ele><time>2013-09-25T10:33:31Z</time></trkpt>
 <trkpt lat="47.757009100" lon="12.591281600"><ele>1108</ele><time>2013-09-25T10:33:35Z</time></trkpt>
 <trkpt lat="47.757029500" lon="12.591234900"><ele>1108</ele><time>2013-09-25T10:33:39Z</time></trkpt>
 <trkpt lat="47.757067000" lon="12.591192000"><ele>1107</ele><time>2013-09-25T10:33:43Z</time></trkpt>
 <trkpt lat="47.757103700" lon="12.591151600"><ele>1107</ele><time>2013-09-25T10:33:47Z</time></trkpt>
 <trkpt lat="47.757134100" lon="12.591113200"><ele>1107</ele><time>2013-09-25T10:33:51Z</time></trkpt>
 <trkpt lat="47.757148200" lon="12.591071200"><ele>1106</ele><time>2013-09-25T10:33:55Z</time></trkpt>
 <trkpt lat="47.757157400" lon="12.591032800"><ele>1106</ele><time>2013-09-25T10:33:59Z</time></trkpt>
 <trkpt lat="47.757166600" lon="12.590980300"><ele>1106</ele><time>2013-09-25T10:34:03Z</time></trkpt>
 <trkpt lat="47.757164500" lon="12.590920300"><ele>1105</ele><time>2013-09-25T10:34:07Z</time></trkpt>
 <trkpt lat="47.757158200" lon="12.590878700"><ele>1105</ele><time>2013-09-25T10:34:11Z</time></trkpt>
 <trkpt lat="47.757167400" lon="12.590837800"><ele>1105</ele><time>2013-09-25T10:34:15Z</time></trkpt>
 <trkpt lat="47.757170800" lon="12.590796600"><ele>1104</ele><time>2013-09-25T10:34:19Z</time></trkpt>
 <trkpt lat="47.757180800" lon="12.590756600"><ele>1104</ele><time>2013-09-25T10:34:23Z</time></trkpt>
 <trkpt lat="47.757192900" lon="12.590712000"><ele>1104</ele><time>2013-09-25T10:34:27Z</time></trkpt>
 <trkpt lat="47.757198300" lon="12.590661200"><ele>1103</ele><time>2013-09-25T10:34:31Z</time></trkpt>
 <trkpt lat="47.757202000" lon="12.590614900"><ele>1103</ele><time>2013-09-25T10:34:35Z</time></trkpt>
 <trkpt lat="47.757228300" lon="12.590601200"><ele>1103</ele><time>2013-09-25T10:34:39Z</time></trkpt>
 <trkpt lat="47.757234900" lon="12.590580700"><ele>1102</ele><time>2013-09-25T10:34:43Z</time></trkpt>
 <trkpt lat="47.757236600" lon="12.590548300"><ele>1102</ele><time>2013-09-25T10:34:47Z</time></trkpt>
 <trkpt lat="47.757231200" lon="12.590488700"><ele>1102</ele><time>2013-09-25T10:34:51Z</time></trkpt>
 <trkpt lat="47.757236200" lon="12.590441200"><ele>1101</ele><time>2013-09-25T10:34:55Z</time></trkpt>
 <trkpt lat="47.757242800" lon="12.590402000"><ele>1101</ele><time>2013-09-25T10:34:59Z</time></trkpt>
 <trkpt lat="47.757244100" lon="12.590362400"><ele>1101</ele><time>2013-09-25T10:35:03Z</time></trkpt>
 <trkpt lat="47.757238300" lon="12.590317000"><ele>1100</ele><time>2013-09-25T10:35:07Z</time></trkpt>
 <trkpt lat="47.757239500" lon="12.590277000"><ele>1100</ele><time>2013-09-25T10:35:11Z</time></trkpt>
 <trkpt lat="47.757241600" lon="12.590225400"><ele>1100</ele><time>2013-09-25T10:35:15Z</time></trkpt>
 <trkpt lat="47.757237800" lon="12.590193700"><ele>1099</ele><time>2013-09-25T10:35:19Z</time></trkpt>
 <trkpt lat="47.757240800" lon="12.590168700"><ele>1099</ele><time>2013-09-25T10:35:23Z</time></trkpt>
 <trkpt lat="47.757234900" lon="12.590130300"><ele>1098</ele><time>2013-09-25T10:35:27Z</time></trkpt>
 <trkpt lat="47.757242000" lon="12.590097400"><ele>1098</ele><time>2013-09-25T10:35:31Z</time></trkpt>
 <trkpt lat="47.757255300" lon="12.590066200"><ele>1098</ele><time>2013-09-25T10:35:35Z</time></trkpt>
 <trkpt lat="47.757262800" lon="12.590017400"><ele>1097</ele><time>2013-09-25T10:35:39Z</time></trkpt>
 <trkpt lat="47.757277000" lon="12.590004900"><ele>1097</ele><time>2013-09-25T10:35:43Z</time></trkpt>
 <trkpt lat="47.757287400" lon="12.589954900"><ele>1097</ele><time>2013-09-25T10:35:47Z</time></trkpt>
 <trkpt lat="47.757295400" lon="12.589908300"><ele>1096</ele><time>2013-09-25T10:35:51Z</time></trkpt>
 <trkpt lat="47.757308700" lon="12.589861600"><ele>1096</ele><time>2013-09-25T10:35:55Z</time></trkpt>
 <trkpt lat="47.757323300" lon="12.589819900"><ele>1096</ele><time>2013-09-25T10:35:59Z</time></trkpt>
 <trkpt lat="47.757336200" lon="12.589764900"><ele>1096</ele><time>2013-09-25T10:36:03Z</time></trkpt>
 <trkpt lat="47.757345800" lon="12.589717000"><ele>1095</ele><time>2013-09-25T10:36:07Z</time></trkpt>
 <trkpt lat="47.757357000" lon="12.589672400"><ele>1095</ele><time>2013-09-25T10:36:11Z</time></trkpt>
 <trkpt lat="47.757371600" lon="12.589623200"><ele>1095</ele><time>2013-09-25T10:36:15Z</time></trkpt>
 <trkpt lat="47.757390800" lon="12.589565400"><ele>1095</ele><time>2013-09-25T10:36:19Z</time></trkpt>
 <trkpt lat="47.757408300" lon="12.589504500"><ele>1095</ele><time>2013-09-25T10:36:23Z</time></trkpt>
 <trkpt lat="47.757432900" lon="12.589449900"><ele>1095</ele><time>2013-09-25T10:36:27Z</time></trkpt>
 <trkpt lat="47.757453300" lon="12.589414900"><ele>1094</ele><time>2013-09-25T10:36:31Z</time></trkpt>
 <trkpt lat="47.757474500" lon="12.589394500"><ele>1094</ele><time>2013-09-25T10:36:35Z</time></trkpt>
 <trkpt lat="47.757486600" lon="12.589365800"><ele>1094</ele><time>2013-09-25T10:36:39Z</time></trkpt>
 <trkpt lat="47.757487400" lon="12.589354100"><ele>1094</ele><time>2013-09-25T10:36:43Z</time></trkpt>
 <trkpt lat="47.757463700" lon="12.589305800"><ele>1094</ele><time>2013-09-25T10:36:47Z</time></trkpt>
 <trkpt lat="47.757453300" lon="12.589262000"><ele>1093</ele><time>2013-09-25T10:36:51Z</time></trkpt>
 <trkpt lat="47.757472400" lon="12.589221200"><ele>1093</ele><time>2013-09-25T10:36:55Z</time></trkpt>
 <trkpt lat="47.757499100" lon="12.589176200"><ele>1093</ele><time>2013-09-25T10:36:59Z</time></trkpt>
 <trkpt lat="47.757509900" lon="12.589135300"><ele>1093</ele><time>2013-09-25T10:37:03Z</time></trkpt>
 <trkpt lat="47.757509500" lon="12.589090800"><ele>1093</ele><time>2013-09-25T10:37:07Z</time></trkpt>
 <trkpt lat="47.757503700" lon="12.589051200"><ele>1092</ele><time>2013-09-25T10:37:11Z</time></trkpt>
 <trkpt lat="47.757520800" lon="12.589017000"><ele>1092</ele><time>2013-09-25T10:37:15Z</time></trkpt>
 <trkpt lat="47.757532000" lon="12.588970800"><ele>1092</ele><time>2013-09-25T10:37:19Z</time></trkpt>
 <trkpt lat="47.757535700" lon="12.588919500"><ele>1092</ele><time>2013-09-25T10:37:23Z</time></trkpt>
 <trkpt lat="47.757528300" lon="12.588881200"><ele>1092</ele><time>2013-09-25T10:37:27Z</time></trkpt>
 <trkpt lat="47.757517000" lon="12.588840300"><ele>1091</ele><time>2013-09-25T10:37:31Z</time></trkpt>
 <trkpt lat="47.757512000" lon="12.588795800"><ele>1091</ele><time>2013-09-25T10:37:35Z</time></trkpt>
 <trkpt lat="47.757511600" lon="12.588755700"><ele>1091</ele><time>2013-09-25T10:37:39Z</time></trkpt>
 <trkpt lat="47.757522400" lon="12.588709900"><ele>1091</ele><time>2013-09-25T10:37:43Z</time></trkpt>
 <trkpt lat="47.757535800" lon="12.588673700"><ele>1091</ele><time>2013-09-25T10:37:47Z</time></trkpt>
 <trkpt lat="47.757547400" lon="12.588632400"><ele>1090</ele><time>2013-09-25T10:37:51Z</time></trkpt>
 <trkpt lat="47.757562800" lon="12.588588300"><ele>1090</ele><time>2013-09-25T10:37:55Z</time></trkpt>
 <trkpt lat="47.757588700" lon="12.588545300"><ele>1090</ele><time>2013-09-25T10:37:59Z</time></trkpt>
 <trkpt lat="47.757605800" lon="12.588508700"><ele>1090</ele><time>2013-09-25T10:38:03Z</time></trkpt>
 <trkpt lat="47.757618300" lon="12.588463700"><ele>1089</ele><time>2013-09-25T10:38:07Z</time></trkpt>
 <trkpt lat="47.757636600" lon="12.588420400"><ele>1089</ele><time>2013-09-25T10:38:11Z</time></trkpt>
 <trkpt lat="47.757643700" lon="12.588362400"><ele>1089</ele><time>2013-09-25T10:38:15Z</time></trkpt>
 <trkpt lat="47.757641200" lon="12.588307900"><ele>1089</ele><time>2013-09-25T10:38:19Z</time></trkpt>
 <trkpt lat="47.757636200" lon="12.588253300"><ele>1089</ele><time>2013-09-25T10:38:23Z</time></trkpt>
 <trkpt lat="47.757630300" lon="12.588209100"><ele>1089</ele><time>2013-09-25T10:38:27Z</time></trkpt>
 <trkpt lat="47.757638700" lon="12.588157400"><ele>1088</ele><time>2013-09-25T10:38:31Z</time></trkpt>
 <trkpt lat="47.757660800" lon="12.588106600"><ele>1088</ele><time>2013-09-25T10:38:35Z</time></trkpt>
 <trkpt lat="47.757674100" lon="12.588078700"><ele>1088</ele><time>2013-09-25T10:38:39Z</time></trkpt>
 <trkpt lat="47.757683300" lon="12.588059900"><ele>1088</ele><time>2013-09-25T10:38:43Z</time></trkpt>
 <trkpt lat="47.757688300" lon="12.588038700"><ele>1088</ele><time>2013-09-25T10:38:47Z</time></trkpt>
 <trkpt lat="47.757682400" lon="12.587982000"><ele>1087</ele><time>2013-09-25T10:38:51Z</time></trkpt>
 <trkpt lat="47.757678300" lon="12.587926600"><ele>1087</ele><time>2013-09-25T10:38:55Z</time></trkpt>
 <trkpt lat="47.757684100" lon="12.587879900"><ele>1087</ele><time>2013-09-25T10:38:59Z</time></trkpt>
 <trkpt lat="47.757698700" lon="12.587832800"><ele>1087</ele><time>2013-09-25T10:39:03Z</time></trkpt>
 <trkpt lat="47.757711200" lon="12.587771200"><ele>1087</ele><time>2013-09-25T10:39:07Z</time></trkpt>
 <trkpt lat="47.757716600" lon="12.587721600"><ele>1087</ele><time>2013-09-25T10:39:11Z</time></trkpt>
 <trkpt lat="47.757730800" lon="12.587662400"><ele>1087</ele><time>2013-09-25T10:39:15Z</time></trkpt>
 <trkpt lat="47.757746600" lon="12.587607400"><ele>1087</ele><time>2013-09-25T10:39:19Z</time></trkpt>
 <trkpt lat="47.757747000" lon="12.587554500"><ele>1087</ele><time>2013-09-25T10:39:23Z</time></trkpt>
 <trkpt lat="47.757744900" lon="12.587506200"><ele>1087</ele><time>2013-09-25T10:39:27Z</time></trkpt>
 <trkpt lat="47.757757400" lon="12.587454500"><ele>1087</ele><time>2013-09-25T10:39:31Z</time></trkpt>
 <trkpt lat="47.757771200" lon="12.587402800"><ele>1087</ele><time>2013-09-25T10:39:35Z</time></trkpt>
 <trkpt lat="47.757782800" lon="12.587360800"><ele>1087</ele><time>2013-09-25T10:39:39Z</time></trkpt>
 <trkpt lat="47.757786600" lon="12.587309100"><ele>1087</ele><time>2013-09-25T10:39:43Z</time></trkpt>
 <trkpt lat="47.757789100" lon="12.587273700"><ele>1087</ele><time>2013-09-25T10:39:47Z</time></trkpt>
 <trkpt lat="47.757807400" lon="12.587238700"><ele>1087</ele><time>2013-09-25T10:39:51Z</time></trkpt>
 <trkpt lat="47.757821200" lon="12.587189900"><ele>1087</ele><time>2013-09-25T10:39:55Z</time></trkpt>
 <trkpt lat="47.757829500" lon="12.587158700"><ele>1087</ele><time>2013-09-25T10:39:59Z</time></trkpt>
 <trkpt lat="47.757835800" lon="12.587121200"><ele>1087</ele><time>2013-09-25T10:40:03Z</time></trkpt>
 <trkpt lat="47.757831200" lon="12.587067800"><ele>1087</ele><time>2013-09-25T10:40:07Z</time></trkpt>
 <trkpt lat="47.757840000" lon="12.587015800"><ele>1087</ele><time>2013-09-25T10:40:11Z</time></trkpt>
 <trkpt lat="47.757844100" lon="12.586971200"><ele>1087</ele><time>2013-09-25T10:40:15Z</time></trkpt>
 <trkpt lat="47.757849900" lon="12.586921600"><ele>1087</ele><time>2013-09-25T10:40:19Z</time></trkpt>
 <trkpt lat="47.757857000" lon="12.586867900"><ele>1087</ele><time>2013-09-25T10:40:23Z</time></trkpt>
 <trkpt lat="47.757859900" lon="12.586820800"><ele>1087</ele><time>2013-09-25T10:40:27Z</time></trkpt>
 <trkpt lat="47.757864500" lon="12.586772800"><ele>1087</ele><time>2013-09-25T10:40:31Z</time></trkpt>
 <trkpt lat="47.757883300" lon="12.586717000"><ele>1087</ele><time>2013-09-25T10:40:35Z</time></trkpt>
 <trkpt lat="47.757892800" lon="12.586680800"><ele>1087</ele><time>2013-09-25T10:40:39Z</time></trkpt>
 <trkpt lat="47.757909500" lon="12.586630400"><ele>1087</ele><time>2013-09-25T10:40:43Z</time></trkpt>
 <trkpt lat="47.757920700" lon="12.586576600"><ele>1087</ele><time>2013-09-25T10:40:47Z</time></trkpt>
 <trkpt lat="47.757923300" lon="12.586522000"><ele>1086</ele><time>2013-09-25T10:40:51Z</time></trkpt>
 <trkpt lat="47.757927400" lon="12.586477400"><ele>1086</ele><time>2013-09-25T10:40:55Z</time></trkpt>
 <trkpt lat="47.757952000" lon="12.586405800"><ele>1086</ele><time>2013-09-25T10:40:59Z</time></trkpt>
 <trkpt lat="47.757968300" lon="12.586324100"><ele>1086</ele><time>2013-09-25T10:41:03Z</time></trkpt>
 <trkpt lat="47.757980300" lon="12.586270300"><ele>1086</ele><time>2013-09-25T10:41:07Z</time></trkpt>
 <trkpt lat="47.757994100" lon="12.586220300"><ele>1086</ele><time>2013-09-25T10:41:11Z</time></trkpt>
 <trkpt lat="47.758004900" lon="12.586176200"><ele>1086</ele><time>2013-09-25T10:41:15Z</time></trkpt>
 <trkpt lat="47.758013700" lon="12.586125800"><ele>1086</ele><time>2013-09-25T10:41:19Z</time></trkpt>
 <trkpt lat="47.758012900" lon="12.586097000"><ele>1086</ele><time>2013-09-25T10:41:23Z</time></trkpt>
 <trkpt lat="47.758007000" lon="12.586087900"><ele>1086</ele><time>2013-09-25T10:41:27Z</time></trkpt>
 <trkpt lat="47.758008300" lon="12.586038300"><ele>1086</ele><time>2013-09-25T10:41:31Z</time></trkpt>
 <trkpt lat="47.758014100" lon="12.585972400"><ele>1086</ele><time>2013-09-25T10:41:35Z</time></trkpt>
 <trkpt lat="47.758022000" lon="12.585921600"><ele>1086</ele><time>2013-09-25T10:41:39Z</time></trkpt>
 <trkpt lat="47.758022000" lon="12.585884100"><ele>1086</ele><time>2013-09-25T10:41:43Z</time></trkpt>
 <trkpt lat="47.758024100" lon="12.585828300"><ele>1086</ele><time>2013-09-25T10:41:47Z</time></trkpt>
 <trkpt lat="47.758035300" lon="12.585775800"><ele>1085</ele><time>2013-09-25T10:41:51Z</time></trkpt>
 <trkpt lat="47.758044500" lon="12.585723300"><ele>1085</ele><time>2013-09-25T10:41:55Z</time></trkpt>
 <trkpt lat="47.758046600" lon="12.585665300"><ele>1085</ele><time>2013-09-25T10:41:59Z</time></trkpt>
 <trkpt lat="47.758042400" lon="12.585619900"><ele>1085</ele><time>2013-09-25T10:42:03Z</time></trkpt>
 <trkpt lat="47.758040800" lon="12.585581600"><ele>1085</ele><time>2013-09-25T10:42:07Z</time></trkpt>
 <trkpt lat="47.758036600" lon="12.585533700"><ele>1085</ele><time>2013-09-25T10:42:11Z</time></trkpt>
 <trkpt lat="47.758035700" lon="12.585456200"><ele>1085</ele><time>2013-09-25T10:42:15Z</time></trkpt>
 <trkpt lat="47.758060300" lon="12.585387800"><ele>1085</ele><time>2013-09-25T10:42:19Z</time></trkpt>
 <trkpt lat="47.758070300" lon="12.585336200"><ele>1085</ele><time>2013-09-25T10:42:23Z</time></trkpt>
 <trkpt lat="47.758074900" lon="12.585291200"><ele>1085</ele><time>2013-09-25T10:42:27Z</time></trkpt>
 <trkpt lat="47.758087000" lon="12.585254900"><ele>1085</ele><time>2013-09-25T10:42:31Z</time></trkpt>
 <trkpt lat="47.758111600" lon="12.585220800"><ele>1085</ele><time>2013-09-25T10:42:35Z</time></trkpt>
 <trkpt lat="47.758136200" lon="12.585182000"><ele>1085</ele><time>2013-09-25T10:42:39Z</time></trkpt>
 <trkpt lat="47.758149500" lon="12.585138700"><ele>1085</ele><time>2013-09-25T10:42:43Z</time></trkpt>
 <trkpt lat="47.758147000" lon="12.585104100"><ele>1085</ele><time>2013-09-25T10:42:47Z</time></trkpt>
 <trkpt lat="47.758138700" lon="12.585055800"><ele>1085</ele><time>2013-09-25T10:42:51Z</time></trkpt>
 <trkpt lat="47.758132900" lon="12.585021600"><ele>1085</ele><time>2013-09-25T10:42:55Z</time></trkpt>
 <trkpt lat="47.758136600" lon="12.584994100"><ele>1085</ele><time>2013-09-25T10:42:59Z</time></trkpt>
 <trkpt lat="47.758152400" lon="12.584952800"><ele>1086</ele><time>2013-09-25T10:43:03Z</time></trkpt>
 <trkpt lat="47.758167000" lon="12.584910000"><ele>1086</ele><time>2013-09-25T10:43:07Z</time></trkpt>
 <trkpt lat="47.758166600" lon="12.584864900"><ele>1086</ele><time>2013-09-25T10:43:11Z</time></trkpt>
 <trkpt lat="47.758155800" lon="12.584824900"><ele>1086</ele><time>2013-09-25T10:43:15Z</time></trkpt>
 <trkpt lat="47.758156200" lon="12.584786200"><ele>1086</ele><time>2013-09-25T10:43:19Z</time></trkpt>
 <trkpt lat="47.758158300" lon="12.584718300"><ele>1086</ele><time>2013-09-25T10:43:23Z</time></trkpt>
 <trkpt lat="47.758154100" lon="12.584664500"><ele>1086</ele><time>2013-09-25T10:43:27Z</time></trkpt>
 <trkpt lat="47.758153700" lon="12.584618300"><ele>1086</ele><time>2013-09-25T10:43:31Z</time></trkpt>
 <trkpt lat="47.758173300" lon="12.584575300"><ele>1087</ele><time>2013-09-25T10:43:35Z</time></trkpt>
 <trkpt lat="47.758182800" lon="12.584533700"><ele>1087</ele><time>2013-09-25T10:43:39Z</time></trkpt>
 <trkpt lat="47.758188200" lon="12.584484500"><ele>1087</ele><time>2013-09-25T10:43:43Z</time></trkpt>
 <trkpt lat="47.758190300" lon="12.584436600"><ele>1087</ele><time>2013-09-25T10:43:47Z</time></trkpt>
 <trkpt lat="47.758194100" lon="12.584384500"><ele>1087</ele><time>2013-09-25T10:43:51Z</time></trkpt>
 <trkpt lat="47.758194900" lon="12.584345400"><ele>1088</ele><time>2013-09-25T10:43:55Z</time></trkpt>
 <trkpt lat="47.758195000" lon="12.584305300"><ele>1088</ele><time>2013-09-25T10:43:59Z</time></trkpt>
 <trkpt lat="47.758196200" lon="12.584264100"><ele>1088</ele><time>2013-09-25T10:44:03Z</time></trkpt>
 <trkpt lat="47.758204900" lon="12.584208300"><ele>1088</ele><time>2013-09-25T10:44:07Z</time></trkpt>
 <trkpt lat="47.758211600" lon="12.584157000"><ele>1088</ele><time>2013-09-25T10:44:11Z</time></trkpt>
 <trkpt lat="47.758216600" lon="12.584094500"><ele>1089</ele><time>2013-09-25T10:44:15Z</time></trkpt>
 <trkpt lat="47.758224900" lon="12.584041600"><ele>1089</ele><time>2013-09-25T10:44:19Z</time></trkpt>
 <trkpt lat="47.758238700" lon="12.583988700"><ele>1089</ele><time>2013-09-25T10:44:23Z</time></trkpt>
 <trkpt lat="47.758261600" lon="12.583919900"><ele>1090</ele><time>2013-09-25T10:44:27Z</time></trkpt>
 <trkpt lat="47.758267400" lon="12.583890800"><ele>1090</ele><time>2013-09-25T10:44:31Z</time></trkpt>
 <trkpt lat="47.758270800" lon="12.583838300"><ele>1090</ele><time>2013-09-25T10:44:35Z</time></trkpt>
 <trkpt lat="47.758277800" lon="12.583791600"><ele>1091</ele><time>2013-09-25T10:44:39Z</time></trkpt>
 <trkpt lat="47.758286200" lon="12.583742400"><ele>1091</ele><time>2013-09-25T10:44:43Z</time></trkpt>
 <trkpt lat="47.758289900" lon="12.583691200"><ele>1091</ele><time>2013-09-25T10:44:47Z</time></trkpt>
 <trkpt lat="47.758282400" lon="12.583647400"><ele>1092</ele><time>2013-09-25T10:44:51Z</time></trkpt>
 <trkpt lat="47.758292000" lon="12.583600800"><ele>1092</ele><time>2013-09-25T10:44:55Z</time></trkpt>
 <trkpt lat="47.758310300" lon="12.583556600"><ele>1092</ele><time>2013-09-25T10:44:59Z</time></trkpt>
 <trkpt lat="47.758322800" lon="12.583493300"><ele>1093</ele><time>2013-09-25T10:45:03Z</time></trkpt>
 <trkpt lat="47.758333300" lon="12.583427400"><ele>1093</ele><time>2013-09-25T10:45:07Z</time></trkpt>
 <trkpt lat="47.758354500" lon="12.583364900"><ele>1094</ele><time>2013-09-25T10:45:11Z</time></trkpt>
 <trkpt lat="47.758347900" lon="12.583307900"><ele>1094</ele><time>2013-09-25T10:45:15Z</time></trkpt>
 <trkpt lat="47.758334500" lon="12.583258700"><ele>1095</ele><time>2013-09-25T10:45:19Z</time></trkpt>
 <trkpt lat="47.758312900" lon="12.583208700"><ele>1095</ele><time>2013-09-25T10:45:23Z</time></trkpt>
 <trkpt lat="47.758307400" lon="12.583154500"><ele>1096</ele><time>2013-09-25T10:45:27Z</time></trkpt>
 <trkpt lat="47.758309900" lon="12.583106200"><ele>1096</ele><time>2013-09-25T10:45:31Z</time></trkpt>
 <trkpt lat="47.758308700" lon="12.583067800"><ele>1097</ele><time>2013-09-25T10:45:35Z</time></trkpt>
 <trkpt lat="47.758298300" lon="12.583010400"><ele>1097</ele><time>2013-09-25T10:45:39Z</time></trkpt>
 <trkpt lat="47.758285800" lon="12.582965700"><ele>1098</ele><time>2013-09-25T10:45:43Z</time></trkpt>
 <trkpt lat="47.758268700" lon="12.582919900"><ele>1098</ele><time>2013-09-25T10:45:47Z</time></trkpt>
 <trkpt lat="47.758254500" lon="12.582879500"><ele>1099</ele><time>2013-09-25T10:45:51Z</time></trkpt>
 <trkpt lat="47.758243700" lon="12.582839100"><ele>1100</ele><time>2013-09-25T10:45:55Z</time></trkpt>
 <trkpt lat="47.758246200" lon="12.582792400"><ele>1100</ele><time>2013-09-25T10:45:59Z</time></trkpt>
 <trkpt lat="47.758233700" lon="12.582754100"><ele>1101</ele><time>2013-09-25T10:46:03Z</time></trkpt>
 <trkpt lat="47.758222000" lon="12.582717000"><ele>1102</ele><time>2013-09-25T10:46:07Z</time></trkpt>
 <trkpt lat="47.758231600" lon="12.582674900"><ele>1102</ele><time>2013-09-25T10:46:11Z</time></trkpt>
 <trkpt lat="47.758242800" lon="12.582646200"><ele>1103</ele><time>2013-09-25T10:46:15Z</time></trkpt>
 <trkpt lat="47.758249100" lon="12.582582400"><ele>1104</ele><time>2013-09-25T10:46:19Z</time></trkpt>
 <trkpt lat="47.758234500" lon="12.582530300"><ele>1104</ele><time>2013-09-25T10:46:23Z</time></trkpt>
 <trkpt lat="47.758222900" lon="12.582497000"><ele>1105</ele><time>2013-09-25T10:46:27Z</time></trkpt>
 <trkpt lat="47.758242000" lon="12.582452000"><ele>1106</ele><time>2013-09-25T10:46:31Z</time></trkpt>
 <trkpt lat="47.758249100" lon="12.582438300"><ele>1106</ele><time>2013-09-25T10:46:35Z</time></trkpt>
 <trkpt lat="47.758245300" lon="12.582432000"><ele>1106</ele><time>2013-09-25T10:46:39Z</time></trkpt>
 <trkpt lat="47.758241200" lon="12.582425800"><ele>1107</ele><time>2013-09-25T10:46:43Z</time></trkpt>
 <trkpt lat="47.758237000" lon="12.582419100"><ele>1107</ele><time>2013-09-25T10:46:47Z</time></trkpt>
 <trkpt lat="47.758255700" lon="12.582405800"><ele>1108</ele><time>2013-09-25T10:46:51Z</time></trkpt>
 <trkpt lat="47.758257800" lon="12.582397800"><ele>1108</ele><time>2013-09-25T10:46:55Z</time></trkpt>
 <trkpt lat="47.758259100" lon="12.582387800"><ele>1108</ele><time>2013-09-25T10:46:59Z</time></trkpt>
 <trkpt lat="47.758259100" lon="12.582387800"><ele>1108</ele><time>2013-09-25T10:47:03Z</time></trkpt>
 <trkpt lat="47.758259100" lon="12.582387800"><ele>1108</ele><time>2013-09-25T10:47:07Z</time></trkpt>
 <trkpt lat="47.758264100" lon="12.582382800"><ele>1108</ele><time>2013-09-25T10:47:11Z</time></trkpt>
 <trkpt lat="47.758269500" lon="12.582379900"><ele>1108</ele><time>2013-09-25T10:47:15Z</time></trkpt>
 <trkpt lat="47.758275800" lon="12.582376200"><ele>1109</ele><time>2013-09-25T10:47:19Z</time></trkpt>
 <trkpt lat="47.758275800" lon="12.582376200"><ele>1109</ele><time>2013-09-25T10:47:23Z</time></trkpt>
 <trkpt lat="47.758278300" lon="12.582367400"><ele>1109</ele><time>2013-09-25T10:47:27Z</time></trkpt>
 <trkpt lat="47.758266200" lon="12.582348700"><ele>1109</ele><time>2013-09-25T10:47:31Z</time></trkpt>
 <trkpt lat="47.758233300" lon="12.582331600"><ele>1109</ele><time>2013-09-25T10:47:35Z</time></trkpt>
 <trkpt lat="47.758212400" lon="12.582320800"><ele>1109</ele><time>2013-09-25T10:47:39Z</time></trkpt>
 <trkpt lat="47.758198700" lon="12.582334100"><ele>1109</ele><time>2013-09-25T10:47:43Z</time></trkpt>
 <trkpt lat="47.758192400" lon="12.582335800"><ele>1109</ele><time>2013-09-25T10:47:47Z</time></trkpt>
 <trkpt lat="47.758187900" lon="12.582308700"><ele>1109</ele><time>2013-09-25T10:47:51Z</time></trkpt>
 <trkpt lat="47.758182900" lon="12.582280300"><ele>1109</ele><time>2013-09-25T10:47:55Z</time></trkpt>
 <trkpt lat="47.758178300" lon="12.582257000"><ele>1109</ele><time>2013-09-25T10:47:59Z</time></trkpt>
 <trkpt lat="47.758198700" lon="12.582239500"><ele>1109</ele><time>2013-09-25T10:48:03Z</time></trkpt>
 <trkpt lat="47.758203300" lon="12.582203700"><ele>1109</ele><time>2013-09-25T10:48:07Z</time></trkpt>
 <trkpt lat="47.758204100" lon="12.582152800"><ele>1109</ele><time>2013-09-25T10:48:11Z</time></trkpt>
 <trkpt lat="47.758212400" lon="12.582113700"><ele>1109</ele><time>2013-09-25T10:48:15Z</time></trkpt>
 <trkpt lat="47.758228700" lon="12.582082000"><ele>1109</ele><time>2013-09-25T10:48:19Z</time></trkpt>
 <trkpt lat="47.758244100" lon="12.582026600"><ele>1110</ele><time>2013-09-25T10:48:23Z</time></trkpt>
 <trkpt lat="47.758251200" lon="12.581986600"><ele>1110</ele><time>2013-09-25T10:48:27Z</time></trkpt>
 <trkpt lat="47.758263700" lon="12.581942000"><ele>1110</ele><time>2013-09-25T10:48:31Z</time></trkpt>
 <trkpt lat="47.758295800" lon="12.581879900"><ele>1110</ele><time>2013-09-25T10:48:35Z</time></trkpt>
 <trkpt lat="47.758300800" lon="12.581837000"><ele>1110</ele><time>2013-09-25T10:48:39Z</time></trkpt>
 <trkpt lat="47.758307400" lon="12.581796600"><ele>1110</ele><time>2013-09-25T10:48:43Z</time></trkpt>
 <trkpt lat="47.758319900" lon="12.581767800"><ele>1110</ele><time>2013-09-25T10:48:47Z</time></trkpt>
 <trkpt lat="47.758339500" lon="12.581730800"><ele>1110</ele><time>2013-09-25T10:48:51Z</time></trkpt>
 <trkpt lat="47.758354100" lon="12.581683700"><ele>1111</ele><time>2013-09-25T10:48:55Z</time></trkpt>
 <trkpt lat="47.758357400" lon="12.581661600"><ele>1111</ele><time>2013-09-25T10:48:59Z</time></trkpt>
 <trkpt lat="47.758364900" lon="12.581620400"><ele>1111</ele><time>2013-09-25T10:49:03Z</time></trkpt>
 <trkpt lat="47.758366600" lon="12.581565000"><ele>1111</ele><time>2013-09-25T10:49:07Z</time></trkpt>
 <trkpt lat="47.758356600" lon="12.581536200"><ele>1111</ele><time>2013-09-25T10:49:11Z</time></trkpt>
 <trkpt lat="47.758357800" lon="12.581509100"><ele>1111</ele><time>2013-09-25T10:49:15Z</time></trkpt>
 <trkpt lat="47.758358700" lon="12.581475800"><ele>1112</ele><time>2013-09-25T10:49:19Z</time></trkpt>
 <trkpt lat="47.758358300" lon="12.581452800"><ele>1112</ele><time>2013-09-25T10:49:23Z</time></trkpt>
 <trkpt lat="47.758357400" lon="12.581431200"><ele>1112</ele><time>2013-09-25T10:49:27Z</time></trkpt>
 <trkpt lat="47.758356600" lon="12.581406200"><ele>1112</ele><time>2013-09-25T10:49:31Z</time></trkpt>
 <trkpt lat="47.758353700" lon="12.581364500"><ele>1112</ele><time>2013-09-25T10:49:35Z</time></trkpt>
 <trkpt lat="47.758362000" lon="12.581329900"><ele>1113</ele><time>2013-09-25T10:49:39Z</time></trkpt>
 <trkpt lat="47.758371200" lon="12.581306600"><ele>1113</ele><time>2013-09-25T10:49:43Z</time></trkpt>
 <trkpt lat="47.758375800" lon="12.581284900"><ele>1113</ele><time>2013-09-25T10:49:47Z</time></trkpt>
 <trkpt lat="47.758367800" lon="12.581237000"><ele>1113</ele><time>2013-09-25T10:49:51Z</time></trkpt>
 <trkpt lat="47.758372000" lon="12.581196200"><ele>1113</ele><time>2013-09-25T10:49:55Z</time></trkpt>
 <trkpt lat="47.758394100" lon="12.581156600"><ele>1113</ele><time>2013-09-25T10:49:59Z</time></trkpt>
 <trkpt lat="47.758415300" lon="12.581120400"><ele>1113</ele><time>2013-09-25T10:50:03Z</time></trkpt>
 <trkpt lat="47.758427400" lon="12.581098300"><ele>1113</ele><time>2013-09-25T10:50:07Z</time></trkpt>
 <trkpt lat="47.758445400" lon="12.581054100"><ele>1113</ele><time>2013-09-25T10:50:11Z</time></trkpt>
 <trkpt lat="47.758459100" lon="12.581002400"><ele>1114</ele><time>2013-09-25T10:50:15Z</time></trkpt>
 <trkpt lat="47.758479900" lon="12.580954900"><ele>1114</ele><time>2013-09-25T10:50:19Z</time></trkpt>
 <trkpt lat="47.758495300" lon="12.580909100"><ele>1114</ele><time>2013-09-25T10:50:23Z</time></trkpt>
 <trkpt lat="47.758492800" lon="12.580847400"><ele>1114</ele><time>2013-09-25T10:50:27Z</time></trkpt>
 <trkpt lat="47.758486200" lon="12.580804900"><ele>1114</ele><time>2013-09-25T10:50:31Z</time></trkpt>
 <trkpt lat="47.758484100" lon="12.580782400"><ele>1114</ele><time>2013-09-25T10:50:35Z</time></trkpt>
 <trkpt lat="47.758504900" lon="12.580734100"><ele>1114</ele><time>2013-09-25T10:50:39Z</time></trkpt>
 <trkpt lat="47.758528700" lon="12.580672400"><ele>1114</ele><time>2013-09-25T10:50:43Z</time></trkpt>
 <trkpt lat="47.758552900" lon="12.580636600"><ele>1115</ele><time>2013-09-25T10:50:47Z</time></trkpt>
 <trkpt lat="47.758559100" lon="12.580591600"><ele>1115</ele><time>2013-09-25T10:50:51Z</time></trkpt>
 <trkpt lat="47.758563300" lon="12.580536600"><ele>1115</ele><time>2013-09-25T10:50:55Z</time></trkpt>
 <trkpt lat="47.758568300" lon="12.580479500"><ele>1115</ele><time>2013-09-25T10:50:59Z</time></trkpt>
 <trkpt lat="47.758558300" lon="12.580438700"><ele>1115</ele><time>2013-09-25T10:51:03Z</time></trkpt>
 <trkpt lat="47.758553700" lon="12.580388700"><ele>1116</ele><time>2013-09-25T10:51:07Z</time></trkpt>
 <trkpt lat="47.758547400" lon="12.580344900"><ele>1116</ele><time>2013-09-25T10:51:11Z</time></trkpt>
 <trkpt lat="47.758544500" lon="12.580317400"><ele>1116</ele><time>2013-09-25T10:51:15Z</time></trkpt>
 <trkpt lat="47.758560700" lon="12.580267800"><ele>1116</ele><time>2013-09-25T10:51:19Z</time></trkpt>
 <trkpt lat="47.758566600" lon="12.580232000"><ele>1117</ele><time>2013-09-25T10:51:23Z</time></trkpt>
 <trkpt lat="47.758585300" lon="12.580187500"><ele>1117</ele><time>2013-09-25T10:51:27Z</time></trkpt>
 <trkpt lat="47.758599500" lon="12.580135800"><ele>1117</ele><time>2013-09-25T10:51:31Z</time></trkpt>
 <trkpt lat="47.758608200" lon="12.580090300"><ele>1117</ele><time>2013-09-25T10:51:35Z</time></trkpt>
 <trkpt lat="47.758619100" lon="12.580049100"><ele>1118</ele><time>2013-09-25T10:51:39Z</time></trkpt>
 <trkpt lat="47.758628300" lon="12.580008700"><ele>1118</ele><time>2013-09-25T10:51:43Z</time></trkpt>
 <trkpt lat="47.758627800" lon="12.579966600"><ele>1118</ele><time>2013-09-25T10:51:47Z</time></trkpt>
 <trkpt lat="47.758625800" lon="12.579908700"><ele>1119</ele><time>2013-09-25T10:51:51Z</time></trkpt>
 <trkpt lat="47.758625300" lon="12.579857000"><ele>1119</ele><time>2013-09-25T10:51:55Z</time></trkpt>
 <trkpt lat="47.758631600" lon="12.579812800"><ele>1119</ele><time>2013-09-25T10:51:59Z</time></trkpt>
 <trkpt lat="47.758652900" lon="12.579751200"><ele>1120</ele><time>2013-09-25T10:52:03Z</time></trkpt>
 <trkpt lat="47.758661200" lon="12.579721200"><ele>1120</ele><time>2013-09-25T10:52:07Z</time></trkpt>
 <trkpt lat="47.758667400" lon="12.579685800"><ele>1120</ele><time>2013-09-25T10:52:11Z</time></trkpt>
 <trkpt lat="47.758680400" lon="12.579655300"><ele>1121</ele><time>2013-09-25T10:52:15Z</time></trkpt>
 <trkpt lat="47.758697400" lon="12.579621200"><ele>1121</ele><time>2013-09-25T10:52:19Z</time></trkpt>
 <trkpt lat="47.758704900" lon="12.579604100"><ele>1121</ele><time>2013-09-25T10:52:23Z</time></trkpt>
 <trkpt lat="47.758716600" lon="12.579596200"><ele>1122</ele><time>2013-09-25T10:52:27Z</time></trkpt>
 <trkpt lat="47.758731600" lon="12.579579100"><ele>1122</ele><time>2013-09-25T10:52:31Z</time></trkpt>
 <trkpt lat="47.758736600" lon="12.579572000"><ele>1122</ele><time>2013-09-25T10:52:35Z</time></trkpt>
 <trkpt lat="47.758734900" lon="12.579517000"><ele>1122</ele><time>2013-09-25T10:52:39Z</time></trkpt>
 <trkpt lat="47.758742900" lon="12.579464500"><ele>1123</ele><time>2013-09-25T10:52:43Z</time></trkpt>
 <trkpt lat="47.758762800" lon="12.579426200"><ele>1123</ele><time>2013-09-25T10:52:47Z</time></trkpt>
 <trkpt lat="47.758766600" lon="12.579403300"><ele>1123</ele><time>2013-09-25T10:52:51Z</time></trkpt>
 <trkpt lat="47.758760300" lon="12.579362000"><ele>1123</ele><time>2013-09-25T10:52:55Z</time></trkpt>
 <trkpt lat="47.758760400" lon="12.579333700"><ele>1124</ele><time>2013-09-25T10:52:59Z</time></trkpt>
 <trkpt lat="47.758766200" lon="12.579296200"><ele>1124</ele><time>2013-09-25T10:53:03Z</time></trkpt>
 <trkpt lat="47.758769100" lon="12.579252000"><ele>1124</ele><time>2013-09-25T10:53:07Z</time></trkpt>
 <trkpt lat="47.758765800" lon="12.579214500"><ele>1124</ele><time>2013-09-25T10:53:11Z</time></trkpt>
 <trkpt lat="47.758765300" lon="12.579177900"><ele>1124</ele><time>2013-09-25T10:53:15Z</time></trkpt>
 <trkpt lat="47.758777800" lon="12.579111200"><ele>1125</ele><time>2013-09-25T10:53:19Z</time></trkpt>
 <trkpt lat="47.758786200" lon="12.579036600"><ele>1125</ele><time>2013-09-25T10:53:23Z</time></trkpt>
 <trkpt lat="47.758779900" lon="12.579005300"><ele>1125</ele><time>2013-09-25T10:53:27Z</time></trkpt>
 <trkpt lat="47.758774100" lon="12.578972000"><ele>1125</ele><time>2013-09-25T10:53:31Z</time></trkpt>
 <trkpt lat="47.758777800" lon="12.578937800"><ele>1125</ele><time>2013-09-25T10:53:35Z</time></trkpt>
 <trkpt lat="47.758780800" lon="12.578909500"><ele>1126</ele><time>2013-09-25T10:53:39Z</time></trkpt>
 <trkpt lat="47.758774500" lon="12.578866200"><ele>1126</ele><time>2013-09-25T10:53:43Z</time></trkpt>
 <trkpt lat="47.758760800" lon="12.578817500"><ele>1126</ele><time>2013-09-25T10:53:47Z</time></trkpt>
 <trkpt lat="47.758743300" lon="12.578762400"><ele>1126</ele><time>2013-09-25T10:53:51Z</time></trkpt>
 <trkpt lat="47.758733300" lon="12.578722400"><ele>1126</ele><time>2013-09-25T10:53:55Z</time></trkpt>
 <trkpt lat="47.758731600" lon="12.578700300"><ele>1127</ele><time>2013-09-25T10:53:59Z</time></trkpt>
 <trkpt lat="47.758720400" lon="12.578651600"><ele>1127</ele><time>2013-09-25T10:54:03Z</time></trkpt>
 <trkpt lat="47.758710400" lon="12.578601600"><ele>1127</ele><time>2013-09-25T10:54:07Z</time></trkpt>
 <trkpt lat="47.758709100" lon="12.578542400"><ele>1127</ele><time>2013-09-25T10:54:11Z</time></trkpt>
 <trkpt lat="47.758710300" lon="12.578494900"><ele>1128</ele><time>2013-09-25T10:54:15Z</time></trkpt>
 <trkpt lat="47.758695800" lon="12.578448300"><ele>1128</ele><time>2013-09-25T10:54:19Z</time></trkpt>
 <trkpt lat="47.758690400" lon="12.578413700"><ele>1128</ele><time>2013-09-25T10:54:23Z</time></trkpt>
 <trkpt lat="47.758694500" lon="12.578369900"><ele>1129</ele><time>2013-09-25T10:54:27Z</time></trkpt>
 <trkpt lat="47.758699900" lon="12.578347500"><ele>1129</ele><time>2013-09-25T10:54:31Z</time></trkpt>
 <trkpt lat="47.758708700" lon="12.578322800"><ele>1129</ele><time>2013-09-25T10:54:35Z</time></trkpt>
 <trkpt lat="47.758725400" lon="12.578274500"><ele>1130</ele><time>2013-09-25T10:54:39Z</time></trkpt>
 <trkpt lat="47.758745800" lon="12.578236600"><ele>1130</ele><time>2013-09-25T10:54:43Z</time></trkpt>
 <trkpt lat="47.758759100" lon="12.578192900"><ele>1131</ele><time>2013-09-25T10:54:47Z</time></trkpt>
 <trkpt lat="47.758755800" lon="12.578169100"><ele>1131</ele><time>2013-09-25T10:54:51Z</time></trkpt>
 <trkpt lat="47.758751600" lon="12.578132800"><ele>1131</ele><time>2013-09-25T10:54:55Z</time></trkpt>
 <trkpt lat="47.758762800" lon="12.578112400"><ele>1132</ele><time>2013-09-25T10:54:59Z</time></trkpt>
 <trkpt lat="47.758775800" lon="12.578091200"><ele>1132</ele><time>2013-09-25T10:55:03Z</time></trkpt>
 <trkpt lat="47.758788300" lon="12.578039900"><ele>1132</ele><time>2013-09-25T10:55:07Z</time></trkpt>
 <trkpt lat="47.758784900" lon="12.578002800"><ele>1133</ele><time>2013-09-25T10:55:11Z</time></trkpt>
 <trkpt lat="47.758791200" lon="12.577982000"><ele>1133</ele><time>2013-09-25T10:55:15Z</time></trkpt>
 <trkpt lat="47.758795800" lon="12.577931200"><ele>1133</ele><time>2013-09-25T10:55:19Z</time></trkpt>
 <trkpt lat="47.758794900" lon="12.577900800"><ele>1134</ele><time>2013-09-25T10:55:23Z</time></trkpt>
 <trkpt lat="47.758790800" lon="12.577875300"><ele>1134</ele><time>2013-09-25T10:55:27Z</time></trkpt>
 <trkpt lat="47.758807400" lon="12.577831200"><ele>1134</ele><time>2013-09-25T10:55:31Z</time></trkpt>
 <trkpt lat="47.758812400" lon="12.577794900"><ele>1134</ele><time>2013-09-25T10:55:35Z</time></trkpt>
 <trkpt lat="47.758819900" lon="12.577751200"><ele>1135</ele><time>2013-09-25T10:55:39Z</time></trkpt>
 <trkpt lat="47.758829500" lon="12.577708300"><ele>1135</ele><time>2013-09-25T10:55:43Z</time></trkpt>
 <trkpt lat="47.758848300" lon="12.577672800"><ele>1135</ele><time>2013-09-25T10:55:47Z</time></trkpt>
 <trkpt lat="47.758865800" lon="12.577647400"><ele>1136</ele><time>2013-09-25T10:55:51Z</time></trkpt>
 <trkpt lat="47.758904500" lon="12.577609100"><ele>1136</ele><time>2013-09-25T10:55:55Z</time></trkpt>
 <trkpt lat="47.758936600" lon="12.577559900"><ele>1136</ele><time>2013-09-25T10:55:59Z</time></trkpt>
 <trkpt lat="47.758955800" lon="12.577512400"><ele>1137</ele><time>2013-09-25T10:56:03Z</time></trkpt>
 <trkpt lat="47.758979900" lon="12.577472400"><ele>1137</ele><time>2013-09-25T10:56:07Z</time></trkpt>
 <trkpt lat="47.759025300" lon="12.577415400"><ele>1137</ele><time>2013-09-25T10:56:11Z</time></trkpt>
 <trkpt lat="47.759064100" lon="12.577354500"><ele>1138</ele><time>2013-09-25T10:56:15Z</time></trkpt>
 <trkpt lat="47.759073300" lon="12.577329100"><ele>1138</ele><time>2013-09-25T10:56:19Z</time></trkpt>
 <trkpt lat="47.759081200" lon="12.577295300"><ele>1138</ele><time>2013-09-25T10:56:23Z</time></trkpt>
 <trkpt lat="47.759092400" lon="12.577270300"><ele>1139</ele><time>2013-09-25T10:56:27Z</time></trkpt>
 <trkpt lat="47.759097000" lon="12.577236600"><ele>1139</ele><time>2013-09-25T10:56:31Z</time></trkpt>
 <trkpt lat="47.759097000" lon="12.577207000"><ele>1139</ele><time>2013-09-25T10:56:35Z</time></trkpt>
 <trkpt lat="47.759100400" lon="12.577156600"><ele>1139</ele><time>2013-09-25T10:56:39Z</time></trkpt>
 <trkpt lat="47.759108300" lon="12.577120400"><ele>1140</ele><time>2013-09-25T10:56:43Z</time></trkpt>
 <trkpt lat="47.759121600" lon="12.577097400"><ele>1140</ele><time>2013-09-25T10:56:47Z</time></trkpt>
 <trkpt lat="47.759134500" lon="12.577109100"><ele>1140</ele><time>2013-09-25T10:56:51Z</time></trkpt>
 <trkpt lat="47.759149500" lon="12.577112000"><ele>1140</ele><time>2013-09-25T10:56:55Z</time></trkpt>
 <trkpt lat="47.759149500" lon="12.577112000"><ele>1141</ele><time>2013-09-25T10:56:59Z</time></trkpt>
 <trkpt lat="47.759150800" lon="12.577103300"><ele>1141</ele><time>2013-09-25T10:57:03Z</time></trkpt>
 <trkpt lat="47.759153700" lon="12.577084900"><ele>1141</ele><time>2013-09-25T10:57:07Z</time></trkpt>
 <trkpt lat="47.759160300" lon="12.577024500"><ele>1141</ele><time>2013-09-25T10:57:11Z</time></trkpt>
 <trkpt lat="47.759175300" lon="12.576976200"><ele>1142</ele><time>2013-09-25T10:57:15Z</time></trkpt>
 <trkpt lat="47.759196600" lon="12.576938700"><ele>1142</ele><time>2013-09-25T10:57:19Z</time></trkpt>
 <trkpt lat="47.759205800" lon="12.576912400"><ele>1142</ele><time>2013-09-25T10:57:23Z</time></trkpt>
 <trkpt lat="47.759236200" lon="12.576869500"><ele>1142</ele><time>2013-09-25T10:57:27Z</time></trkpt>
 <trkpt lat="47.759265800" lon="12.576824500"><ele>1142</ele><time>2013-09-25T10:57:31Z</time></trkpt>
 <trkpt lat="47.759279500" lon="12.576805300"><ele>1142</ele><time>2013-09-25T10:57:35Z</time></trkpt>
 <trkpt lat="47.759302000" lon="12.576784900"><ele>1142</ele><time>2013-09-25T10:57:39Z</time></trkpt>
 <trkpt lat="47.759316200" lon="12.576762000"><ele>1142</ele><time>2013-09-25T10:57:43Z</time></trkpt>
 <trkpt lat="47.759322400" lon="12.576740700"><ele>1142</ele><time>2013-09-25T10:57:47Z</time></trkpt>
 <trkpt lat="47.759335300" lon="12.576727800"><ele>1142</ele><time>2013-09-25T10:57:51Z</time></trkpt>
 <trkpt lat="47.759343700" lon="12.576710300"><ele>1143</ele><time>2013-09-25T10:57:55Z</time></trkpt>
 <trkpt lat="47.759342400" lon="12.576664500"><ele>1143</ele><time>2013-09-25T10:57:59Z</time></trkpt>
 <trkpt lat="47.759346600" lon="12.576612800"><ele>1143</ele><time>2013-09-25T10:58:03Z</time></trkpt>
 <trkpt lat="47.759349500" lon="12.576573300"><ele>1143</ele><time>2013-09-25T10:58:07Z</time></trkpt>
 <trkpt lat="47.759354100" lon="12.576534100"><ele>1143</ele><time>2013-09-25T10:58:11Z</time></trkpt>
 <trkpt lat="47.759347900" lon="12.576504100"><ele>1143</ele><time>2013-09-25T10:58:15Z</time></trkpt>
 <trkpt lat="47.759340400" lon="12.576482000"><ele>1143</ele><time>2013-09-25T10:58:19Z</time></trkpt>
 <trkpt lat="47.759344900" lon="12.576439100"><ele>1143</ele><time>2013-09-25T10:58:23Z</time></trkpt>
 <trkpt lat="47.759347800" lon="12.576404500"><ele>1143</ele><time>2013-09-25T10:58:27Z</time></trkpt>
 <trkpt lat="47.759362400" lon="12.576358200"><ele>1143</ele><time>2013-09-25T10:58:31Z</time></trkpt>
 <trkpt lat="47.759389900" lon="12.576310800"><ele>1143</ele><time>2013-09-25T10:58:35Z</time></trkpt>
 <trkpt lat="47.759401600" lon="12.576295400"><ele>1143</ele><time>2013-09-25T10:58:39Z</time></trkpt>
 <trkpt lat="47.759410800" lon="12.576293700"><ele>1143</ele><time>2013-09-25T10:58:43Z</time></trkpt>
 <trkpt lat="47.759389500" lon="12.576298300"><ele>1143</ele><time>2013-09-25T10:58:47Z</time></trkpt>
 <trkpt lat="47.759393200" lon="12.576292000"><ele>1143</ele><time>2013-09-25T10:58:51Z</time></trkpt>
 <trkpt lat="47.759400800" lon="12.576257800"><ele>1143</ele><time>2013-09-25T10:58:55Z</time></trkpt>
 <trkpt lat="47.759404500" lon="12.576215300"><ele>1144</ele><time>2013-09-25T10:58:59Z</time></trkpt>
 <trkpt lat="47.759400700" lon="12.576172000"><ele>1144</ele><time>2013-09-25T10:59:03Z</time></trkpt>
 <trkpt lat="47.759402400" lon="12.576127800"><ele>1144</ele><time>2013-09-25T10:59:07Z</time></trkpt>
 <trkpt lat="47.759407400" lon="12.576070300"><ele>1144</ele><time>2013-09-25T10:59:11Z</time></trkpt>
 <trkpt lat="47.759398300" lon="12.576041600"><ele>1144</ele><time>2013-09-25T10:59:15Z</time></trkpt>
 <trkpt lat="47.759387000" lon="12.576004100"><ele>1144</ele><time>2013-09-25T10:59:19Z</time></trkpt>
 <trkpt lat="47.759384100" lon="12.575969100"><ele>1144</ele><time>2013-09-25T10:59:23Z</time></trkpt>
 <trkpt lat="47.759395700" lon="12.575927400"><ele>1144</ele><time>2013-09-25T10:59:27Z</time></trkpt>
 <trkpt lat="47.759407000" lon="12.575882900"><ele>1144</ele><time>2013-09-25T10:59:31Z</time></trkpt>
 <trkpt lat="47.759419100" lon="12.575844900"><ele>1144</ele><time>2013-09-25T10:59:35Z</time></trkpt>
 <trkpt lat="47.759433700" lon="12.575810800"><ele>1144</ele><time>2013-09-25T10:59:39Z</time></trkpt>
 <trkpt lat="47.759439500" lon="12.575754500"><ele>1145</ele><time>2013-09-25T10:59:43Z</time></trkpt>
 <trkpt lat="47.759437400" lon="12.575707000"><ele>1145</ele><time>2013-09-25T10:59:47Z</time></trkpt>
 <trkpt lat="47.759427000" lon="12.575668300"><ele>1145</ele><time>2013-09-25T10:59:51Z</time></trkpt>
 <trkpt lat="47.759407800" lon="12.575627800"><ele>1145</ele><time>2013-09-25T10:59:55Z</time></trkpt>
 <trkpt lat="47.759399500" lon="12.575569100"><ele>1145</ele><time>2013-09-25T10:59:59Z</time></trkpt>
 <trkpt lat="47.759400400" lon="12.575512400"><ele>1145</ele><time>2013-09-25T11:00:03Z</time></trkpt>
 <trkpt lat="47.759398700" lon="12.575471200"><ele>1145</ele><time>2013-09-25T11:00:07Z</time></trkpt>
 <trkpt lat="47.759377800" lon="12.575442800"><ele>1146</ele><time>2013-09-25T11:00:11Z</time></trkpt>
 <trkpt lat="47.759366200" lon="12.575405800"><ele>1146</ele><time>2013-09-25T11:00:15Z</time></trkpt>
 <trkpt lat="47.759364500" lon="12.575363700"><ele>1146</ele><time>2013-09-25T11:00:19Z</time></trkpt>
 <trkpt lat="47.759377000" lon="12.575322900"><ele>1146</ele><time>2013-09-25T11:00:23Z</time></trkpt>
 <trkpt lat="47.759374100" lon="12.575273700"><ele>1146</ele><time>2013-09-25T11:00:27Z</time></trkpt>
 <trkpt lat="47.759372400" lon="12.575227000"><ele>1147</ele><time>2013-09-25T11:00:31Z</time></trkpt>
 <trkpt lat="47.759376200" lon="12.575164500"><ele>1147</ele><time>2013-09-25T11:00:35Z</time></trkpt>
 <trkpt lat="47.759378700" lon="12.575111200"><ele>1147</ele><time>2013-09-25T11:00:39Z</time></trkpt>
 <trkpt lat="47.759383700" lon="12.575085400"><ele>1147</ele><time>2013-09-25T11:00:43Z</time></trkpt>
 <trkpt lat="47.759385800" lon="12.575044100"><ele>1148</ele><time>2013-09-25T11:00:47Z</time></trkpt>
 <trkpt lat="47.759395300" lon="12.575006600"><ele>1148</ele><time>2013-09-25T11:00:51Z</time></trkpt>
 <trkpt lat="47.759403700" lon="12.574991600"><ele>1148</ele><time>2013-09-25T11:00:55Z</time></trkpt>
 <trkpt lat="47.759404500" lon="12.574951600"><ele>1148</ele><time>2013-09-25T11:00:59Z</time></trkpt>
 <trkpt lat="47.759412000" lon="12.574915800"><ele>1149</ele><time>2013-09-25T11:01:03Z</time></trkpt>
 <trkpt lat="47.759421600" lon="12.574872900"><ele>1149</ele><time>2013-09-25T11:01:07Z</time></trkpt>
 <trkpt lat="47.759430800" lon="12.574837400"><ele>1149</ele><time>2013-09-25T11:01:11Z</time></trkpt>
 <trkpt lat="47.759416200" lon="12.574787400"><ele>1149</ele><time>2013-09-25T11:01:15Z</time></trkpt>
 <trkpt lat="47.759424500" lon="12.574744500"><ele>1150</ele><time>2013-09-25T11:01:19Z</time></trkpt>
 <trkpt lat="47.759442000" lon="12.574698700"><ele>1150</ele><time>2013-09-25T11:01:23Z</time></trkpt>
 <trkpt lat="47.759457400" lon="12.574671600"><ele>1150</ele><time>2013-09-25T11:01:27Z</time></trkpt>
 <trkpt lat="47.759473300" lon="12.574631600"><ele>1150</ele><time>2013-09-25T11:01:31Z</time></trkpt>
 <trkpt lat="47.759508700" lon="12.574554900"><ele>1151</ele><time>2013-09-25T11:01:35Z</time></trkpt>
 <trkpt lat="47.759527400" lon="12.574507000"><ele>1151</ele><time>2013-09-25T11:01:39Z</time></trkpt>
 <trkpt lat="47.759518700" lon="12.574472000"><ele>1151</ele><time>2013-09-25T11:01:43Z</time></trkpt>
 <trkpt lat="47.759510800" lon="12.574454100"><ele>1151</ele><time>2013-09-25T11:01:47Z</time></trkpt>
 <trkpt lat="47.759498300" lon="12.574419100"><ele>1151</ele><time>2013-09-25T11:01:51Z</time></trkpt>
 <trkpt lat="47.759492800" lon="12.574389500"><ele>1152</ele><time>2013-09-25T11:01:55Z</time></trkpt>
 <trkpt lat="47.759467000" lon="12.574363700"><ele>1152</ele><time>2013-09-25T11:01:59Z</time></trkpt>
 <trkpt lat="47.759435800" lon="12.574338700"><ele>1152</ele><time>2013-09-25T11:02:03Z</time></trkpt>
 <trkpt lat="47.759420400" lon="12.574306200"><ele>1152</ele><time>2013-09-25T11:02:07Z</time></trkpt>
 <trkpt lat="47.759421200" lon="12.574274100"><ele>1152</ele><time>2013-09-25T11:02:11Z</time></trkpt>
 <trkpt lat="47.759425700" lon="12.574239100"><ele>1153</ele><time>2013-09-25T11:02:15Z</time></trkpt>
 <trkpt lat="47.759425300" lon="12.574198700"><ele>1153</ele><time>2013-09-25T11:02:19Z</time></trkpt>
 <trkpt lat="47.759435300" lon="12.574149100"><ele>1153</ele><time>2013-09-25T11:02:23Z</time></trkpt>
 <trkpt lat="47.759449500" lon="12.574088700"><ele>1153</ele><time>2013-09-25T11:02:27Z</time></trkpt>
 <trkpt lat="47.759457900" lon="12.574018700"><ele>1153</ele><time>2013-09-25T11:02:31Z</time></trkpt>
 <trkpt lat="47.759459500" lon="12.573956200"><ele>1154</ele><time>2013-09-25T11:02:35Z</time></trkpt>
 <trkpt lat="47.759418300" lon="12.573929900"><ele>1154</ele><time>2013-09-25T11:02:39Z</time></trkpt>
 <trkpt lat="47.759401600" lon="12.573885400"><ele>1154</ele><time>2013-09-25T11:02:43Z</time></trkpt>
 <trkpt lat="47.759409500" lon="12.573851200"><ele>1154</ele><time>2013-09-25T11:02:47Z</time></trkpt>
 <trkpt lat="47.759428300" lon="12.573839900"><ele>1154</ele><time>2013-09-25T11:02:51Z</time></trkpt>
 <trkpt lat="47.759462500" lon="12.573818300"><ele>1155</ele><time>2013-09-25T11:02:55Z</time></trkpt>
 <trkpt lat="47.759476600" lon="12.573802900"><ele>1155</ele><time>2013-09-25T11:02:59Z</time></trkpt>
 <trkpt lat="47.759472400" lon="12.573778700"><ele>1155</ele><time>2013-09-25T11:03:03Z</time></trkpt>
 <trkpt lat="47.759473300" lon="12.573736200"><ele>1155</ele><time>2013-09-25T11:03:07Z</time></trkpt>
 <trkpt lat="47.759467000" lon="12.573685300"><ele>1155</ele><time>2013-09-25T11:03:11Z</time></trkpt>
 <trkpt lat="47.759465800" lon="12.573631200"><ele>1155</ele><time>2013-09-25T11:03:15Z</time></trkpt>
 <trkpt lat="47.759469900" lon="12.573571600"><ele>1155</ele><time>2013-09-25T11:03:19Z</time></trkpt>
 <trkpt lat="47.759483700" lon="12.573503300"><ele>1156</ele><time>2013-09-25T11:03:23Z</time></trkpt>
 <trkpt lat="47.759492800" lon="12.573442800"><ele>1156</ele><time>2013-09-25T11:03:27Z</time></trkpt>
 <trkpt lat="47.759483700" lon="12.573410800"><ele>1156</ele><time>2013-09-25T11:03:31Z</time></trkpt>
 <trkpt lat="47.759504900" lon="12.573364500"><ele>1156</ele><time>2013-09-25T11:03:35Z</time></trkpt>
 <trkpt lat="47.759517800" lon="12.573327900"><ele>1156</ele><time>2013-09-25T11:03:39Z</time></trkpt>
 <trkpt lat="47.759520800" lon="12.573289900"><ele>1156</ele><time>2013-09-25T11:03:43Z</time></trkpt>
 <trkpt lat="47.759502000" lon="12.573273300"><ele>1157</ele><time>2013-09-25T11:03:47Z</time></trkpt>
 <trkpt lat="47.759497900" lon="12.573228700"><ele>1157</ele><time>2013-09-25T11:03:51Z</time></trkpt>
 <trkpt lat="47.759504100" lon="12.573184500"><ele>1157</ele><time>2013-09-25T11:03:55Z</time></trkpt>
 <trkpt lat="47.759490800" lon="12.573129900"><ele>1157</ele><time>2013-09-25T11:03:59Z</time></trkpt>
 <trkpt lat="47.759475700" lon="12.573065300"><ele>1157</ele><time>2013-09-25T11:04:03Z</time></trkpt>
 <trkpt lat="47.759457400" lon="12.573042000"><ele>1157</ele><time>2013-09-25T11:04:07Z</time></trkpt>
 <trkpt lat="47.759469100" lon="12.573006600"><ele>1158</ele><time>2013-09-25T11:04:11Z</time></trkpt>
 <trkpt lat="47.759486600" lon="12.572967800"><ele>1158</ele><time>2013-09-25T11:04:15Z</time></trkpt>
 <trkpt lat="47.759518300" lon="12.572927900"><ele>1158</ele><time>2013-09-25T11:04:19Z</time></trkpt>
 <trkpt lat="47.759525700" lon="12.572883700"><ele>1158</ele><time>2013-09-25T11:04:23Z</time></trkpt>
 <trkpt lat="47.759525800" lon="12.572841200"><ele>1158</ele><time>2013-09-25T11:04:27Z</time></trkpt>
 <trkpt lat="47.759535800" lon="12.572780800"><ele>1159</ele><time>2013-09-25T11:04:31Z</time></trkpt>
 <trkpt lat="47.759553200" lon="12.572758700"><ele>1159</ele><time>2013-09-25T11:04:35Z</time></trkpt>
 <trkpt lat="47.759567900" lon="12.572766200"><ele>1159</ele><time>2013-09-25T11:04:39Z</time></trkpt>
 <trkpt lat="47.759574100" lon="12.572768700"><ele>1159</ele><time>2013-09-25T11:04:43Z</time></trkpt>
 <trkpt lat="47.759546600" lon="12.572723200"><ele>1159</ele><time>2013-09-25T11:04:47Z</time></trkpt>
 <trkpt lat="47.759544100" lon="12.572715800"><ele>1159</ele><time>2013-09-25T11:04:51Z</time></trkpt>
 <trkpt lat="47.759539100" lon="12.572709500"><ele>1159</ele><time>2013-09-25T11:04:55Z</time></trkpt>
 <trkpt lat="47.759536600" lon="12.572700800"><ele>1159</ele><time>2013-09-25T11:04:59Z</time></trkpt>
 <trkpt lat="47.759536600" lon="12.572700800"><ele>1159</ele><time>2013-09-25T11:05:03Z</time></trkpt>
 <trkpt lat="47.759536600" lon="12.572700800"><ele>1159</ele><time>2013-09-25T11:05:07Z</time></trkpt>
 <trkpt lat="47.759537400" lon="12.572691600"><ele>1160</ele><time>2013-09-25T11:05:11Z</time></trkpt>
 <trkpt lat="47.759539500" lon="12.572683300"><ele>1160</ele><time>2013-09-25T11:05:15Z</time></trkpt>
 <trkpt lat="47.759537000" lon="12.572674100"><ele>1160</ele><time>2013-09-25T11:05:19Z</time></trkpt>
 <trkpt lat="47.759519500" lon="12.572672400"><ele>1160</ele><time>2013-09-25T11:05:23Z</time></trkpt>
 <trkpt lat="47.759495000" lon="12.572692400"><ele>1160</ele><time>2013-09-25T11:05:27Z</time></trkpt>
 <trkpt lat="47.759495000" lon="12.572692400"><ele>1160</ele><time>2013-09-25T11:05:31Z</time></trkpt>
 <trkpt lat="47.759495000" lon="12.572692400"><ele>1160</ele><time>2013-09-25T11:05:35Z</time></trkpt>
 <trkpt lat="47.759489100" lon="12.572690800"><ele>1160</ele><time>2013-09-25T11:05:39Z</time></trkpt>
 <trkpt lat="47.759482400" lon="12.572689100"><ele>1160</ele><time>2013-09-25T11:05:43Z</time></trkpt>
 <trkpt lat="47.759475800" lon="12.572690000"><ele>1161</ele><time>2013-09-25T11:05:47Z</time></trkpt>
 <trkpt lat="47.759463300" lon="12.572686600"><ele>1161</ele><time>2013-09-25T11:05:51Z</time></trkpt>
 <trkpt lat="47.759461200" lon="12.572679100"><ele>1161</ele><time>2013-09-25T11:05:55Z</time></trkpt>
 <trkpt lat="47.759449100" lon="12.572682400"><ele>1162</ele><time>2013-09-25T11:05:59Z</time></trkpt>
 <trkpt lat="47.759449100" lon="12.572682400"><ele>1162</ele><time>2013-09-25T11:06:03Z</time></trkpt>
 <trkpt lat="47.759442800" lon="12.572686200"><ele>1163</ele><time>2013-09-25T11:06:07Z</time></trkpt>
 <trkpt lat="47.759434900" lon="12.572684500"><ele>1163</ele><time>2013-09-25T11:06:11Z</time></trkpt>
 <trkpt lat="47.759443200" lon="12.572684900"><ele>1164</ele><time>2013-09-25T11:06:15Z</time></trkpt>
 <trkpt lat="47.759410400" lon="12.572672000"><ele>1165</ele><time>2013-09-25T11:06:19Z</time></trkpt>
 <trkpt lat="47.759385300" lon="12.572671600"><ele>1165</ele><time>2013-09-25T11:06:23Z</time></trkpt>
 <trkpt lat="47.759377800" lon="12.572674900"><ele>1166</ele><time>2013-09-25T11:06:27Z</time></trkpt>
 <trkpt lat="47.759364100" lon="12.572673200"><ele>1167</ele><time>2013-09-25T11:06:31Z</time></trkpt>
 <trkpt lat="47.759364100" lon="12.572673200"><ele>1168</ele><time>2013-09-25T11:06:35Z</time></trkpt>
 <trkpt lat="47.759373200" lon="12.572668700"><ele>1168</ele><time>2013-09-25T11:06:39Z</time></trkpt>
 <trkpt lat="47.759398300" lon="12.572697900"><ele>1169</ele><time>2013-09-25T11:06:43Z</time></trkpt>
 <trkpt lat="47.759403700" lon="12.572707900"><ele>1170</ele><time>2013-09-25T11:06:47Z</time></trkpt>
 <trkpt lat="47.759404500" lon="12.572717400"><ele>1170</ele><time>2013-09-25T11:06:51Z</time></trkpt>
 <trkpt lat="47.759404500" lon="12.572717400"><ele>1171</ele><time>2013-09-25T11:06:55Z</time></trkpt>
 <trkpt lat="47.759402000" lon="12.572725300"><ele>1171</ele><time>2013-09-25T11:06:59Z</time></trkpt>
 <trkpt lat="47.759404100" lon="12.572733300"><ele>1172</ele><time>2013-09-25T11:07:03Z</time></trkpt>
 <trkpt lat="47.759408700" lon="12.572727400"><ele>1173</ele><time>2013-09-25T11:07:07Z</time></trkpt>
 <trkpt lat="47.759413700" lon="12.572720800"><ele>1173</ele><time>2013-09-25T11:07:11Z</time></trkpt>
 <trkpt lat="47.759407400" lon="12.572728300"><ele>1174</ele><time>2013-09-25T11:07:15Z</time></trkpt>
 <trkpt lat="47.759401600" lon="12.572727400"><ele>1175</ele><time>2013-09-25T11:07:19Z</time></trkpt>
 <trkpt lat="47.759395300" lon="12.572725800"><ele>1175</ele><time>2013-09-25T11:07:23Z</time></trkpt>
 <trkpt lat="47.759374900" lon="12.572740700"><ele>1176</ele><time>2013-09-25T11:07:27Z</time></trkpt>
 <trkpt lat="47.759350400" lon="12.572740400"><ele>1177</ele><time>2013-09-25T11:07:31Z</time></trkpt>
 <trkpt lat="47.759318700" lon="12.572743700"><ele>1178</ele><time>2013-09-25T11:07:35Z</time></trkpt>
 <trkpt lat="47.759287400" lon="12.572743300"><ele>1178</ele><time>2013-09-25T11:07:39Z</time></trkpt>
 <trkpt lat="47.759299500" lon="12.572748200"><ele>1179</ele><time>2013-09-25T11:07:43Z</time></trkpt>
 <trkpt lat="47.759338700" lon="12.572748200"><ele>1180</ele><time>2013-09-25T11:07:47Z</time></trkpt>
 <trkpt lat="47.759338700" lon="12.572748200"><ele>1181</ele><time>2013-09-25T11:07:51Z</time></trkpt>
 <trkpt lat="47.759323300" lon="12.572720400"><ele>1181</ele><time>2013-09-25T11:07:55Z</time></trkpt>
 <trkpt lat="47.759304900" lon="12.572702800"><ele>1182</ele><time>2013-09-25T11:07:59Z</time></trkpt>
 <trkpt lat="47.759292800" lon="12.572698300"><ele>1183</ele><time>2013-09-25T11:08:03Z</time></trkpt>
 <trkpt lat="47.759292800" lon="12.572698300"><ele>1184</ele><time>2013-09-25T11:08:07Z</time></trkpt>
 <trkpt lat="47.759294900" lon="12.572686600"><ele>1184</ele><time>2013-09-25T11:08:11Z</time></trkpt>
 <trkpt lat="47.759292000" lon="12.572665400"><ele>1185</ele><time>2013-09-25T11:08:15Z</time></trkpt>
 <trkpt lat="47.759292000" lon="12.572665400"><ele>1185</ele><time>2013-09-25T11:08:19Z</time></trkpt>
 <trkpt lat="47.759292000" lon="12.572655800"><ele>1186</ele><time>2013-09-25T11:08:23Z</time></trkpt>
 <trkpt lat="47.759297400" lon="12.572649100"><ele>1186</ele><time>2013-09-25T11:08:27Z</time></trkpt>
 <trkpt lat="47.759297400" lon="12.572649100"><ele>1186</ele><time>2013-09-25T11:08:31Z</time></trkpt>
 <trkpt lat="47.759299900" lon="12.572674100"><ele>1187</ele><time>2013-09-25T11:08:35Z</time></trkpt>
 <trkpt lat="47.759294500" lon="12.572682800"><ele>1187</ele><time>2013-09-25T11:08:39Z</time></trkpt>
 <trkpt lat="47.759283700" lon="12.572692000"><ele>1187</ele><time>2013-09-25T11:08:43Z</time></trkpt>
 <trkpt lat="47.759277400" lon="12.572693300"><ele>1187</ele><time>2013-09-25T11:08:47Z</time></trkpt>
 <trkpt lat="47.759271200" lon="12.572694900"><ele>1188</ele><time>2013-09-25T11:08:51Z</time></trkpt>
 <trkpt lat="47.759265800" lon="12.572696600"><ele>1188</ele><time>2013-09-25T11:08:55Z</time></trkpt>
 <trkpt lat="47.759259500" lon="12.572697800"><ele>1188</ele><time>2013-09-25T11:08:59Z</time></trkpt>
 <trkpt lat="47.759259500" lon="12.572697800"><ele>1188</ele><time>2013-09-25T11:09:03Z</time></trkpt>
 <trkpt lat="47.759259500" lon="12.572697800"><ele>1188</ele><time>2013-09-25T11:09:07Z</time></trkpt>
 <trkpt lat="47.759264500" lon="12.572702000"><ele>1189</ele><time>2013-09-25T11:09:11Z</time></trkpt>
 <trkpt lat="47.759270800" lon="12.572698300"><ele>1189</ele><time>2013-09-25T11:09:15Z</time></trkpt>
 <trkpt lat="47.759277000" lon="12.572696600"><ele>1190</ele><time>2013-09-25T11:09:19Z</time></trkpt>
 <trkpt lat="47.759295400" lon="12.572691600"><ele>1190</ele><time>2013-09-25T11:09:23Z</time></trkpt>
 <trkpt lat="47.759316200" lon="12.572679900"><ele>1190</ele><time>2013-09-25T11:09:27Z</time></trkpt>
 <trkpt lat="47.759333700" lon="12.572678300"><ele>1191</ele><time>2013-09-25T11:09:31Z</time></trkpt>
 <trkpt lat="47.759350300" lon="12.572676200"><ele>1191</ele><time>2013-09-25T11:09:35Z</time></trkpt>
 <trkpt lat="47.759365800" lon="12.572677000"><ele>1192</ele><time>2013-09-25T11:09:39Z</time></trkpt>
 <trkpt lat="47.759372400" lon="12.572675800"><ele>1192</ele><time>2013-09-25T11:09:43Z</time></trkpt>
 <trkpt lat="47.759379100" lon="12.572675000"><ele>1193</ele><time>2013-09-25T11:09:47Z</time></trkpt>
 <trkpt lat="47.759392000" lon="12.572673300"><ele>1193</ele><time>2013-09-25T11:09:51Z</time></trkpt>
 <trkpt lat="47.759399900" lon="12.572671600"><ele>1194</ele><time>2013-09-25T11:09:55Z</time></trkpt>
 <trkpt lat="47.759407400" lon="12.572667800"><ele>1194</ele><time>2013-09-25T11:09:59Z</time></trkpt>
 <trkpt lat="47.759395000" lon="12.572700800"><ele>1195</ele><time>2013-09-25T11:10:03Z</time></trkpt>
 <trkpt lat="47.759391600" lon="12.572708700"><ele>1195</ele><time>2013-09-25T11:10:07Z</time></trkpt>
 <trkpt lat="47.759384500" lon="12.572709100"><ele>1196</ele><time>2013-09-25T11:10:11Z</time></trkpt>
 <trkpt lat="47.759384500" lon="12.572709100"><ele>1196</ele><time>2013-09-25T11:10:15Z</time></trkpt>
 <trkpt lat="47.759389900" lon="12.572702800"><ele>1197</ele><time>2013-09-25T11:10:19Z</time></trkpt>
 <trkpt lat="47.759393700" lon="12.572694500"><ele>1197</ele><time>2013-09-25T11:10:23Z</time></trkpt>
 <trkpt lat="47.759395000" lon="12.572686600"><ele>1198</ele><time>2013-09-25T11:10:27Z</time></trkpt>
 <trkpt lat="47.759395000" lon="12.572686600"><ele>1198</ele><time>2013-09-25T11:10:31Z</time></trkpt>
 <trkpt lat="47.759393700" lon="12.572717400"><ele>1198</ele><time>2013-09-25T11:10:35Z</time></trkpt>
 <trkpt lat="47.759387400" lon="12.572720800"><ele>1199</ele><time>2013-09-25T11:10:39Z</time></trkpt>
 <trkpt lat="47.759387400" lon="12.572720800"><ele>1199</ele><time>2013-09-25T11:10:43Z</time></trkpt>
 <trkpt lat="47.759387400" lon="12.572720800"><ele>1200</ele><time>2013-09-25T11:10:47Z</time></trkpt>
 <trkpt lat="47.759382000" lon="12.572719100"><ele>1200</ele><time>2013-09-25T11:10:51Z</time></trkpt>
 <trkpt lat="47.759375800" lon="12.572720800"><ele>1200</ele><time>2013-09-25T11:10:55Z</time></trkpt>
 <trkpt lat="47.759368700" lon="12.572724100"><ele>1201</ele><time>2013-09-25T11:10:59Z</time></trkpt>
 <trkpt lat="47.759362900" lon="12.572724500"><ele>1201</ele><time>2013-09-25T11:11:03Z</time></trkpt>
 <trkpt lat="47.759379100" lon="12.572729100"><ele>1202</ele><time>2013-09-25T11:11:07Z</time></trkpt>
 <trkpt lat="47.759386200" lon="12.572730000"><ele>1202</ele><time>2013-09-25T11:11:11Z</time></trkpt>
 <trkpt lat="47.759399100" lon="12.572715800"><ele>1203</ele><time>2013-09-25T11:11:15Z</time></trkpt>
 <trkpt lat="47.759406200" lon="12.572684500"><ele>1203</ele><time>2013-09-25T11:11:19Z</time></trkpt>
 <trkpt lat="47.759417400" lon="12.572719900"><ele>1204</ele><time>2013-09-25T11:11:23Z</time></trkpt>
 <trkpt lat="47.759416200" lon="12.572752800"><ele>1204</ele><time>2013-09-25T11:11:27Z</time></trkpt>
 <trkpt lat="47.759416600" lon="12.572761200"><ele>1205</ele><time>2013-09-25T11:11:31Z</time></trkpt>
 <trkpt lat="47.759416600" lon="12.572761200"><ele>1205</ele><time>2013-09-25T11:11:35Z</time></trkpt>
 <trkpt lat="47.759402400" lon="12.572773200"><ele>1206</ele><time>2013-09-25T11:11:39Z</time></trkpt>
 <trkpt lat="47.759390700" lon="12.572768700"><ele>1206</ele><time>2013-09-25T11:11:43Z</time></trkpt>
 <trkpt lat="47.759380400" lon="12.572759100"><ele>1207</ele><time>2013-09-25T11:11:47Z</time></trkpt>
 <trkpt lat="47.759362900" lon="12.572748300"><ele>1207</ele><time>2013-09-25T11:11:51Z</time></trkpt>
 <trkpt lat="47.759346600" lon="12.572741600"><ele>1208</ele><time>2013-09-25T11:11:55Z</time></trkpt>
 <trkpt lat="47.759341200" lon="12.572740300"><ele>1208</ele><time>2013-09-25T11:11:59Z</time></trkpt>
 <trkpt lat="47.759345800" lon="12.572735300"><ele>1209</ele><time>2013-09-25T11:12:03Z</time></trkpt>
 <trkpt lat="47.759345800" lon="12.572735300"><ele>1209</ele><time>2013-09-25T11:12:07Z</time></trkpt>
 <trkpt lat="47.759340800" lon="12.572729100"><ele>1210</ele><time>2013-09-25T11:12:11Z</time></trkpt>
 <trkpt lat="47.759346200" lon="12.572718700"><ele>1210</ele><time>2013-09-25T11:12:15Z</time></trkpt>
 <trkpt lat="47.759347000" lon="12.572714900"><ele>1211</ele><time>2013-09-25T11:12:19Z</time></trkpt>
 <trkpt lat="47.759347000" lon="12.572714900"><ele>1211</ele><time>2013-09-25T11:12:23Z</time></trkpt>
 <trkpt lat="47.759347000" lon="12.572714900"><ele>1212</ele><time>2013-09-25T11:12:27Z</time></trkpt>
 <trkpt lat="47.759347000" lon="12.572714900"><ele>1212</ele><time>2013-09-25T11:12:31Z</time></trkpt>
 <trkpt lat="47.759353300" lon="12.572718700"><ele>1213</ele><time>2013-09-25T11:12:35Z</time></trkpt>
 <trkpt lat="47.759359100" lon="12.572714900"><ele>1213</ele><time>2013-09-25T11:12:39Z</time></trkpt>
 <trkpt lat="47.759364500" lon="12.572713300"><ele>1213</ele><time>2013-09-25T11:12:43Z</time></trkpt>
 <trkpt lat="47.759364500" lon="12.572713300"><ele>1214</ele><time>2013-09-25T11:12:47Z</time></trkpt>
 <trkpt lat="47.759364500" lon="12.572713300"><ele>1214</ele><time>2013-09-25T11:12:51Z</time></trkpt>
 <trkpt lat="47.759367400" lon="12.572720300"><ele>1214</ele><time>2013-09-25T11:12:55Z</time></trkpt>
 <trkpt lat="47.759378300" lon="12.572722400"><ele>1214</ele><time>2013-09-25T11:12:59Z</time></trkpt>
 <trkpt lat="47.759396600" lon="12.572729500"><ele>1214</ele><time>2013-09-25T11:13:03Z</time></trkpt>
 <trkpt lat="47.759403300" lon="12.572732900"><ele>1214</ele><time>2013-09-25T11:13:07Z</time></trkpt>
 <trkpt lat="47.759409100" lon="12.572733300"><ele>1215</ele><time>2013-09-25T11:13:11Z</time></trkpt>
 <trkpt lat="47.759414900" lon="12.572731200"><ele>1215</ele><time>2013-09-25T11:13:15Z</time></trkpt>
 <trkpt lat="47.759414900" lon="12.572731200"><ele>1215</ele><time>2013-09-25T11:13:19Z</time></trkpt>
 <trkpt lat="47.759420800" lon="12.572732400"><ele>1215</ele><time>2013-09-25T11:13:23Z</time></trkpt>
 <trkpt lat="47.759425800" lon="12.572735800"><ele>1215</ele><time>2013-09-25T11:13:27Z</time></trkpt>
 <trkpt lat="47.759431600" lon="12.572738300"><ele>1215</ele><time>2013-09-25T11:13:31Z</time></trkpt>
 <trkpt lat="47.759431600" lon="12.572738300"><ele>1215</ele><time>2013-09-25T11:13:35Z</time></trkpt>
 <trkpt lat="47.759437000" lon="12.572742400"><ele>1215</ele><time>2013-09-25T11:13:39Z</time></trkpt>
 <trkpt lat="47.759437000" lon="12.572742400"><ele>1215</ele><time>2013-09-25T11:13:43Z</time></trkpt>
 <trkpt lat="47.759437000" lon="12.572742400"><ele>1215</ele><time>2013-09-25T11:13:47Z</time></trkpt>
 <trkpt lat="47.759438300" lon="12.572750800"><ele>1215</ele><time>2013-09-25T11:13:51Z</time></trkpt>
 <trkpt lat="47.759433700" lon="12.572755800"><ele>1215</ele><time>2013-09-25T11:13:55Z</time></trkpt>
 <trkpt lat="47.759427900" lon="12.572759500"><ele>1215</ele><time>2013-09-25T11:13:59Z</time></trkpt>
 <trkpt lat="47.759418300" lon="12.572750800"><ele>1215</ele><time>2013-09-25T11:14:03Z</time></trkpt>
 <trkpt lat="47.759399100" lon="12.572726200"><ele>1215</ele><time>2013-09-25T11:14:07Z</time></trkpt>
 <trkpt lat="47.759394900" lon="12.572719500"><ele>1215</ele><time>2013-09-25T11:14:11Z</time></trkpt>
 <trkpt lat="47.759390800" lon="12.572712000"><ele>1215</ele><time>2013-09-25T11:14:15Z</time></trkpt>
 <trkpt lat="47.759390800" lon="12.572712000"><ele>1216</ele><time>2013-09-25T11:14:19Z</time></trkpt>
 <trkpt lat="47.759386200" lon="12.572719500"><ele>1216</ele><time>2013-09-25T11:14:23Z</time></trkpt>
 <trkpt lat="47.759384100" lon="12.572727400"><ele>1216</ele><time>2013-09-25T11:14:27Z</time></trkpt>
 <trkpt lat="47.759380800" lon="12.572734900"><ele>1216</ele><time>2013-09-25T11:14:31Z</time></trkpt>
 <trkpt lat="47.759380800" lon="12.572734900"><ele>1216</ele><time>2013-09-25T11:14:35Z</time></trkpt>
 <trkpt lat="47.759368300" lon="12.572733300"><ele>1216</ele><time>2013-09-25T11:14:39Z</time></trkpt>
 <trkpt lat="47.759357000" lon="12.572729100"><ele>1217</ele><time>2013-09-25T11:14:43Z</time></trkpt>
 <trkpt lat="47.759357000" lon="12.572729100"><ele>1217</ele><time>2013-09-25T11:14:47Z</time></trkpt>
 <trkpt lat="47.759367800" lon="12.572727000"><ele>1217</ele><time>2013-09-25T11:14:51Z</time></trkpt>
 <trkpt lat="47.759404100" lon="12.572709900"><ele>1217</ele><time>2013-09-25T11:14:55Z</time></trkpt>
 <trkpt lat="47.759427000" lon="12.572694100"><ele>1217</ele><time>2013-09-25T11:14:59Z</time></trkpt>
 <trkpt lat="47.759441200" lon="12.572684900"><ele>1217</ele><time>2013-09-25T11:15:03Z</time></trkpt>
 <trkpt lat="47.759441600" lon="12.572696600"><ele>1218</ele><time>2013-09-25T11:15:07Z</time></trkpt>
 <trkpt lat="47.759433200" lon="12.572697400"><ele>1218</ele><time>2013-09-25T11:15:11Z</time></trkpt>
 <trkpt lat="47.759433200" lon="12.572697400"><ele>1218</ele><time>2013-09-25T11:15:15Z</time></trkpt>
 <trkpt lat="47.759433200" lon="12.572697400"><ele>1218</ele><time>2013-09-25T11:15:19Z</time></trkpt>
 <trkpt lat="47.759433200" lon="12.572697400"><ele>1219</ele><time>2013-09-25T11:15:23Z</time></trkpt>
 <trkpt lat="47.759427400" lon="12.572697800"><ele>1219</ele><time>2013-09-25T11:15:27Z</time></trkpt>
 <trkpt lat="47.759433200" lon="12.572674100"><ele>1219</ele><time>2013-09-25T11:15:31Z</time></trkpt>
 <trkpt lat="47.759436600" lon="12.572664100"><ele>1219</ele><time>2013-09-25T11:15:35Z</time></trkpt>
 <trkpt lat="47.759436600" lon="12.572664100"><ele>1219</ele><time>2013-09-25T11:15:39Z</time></trkpt>
 <trkpt lat="47.759435800" lon="12.572655800"><ele>1220</ele><time>2013-09-25T11:15:43Z</time></trkpt>
 <trkpt lat="47.759439500" lon="12.572647400"><ele>1220</ele><time>2013-09-25T11:15:47Z</time></trkpt>
 <trkpt lat="47.759439500" lon="12.572647400"><ele>1220</ele><time>2013-09-25T11:15:51Z</time></trkpt>
 <trkpt lat="47.759439500" lon="12.572647400"><ele>1220</ele><time>2013-09-25T11:15:55Z</time></trkpt>
 <trkpt lat="47.759439100" lon="12.572624500"><ele>1220</ele><time>2013-09-25T11:15:59Z</time></trkpt>
 <trkpt lat="47.759440000" lon="12.572614900"><ele>1221</ele><time>2013-09-25T11:16:03Z</time></trkpt>
 <trkpt lat="47.759442000" lon="12.572607400"><ele>1221</ele><time>2013-09-25T11:16:07Z</time></trkpt>
 <trkpt lat="47.759442000" lon="12.572607400"><ele>1221</ele><time>2013-09-25T11:16:11Z</time></trkpt>
 <trkpt lat="47.759430300" lon="12.572609100"><ele>1222</ele><time>2013-09-25T11:16:15Z</time></trkpt>
 <trkpt lat="47.759407400" lon="12.572622800"><ele>1222</ele><time>2013-09-25T11:16:19Z</time></trkpt>
 <trkpt lat="47.759386600" lon="12.572606600"><ele>1222</ele><time>2013-09-25T11:16:23Z</time></trkpt>
 <trkpt lat="47.759377400" lon="12.572557000"><ele>1223</ele><time>2013-09-25T11:16:27Z</time></trkpt>
 <trkpt lat="47.759356600" lon="12.572513700"><ele>1223</ele><time>2013-09-25T11:16:31Z</time></trkpt>
 <trkpt lat="47.759342900" lon="12.572497000"><ele>1224</ele><time>2013-09-25T11:16:35Z</time></trkpt>
 <trkpt lat="47.759330800" lon="12.572484500"><ele>1224</ele><time>2013-09-25T11:16:39Z</time></trkpt>
 <trkpt lat="47.759320300" lon="12.572490800"><ele>1225</ele><time>2013-09-25T11:16:43Z</time></trkpt>
 <trkpt lat="47.759307400" lon="12.572515300"><ele>1225</ele><time>2013-09-25T11:16:47Z</time></trkpt>
 <trkpt lat="47.759282800" lon="12.572513700"><ele>1226</ele><time>2013-09-25T11:16:51Z</time></trkpt>
 <trkpt lat="47.759269100" lon="12.572494100"><ele>1227</ele><time>2013-09-25T11:16:55Z</time></trkpt>
 <trkpt lat="47.759262000" lon="12.572472000"><ele>1227</ele><time>2013-09-25T11:16:59Z</time></trkpt>
 <trkpt lat="47.759309100" lon="12.572385800"><ele>1228</ele><time>2013-09-25T11:17:03Z</time></trkpt>
 <trkpt lat="47.759373700" lon="12.572311600"><ele>1228</ele><time>2013-09-25T11:17:07Z</time></trkpt>
 <trkpt lat="47.759384100" lon="12.572297000"><ele>1229</ele><time>2013-09-25T11:17:11Z</time></trkpt>
 <trkpt lat="47.759383700" lon="12.572286200"><ele>1229</ele><time>2013-09-25T11:17:15Z</time></trkpt>
 <trkpt lat="47.759381600" lon="12.572278300"><ele>1230</ele><time>2013-09-25T11:17:19Z</time></trkpt>
 <trkpt lat="47.759385400" lon="12.572272000"><ele>1230</ele><time>2013-09-25T11:17:23Z</time></trkpt>
 <trkpt lat="47.759385400" lon="12.572272000"><ele>1231</ele><time>2013-09-25T11:17:27Z</time></trkpt>
 <trkpt lat="47.759379100" lon="12.572235300"><ele>1231</ele><time>2013-09-25T11:17:31Z</time></trkpt>
 <trkpt lat="47.759372000" lon="12.572206600"><ele>1232</ele><time>2013-09-25T11:17:35Z</time></trkpt>
 <trkpt lat="47.759362800" lon="12.572187400"><ele>1232</ele><time>2013-09-25T11:17:39Z</time></trkpt>
 <trkpt lat="47.759357800" lon="12.572163300"><ele>1233</ele><time>2013-09-25T11:17:43Z</time></trkpt>
 <trkpt lat="47.759351200" lon="12.572122500"><ele>1233</ele><time>2013-09-25T11:17:47Z</time></trkpt>
 <trkpt lat="47.759347000" lon="12.572086600"><ele>1234</ele><time>2013-09-25T11:17:51Z</time></trkpt>
 <trkpt lat="47.759332000" lon="12.572057800"><ele>1234</ele><time>2013-09-25T11:17:55Z</time></trkpt>
 <trkpt lat="47.759331200" lon="12.572007900"><ele>1235</ele><time>2013-09-25T11:17:59Z</time></trkpt>
 <trkpt lat="47.759344900" lon="12.571958300"><ele>1235</ele><time>2013-09-25T11:18:03Z</time></trkpt>
 <trkpt lat="47.759364900" lon="12.571916200"><ele>1236</ele><time>2013-09-25T11:18:07Z</time></trkpt>
 <trkpt lat="47.759383700" lon="12.571878200"><ele>1236</ele><time>2013-09-25T11:18:11Z</time></trkpt>
 <trkpt lat="47.759384100" lon="12.571841600"><ele>1237</ele><time>2013-09-25T11:18:15Z</time></trkpt>
 <trkpt lat="47.759381200" lon="12.571803700"><ele>1237</ele><time>2013-09-25T11:18:19Z</time></trkpt>
 <trkpt lat="47.759400800" lon="12.571763300"><ele>1238</ele><time>2013-09-25T11:18:23Z</time></trkpt>
 <trkpt lat="47.759410300" lon="12.571724900"><ele>1239</ele><time>2013-09-25T11:18:27Z</time></trkpt>
 <trkpt lat="47.759429100" lon="12.571679100"><ele>1239</ele><time>2013-09-25T11:18:31Z</time></trkpt>
 <trkpt lat="47.759426200" lon="12.571635800"><ele>1240</ele><time>2013-09-25T11:18:35Z</time></trkpt>
 <trkpt lat="47.759422800" lon="12.571590300"><ele>1240</ele><time>2013-09-25T11:18:39Z</time></trkpt>
 <trkpt lat="47.759430300" lon="12.571531600"><ele>1241</ele><time>2013-09-25T11:18:43Z</time></trkpt>
 <trkpt lat="47.759436200" lon="12.571478300"><ele>1242</ele><time>2013-09-25T11:18:47Z</time></trkpt>
 <trkpt lat="47.759451200" lon="12.571446600"><ele>1242</ele><time>2013-09-25T11:18:51Z</time></trkpt>
 <trkpt lat="47.759447000" lon="12.571411600"><ele>1243</ele><time>2013-09-25T11:18:55Z</time></trkpt>
 <trkpt lat="47.759426600" lon="12.571398700"><ele>1243</ele><time>2013-09-25T11:18:59Z</time></trkpt>
 <trkpt lat="47.759389100" lon="12.571401600"><ele>1244</ele><time>2013-09-25T11:19:03Z</time></trkpt>
 <trkpt lat="47.759382400" lon="12.571402400"><ele>1244</ele><time>2013-09-25T11:19:07Z</time></trkpt>
 <trkpt lat="47.759373300" lon="12.571379900"><ele>1245</ele><time>2013-09-25T11:19:11Z</time></trkpt>
 <trkpt lat="47.759384900" lon="12.571388700"><ele>1245</ele><time>2013-09-25T11:19:15Z</time></trkpt>
 <trkpt lat="47.759395000" lon="12.571418700"><ele>1246</ele><time>2013-09-25T11:19:19Z</time></trkpt>
 <trkpt lat="47.759395400" lon="12.571445800"><ele>1246</ele><time>2013-09-25T11:19:23Z</time></trkpt>
 <trkpt lat="47.759396200" lon="12.571455800"><ele>1246</ele><time>2013-09-25T11:19:27Z</time></trkpt>
 <trkpt lat="47.759396200" lon="12.571455800"><ele>1247</ele><time>2013-09-25T11:19:31Z</time></trkpt>
 <trkpt lat="47.759410400" lon="12.571434100"><ele>1247</ele><time>2013-09-25T11:19:35Z</time></trkpt>
 <trkpt lat="47.759439500" lon="12.571380400"><ele>1247</ele><time>2013-09-25T11:19:39Z</time></trkpt>
 <trkpt lat="47.759495300" lon="12.571320800"><ele>1248</ele><time>2013-09-25T11:19:43Z</time></trkpt>
 <trkpt lat="47.759518300" lon="12.571279500"><ele>1248</ele><time>2013-09-25T11:19:47Z</time></trkpt>
 <trkpt lat="47.759524100" lon="12.571247900"><ele>1248</ele><time>2013-09-25T11:19:51Z</time></trkpt>
 <trkpt lat="47.759536600" lon="12.571224900"><ele>1249</ele><time>2013-09-25T11:19:55Z</time></trkpt>
 <trkpt lat="47.759565800" lon="12.571194500"><ele>1249</ele><time>2013-09-25T11:19:59Z</time></trkpt>
 <trkpt lat="47.759606200" lon="12.571157800"><ele>1249</ele><time>2013-09-25T11:20:03Z</time></trkpt>
 <trkpt lat="47.759636600" lon="12.571122000"><ele>1250</ele><time>2013-09-25T11:20:07Z</time></trkpt>
 <trkpt lat="47.759654500" lon="12.571080300"><ele>1250</ele><time>2013-09-25T11:20:11Z</time></trkpt>
 <trkpt lat="47.759678300" lon="12.571032400"><ele>1251</ele><time>2013-09-25T11:20:15Z</time></trkpt>
 <trkpt lat="47.759699500" lon="12.570992400"><ele>1251</ele><time>2013-09-25T11:20:19Z</time></trkpt>
 <trkpt lat="47.759723700" lon="12.570979900"><ele>1251</ele><time>2013-09-25T11:20:23Z</time></trkpt>
 <trkpt lat="47.759734500" lon="12.570961200"><ele>1252</ele><time>2013-09-25T11:20:27Z</time></trkpt>
 <trkpt lat="47.759737000" lon="12.570952400"><ele>1252</ele><time>2013-09-25T11:20:31Z</time></trkpt>
 <trkpt lat="47.759737000" lon="12.570952400"><ele>1253</ele><time>2013-09-25T11:20:35Z</time></trkpt>
 <trkpt lat="47.759746200" lon="12.570942000"><ele>1253</ele><time>2013-09-25T11:20:39Z</time></trkpt>
 <trkpt lat="47.759757800" lon="12.570926200"><ele>1253</ele><time>2013-09-25T11:20:43Z</time></trkpt>
 <trkpt lat="47.759766200" lon="12.570912400"><ele>1254</ele><time>2013-09-25T11:20:47Z</time></trkpt>
 <trkpt lat="47.759783700" lon="12.570885700"><ele>1254</ele><time>2013-09-25T11:20:51Z</time></trkpt>
 <trkpt lat="47.759794900" lon="12.570857000"><ele>1255</ele><time>2013-09-25T11:20:55Z</time></trkpt>
 <trkpt lat="47.759815300" lon="12.570818700"><ele>1255</ele><time>2013-09-25T11:20:59Z</time></trkpt>
 <trkpt lat="47.759825300" lon="12.570789900"><ele>1256</ele><time>2013-09-25T11:21:03Z</time></trkpt>
 <trkpt lat="47.759813300" lon="12.570757900"><ele>1256</ele><time>2013-09-25T11:21:07Z</time></trkpt>
 <trkpt lat="47.759793300" lon="12.570721600"><ele>1257</ele><time>2013-09-25T11:21:11Z</time></trkpt>
 <trkpt lat="47.759751600" lon="12.570692800"><ele>1258</ele><time>2013-09-25T11:21:15Z</time></trkpt>
 <trkpt lat="47.759710300" lon="12.570673300"><ele>1259</ele><time>2013-09-25T11:21:19Z</time></trkpt>
 <trkpt lat="47.759690800" lon="12.570691200"><ele>1260</ele><time>2013-09-25T11:21:23Z</time></trkpt>
 <trkpt lat="47.759677000" lon="12.570701600"><ele>1260</ele><time>2013-09-25T11:21:27Z</time></trkpt>
 <trkpt lat="47.759656600" lon="12.570685300"><ele>1261</ele><time>2013-09-25T11:21:31Z</time></trkpt>
 <trkpt lat="47.759631600" lon="12.570667000"><ele>1262</ele><time>2013-09-25T11:21:35Z</time></trkpt>
 <trkpt lat="47.759602400" lon="12.570651200"><ele>1263</ele><time>2013-09-25T11:21:39Z</time></trkpt>
 <trkpt lat="47.759581200" lon="12.570644100"><ele>1264</ele><time>2013-09-25T11:21:43Z</time></trkpt>
 <trkpt lat="47.759568300" lon="12.570633700"><ele>1265</ele><time>2013-09-25T11:21:47Z</time></trkpt>
 <trkpt lat="47.759549900" lon="12.570619500"><ele>1266</ele><time>2013-09-25T11:21:51Z</time></trkpt>
 <trkpt lat="47.759518300" lon="12.570598700"><ele>1267</ele><time>2013-09-25T11:21:55Z</time></trkpt>
 <trkpt lat="47.759495800" lon="12.570556200"><ele>1268</ele><time>2013-09-25T11:21:59Z</time></trkpt>
 <trkpt lat="47.759477800" lon="12.570513300"><ele>1269</ele><time>2013-09-25T11:22:03Z</time></trkpt>
 <trkpt lat="47.759463700" lon="12.570477800"><ele>1270</ele><time>2013-09-25T11:22:07Z</time></trkpt>
 <trkpt lat="47.759453300" lon="12.570457000"><ele>1271</ele><time>2013-09-25T11:22:11Z</time></trkpt>
 <trkpt lat="47.759440800" lon="12.570424500"><ele>1272</ele><time>2013-09-25T11:22:15Z</time></trkpt>
 <trkpt lat="47.759427000" lon="12.570379900"><ele>1272</ele><time>2013-09-25T11:22:19Z</time></trkpt>
 <trkpt lat="47.759409100" lon="12.570321200"><ele>1273</ele><time>2013-09-25T11:22:23Z</time></trkpt>
 <trkpt lat="47.759406200" lon="12.570271200"><ele>1274</ele><time>2013-09-25T11:22:27Z</time></trkpt>
 <trkpt lat="47.759395800" lon="12.570237400"><ele>1274</ele><time>2013-09-25T11:22:31Z</time></trkpt>
 <trkpt lat="47.759415800" lon="12.570197000"><ele>1275</ele><time>2013-09-25T11:22:35Z</time></trkpt>
 <trkpt lat="47.759455400" lon="12.570154100"><ele>1275</ele><time>2013-09-25T11:22:39Z</time></trkpt>
 <trkpt lat="47.759463300" lon="12.570133300"><ele>1276</ele><time>2013-09-25T11:22:43Z</time></trkpt>
 <trkpt lat="47.759474500" lon="12.570121200"><ele>1276</ele><time>2013-09-25T11:22:47Z</time></trkpt>
 <trkpt lat="47.759480400" lon="12.570103200"><ele>1277</ele><time>2013-09-25T11:22:51Z</time></trkpt>
 <trkpt lat="47.759481200" lon="12.570067000"><ele>1277</ele><time>2013-09-25T11:22:55Z</time></trkpt>
 <trkpt lat="47.759482400" lon="12.570035300"><ele>1277</ele><time>2013-09-25T11:22:59Z</time></trkpt>
 <trkpt lat="47.759496200" lon="12.570007400"><ele>1278</ele><time>2013-09-25T11:23:03Z</time></trkpt>
 <trkpt lat="47.759506200" lon="12.569997000"><ele>1278</ele><time>2013-09-25T11:23:07Z</time></trkpt>
 <trkpt lat="47.759509100" lon="12.569989500"><ele>1278</ele><time>2013-09-25T11:23:11Z</time></trkpt>
 <trkpt lat="47.759518300" lon="12.569972000"><ele>1279</ele><time>2013-09-25T11:23:15Z</time></trkpt>
 <trkpt lat="47.759530300" lon="12.569966200"><ele>1279</ele><time>2013-09-25T11:23:19Z</time></trkpt>
 <trkpt lat="47.759530300" lon="12.569966200"><ele>1280</ele><time>2013-09-25T11:23:23Z</time></trkpt>
 <trkpt lat="47.759538700" lon="12.569957000"><ele>1280</ele><time>2013-09-25T11:23:27Z</time></trkpt>
 <trkpt lat="47.759513700" lon="12.569920300"><ele>1281</ele><time>2013-09-25T11:23:31Z</time></trkpt>
 <trkpt lat="47.759513700" lon="12.569878700"><ele>1281</ele><time>2013-09-25T11:23:35Z</time></trkpt>
 <trkpt lat="47.759523300" lon="12.569836200"><ele>1282</ele><time>2013-09-25T11:23:39Z</time></trkpt>
 <trkpt lat="47.759534900" lon="12.569794100"><ele>1282</ele><time>2013-09-25T11:23:43Z</time></trkpt>
 <trkpt lat="47.759522800" lon="12.569748300"><ele>1283</ele><time>2013-09-25T11:23:47Z</time></trkpt>
 <trkpt lat="47.759493300" lon="12.569714500"><ele>1283</ele><time>2013-09-25T11:23:51Z</time></trkpt>
 <trkpt lat="47.759489500" lon="12.569687000"><ele>1284</ele><time>2013-09-25T11:23:55Z</time></trkpt>
 <trkpt lat="47.759482900" lon="12.569625800"><ele>1285</ele><time>2013-09-25T11:23:59Z</time></trkpt>
 <trkpt lat="47.759480400" lon="12.569562400"><ele>1286</ele><time>2013-09-25T11:24:03Z</time></trkpt>
 <trkpt lat="47.759472900" lon="12.569502000"><ele>1287</ele><time>2013-09-25T11:24:07Z</time></trkpt>
 <trkpt lat="47.759457900" lon="12.569474500"><ele>1288</ele><time>2013-09-25T11:24:11Z</time></trkpt>
 <trkpt lat="47.759406200" lon="12.569506600"><ele>1290</ele><time>2013-09-25T11:24:15Z</time></trkpt>
 <trkpt lat="47.759362000" lon="12.569526600"><ele>1291</ele><time>2013-09-25T11:24:19Z</time></trkpt>
 <trkpt lat="47.759338300" lon="12.569519900"><ele>1292</ele><time>2013-09-25T11:24:23Z</time></trkpt>
 <trkpt lat="47.759298300" lon="12.569499900"><ele>1294</ele><time>2013-09-25T11:24:27Z</time></trkpt>
 <trkpt lat="47.759297400" lon="12.569486200"><ele>1296</ele><time>2013-09-25T11:24:31Z</time></trkpt>
 <trkpt lat="47.759306200" lon="12.569466200"><ele>1297</ele><time>2013-09-25T11:24:35Z</time></trkpt>
 <trkpt lat="47.759320800" lon="12.569446600"><ele>1299</ele><time>2013-09-25T11:24:39Z</time></trkpt>
 <trkpt lat="47.759332800" lon="12.569439500"><ele>1301</ele><time>2013-09-25T11:24:43Z</time></trkpt>
 <trkpt lat="47.759352800" lon="12.569405800"><ele>1303</ele><time>2013-09-25T11:24:47Z</time></trkpt>
 <trkpt lat="47.759319100" lon="12.569321200"><ele>1305</ele><time>2013-09-25T11:24:51Z</time></trkpt>
 <trkpt lat="47.759291600" lon="12.569265400"><ele>1307</ele><time>2013-09-25T11:24:55Z</time></trkpt>
 <trkpt lat="47.759273700" lon="12.569249500"><ele>1308</ele><time>2013-09-25T11:24:59Z</time></trkpt>
 <trkpt lat="47.759260300" lon="12.569232900"><ele>1310</ele><time>2013-09-25T11:25:03Z</time></trkpt>
 <trkpt lat="47.759253300" lon="12.569219500"><ele>1312</ele><time>2013-09-25T11:25:07Z</time></trkpt>
 <trkpt lat="47.759257900" lon="12.569200700"><ele>1313</ele><time>2013-09-25T11:25:11Z</time></trkpt>
 <trkpt lat="47.759252000" lon="12.569172000"><ele>1314</ele><time>2013-09-25T11:25:15Z</time></trkpt>
 <trkpt lat="47.759244500" lon="12.569160300"><ele>1316</ele><time>2013-09-25T11:25:19Z</time></trkpt>
 <trkpt lat="47.759237400" lon="12.569156600"><ele>1317</ele><time>2013-09-25T11:25:23Z</time></trkpt>
 <trkpt lat="47.759225800" lon="12.569151200"><ele>1318</ele><time>2013-09-25T11:25:27Z</time></trkpt>
 <trkpt lat="47.759205300" lon="12.569110800"><ele>1319</ele><time>2013-09-25T11:25:31Z</time></trkpt>
 <trkpt lat="47.759182400" lon="12.569082000"><ele>1320</ele><time>2013-09-25T11:25:35Z</time></trkpt>
 <trkpt lat="47.759178700" lon="12.569051200"><ele>1321</ele><time>2013-09-25T11:25:39Z</time></trkpt>
 <trkpt lat="47.759188700" lon="12.569033300"><ele>1321</ele><time>2013-09-25T11:25:43Z</time></trkpt>
 <trkpt lat="47.759202900" lon="12.569028700"><ele>1322</ele><time>2013-09-25T11:25:47Z</time></trkpt>
 <trkpt lat="47.759207000" lon="12.569034900"><ele>1322</ele><time>2013-09-25T11:25:51Z</time></trkpt>
 <trkpt lat="47.759207000" lon="12.569034900"><ele>1323</ele><time>2013-09-25T11:25:55Z</time></trkpt>
 <trkpt lat="47.759209100" lon="12.569042900"><ele>1324</ele><time>2013-09-25T11:25:59Z</time></trkpt>
 <trkpt lat="47.759215300" lon="12.569045300"><ele>1325</ele><time>2013-09-25T11:26:03Z</time></trkpt>
 <trkpt lat="47.759209900" lon="12.568995800"><ele>1325</ele><time>2013-09-25T11:26:07Z</time></trkpt>
 <trkpt lat="47.759200300" lon="12.568975400"><ele>1326</ele><time>2013-09-25T11:26:11Z</time></trkpt>
 <trkpt lat="47.759187900" lon="12.568933700"><ele>1327</ele><time>2013-09-25T11:26:15Z</time></trkpt>
 <trkpt lat="47.759203700" lon="12.568868700"><ele>1328</ele><time>2013-09-25T11:26:19Z</time></trkpt>
 <trkpt lat="47.759186600" lon="12.568844100"><ele>1329</ele><time>2013-09-25T11:26:23Z</time></trkpt>
 <trkpt lat="47.759156200" lon="12.568824900"><ele>1330</ele><time>2013-09-25T11:26:27Z</time></trkpt>
 <trkpt lat="47.759130300" lon="12.568807800"><ele>1331</ele><time>2013-09-25T11:26:31Z</time></trkpt>
 <trkpt lat="47.759117000" lon="12.568766600"><ele>1332</ele><time>2013-09-25T11:26:35Z</time></trkpt>
 <trkpt lat="47.759112400" lon="12.568727900"><ele>1333</ele><time>2013-09-25T11:26:39Z</time></trkpt>
 <trkpt lat="47.759108700" lon="12.568693300"><ele>1334</ele><time>2013-09-25T11:26:43Z</time></trkpt>
 <trkpt lat="47.759114100" lon="12.568649500"><ele>1335</ele><time>2013-09-25T11:26:47Z</time></trkpt>
 <trkpt lat="47.759125800" lon="12.568608200"><ele>1336</ele><time>2013-09-25T11:26:51Z</time></trkpt>
 <trkpt lat="47.759140700" lon="12.568572400"><ele>1337</ele><time>2013-09-25T11:26:55Z</time></trkpt>
 <trkpt lat="47.759152800" lon="12.568531200"><ele>1338</ele><time>2013-09-25T11:26:59Z</time></trkpt>
 <trkpt lat="47.759152000" lon="12.568489100"><ele>1339</ele><time>2013-09-25T11:27:03Z</time></trkpt>
 <trkpt lat="47.759141600" lon="12.568454100"><ele>1340</ele><time>2013-09-25T11:27:07Z</time></trkpt>
 <trkpt lat="47.759137800" lon="12.568442900"><ele>1340</ele><time>2013-09-25T11:27:11Z</time></trkpt>
 <trkpt lat="47.759127900" lon="12.568428700"><ele>1341</ele><time>2013-09-25T11:27:15Z</time></trkpt>
 <trkpt lat="47.759098300" lon="12.568425400"><ele>1342</ele><time>2013-09-25T11:27:19Z</time></trkpt>
 <trkpt lat="47.759062400" lon="12.568424500"><ele>1342</ele><time>2013-09-25T11:27:23Z</time></trkpt>
 <trkpt lat="47.759038700" lon="12.568417400"><ele>1343</ele><time>2013-09-25T11:27:27Z</time></trkpt>
 <trkpt lat="47.759021200" lon="12.568383300"><ele>1344</ele><time>2013-09-25T11:27:31Z</time></trkpt>
 <trkpt lat="47.759010400" lon="12.568344500"><ele>1345</ele><time>2013-09-25T11:27:35Z</time></trkpt>
 <trkpt lat="47.759006200" lon="12.568292900"><ele>1345</ele><time>2013-09-25T11:27:39Z</time></trkpt>
 <trkpt lat="47.758997000" lon="12.568238300"><ele>1346</ele><time>2013-09-25T11:27:43Z</time></trkpt>
 <trkpt lat="47.758983300" lon="12.568185800"><ele>1347</ele><time>2013-09-25T11:27:47Z</time></trkpt>
 <trkpt lat="47.758969500" lon="12.568137800"><ele>1348</ele><time>2013-09-25T11:27:51Z</time></trkpt>
 <trkpt lat="47.758965300" lon="12.568091200"><ele>1349</ele><time>2013-09-25T11:27:55Z</time></trkpt>
 <trkpt lat="47.758963700" lon="12.568039100"><ele>1350</ele><time>2013-09-25T11:27:59Z</time></trkpt>
 <trkpt lat="47.758959500" lon="12.567980800"><ele>1351</ele><time>2013-09-25T11:28:03Z</time></trkpt>
 <trkpt lat="47.758960300" lon="12.567927900"><ele>1352</ele><time>2013-09-25T11:28:07Z</time></trkpt>
 <trkpt lat="47.758951200" lon="12.567882000"><ele>1354</ele><time>2013-09-25T11:28:11Z</time></trkpt>
 <trkpt lat="47.758938700" lon="12.567852000"><ele>1355</ele><time>2013-09-25T11:28:15Z</time></trkpt>
 <trkpt lat="47.758937400" lon="12.567830000"><ele>1356</ele><time>2013-09-25T11:28:19Z</time></trkpt>
 <trkpt lat="47.758927400" lon="12.567799900"><ele>1357</ele><time>2013-09-25T11:28:23Z</time></trkpt>
 <trkpt lat="47.758919500" lon="12.567750800"><ele>1359</ele><time>2013-09-25T11:28:27Z</time></trkpt>
 <trkpt lat="47.758917400" lon="12.567709500"><ele>1360</ele><time>2013-09-25T11:28:31Z</time></trkpt>
 <trkpt lat="47.758909100" lon="12.567688300"><ele>1361</ele><time>2013-09-25T11:28:35Z</time></trkpt>
 <trkpt lat="47.758894900" lon="12.567672000"><ele>1362</ele><time>2013-09-25T11:28:39Z</time></trkpt>
 <trkpt lat="47.758883700" lon="12.567657000"><ele>1363</ele><time>2013-09-25T11:28:43Z</time></trkpt>
 <trkpt lat="47.758879900" lon="12.567649900"><ele>1364</ele><time>2013-09-25T11:28:47Z</time></trkpt>
 <trkpt lat="47.758886200" lon="12.567649500"><ele>1365</ele><time>2013-09-25T11:28:51Z</time></trkpt>
 <trkpt lat="47.758862900" lon="12.567628300"><ele>1366</ele><time>2013-09-25T11:28:55Z</time></trkpt>
 <trkpt lat="47.758841600" lon="12.567593700"><ele>1367</ele><time>2013-09-25T11:28:59Z</time></trkpt>
 <trkpt lat="47.758822400" lon="12.567540300"><ele>1368</ele><time>2013-09-25T11:29:03Z</time></trkpt>
 <trkpt lat="47.758817400" lon="12.567494100"><ele>1369</ele><time>2013-09-25T11:29:07Z</time></trkpt>
 <trkpt lat="47.758814100" lon="12.567442800"><ele>1370</ele><time>2013-09-25T11:29:11Z</time></trkpt>
 <trkpt lat="47.758810800" lon="12.567392800"><ele>1371</ele><time>2013-09-25T11:29:15Z</time></trkpt>
 <trkpt lat="47.758808300" lon="12.567359500"><ele>1371</ele><time>2013-09-25T11:29:19Z</time></trkpt>
 <trkpt lat="47.758796600" lon="12.567331200"><ele>1372</ele><time>2013-09-25T11:29:23Z</time></trkpt>
 <trkpt lat="47.758777800" lon="12.567304500"><ele>1373</ele><time>2013-09-25T11:29:27Z</time></trkpt>
 <trkpt lat="47.758772900" lon="12.567278300"><ele>1373</ele><time>2013-09-25T11:29:31Z</time></trkpt>
 <trkpt lat="47.758769100" lon="12.567252900"><ele>1374</ele><time>2013-09-25T11:29:35Z</time></trkpt>
 <trkpt lat="47.758757000" lon="12.567213700"><ele>1375</ele><time>2013-09-25T11:29:39Z</time></trkpt>
 <trkpt lat="47.758747000" lon="12.567184500"><ele>1376</ele><time>2013-09-25T11:29:43Z</time></trkpt>
 <trkpt lat="47.758739100" lon="12.567167000"><ele>1376</ele><time>2013-09-25T11:29:47Z</time></trkpt>
 <trkpt lat="47.758733200" lon="12.567162800"><ele>1377</ele><time>2013-09-25T11:29:51Z</time></trkpt>
 <trkpt lat="47.758737000" lon="12.567156600"><ele>1377</ele><time>2013-09-25T11:29:55Z</time></trkpt>
 <trkpt lat="47.758741200" lon="12.567148200"><ele>1378</ele><time>2013-09-25T11:29:59Z</time></trkpt>
 <trkpt lat="47.758746600" lon="12.567145700"><ele>1378</ele><time>2013-09-25T11:30:03Z</time></trkpt>
 <trkpt lat="47.758747000" lon="12.567137400"><ele>1379</ele><time>2013-09-25T11:30:07Z</time></trkpt>
 <trkpt lat="47.758747000" lon="12.567137400"><ele>1379</ele><time>2013-09-25T11:30:11Z</time></trkpt>
 <trkpt lat="47.758747000" lon="12.567137400"><ele>1379</ele><time>2013-09-25T11:30:15Z</time></trkpt>
 <trkpt lat="47.758744500" lon="12.567146600"><ele>1380</ele><time>2013-09-25T11:30:19Z</time></trkpt>
 <trkpt lat="47.758735300" lon="12.567152000"><ele>1380</ele><time>2013-09-25T11:30:23Z</time></trkpt>
 <trkpt lat="47.758717800" lon="12.567133700"><ele>1381</ele><time>2013-09-25T11:30:27Z</time></trkpt>
 <trkpt lat="47.758709100" lon="12.567107000"><ele>1381</ele><time>2013-09-25T11:30:31Z</time></trkpt>
 <trkpt lat="47.758694900" lon="12.567078700"><ele>1381</ele><time>2013-09-25T11:30:35Z</time></trkpt>
 <trkpt lat="47.758679100" lon="12.567044900"><ele>1381</ele><time>2013-09-25T11:30:39Z</time></trkpt>
 <trkpt lat="47.758670300" lon="12.567028700"><ele>1382</ele><time>2013-09-25T11:30:43Z</time></trkpt>
 <trkpt lat="47.758671200" lon="12.567002900"><ele>1382</ele><time>2013-09-25T11:30:47Z</time></trkpt>
 <trkpt lat="47.758682400" lon="12.566990800"><ele>1382</ele><time>2013-09-25T11:30:51Z</time></trkpt>
 <trkpt lat="47.758691200" lon="12.566986200"><ele>1382</ele><time>2013-09-25T11:30:55Z</time></trkpt>
 <trkpt lat="47.758694500" lon="12.566979500"><ele>1383</ele><time>2013-09-25T11:30:59Z</time></trkpt>
 <trkpt lat="47.758695800" lon="12.566970800"><ele>1383</ele><time>2013-09-25T11:31:03Z</time></trkpt>
 <trkpt lat="47.758691600" lon="12.566936600"><ele>1383</ele><time>2013-09-25T11:31:07Z</time></trkpt>
 <trkpt lat="47.758680300" lon="12.566921600"><ele>1384</ele><time>2013-09-25T11:31:11Z</time></trkpt>
 <trkpt lat="47.758674900" lon="12.566921200"><ele>1384</ele><time>2013-09-25T11:31:15Z</time></trkpt>
 <trkpt lat="47.758662400" lon="12.566918700"><ele>1385</ele><time>2013-09-25T11:31:19Z</time></trkpt>
 <trkpt lat="47.758637400" lon="12.566887400"><ele>1385</ele><time>2013-09-25T11:31:23Z</time></trkpt>
 <trkpt lat="47.758632800" lon="12.566840400"><ele>1386</ele><time>2013-09-25T11:31:27Z</time></trkpt>
 <trkpt lat="47.758633700" lon="12.566798700"><ele>1386</ele><time>2013-09-25T11:31:31Z</time></trkpt>
 <trkpt lat="47.758632400" lon="12.566754900"><ele>1386</ele><time>2013-09-25T11:31:35Z</time></trkpt>
 <trkpt lat="47.758624900" lon="12.566709100"><ele>1387</ele><time>2013-09-25T11:31:39Z</time></trkpt>
 <trkpt lat="47.758613700" lon="12.566660800"><ele>1387</ele><time>2013-09-25T11:31:43Z</time></trkpt>
 <trkpt lat="47.758615800" lon="12.566619100"><ele>1388</ele><time>2013-09-25T11:31:47Z</time></trkpt>
 <trkpt lat="47.758622000" lon="12.566570800"><ele>1388</ele><time>2013-09-25T11:31:51Z</time></trkpt>
 <trkpt lat="47.758612000" lon="12.566520300"><ele>1389</ele><time>2013-09-25T11:31:55Z</time></trkpt>
 <trkpt lat="47.758604500" lon="12.566492800"><ele>1389</ele><time>2013-09-25T11:31:59Z</time></trkpt>
 <trkpt lat="47.758604500" lon="12.566492800"><ele>1390</ele><time>2013-09-25T11:32:03Z</time></trkpt>
 <trkpt lat="47.758614500" lon="12.566504900"><ele>1390</ele><time>2013-09-25T11:32:07Z</time></trkpt>
 <trkpt lat="47.758614500" lon="12.566504900"><ele>1390</ele><time>2013-09-25T11:32:11Z</time></trkpt>
 <trkpt lat="47.758637400" lon="12.566484100"><ele>1391</ele><time>2013-09-25T11:32:15Z</time></trkpt>
 <trkpt lat="47.758636600" lon="12.566474900"><ele>1391</ele><time>2013-09-25T11:32:19Z</time></trkpt>
 <trkpt lat="47.758631200" lon="12.566470300"><ele>1391</ele><time>2013-09-25T11:32:23Z</time></trkpt>
 <trkpt lat="47.758624900" lon="12.566467800"><ele>1392</ele><time>2013-09-25T11:32:27Z</time></trkpt>
 <trkpt lat="47.758627000" lon="12.566459900"><ele>1392</ele><time>2013-09-25T11:32:31Z</time></trkpt>
 <trkpt lat="47.758631200" lon="12.566440800"><ele>1392</ele><time>2013-09-25T11:32:35Z</time></trkpt>
 <trkpt lat="47.758616600" lon="12.566364100"><ele>1392</ele><time>2013-09-25T11:32:39Z</time></trkpt>
 <trkpt lat="47.758607000" lon="12.566307000"><ele>1393</ele><time>2013-09-25T11:32:43Z</time></trkpt>
 <trkpt lat="47.758600800" lon="12.566266200"><ele>1393</ele><time>2013-09-25T11:32:47Z</time></trkpt>
 <trkpt lat="47.758604500" lon="12.566226600"><ele>1393</ele><time>2013-09-25T11:32:51Z</time></trkpt>
 <trkpt lat="47.758602400" lon="12.566199900"><ele>1394</ele><time>2013-09-25T11:32:55Z</time></trkpt>
 <trkpt lat="47.758604900" lon="12.566172800"><ele>1394</ele><time>2013-09-25T11:32:59Z</time></trkpt>
 <trkpt lat="47.758619100" lon="12.566138200"><ele>1395</ele><time>2013-09-25T11:33:03Z</time></trkpt>
 <trkpt lat="47.758622900" lon="12.566111200"><ele>1395</ele><time>2013-09-25T11:33:07Z</time></trkpt>
 <trkpt lat="47.758622900" lon="12.566111200"><ele>1395</ele><time>2013-09-25T11:33:11Z</time></trkpt>
 <trkpt lat="47.758641600" lon="12.566092900"><ele>1396</ele><time>2013-09-25T11:33:15Z</time></trkpt>
 <trkpt lat="47.758649100" lon="12.566089500"><ele>1396</ele><time>2013-09-25T11:33:19Z</time></trkpt>
 <trkpt lat="47.758655800" lon="12.566090400"><ele>1397</ele><time>2013-09-25T11:33:23Z</time></trkpt>
 <trkpt lat="47.758662000" lon="12.566087400"><ele>1397</ele><time>2013-09-25T11:33:27Z</time></trkpt>
 <trkpt lat="47.758671600" lon="12.566070400"><ele>1398</ele><time>2013-09-25T11:33:31Z</time></trkpt>
 <trkpt lat="47.758674900" lon="12.566063300"><ele>1398</ele><time>2013-09-25T11:33:35Z</time></trkpt>
 <trkpt lat="47.758674900" lon="12.566063300"><ele>1399</ele><time>2013-09-25T11:33:39Z</time></trkpt>
 <trkpt lat="47.758679900" lon="12.566059100"><ele>1399</ele><time>2013-09-25T11:33:43Z</time></trkpt>
 <trkpt lat="47.758681600" lon="12.566067900"><ele>1400</ele><time>2013-09-25T11:33:47Z</time></trkpt>
 <trkpt lat="47.758680800" lon="12.566078300"><ele>1400</ele><time>2013-09-25T11:33:51Z</time></trkpt>
 <trkpt lat="47.758687800" lon="12.566076600"><ele>1401</ele><time>2013-09-25T11:33:55Z</time></trkpt>
 <trkpt lat="47.758687000" lon="12.566056200"><ele>1401</ele><time>2013-09-25T11:33:59Z</time></trkpt>
 <trkpt lat="47.758694900" lon="12.566035800"><ele>1401</ele><time>2013-09-25T11:34:03Z</time></trkpt>
 <trkpt lat="47.758702400" lon="12.566019900"><ele>1402</ele><time>2013-09-25T11:34:07Z</time></trkpt>
 <trkpt lat="47.758716200" lon="12.565984100"><ele>1402</ele><time>2013-09-25T11:34:11Z</time></trkpt>
 <trkpt lat="47.758719900" lon="12.565975400"><ele>1403</ele><time>2013-09-25T11:34:15Z</time></trkpt>
 <trkpt lat="47.758728700" lon="12.565960800"><ele>1403</ele><time>2013-09-25T11:34:19Z</time></trkpt>
 <trkpt lat="47.758723700" lon="12.565980300"><ele>1403</ele><time>2013-09-25T11:34:23Z</time></trkpt>
 <trkpt lat="47.758715300" lon="12.566016600"><ele>1404</ele><time>2013-09-25T11:34:27Z</time></trkpt>
 <trkpt lat="47.758707400" lon="12.566038300"><ele>1404</ele><time>2013-09-25T11:34:31Z</time></trkpt>
 <trkpt lat="47.758702400" lon="12.566074500"><ele>1404</ele><time>2013-09-25T11:34:35Z</time></trkpt>
 <trkpt lat="47.758699900" lon="12.566091600"><ele>1405</ele><time>2013-09-25T11:34:39Z</time></trkpt>
 <trkpt lat="47.758695300" lon="12.566096200"><ele>1405</ele><time>2013-09-25T11:34:43Z</time></trkpt>
 <trkpt lat="47.758695300" lon="12.566096200"><ele>1405</ele><time>2013-09-25T11:34:47Z</time></trkpt>
 <trkpt lat="47.758695300" lon="12.566096200"><ele>1405</ele><time>2013-09-25T11:34:51Z</time></trkpt>
 <trkpt lat="47.758697000" lon="12.566087400"><ele>1406</ele><time>2013-09-25T11:34:55Z</time></trkpt>
 <trkpt lat="47.758693300" lon="12.566107900"><ele>1406</ele><time>2013-09-25T11:34:59Z</time></trkpt>
 <trkpt lat="47.758690400" lon="12.566127000"><ele>1406</ele><time>2013-09-25T11:35:03Z</time></trkpt>
 <trkpt lat="47.758691600" lon="12.566093700"><ele>1406</ele><time>2013-09-25T11:35:07Z</time></trkpt>
 <trkpt lat="47.758672800" lon="12.566111200"><ele>1406</ele><time>2013-09-25T11:35:11Z</time></trkpt>
 <trkpt lat="47.758647000" lon="12.566151600"><ele>1407</ele><time>2013-09-25T11:35:15Z</time></trkpt>
 <trkpt lat="47.758646200" lon="12.566127800"><ele>1407</ele><time>2013-09-25T11:35:19Z</time></trkpt>
 <trkpt lat="47.758651200" lon="12.566103300"><ele>1407</ele><time>2013-09-25T11:35:23Z</time></trkpt>
 <trkpt lat="47.758671200" lon="12.566077400"><ele>1407</ele><time>2013-09-25T11:35:27Z</time></trkpt>
 <trkpt lat="47.758679100" lon="12.566031200"><ele>1407</ele><time>2013-09-25T11:35:31Z</time></trkpt>
 <trkpt lat="47.758679500" lon="12.565999900"><ele>1407</ele><time>2013-09-25T11:35:35Z</time></trkpt>
 <trkpt lat="47.758678300" lon="12.565970800"><ele>1407</ele><time>2013-09-25T11:35:39Z</time></trkpt>
 <trkpt lat="47.758673700" lon="12.565947400"><ele>1407</ele><time>2013-09-25T11:35:43Z</time></trkpt>
 <trkpt lat="47.758667800" lon="12.565928700"><ele>1407</ele><time>2013-09-25T11:35:47Z</time></trkpt>
 <trkpt lat="47.758668300" lon="12.565902400"><ele>1407</ele><time>2013-09-25T11:35:51Z</time></trkpt>
 <trkpt lat="47.758674900" lon="12.565870400"><ele>1407</ele><time>2013-09-25T11:35:55Z</time></trkpt>
 <trkpt lat="47.758697000" lon="12.565840800"><ele>1407</ele><time>2013-09-25T11:35:59Z</time></trkpt>
 <trkpt lat="47.758710800" lon="12.565815800"><ele>1408</ele><time>2013-09-25T11:36:03Z</time></trkpt>
 <trkpt lat="47.758722400" lon="12.565797000"><ele>1408</ele><time>2013-09-25T11:36:07Z</time></trkpt>
 <trkpt lat="47.758747000" lon="12.565775300"><ele>1408</ele><time>2013-09-25T11:36:11Z</time></trkpt>
 <trkpt lat="47.758770300" lon="12.565739900"><ele>1408</ele><time>2013-09-25T11:36:15Z</time></trkpt>
 <trkpt lat="47.758782400" lon="12.565685400"><ele>1408</ele><time>2013-09-25T11:36:19Z</time></trkpt>
 <trkpt lat="47.758798700" lon="12.565651600"><ele>1408</ele><time>2013-09-25T11:36:23Z</time></trkpt>
 <trkpt lat="47.758815300" lon="12.565624500"><ele>1409</ele><time>2013-09-25T11:36:27Z</time></trkpt>
 <trkpt lat="47.758844100" lon="12.565602000"><ele>1409</ele><time>2013-09-25T11:36:31Z</time></trkpt>
 <trkpt lat="47.758862800" lon="12.565575800"><ele>1409</ele><time>2013-09-25T11:36:35Z</time></trkpt>
 <trkpt lat="47.758875300" lon="12.565539900"><ele>1410</ele><time>2013-09-25T11:36:39Z</time></trkpt>
 <trkpt lat="47.758878300" lon="12.565520800"><ele>1410</ele><time>2013-09-25T11:36:43Z</time></trkpt>
 <trkpt lat="47.758869500" lon="12.565504500"><ele>1410</ele><time>2013-09-25T11:36:47Z</time></trkpt>
 <trkpt lat="47.758860800" lon="12.565479100"><ele>1410</ele><time>2013-09-25T11:36:51Z</time></trkpt>
 <trkpt lat="47.758855800" lon="12.565457400"><ele>1411</ele><time>2013-09-25T11:36:55Z</time></trkpt>
 <trkpt lat="47.758854100" lon="12.565432000"><ele>1411</ele><time>2013-09-25T11:36:59Z</time></trkpt>
 <trkpt lat="47.758861600" lon="12.565406200"><ele>1411</ele><time>2013-09-25T11:37:03Z</time></trkpt>
 <trkpt lat="47.758852000" lon="12.565381600"><ele>1412</ele><time>2013-09-25T11:37:07Z</time></trkpt>
 <trkpt lat="47.758851200" lon="12.565348200"><ele>1412</ele><time>2013-09-25T11:37:11Z</time></trkpt>
 <trkpt lat="47.758867800" lon="12.565313300"><ele>1412</ele><time>2013-09-25T11:37:15Z</time></trkpt>
 <trkpt lat="47.758871200" lon="12.565290800"><ele>1412</ele><time>2013-09-25T11:37:19Z</time></trkpt>
 <trkpt lat="47.758870300" lon="12.565246600"><ele>1413</ele><time>2013-09-25T11:37:23Z</time></trkpt>
 <trkpt lat="47.758864500" lon="12.565200400"><ele>1413</ele><time>2013-09-25T11:37:27Z</time></trkpt>
 <trkpt lat="47.758860400" lon="12.565176600"><ele>1413</ele><time>2013-09-25T11:37:31Z</time></trkpt>
 <trkpt lat="47.758861600" lon="12.565154500"><ele>1413</ele><time>2013-09-25T11:37:35Z</time></trkpt>
 <trkpt lat="47.758867000" lon="12.565129900"><ele>1413</ele><time>2013-09-25T11:37:39Z</time></trkpt>
 <trkpt lat="47.758862000" lon="12.565085800"><ele>1414</ele><time>2013-09-25T11:37:43Z</time></trkpt>
 <trkpt lat="47.758849900" lon="12.565057400"><ele>1414</ele><time>2013-09-25T11:37:47Z</time></trkpt>
 <trkpt lat="47.758836600" lon="12.565027800"><ele>1414</ele><time>2013-09-25T11:37:51Z</time></trkpt>
 <trkpt lat="47.758836200" lon="12.564992400"><ele>1414</ele><time>2013-09-25T11:37:55Z</time></trkpt>
 <trkpt lat="47.758829500" lon="12.564967900"><ele>1415</ele><time>2013-09-25T11:37:59Z</time></trkpt>
 <trkpt lat="47.758829500" lon="12.564943700"><ele>1415</ele><time>2013-09-25T11:38:03Z</time></trkpt>
 <trkpt lat="47.758826600" lon="12.564936200"><ele>1415</ele><time>2013-09-25T11:38:07Z</time></trkpt>
 <trkpt lat="47.758802800" lon="12.564917900"><ele>1415</ele><time>2013-09-25T11:38:11Z</time></trkpt>
 <trkpt lat="47.758783700" lon="12.564920400"><ele>1415</ele><time>2013-09-25T11:38:15Z</time></trkpt>
 <trkpt lat="47.758772000" lon="12.564930300"><ele>1415</ele><time>2013-09-25T11:38:19Z</time></trkpt>
 <trkpt lat="47.758766600" lon="12.564932400"><ele>1415</ele><time>2013-09-25T11:38:23Z</time></trkpt>
 <trkpt lat="47.758762000" lon="12.564926200"><ele>1415</ele><time>2013-09-25T11:38:27Z</time></trkpt>
 <trkpt lat="47.758757000" lon="12.564909900"><ele>1415</ele><time>2013-09-25T11:38:31Z</time></trkpt>
 <trkpt lat="47.758757000" lon="12.564909900"><ele>1416</ele><time>2013-09-25T11:38:35Z</time></trkpt>
 <trkpt lat="47.758752900" lon="12.564894900"><ele>1416</ele><time>2013-09-25T11:38:39Z</time></trkpt>
 <trkpt lat="47.758740800" lon="12.564889100"><ele>1416</ele><time>2013-09-25T11:38:43Z</time></trkpt>
 <trkpt lat="47.758724500" lon="12.564844900"><ele>1416</ele><time>2013-09-25T11:38:47Z</time></trkpt>
 <trkpt lat="47.758706600" lon="12.564762800"><ele>1416</ele><time>2013-09-25T11:38:51Z</time></trkpt>
 <trkpt lat="47.758697000" lon="12.564707800"><ele>1416</ele><time>2013-09-25T11:38:55Z</time></trkpt>
 <trkpt lat="47.758679500" lon="12.564665700"><ele>1416</ele><time>2013-09-25T11:38:59Z</time></trkpt>
 <trkpt lat="47.758661200" lon="12.564623300"><ele>1417</ele><time>2013-09-25T11:39:03Z</time></trkpt>
 <trkpt lat="47.758647000" lon="12.564567400"><ele>1417</ele><time>2013-09-25T11:39:07Z</time></trkpt>
 <trkpt lat="47.758632800" lon="12.564538300"><ele>1417</ele><time>2013-09-25T11:39:11Z</time></trkpt>
 <trkpt lat="47.758623300" lon="12.564492800"><ele>1417</ele><time>2013-09-25T11:39:15Z</time></trkpt>
 <trkpt lat="47.758613700" lon="12.564460300"><ele>1418</ele><time>2013-09-25T11:39:19Z</time></trkpt>
 <trkpt lat="47.758615800" lon="12.564424100"><ele>1418</ele><time>2013-09-25T11:39:23Z</time></trkpt>
 <trkpt lat="47.758615300" lon="12.564387800"><ele>1418</ele><time>2013-09-25T11:39:27Z</time></trkpt>
 <trkpt lat="47.758608300" lon="12.564351200"><ele>1419</ele><time>2013-09-25T11:39:31Z</time></trkpt>
 <trkpt lat="47.758595800" lon="12.564317800"><ele>1419</ele><time>2013-09-25T11:39:35Z</time></trkpt>
 <trkpt lat="47.758585300" lon="12.564275800"><ele>1419</ele><time>2013-09-25T11:39:39Z</time></trkpt>
 <trkpt lat="47.758583700" lon="12.564234500"><ele>1420</ele><time>2013-09-25T11:39:43Z</time></trkpt>
 <trkpt lat="47.758577900" lon="12.564199100"><ele>1420</ele><time>2013-09-25T11:39:47Z</time></trkpt>
 <trkpt lat="47.758574500" lon="12.564172000"><ele>1420</ele><time>2013-09-25T11:39:51Z</time></trkpt>
 <trkpt lat="47.758576600" lon="12.564140800"><ele>1420</ele><time>2013-09-25T11:39:55Z</time></trkpt>
 <trkpt lat="47.758575400" lon="12.564122000"><ele>1421</ele><time>2013-09-25T11:39:59Z</time></trkpt>
 <trkpt lat="47.758568700" lon="12.564095400"><ele>1421</ele><time>2013-09-25T11:40:03Z</time></trkpt>
 <trkpt lat="47.758560300" lon="12.564069900"><ele>1421</ele><time>2013-09-25T11:40:07Z</time></trkpt>
 <trkpt lat="47.758561200" lon="12.564029900"><ele>1421</ele><time>2013-09-25T11:40:11Z</time></trkpt>
 <trkpt lat="47.758553300" lon="12.564018700"><ele>1422</ele><time>2013-09-25T11:40:15Z</time></trkpt>
 <trkpt lat="47.758541200" lon="12.564017000"><ele>1422</ele><time>2013-09-25T11:40:19Z</time></trkpt>
 <trkpt lat="47.758535400" lon="12.564020000"><ele>1422</ele><time>2013-09-25T11:40:23Z</time></trkpt>
 <trkpt lat="47.758535400" lon="12.564020000"><ele>1422</ele><time>2013-09-25T11:40:27Z</time></trkpt>
 <trkpt lat="47.758540300" lon="12.564025800"><ele>1422</ele><time>2013-09-25T11:40:31Z</time></trkpt>
 <trkpt lat="47.758542800" lon="12.563988300"><ele>1423</ele><time>2013-09-25T11:40:35Z</time></trkpt>
 <trkpt lat="47.758536200" lon="12.563947800"><ele>1423</ele><time>2013-09-25T11:40:39Z</time></trkpt>
 <trkpt lat="47.758531600" lon="12.563921200"><ele>1423</ele><time>2013-09-25T11:40:43Z</time></trkpt>
 <trkpt lat="47.758528200" lon="12.563884500"><ele>1423</ele><time>2013-09-25T11:40:47Z</time></trkpt>
 <trkpt lat="47.758542000" lon="12.563848700"><ele>1424</ele><time>2013-09-25T11:40:51Z</time></trkpt>
 <trkpt lat="47.758592800" lon="12.563817400"><ele>1424</ele><time>2013-09-25T11:40:55Z</time></trkpt>
 <trkpt lat="47.758642000" lon="12.563794900"><ele>1424</ele><time>2013-09-25T11:40:59Z</time></trkpt>
 <trkpt lat="47.758656200" lon="12.563774900"><ele>1424</ele><time>2013-09-25T11:41:03Z</time></trkpt>
 <trkpt lat="47.758657400" lon="12.563766600"><ele>1425</ele><time>2013-09-25T11:41:07Z</time></trkpt>
 <trkpt lat="47.758657400" lon="12.563766600"><ele>1425</ele><time>2013-09-25T11:41:11Z</time></trkpt>
 <trkpt lat="47.758655800" lon="12.563758300"><ele>1426</ele><time>2013-09-25T11:41:15Z</time></trkpt>
 <trkpt lat="47.758652800" lon="12.563739100"><ele>1426</ele><time>2013-09-25T11:41:19Z</time></trkpt>
 <trkpt lat="47.758673700" lon="12.563698300"><ele>1427</ele><time>2013-09-25T11:41:23Z</time></trkpt>
 <trkpt lat="47.758686200" lon="12.563683700"><ele>1427</ele><time>2013-09-25T11:41:27Z</time></trkpt>
 <trkpt lat="47.758693300" lon="12.563667000"><ele>1428</ele><time>2013-09-25T11:41:31Z</time></trkpt>
 <trkpt lat="47.758714900" lon="12.563632000"><ele>1429</ele><time>2013-09-25T11:41:35Z</time></trkpt>
 <trkpt lat="47.758757000" lon="12.563619500"><ele>1429</ele><time>2013-09-25T11:41:39Z</time></trkpt>
 <trkpt lat="47.758787900" lon="12.563633300"><ele>1430</ele><time>2013-09-25T11:41:43Z</time></trkpt>
 <trkpt lat="47.758806600" lon="12.563669900"><ele>1430</ele><time>2013-09-25T11:41:47Z</time></trkpt>
 <trkpt lat="47.758821200" lon="12.563668700"><ele>1431</ele><time>2013-09-25T11:41:51Z</time></trkpt>
 <trkpt lat="47.758841600" lon="12.563646600"><ele>1431</ele><time>2013-09-25T11:41:55Z</time></trkpt>
 <trkpt lat="47.758857400" lon="12.563642800"><ele>1432</ele><time>2013-09-25T11:41:59Z</time></trkpt>
 <trkpt lat="47.758860400" lon="12.563619900"><ele>1433</ele><time>2013-09-25T11:42:03Z</time></trkpt>
 <trkpt lat="47.758851200" lon="12.563595400"><ele>1433</ele><time>2013-09-25T11:42:07Z</time></trkpt>
 <trkpt lat="47.758844900" lon="12.563579900"><ele>1434</ele><time>2013-09-25T11:42:11Z</time></trkpt>
 <trkpt lat="47.758869900" lon="12.563547000"><ele>1434</ele><time>2013-09-25T11:42:15Z</time></trkpt>
 <trkpt lat="47.758914900" lon="12.563514500"><ele>1435</ele><time>2013-09-25T11:42:19Z</time></trkpt>
 <trkpt lat="47.758919900" lon="12.563486600"><ele>1435</ele><time>2013-09-25T11:42:23Z</time></trkpt>
 <trkpt lat="47.758922400" lon="12.563462400"><ele>1436</ele><time>2013-09-25T11:42:27Z</time></trkpt>
 <trkpt lat="47.758927000" lon="12.563424100"><ele>1436</ele><time>2013-09-25T11:42:31Z</time></trkpt>
 <trkpt lat="47.758960400" lon="12.563398300"><ele>1437</ele><time>2013-09-25T11:42:35Z</time></trkpt>
 <trkpt lat="47.758971600" lon="12.563367400"><ele>1437</ele><time>2013-09-25T11:42:39Z</time></trkpt>
 <trkpt lat="47.758987400" lon="12.563340800"><ele>1438</ele><time>2013-09-25T11:42:43Z</time></trkpt>
 <trkpt lat="47.759027400" lon="12.563315300"><ele>1438</ele><time>2013-09-25T11:42:47Z</time></trkpt>
 <trkpt lat="47.759066200" lon="12.563300000"><ele>1439</ele><time>2013-09-25T11:42:51Z</time></trkpt>
 <trkpt lat="47.759097400" lon="12.563292400"><ele>1440</ele><time>2013-09-25T11:42:55Z</time></trkpt>
 <trkpt lat="47.759126200" lon="12.563279100"><ele>1440</ele><time>2013-09-25T11:42:59Z</time></trkpt>
 <trkpt lat="47.759163700" lon="12.563247400"><ele>1441</ele><time>2013-09-25T11:43:03Z</time></trkpt>
 <trkpt lat="47.759184100" lon="12.563219100"><ele>1441</ele><time>2013-09-25T11:43:07Z</time></trkpt>
 <trkpt lat="47.759202800" lon="12.563194100"><ele>1442</ele><time>2013-09-25T11:43:11Z</time></trkpt>
 <trkpt lat="47.759214900" lon="12.563177000"><ele>1443</ele><time>2013-09-25T11:43:15Z</time></trkpt>
 <trkpt lat="47.759230300" lon="12.563159500"><ele>1443</ele><time>2013-09-25T11:43:19Z</time></trkpt>
 <trkpt lat="47.759275800" lon="12.563129100"><ele>1444</ele><time>2013-09-25T11:43:23Z</time></trkpt>
 <trkpt lat="47.759325400" lon="12.563062400"><ele>1445</ele><time>2013-09-25T11:43:27Z</time></trkpt>
 <trkpt lat="47.759352400" lon="12.563004100"><ele>1445</ele><time>2013-09-25T11:43:31Z</time></trkpt>
 <trkpt lat="47.759380800" lon="12.562976600"><ele>1446</ele><time>2013-09-25T11:43:35Z</time></trkpt>
 <trkpt lat="47.759397400" lon="12.562977000"><ele>1447</ele><time>2013-09-25T11:43:39Z</time></trkpt>
 <trkpt lat="47.759417000" lon="12.562969900"><ele>1447</ele><time>2013-09-25T11:43:43Z</time></trkpt>
 <trkpt lat="47.759438300" lon="12.562958700"><ele>1448</ele><time>2013-09-25T11:43:47Z</time></trkpt>
 <trkpt lat="47.759451600" lon="12.562943700"><ele>1449</ele><time>2013-09-25T11:43:51Z</time></trkpt>
 <trkpt lat="47.759467900" lon="12.562917000"><ele>1449</ele><time>2013-09-25T11:43:55Z</time></trkpt>
 <trkpt lat="47.759473300" lon="12.562908700"><ele>1450</ele><time>2013-09-25T11:43:59Z</time></trkpt>
 <trkpt lat="47.759479100" lon="12.562909900"><ele>1450</ele><time>2013-09-25T11:44:03Z</time></trkpt>
 <trkpt lat="47.759484500" lon="12.562901200"><ele>1451</ele><time>2013-09-25T11:44:07Z</time></trkpt>
 <trkpt lat="47.759502000" lon="12.562881200"><ele>1451</ele><time>2013-09-25T11:44:11Z</time></trkpt>
 <trkpt lat="47.759505800" lon="12.562874100"><ele>1452</ele><time>2013-09-25T11:44:15Z</time></trkpt>
 <trkpt lat="47.759500300" lon="12.562876600"><ele>1452</ele><time>2013-09-25T11:44:19Z</time></trkpt>
 <trkpt lat="47.759491200" lon="12.562892000"><ele>1453</ele><time>2013-09-25T11:44:23Z</time></trkpt>
 <trkpt lat="47.759484100" lon="12.562897400"><ele>1454</ele><time>2013-09-25T11:44:27Z</time></trkpt>
 <trkpt lat="47.759475800" lon="12.562909500"><ele>1454</ele><time>2013-09-25T11:44:31Z</time></trkpt>
 <trkpt lat="47.759477800" lon="12.562900400"><ele>1454</ele><time>2013-09-25T11:44:35Z</time></trkpt>
 <trkpt lat="47.759477800" lon="12.562900400"><ele>1455</ele><time>2013-09-25T11:44:39Z</time></trkpt>
 <trkpt lat="47.759471200" lon="12.562905800"><ele>1455</ele><time>2013-09-25T11:44:43Z</time></trkpt>
 <trkpt lat="47.759466200" lon="12.562909500"><ele>1456</ele><time>2013-09-25T11:44:47Z</time></trkpt>
 <trkpt lat="47.759466200" lon="12.562909500"><ele>1456</ele><time>2013-09-25T11:44:51Z</time></trkpt>
 <trkpt lat="47.759457000" lon="12.562926200"><ele>1457</ele><time>2013-09-25T11:44:55Z</time></trkpt>
 <trkpt lat="47.759457000" lon="12.562926200"><ele>1457</ele><time>2013-09-25T11:44:59Z</time></trkpt>
 <trkpt lat="47.759457400" lon="12.562947000"><ele>1457</ele><time>2013-09-25T11:45:03Z</time></trkpt>
 <trkpt lat="47.759454100" lon="12.562974100"><ele>1458</ele><time>2013-09-25T11:45:07Z</time></trkpt>
 <trkpt lat="47.759467000" lon="12.562969500"><ele>1458</ele><time>2013-09-25T11:45:11Z</time></trkpt>
 <trkpt lat="47.759514100" lon="12.562915300"><ele>1458</ele><time>2013-09-25T11:45:15Z</time></trkpt>
 <trkpt lat="47.759553200" lon="12.562880800"><ele>1459</ele><time>2013-09-25T11:45:19Z</time></trkpt>
 <trkpt lat="47.759575000" lon="12.562859100"><ele>1459</ele><time>2013-09-25T11:45:23Z</time></trkpt>
 <trkpt lat="47.759602900" lon="12.562830800"><ele>1459</ele><time>2013-09-25T11:45:27Z</time></trkpt>
 <trkpt lat="47.759621200" lon="12.562838700"><ele>1460</ele><time>2013-09-25T11:45:31Z</time></trkpt>
 <trkpt lat="47.759633300" lon="12.562860300"><ele>1460</ele><time>2013-09-25T11:45:35Z</time></trkpt>
 <trkpt lat="47.759637000" lon="12.562921200"><ele>1460</ele><time>2013-09-25T11:45:39Z</time></trkpt>
 <trkpt lat="47.759650400" lon="12.562917000"><ele>1461</ele><time>2013-09-25T11:45:43Z</time></trkpt>
 <trkpt lat="47.759660800" lon="12.562898300"><ele>1461</ele><time>2013-09-25T11:45:47Z</time></trkpt>
 <trkpt lat="47.759670300" lon="12.562872400"><ele>1461</ele><time>2013-09-25T11:45:51Z</time></trkpt>
 <trkpt lat="47.759689100" lon="12.562844500"><ele>1461</ele><time>2013-09-25T11:45:55Z</time></trkpt>
 <trkpt lat="47.759727400" lon="12.562814500"><ele>1462</ele><time>2013-09-25T11:45:59Z</time></trkpt>
 <trkpt lat="47.759764500" lon="12.562799100"><ele>1462</ele><time>2013-09-25T11:46:03Z</time></trkpt>
 <trkpt lat="47.759793700" lon="12.562773300"><ele>1462</ele><time>2013-09-25T11:46:07Z</time></trkpt>
 <trkpt lat="47.759819900" lon="12.562734500"><ele>1463</ele><time>2013-09-25T11:46:11Z</time></trkpt>
 <trkpt lat="47.759852900" lon="12.562712400"><ele>1463</ele><time>2013-09-25T11:46:15Z</time></trkpt>
 <trkpt lat="47.759863700" lon="12.562721200"><ele>1463</ele><time>2013-09-25T11:46:19Z</time></trkpt>
 <trkpt lat="47.759871200" lon="12.562761600"><ele>1463</ele><time>2013-09-25T11:46:23Z</time></trkpt>
 <trkpt lat="47.759871200" lon="12.562773700"><ele>1464</ele><time>2013-09-25T11:46:27Z</time></trkpt>
 <trkpt lat="47.759870700" lon="12.562748700"><ele>1464</ele><time>2013-09-25T11:46:31Z</time></trkpt>
 <trkpt lat="47.759873300" lon="12.562725000"><ele>1464</ele><time>2013-09-25T11:46:35Z</time></trkpt>
 <trkpt lat="47.759873300" lon="12.562725000"><ele>1464</ele><time>2013-09-25T11:46:39Z</time></trkpt>
 <trkpt lat="47.759873300" lon="12.562725000"><ele>1465</ele><time>2013-09-25T11:46:43Z</time></trkpt>
 <trkpt lat="47.759873700" lon="12.562704500"><ele>1465</ele><time>2013-09-25T11:46:47Z</time></trkpt>
 <trkpt lat="47.759906600" lon="12.562665400"><ele>1465</ele><time>2013-09-25T11:46:51Z</time></trkpt>
 <trkpt lat="47.759940700" lon="12.562624900"><ele>1465</ele><time>2013-09-25T11:46:55Z</time></trkpt>
 <trkpt lat="47.759978700" lon="12.562600400"><ele>1465</ele><time>2013-09-25T11:46:59Z</time></trkpt>
 <trkpt lat="47.759983700" lon="12.562595800"><ele>1466</ele><time>2013-09-25T11:47:03Z</time></trkpt>
 <trkpt lat="47.760013200" lon="12.562571600"><ele>1466</ele><time>2013-09-25T11:47:07Z</time></trkpt>
 <trkpt lat="47.760031600" lon="12.562554500"><ele>1466</ele><time>2013-09-25T11:47:11Z</time></trkpt>
 <trkpt lat="47.760058200" lon="12.562518300"><ele>1466</ele><time>2013-09-25T11:47:15Z</time></trkpt>
 <trkpt lat="47.760084500" lon="12.562503300"><ele>1467</ele><time>2013-09-25T11:47:19Z</time></trkpt>
 <trkpt lat="47.760114100" lon="12.562483300"><ele>1467</ele><time>2013-09-25T11:47:23Z</time></trkpt>
 <trkpt lat="47.760149900" lon="12.562470800"><ele>1467</ele><time>2013-09-25T11:47:27Z</time></trkpt>
 <trkpt lat="47.760179900" lon="12.562454500"><ele>1467</ele><time>2013-09-25T11:47:31Z</time></trkpt>
 <trkpt lat="47.760193700" lon="12.562460400"><ele>1468</ele><time>2013-09-25T11:47:35Z</time></trkpt>
 <trkpt lat="47.760206600" lon="12.562453300"><ele>1468</ele><time>2013-09-25T11:47:39Z</time></trkpt>
 <trkpt lat="47.760222800" lon="12.562444500"><ele>1468</ele><time>2013-09-25T11:47:43Z</time></trkpt>
 <trkpt lat="47.760239100" lon="12.562444100"><ele>1468</ele><time>2013-09-25T11:47:47Z</time></trkpt>
 <trkpt lat="47.760249500" lon="12.562434100"><ele>1469</ele><time>2013-09-25T11:47:51Z</time></trkpt>
 <trkpt lat="47.760251200" lon="12.562424900"><ele>1469</ele><time>2013-09-25T11:47:55Z</time></trkpt>
 <trkpt lat="47.760249500" lon="12.562416200"><ele>1469</ele><time>2013-09-25T11:47:59Z</time></trkpt>
 <trkpt lat="47.760256200" lon="12.562389100"><ele>1470</ele><time>2013-09-25T11:48:03Z</time></trkpt>
 <trkpt lat="47.760277900" lon="12.562369500"><ele>1470</ele><time>2013-09-25T11:48:07Z</time></trkpt>
 <trkpt lat="47.760301600" lon="12.562361200"><ele>1471</ele><time>2013-09-25T11:48:11Z</time></trkpt>
 <trkpt lat="47.760319100" lon="12.562382400"><ele>1471</ele><time>2013-09-25T11:48:15Z</time></trkpt>
 <trkpt lat="47.760332000" lon="12.562397400"><ele>1472</ele><time>2013-09-25T11:48:19Z</time></trkpt>
 <trkpt lat="47.760354100" lon="12.562416200"><ele>1473</ele><time>2013-09-25T11:48:23Z</time></trkpt>
 <trkpt lat="47.760371200" lon="12.562480700"><ele>1473</ele><time>2013-09-25T11:48:27Z</time></trkpt>
 <trkpt lat="47.760371600" lon="12.562567800"><ele>1474</ele><time>2013-09-25T11:48:31Z</time></trkpt>
 <trkpt lat="47.760371200" lon="12.562578200"><ele>1474</ele><time>2013-09-25T11:48:35Z</time></trkpt>
 <trkpt lat="47.760371200" lon="12.562578200"><ele>1475</ele><time>2013-09-25T11:48:39Z</time></trkpt>
 <trkpt lat="47.760370800" lon="12.562587400"><ele>1476</ele><time>2013-09-25T11:48:43Z</time></trkpt>
 <trkpt lat="47.760372000" lon="12.562596200"><ele>1476</ele><time>2013-09-25T11:48:47Z</time></trkpt>
 <trkpt lat="47.760379900" lon="12.562598300"><ele>1477</ele><time>2013-09-25T11:48:51Z</time></trkpt>
 <trkpt lat="47.760391600" lon="12.562586600"><ele>1478</ele><time>2013-09-25T11:48:55Z</time></trkpt>
 <trkpt lat="47.760404900" lon="12.562567800"><ele>1479</ele><time>2013-09-25T11:48:59Z</time></trkpt>
 <trkpt lat="47.760411600" lon="12.562567400"><ele>1479</ele><time>2013-09-25T11:49:03Z</time></trkpt>
 <trkpt lat="47.760411600" lon="12.562567400"><ele>1480</ele><time>2013-09-25T11:49:07Z</time></trkpt>
 <trkpt lat="47.760444500" lon="12.562569500"><ele>1481</ele><time>2013-09-25T11:49:11Z</time></trkpt>
 <trkpt lat="47.760473700" lon="12.562574100"><ele>1481</ele><time>2013-09-25T11:49:15Z</time></trkpt>
 <trkpt lat="47.760502400" lon="12.562590800"><ele>1482</ele><time>2013-09-25T11:49:19Z</time></trkpt>
 <trkpt lat="47.760523700" lon="12.562603700"><ele>1483</ele><time>2013-09-25T11:49:23Z</time></trkpt>
 <trkpt lat="47.760539100" lon="12.562618700"><ele>1483</ele><time>2013-09-25T11:49:27Z</time></trkpt>
 <trkpt lat="47.760545400" lon="12.562635400"><ele>1484</ele><time>2013-09-25T11:49:31Z</time></trkpt>
 <trkpt lat="47.760545400" lon="12.562635400"><ele>1485</ele><time>2013-09-25T11:49:35Z</time></trkpt>
 <trkpt lat="47.760545400" lon="12.562635400"><ele>1485</ele><time>2013-09-25T11:49:39Z</time></trkpt>
 <trkpt lat="47.760545400" lon="12.562635400"><ele>1486</ele><time>2013-09-25T11:49:43Z</time></trkpt>
 <trkpt lat="47.760545400" lon="12.562635400"><ele>1486</ele><time>2013-09-25T11:49:47Z</time></trkpt>
 <trkpt lat="47.760539500" lon="12.562636200"><ele>1487</ele><time>2013-09-25T11:49:51Z</time></trkpt>
 <trkpt lat="47.760539500" lon="12.562636200"><ele>1487</ele><time>2013-09-25T11:49:55Z</time></trkpt>
 <trkpt lat="47.760539500" lon="12.562636200"><ele>1488</ele><time>2013-09-25T11:49:59Z</time></trkpt>
 <trkpt lat="47.760548300" lon="12.562658300"><ele>1488</ele><time>2013-09-25T11:50:03Z</time></trkpt>
 <trkpt lat="47.760580000" lon="12.562681200"><ele>1489</ele><time>2013-09-25T11:50:07Z</time></trkpt>
 <trkpt lat="47.760610400" lon="12.562704900"><ele>1489</ele><time>2013-09-25T11:50:11Z</time></trkpt>
 <trkpt lat="47.760624500" lon="12.562716200"><ele>1490</ele><time>2013-09-25T11:50:15Z</time></trkpt>
 <trkpt lat="47.760637000" lon="12.562728300"><ele>1490</ele><time>2013-09-25T11:50:19Z</time></trkpt>
 <trkpt lat="47.760659500" lon="12.562721200"><ele>1491</ele><time>2013-09-25T11:50:23Z</time></trkpt>
 <trkpt lat="47.760676200" lon="12.562724500"><ele>1491</ele><time>2013-09-25T11:50:27Z</time></trkpt>
 <trkpt lat="47.760697900" lon="12.562737800"><ele>1492</ele><time>2013-09-25T11:50:31Z</time></trkpt>
 <trkpt lat="47.760717000" lon="12.562764100"><ele>1492</ele><time>2013-09-25T11:50:35Z</time></trkpt>
 <trkpt lat="47.760739500" lon="12.562781200"><ele>1493</ele><time>2013-09-25T11:50:39Z</time></trkpt>
 <trkpt lat="47.760746600" lon="12.562808300"><ele>1494</ele><time>2013-09-25T11:50:43Z</time></trkpt>
 <trkpt lat="47.760744100" lon="12.562816600"><ele>1494</ele><time>2013-09-25T11:50:47Z</time></trkpt>
 <trkpt lat="47.760768700" lon="12.562791200"><ele>1495</ele><time>2013-09-25T11:50:51Z</time></trkpt>
 <trkpt lat="47.760798200" lon="12.562779900"><ele>1496</ele><time>2013-09-25T11:50:55Z</time></trkpt>
 <trkpt lat="47.760839900" lon="12.562772500"><ele>1496</ele><time>2013-09-25T11:50:59Z</time></trkpt>
 <trkpt lat="47.760864500" lon="12.562768300"><ele>1497</ele><time>2013-09-25T11:51:03Z</time></trkpt>
 <trkpt lat="47.760877000" lon="12.562767800"><ele>1497</ele><time>2013-09-25T11:51:07Z</time></trkpt>
 <trkpt lat="47.760877000" lon="12.562767800"><ele>1498</ele><time>2013-09-25T11:51:11Z</time></trkpt>
 <trkpt lat="47.760877000" lon="12.562767800"><ele>1498</ele><time>2013-09-25T11:51:15Z</time></trkpt>
 <trkpt lat="47.760880800" lon="12.562762000"><ele>1499</ele><time>2013-09-25T11:51:19Z</time></trkpt>
 <trkpt lat="47.760880800" lon="12.562762000"><ele>1499</ele><time>2013-09-25T11:51:23Z</time></trkpt>
 <trkpt lat="47.760880800" lon="12.562762000"><ele>1500</ele><time>2013-09-25T11:51:27Z</time></trkpt>
 <trkpt lat="47.760879500" lon="12.562752400"><ele>1500</ele><time>2013-09-25T11:51:31Z</time></trkpt>
 <trkpt lat="47.760879500" lon="12.562752400"><ele>1501</ele><time>2013-09-25T11:51:35Z</time></trkpt>
 <trkpt lat="47.760879500" lon="12.562752400"><ele>1501</ele><time>2013-09-25T11:51:39Z</time></trkpt>
 <trkpt lat="47.760892800" lon="12.562764900"><ele>1501</ele><time>2013-09-25T11:51:43Z</time></trkpt>
 <trkpt lat="47.760909100" lon="12.562777400"><ele>1502</ele><time>2013-09-25T11:51:47Z</time></trkpt>
 <trkpt lat="47.760918700" lon="12.562794100"><ele>1502</ele><time>2013-09-25T11:51:51Z</time></trkpt>
 <trkpt lat="47.760932400" lon="12.562806600"><ele>1503</ele><time>2013-09-25T11:51:55Z</time></trkpt>
 <trkpt lat="47.760964900" lon="12.562837000"><ele>1503</ele><time>2013-09-25T11:51:59Z</time></trkpt>
 <trkpt lat="47.760998300" lon="12.562857400"><ele>1503</ele><time>2013-09-25T11:52:03Z</time></trkpt>
 <trkpt lat="47.761024900" lon="12.562873700"><ele>1504</ele><time>2013-09-25T11:52:07Z</time></trkpt>
 <trkpt lat="47.761043300" lon="12.562879900"><ele>1504</ele><time>2013-09-25T11:52:11Z</time></trkpt>
 <trkpt lat="47.761067800" lon="12.562889900"><ele>1505</ele><time>2013-09-25T11:52:15Z</time></trkpt>
 <trkpt lat="47.761088700" lon="12.562892000"><ele>1506</ele><time>2013-09-25T11:52:19Z</time></trkpt>
 <trkpt lat="47.761106600" lon="12.562907400"><ele>1506</ele><time>2013-09-25T11:52:23Z</time></trkpt>
 <trkpt lat="47.761128700" lon="12.562924500"><ele>1507</ele><time>2013-09-25T11:52:27Z</time></trkpt>
 <trkpt lat="47.761154100" lon="12.562933700"><ele>1508</ele><time>2013-09-25T11:52:31Z</time></trkpt>
 <trkpt lat="47.761183300" lon="12.562935800"><ele>1508</ele><time>2013-09-25T11:52:35Z</time></trkpt>
 <trkpt lat="47.761205300" lon="12.562936200"><ele>1509</ele><time>2013-09-25T11:52:39Z</time></trkpt>
 <trkpt lat="47.761214900" lon="12.562939100"><ele>1510</ele><time>2013-09-25T11:52:43Z</time></trkpt>
 <trkpt lat="47.761231200" lon="12.562929500"><ele>1510</ele><time>2013-09-25T11:52:47Z</time></trkpt>
 <trkpt lat="47.761237400" lon="12.562925800"><ele>1511</ele><time>2013-09-25T11:52:51Z</time></trkpt>
 <trkpt lat="47.761240000" lon="12.562908700"><ele>1511</ele><time>2013-09-25T11:52:55Z</time></trkpt>
 <trkpt lat="47.761240000" lon="12.562908700"><ele>1512</ele><time>2013-09-25T11:52:59Z</time></trkpt>
 <trkpt lat="47.761240000" lon="12.562908700"><ele>1512</ele><time>2013-09-25T11:53:03Z</time></trkpt>
 <trkpt lat="47.761240000" lon="12.562908700"><ele>1512</ele><time>2013-09-25T11:53:07Z</time></trkpt>
 <trkpt lat="47.761240800" lon="12.562900400"><ele>1513</ele><time>2013-09-25T11:53:11Z</time></trkpt>
 <trkpt lat="47.761240800" lon="12.562900400"><ele>1513</ele><time>2013-09-25T11:53:15Z</time></trkpt>
 <trkpt lat="47.761244500" lon="12.562894100"><ele>1513</ele><time>2013-09-25T11:53:19Z</time></trkpt>
 <trkpt lat="47.761249100" lon="12.562889100"><ele>1513</ele><time>2013-09-25T11:53:23Z</time></trkpt>
 <trkpt lat="47.761261600" lon="12.562884100"><ele>1514</ele><time>2013-09-25T11:53:27Z</time></trkpt>
 <trkpt lat="47.761265400" lon="12.562891200"><ele>1514</ele><time>2013-09-25T11:53:31Z</time></trkpt>
 <trkpt lat="47.761264100" lon="12.562899100"><ele>1514</ele><time>2013-09-25T11:53:35Z</time></trkpt>
 <trkpt lat="47.761264100" lon="12.562899100"><ele>1514</ele><time>2013-09-25T11:53:39Z</time></trkpt>
 <trkpt lat="47.761268700" lon="12.562894500"><ele>1514</ele><time>2013-09-25T11:53:43Z</time></trkpt>
 <trkpt lat="47.761268700" lon="12.562894500"><ele>1514</ele><time>2013-09-25T11:53:47Z</time></trkpt>
 <trkpt lat="47.761268700" lon="12.562894500"><ele>1514</ele><time>2013-09-25T11:53:51Z</time></trkpt>
 <trkpt lat="47.761268700" lon="12.562894500"><ele>1514</ele><time>2013-09-25T11:53:55Z</time></trkpt>
 <trkpt lat="47.761268700" lon="12.562894500"><ele>1514</ele><time>2013-09-25T11:53:59Z</time></trkpt>
 <trkpt lat="47.761268700" lon="12.562894500"><ele>1514</ele><time>2013-09-25T11:54:03Z</time></trkpt>
 <trkpt lat="47.761268700" lon="12.562894500"><ele>1514</ele><time>2013-09-25T11:54:07Z</time></trkpt>
 <trkpt lat="47.761268700" lon="12.562894500"><ele>1514</ele><time>2013-09-25T11:54:11Z</time></trkpt>
 <trkpt lat="47.761268700" lon="12.562894500"><ele>1515</ele><time>2013-09-25T11:54:15Z</time></trkpt>
 <trkpt lat="47.761268700" lon="12.562894500"><ele>1515</ele><time>2013-09-25T11:54:19Z</time></trkpt>
 <trkpt lat="47.761268700" lon="12.562894500"><ele>1515</ele><time>2013-09-25T11:54:23Z</time></trkpt>
 <trkpt lat="47.761268700" lon="12.562894500"><ele>1515</ele><time>2013-09-25T11:54:27Z</time></trkpt>
 <trkpt lat="47.761268700" lon="12.562894500"><ele>1515</ele><time>2013-09-25T11:54:31Z</time></trkpt>
 <trkpt lat="47.761268700" lon="12.562894500"><ele>1515</ele><time>2013-09-25T11:54:35Z</time></trkpt>
 <trkpt lat="47.761268700" lon="12.562894500"><ele>1515</ele><time>2013-09-25T11:54:39Z</time></trkpt>
 <trkpt lat="47.761268700" lon="12.562894500"><ele>1515</ele><time>2013-09-25T11:54:43Z</time></trkpt>
 <trkpt lat="47.761268700" lon="12.562894500"><ele>1515</ele><time>2013-09-25T11:54:47Z</time></trkpt>
 <trkpt lat="47.761274900" lon="12.562892400"><ele>1515</ele><time>2013-09-25T11:54:51Z</time></trkpt>
 <trkpt lat="47.761280300" lon="12.562887000"><ele>1515</ele><time>2013-09-25T11:54:55Z</time></trkpt>
 <trkpt lat="47.761296200" lon="12.562898300"><ele>1515</ele><time>2013-09-25T11:54:59Z</time></trkpt>
 <trkpt lat="47.761310300" lon="12.562912900"><ele>1515</ele><time>2013-09-25T11:55:03Z</time></trkpt>
 <trkpt lat="47.761334100" lon="12.562932400"><ele>1515</ele><time>2013-09-25T11:55:07Z</time></trkpt>
 <trkpt lat="47.761366600" lon="12.562951200"><ele>1516</ele><time>2013-09-25T11:55:11Z</time></trkpt>
 <trkpt lat="47.761395300" lon="12.562965300"><ele>1516</ele><time>2013-09-25T11:55:15Z</time></trkpt>
 <trkpt lat="47.761409900" lon="12.562964900"><ele>1516</ele><time>2013-09-25T11:55:19Z</time></trkpt>
 <trkpt lat="47.761415300" lon="12.562962400"><ele>1516</ele><time>2013-09-25T11:55:23Z</time></trkpt>
 <trkpt lat="47.761415300" lon="12.562962400"><ele>1517</ele><time>2013-09-25T11:55:27Z</time></trkpt>
 <trkpt lat="47.761417000" lon="12.562973700"><ele>1517</ele><time>2013-09-25T11:55:31Z</time></trkpt>
 <trkpt lat="47.761431200" lon="12.563009100"><ele>1518</ele><time>2013-09-25T11:55:35Z</time></trkpt>
 <trkpt lat="47.761452400" lon="12.563033700"><ele>1518</ele><time>2013-09-25T11:55:39Z</time></trkpt>
 <trkpt lat="47.761473700" lon="12.563063300"><ele>1518</ele><time>2013-09-25T11:55:43Z</time></trkpt>
 <trkpt lat="47.761494900" lon="12.563059100"><ele>1519</ele><time>2013-09-25T11:55:47Z</time></trkpt>
 <trkpt lat="47.761512800" lon="12.563053700"><ele>1520</ele><time>2013-09-25T11:55:51Z</time></trkpt>
 <trkpt lat="47.761530800" lon="12.563049100"><ele>1520</ele><time>2013-09-25T11:55:55Z</time></trkpt>
 <trkpt lat="47.761549100" lon="12.563047000"><ele>1521</ele><time>2013-09-25T11:55:59Z</time></trkpt>
 <trkpt lat="47.761547000" lon="12.563029100"><ele>1521</ele><time>2013-09-25T11:56:03Z</time></trkpt>
 <trkpt lat="47.761554500" lon="12.563012800"><ele>1522</ele><time>2013-09-25T11:56:07Z</time></trkpt>
 <trkpt lat="47.761573700" lon="12.563022800"><ele>1523</ele><time>2013-09-25T11:56:11Z</time></trkpt>
 <trkpt lat="47.761587800" lon="12.563017400"><ele>1524</ele><time>2013-09-25T11:56:15Z</time></trkpt>
 <trkpt lat="47.761604900" lon="12.563019500"><ele>1524</ele><time>2013-09-25T11:56:19Z</time></trkpt>
 <trkpt lat="47.761619900" lon="12.563025700"><ele>1525</ele><time>2013-09-25T11:56:23Z</time></trkpt>
 <trkpt lat="47.761636600" lon="12.563026600"><ele>1526</ele><time>2013-09-25T11:56:27Z</time></trkpt>
 <trkpt lat="47.761659100" lon="12.563022800"><ele>1527</ele><time>2013-09-25T11:56:31Z</time></trkpt>
 <trkpt lat="47.761670400" lon="12.562999900"><ele>1528</ele><time>2013-09-25T11:56:35Z</time></trkpt>
 <trkpt lat="47.761669100" lon="12.562990800"><ele>1528</ele><time>2013-09-25T11:56:39Z</time></trkpt>
 <trkpt lat="47.761669100" lon="12.562990800"><ele>1529</ele><time>2013-09-25T11:56:43Z</time></trkpt>
 <trkpt lat="47.761669100" lon="12.562990800"><ele>1530</ele><time>2013-09-25T11:56:47Z</time></trkpt>
 <trkpt lat="47.761669100" lon="12.562990800"><ele>1530</ele><time>2013-09-25T11:56:51Z</time></trkpt>
 <trkpt lat="47.761662400" lon="12.562990000"><ele>1531</ele><time>2013-09-25T11:56:55Z</time></trkpt>
 <trkpt lat="47.761656200" lon="12.562988300"><ele>1531</ele><time>2013-09-25T11:56:59Z</time></trkpt>
 <trkpt lat="47.761656200" lon="12.562988300"><ele>1531</ele><time>2013-09-25T11:57:03Z</time></trkpt>
 <trkpt lat="47.761651600" lon="12.562984100"><ele>1532</ele><time>2013-09-25T11:57:07Z</time></trkpt>
 <trkpt lat="47.761661600" lon="12.562998300"><ele>1532</ele><time>2013-09-25T11:57:11Z</time></trkpt>
 <trkpt lat="47.761667000" lon="12.563000400"><ele>1532</ele><time>2013-09-25T11:57:15Z</time></trkpt>
 <trkpt lat="47.761667000" lon="12.563000400"><ele>1532</ele><time>2013-09-25T11:57:19Z</time></trkpt>
 <trkpt lat="47.761667000" lon="12.563000400"><ele>1532</ele><time>2013-09-25T11:57:23Z</time></trkpt>
 <trkpt lat="47.761666200" lon="12.562991600"><ele>1533</ele><time>2013-09-25T11:57:27Z</time></trkpt>
 <trkpt lat="47.761664100" lon="12.562984100"><ele>1533</ele><time>2013-09-25T11:57:31Z</time></trkpt>
 <trkpt lat="47.761664100" lon="12.562984100"><ele>1533</ele><time>2013-09-25T11:57:35Z</time></trkpt>
 <trkpt lat="47.761663300" lon="12.562975800"><ele>1533</ele><time>2013-09-25T11:57:39Z</time></trkpt>
 <trkpt lat="47.761667400" lon="12.562969100"><ele>1533</ele><time>2013-09-25T11:57:43Z</time></trkpt>
 <trkpt lat="47.761667400" lon="12.562969100"><ele>1533</ele><time>2013-09-25T11:57:47Z</time></trkpt>
 <trkpt lat="47.761667400" lon="12.562969100"><ele>1533</ele><time>2013-09-25T11:57:51Z</time></trkpt>
 <trkpt lat="47.761638300" lon="12.562941200"><ele>1533</ele><time>2013-09-25T11:57:55Z</time></trkpt>
 <trkpt lat="47.761614900" lon="12.562919100"><ele>1533</ele><time>2013-09-25T11:57:59Z</time></trkpt>
 <trkpt lat="47.761609500" lon="12.562896600"><ele>1534</ele><time>2013-09-25T11:58:03Z</time></trkpt>
 <trkpt lat="47.761597000" lon="12.562864500"><ele>1534</ele><time>2013-09-25T11:58:07Z</time></trkpt>
 <trkpt lat="47.761578300" lon="12.562830400"><ele>1534</ele><time>2013-09-25T11:58:11Z</time></trkpt>
 <trkpt lat="47.761556600" lon="12.562786600"><ele>1535</ele><time>2013-09-25T11:58:15Z</time></trkpt>
 <trkpt lat="47.761537800" lon="12.562738300"><ele>1535</ele><time>2013-09-25T11:58:19Z</time></trkpt>
 <trkpt lat="47.761524100" lon="12.562689100"><ele>1535</ele><time>2013-09-25T11:58:23Z</time></trkpt>
 <trkpt lat="47.761512800" lon="12.562638700"><ele>1536</ele><time>2013-09-25T11:58:27Z</time></trkpt>
 <trkpt lat="47.761500700" lon="12.562609500"><ele>1536</ele><time>2013-09-25T11:58:31Z</time></trkpt>
 <trkpt lat="47.761491200" lon="12.562562800"><ele>1537</ele><time>2013-09-25T11:58:35Z</time></trkpt>
 <trkpt lat="47.761474100" lon="12.562519500"><ele>1537</ele><time>2013-09-25T11:58:39Z</time></trkpt>
 <trkpt lat="47.761449100" lon="12.562481200"><ele>1538</ele><time>2013-09-25T11:58:43Z</time></trkpt>
 <trkpt lat="47.761427400" lon="12.562441600"><ele>1538</ele><time>2013-09-25T11:58:47Z</time></trkpt>
 <trkpt lat="47.761417000" lon="12.562419500"><ele>1539</ele><time>2013-09-25T11:58:51Z</time></trkpt>
 <trkpt lat="47.761412800" lon="12.562399500"><ele>1539</ele><time>2013-09-25T11:58:55Z</time></trkpt>
 <trkpt lat="47.761409900" lon="12.562372400"><ele>1540</ele><time>2013-09-25T11:58:59Z</time></trkpt>
 <trkpt lat="47.761399500" lon="12.562331600"><ele>1540</ele><time>2013-09-25T11:59:03Z</time></trkpt>
 <trkpt lat="47.761392400" lon="12.562307400"><ele>1541</ele><time>2013-09-25T11:59:07Z</time></trkpt>
 <trkpt lat="47.761382000" lon="12.562271600"><ele>1542</ele><time>2013-09-25T11:59:11Z</time></trkpt>
 <trkpt lat="47.761369500" lon="12.562236600"><ele>1542</ele><time>2013-09-25T11:59:15Z</time></trkpt>
 <trkpt lat="47.761361600" lon="12.562198300"><ele>1543</ele><time>2013-09-25T11:59:19Z</time></trkpt>
 <trkpt lat="47.761346200" lon="12.562160800"><ele>1544</ele><time>2013-09-25T11:59:23Z</time></trkpt>
 <trkpt lat="47.761336600" lon="12.562122000"><ele>1544</ele><time>2013-09-25T11:59:27Z</time></trkpt>
 <trkpt lat="47.761327800" lon="12.562092400"><ele>1545</ele><time>2013-09-25T11:59:31Z</time></trkpt>
 <trkpt lat="47.761314900" lon="12.562066200"><ele>1546</ele><time>2013-09-25T11:59:35Z</time></trkpt>
 <trkpt lat="47.761302800" lon="12.562036200"><ele>1547</ele><time>2013-09-25T11:59:39Z</time></trkpt>
 <trkpt lat="47.761292400" lon="12.562002000"><ele>1547</ele><time>2013-09-25T11:59:43Z</time></trkpt>
 <trkpt lat="47.761279900" lon="12.561966600"><ele>1548</ele><time>2013-09-25T11:59:47Z</time></trkpt>
 <trkpt lat="47.761261600" lon="12.561924900"><ele>1549</ele><time>2013-09-25T11:59:51Z</time></trkpt>
 <trkpt lat="47.761250800" lon="12.561891600"><ele>1550</ele><time>2013-09-25T11:59:55Z</time></trkpt>
 <trkpt lat="47.761228700" lon="12.561860300"><ele>1551</ele><time>2013-09-25T11:59:59Z</time></trkpt>
 <trkpt lat="47.761212000" lon="12.561828200"><ele>1551</ele><time>2013-09-25T12:00:03Z</time></trkpt>
 <trkpt lat="47.761201200" lon="12.561798700"><ele>1552</ele><time>2013-09-25T12:00:07Z</time></trkpt>
 <trkpt lat="47.761175800" lon="12.561785800"><ele>1553</ele><time>2013-09-25T12:00:11Z</time></trkpt>
 <trkpt lat="47.761163700" lon="12.561759100"><ele>1554</ele><time>2013-09-25T12:00:15Z</time></trkpt>
 <trkpt lat="47.761168300" lon="12.561735400"><ele>1554</ele><time>2013-09-25T12:00:19Z</time></trkpt>
 <trkpt lat="47.761177800" lon="12.561727000"><ele>1555</ele><time>2013-09-25T12:00:23Z</time></trkpt>
 <trkpt lat="47.761177800" lon="12.561727000"><ele>1555</ele><time>2013-09-25T12:00:27Z</time></trkpt>
 <trkpt lat="47.761182000" lon="12.561733700"><ele>1556</ele><time>2013-09-25T12:00:31Z</time></trkpt>
 <trkpt lat="47.761175800" lon="12.561729900"><ele>1556</ele><time>2013-09-25T12:00:35Z</time></trkpt>
 <trkpt lat="47.761170400" lon="12.561732000"><ele>1557</ele><time>2013-09-25T12:00:39Z</time></trkpt>
 <trkpt lat="47.761158300" lon="12.561724500"><ele>1557</ele><time>2013-09-25T12:00:43Z</time></trkpt>
 <trkpt lat="47.761127400" lon="12.561702400"><ele>1557</ele><time>2013-09-25T12:00:47Z</time></trkpt>
 <trkpt lat="47.761111600" lon="12.561684100"><ele>1558</ele><time>2013-09-25T12:00:51Z</time></trkpt>
 <trkpt lat="47.761101600" lon="12.561645800"><ele>1558</ele><time>2013-09-25T12:00:55Z</time></trkpt>
 <trkpt lat="47.761096600" lon="12.561596600"><ele>1558</ele><time>2013-09-25T12:00:59Z</time></trkpt>
 <trkpt lat="47.761092900" lon="12.561572400"><ele>1559</ele><time>2013-09-25T12:01:03Z</time></trkpt>
 <trkpt lat="47.761067900" lon="12.561543700"><ele>1559</ele><time>2013-09-25T12:01:07Z</time></trkpt>
 <trkpt lat="47.761056200" lon="12.561533700"><ele>1559</ele><time>2013-09-25T12:01:11Z</time></trkpt>
 <trkpt lat="47.761049100" lon="12.561510800"><ele>1559</ele><time>2013-09-25T12:01:15Z</time></trkpt>
 <trkpt lat="47.761024500" lon="12.561490800"><ele>1559</ele><time>2013-09-25T12:01:19Z</time></trkpt>
 <trkpt lat="47.761012400" lon="12.561457400"><ele>1560</ele><time>2013-09-25T12:01:23Z</time></trkpt>
 <trkpt lat="47.761018300" lon="12.561423300"><ele>1560</ele><time>2013-09-25T12:01:27Z</time></trkpt>
 <trkpt lat="47.761044900" lon="12.561405800"><ele>1560</ele><time>2013-09-25T12:01:31Z</time></trkpt>
 <trkpt lat="47.761065400" lon="12.561412900"><ele>1560</ele><time>2013-09-25T12:01:35Z</time></trkpt>
 <trkpt lat="47.761077000" lon="12.561430400"><ele>1560</ele><time>2013-09-25T12:01:39Z</time></trkpt>
 <trkpt lat="47.761100300" lon="12.561426200"><ele>1561</ele><time>2013-09-25T12:01:43Z</time></trkpt>
 <trkpt lat="47.761118700" lon="12.561428200"><ele>1561</ele><time>2013-09-25T12:01:47Z</time></trkpt>
 <trkpt lat="47.761133700" lon="12.561430800"><ele>1561</ele><time>2013-09-25T12:01:51Z</time></trkpt>
 <trkpt lat="47.761158300" lon="12.561431600"><ele>1561</ele><time>2013-09-25T12:01:55Z</time></trkpt>
 <trkpt lat="47.761193300" lon="12.561427800"><ele>1562</ele><time>2013-09-25T12:01:59Z</time></trkpt>
 <trkpt lat="47.761232000" lon="12.561429100"><ele>1562</ele><time>2013-09-25T12:02:03Z</time></trkpt>
 <trkpt lat="47.761258200" lon="12.561452500"><ele>1562</ele><time>2013-09-25T12:02:07Z</time></trkpt>
 <trkpt lat="47.761287000" lon="12.561470000"><ele>1563</ele><time>2013-09-25T12:02:11Z</time></trkpt>
 <trkpt lat="47.761315300" lon="12.561469100"><ele>1563</ele><time>2013-09-25T12:02:15Z</time></trkpt>
 <trkpt lat="47.761339900" lon="12.561464900"><ele>1564</ele><time>2013-09-25T12:02:19Z</time></trkpt>
 <trkpt lat="47.761353700" lon="12.561462800"><ele>1564</ele><time>2013-09-25T12:02:23Z</time></trkpt>
 <trkpt lat="47.761368700" lon="12.561461200"><ele>1564</ele><time>2013-09-25T12:02:27Z</time></trkpt>
 <trkpt lat="47.761376200" lon="12.561460700"><ele>1565</ele><time>2013-09-25T12:02:31Z</time></trkpt>
 <trkpt lat="47.761382000" lon="12.561457400"><ele>1565</ele><time>2013-09-25T12:02:35Z</time></trkpt>
 <trkpt lat="47.761387400" lon="12.561456600"><ele>1565</ele><time>2013-09-25T12:02:39Z</time></trkpt>
 <trkpt lat="47.761393700" lon="12.561457400"><ele>1566</ele><time>2013-09-25T12:02:43Z</time></trkpt>
 <trkpt lat="47.761393700" lon="12.561457400"><ele>1566</ele><time>2013-09-25T12:02:47Z</time></trkpt>
 <trkpt lat="47.761398300" lon="12.561464100"><ele>1567</ele><time>2013-09-25T12:02:51Z</time></trkpt>
 <trkpt lat="47.761404100" lon="12.561463300"><ele>1567</ele><time>2013-09-25T12:02:55Z</time></trkpt>
 <trkpt lat="47.761404100" lon="12.561463300"><ele>1567</ele><time>2013-09-25T12:02:59Z</time></trkpt>
 <trkpt lat="47.761409100" lon="12.561443700"><ele>1568</ele><time>2013-09-25T12:03:03Z</time></trkpt>
 <trkpt lat="47.761412900" lon="12.561436200"><ele>1568</ele><time>2013-09-25T12:03:07Z</time></trkpt>
 <trkpt lat="47.761441200" lon="12.561449500"><ele>1569</ele><time>2013-09-25T12:03:11Z</time></trkpt>
 <trkpt lat="47.761471600" lon="12.561457000"><ele>1569</ele><time>2013-09-25T12:03:15Z</time></trkpt>
 <trkpt lat="47.761510300" lon="12.561459900"><ele>1569</ele><time>2013-09-25T12:03:19Z</time></trkpt>
 <trkpt lat="47.761529500" lon="12.561459500"><ele>1570</ele><time>2013-09-25T12:03:23Z</time></trkpt>
 <trkpt lat="47.761561200" lon="12.561446200"><ele>1571</ele><time>2013-09-25T12:03:27Z</time></trkpt>
 <trkpt lat="47.761593200" lon="12.561444900"><ele>1571</ele><time>2013-09-25T12:03:31Z</time></trkpt>
 <trkpt lat="47.761611200" lon="12.561448300"><ele>1572</ele><time>2013-09-25T12:03:35Z</time></trkpt>
 <trkpt lat="47.761637900" lon="12.561439100"><ele>1572</ele><time>2013-09-25T12:03:39Z</time></trkpt>
 <trkpt lat="47.761651200" lon="12.561425800"><ele>1573</ele><time>2013-09-25T12:03:43Z</time></trkpt>
 <trkpt lat="47.761676200" lon="12.561406600"><ele>1574</ele><time>2013-09-25T12:03:47Z</time></trkpt>
 <trkpt lat="47.761703300" lon="12.561395300"><ele>1575</ele><time>2013-09-25T12:03:51Z</time></trkpt>
 <trkpt lat="47.761722800" lon="12.561391200"><ele>1576</ele><time>2013-09-25T12:03:55Z</time></trkpt>
 <trkpt lat="47.761749100" lon="12.561399900"><ele>1576</ele><time>2013-09-25T12:03:59Z</time></trkpt>
 <trkpt lat="47.761773700" lon="12.561394500"><ele>1577</ele><time>2013-09-25T12:04:03Z</time></trkpt>
 <trkpt lat="47.761799900" lon="12.561378700"><ele>1578</ele><time>2013-09-25T12:04:07Z</time></trkpt>
 <trkpt lat="47.761823300" lon="12.561369500"><ele>1578</ele><time>2013-09-25T12:04:11Z</time></trkpt>
 <trkpt lat="47.761839100" lon="12.561362800"><ele>1579</ele><time>2013-09-25T12:04:15Z</time></trkpt>
 <trkpt lat="47.761845800" lon="12.561362800"><ele>1580</ele><time>2013-09-25T12:04:19Z</time></trkpt>
 <trkpt lat="47.761849900" lon="12.561369100"><ele>1580</ele><time>2013-09-25T12:04:23Z</time></trkpt>
 <trkpt lat="47.761853700" lon="12.561377000"><ele>1580</ele><time>2013-09-25T12:04:27Z</time></trkpt>
 <trkpt lat="47.761856600" lon="12.561385800"><ele>1581</ele><time>2013-09-25T12:04:31Z</time></trkpt>
 <trkpt lat="47.761856600" lon="12.561385800"><ele>1581</ele><time>2013-09-25T12:04:35Z</time></trkpt>
 <trkpt lat="47.761856600" lon="12.561385800"><ele>1582</ele><time>2013-09-25T12:04:39Z</time></trkpt>
 <trkpt lat="47.761858300" lon="12.561393700"><ele>1582</ele><time>2013-09-25T12:04:43Z</time></trkpt>
 <trkpt lat="47.761858300" lon="12.561393700"><ele>1582</ele><time>2013-09-25T12:04:47Z</time></trkpt>
 <trkpt lat="47.761858300" lon="12.561393700"><ele>1582</ele><time>2013-09-25T12:04:51Z</time></trkpt>
 <trkpt lat="47.761848300" lon="12.561384100"><ele>1582</ele><time>2013-09-25T12:04:55Z</time></trkpt>
 <trkpt lat="47.761841200" lon="12.561379900"><ele>1583</ele><time>2013-09-25T12:04:59Z</time></trkpt>
 <trkpt lat="47.761852000" lon="12.561367400"><ele>1583</ele><time>2013-09-25T12:05:03Z</time></trkpt>
 <trkpt lat="47.761872900" lon="12.561348700"><ele>1583</ele><time>2013-09-25T12:05:07Z</time></trkpt>
 <trkpt lat="47.761895800" lon="12.561335800"><ele>1583</ele><time>2013-09-25T12:05:11Z</time></trkpt>
 <trkpt lat="47.761916200" lon="12.561330800"><ele>1584</ele><time>2013-09-25T12:05:15Z</time></trkpt>
 <trkpt lat="47.761944500" lon="12.561324100"><ele>1584</ele><time>2013-09-25T12:05:19Z</time></trkpt>
 <trkpt lat="47.761972900" lon="12.561308300"><ele>1584</ele><time>2013-09-25T12:05:23Z</time></trkpt>
 <trkpt lat="47.761974500" lon="12.561278700"><ele>1584</ele><time>2013-09-25T12:05:27Z</time></trkpt>
 <trkpt lat="47.761955300" lon="12.561246600"><ele>1585</ele><time>2013-09-25T12:05:31Z</time></trkpt>
 <trkpt lat="47.761937000" lon="12.561215800"><ele>1585</ele><time>2013-09-25T12:05:35Z</time></trkpt>
 <trkpt lat="47.761924900" lon="12.561193300"><ele>1586</ele><time>2013-09-25T12:05:39Z</time></trkpt>
 <trkpt lat="47.761920400" lon="12.561185800"><ele>1586</ele><time>2013-09-25T12:05:43Z</time></trkpt>
 <trkpt lat="47.761904900" lon="12.561174100"><ele>1587</ele><time>2013-09-25T12:05:47Z</time></trkpt>
 <trkpt lat="47.761881600" lon="12.561140400"><ele>1587</ele><time>2013-09-25T12:05:51Z</time></trkpt>
 <trkpt lat="47.761862000" lon="12.561106600"><ele>1588</ele><time>2013-09-25T12:05:55Z</time></trkpt>
 <trkpt lat="47.761847500" lon="12.561079500"><ele>1588</ele><time>2013-09-25T12:05:59Z</time></trkpt>
 <trkpt lat="47.761823700" lon="12.561046200"><ele>1589</ele><time>2013-09-25T12:06:03Z</time></trkpt>
 <trkpt lat="47.761803700" lon="12.561024900"><ele>1590</ele><time>2013-09-25T12:06:07Z</time></trkpt>
 <trkpt lat="47.761779100" lon="12.561010300"><ele>1590</ele><time>2013-09-25T12:06:11Z</time></trkpt>
 <trkpt lat="47.761759900" lon="12.560997900"><ele>1591</ele><time>2013-09-25T12:06:15Z</time></trkpt>
 <trkpt lat="47.761742000" lon="12.560991200"><ele>1591</ele><time>2013-09-25T12:06:19Z</time></trkpt>
 <trkpt lat="47.761723700" lon="12.560965800"><ele>1592</ele><time>2013-09-25T12:06:23Z</time></trkpt>
 <trkpt lat="47.761704500" lon="12.560937000"><ele>1592</ele><time>2013-09-25T12:06:27Z</time></trkpt>
 <trkpt lat="47.761687900" lon="12.560920300"><ele>1593</ele><time>2013-09-25T12:06:31Z</time></trkpt>
 <trkpt lat="47.761674100" lon="12.560905800"><ele>1594</ele><time>2013-09-25T12:06:35Z</time></trkpt>
 <trkpt lat="47.761659500" lon="12.560895400"><ele>1594</ele><time>2013-09-25T12:06:39Z</time></trkpt>
 <trkpt lat="47.761645300" lon="12.560879900"><ele>1595</ele><time>2013-09-25T12:06:43Z</time></trkpt>
 <trkpt lat="47.761631200" lon="12.560864500"><ele>1595</ele><time>2013-09-25T12:06:47Z</time></trkpt>
 <trkpt lat="47.761619900" lon="12.560846200"><ele>1595</ele><time>2013-09-25T12:06:51Z</time></trkpt>
 <trkpt lat="47.761599900" lon="12.560814900"><ele>1596</ele><time>2013-09-25T12:06:55Z</time></trkpt>
 <trkpt lat="47.761574100" lon="12.560789100"><ele>1596</ele><time>2013-09-25T12:06:59Z</time></trkpt>
 <trkpt lat="47.761557000" lon="12.560774900"><ele>1596</ele><time>2013-09-25T12:07:03Z</time></trkpt>
 <trkpt lat="47.761557000" lon="12.560774900"><ele>1597</ele><time>2013-09-25T12:07:07Z</time></trkpt>
 <trkpt lat="47.761557000" lon="12.560774900"><ele>1597</ele><time>2013-09-25T12:07:11Z</time></trkpt>
 <trkpt lat="47.761561200" lon="12.560781200"><ele>1597</ele><time>2013-09-25T12:07:15Z</time></trkpt>
 <trkpt lat="47.761561200" lon="12.560781200"><ele>1597</ele><time>2013-09-25T12:07:19Z</time></trkpt>
 <trkpt lat="47.761561200" lon="12.560781200"><ele>1597</ele><time>2013-09-25T12:07:23Z</time></trkpt>
 <trkpt lat="47.761561200" lon="12.560790800"><ele>1597</ele><time>2013-09-25T12:07:27Z</time></trkpt>
 <trkpt lat="47.761567000" lon="12.560795000"><ele>1597</ele><time>2013-09-25T12:07:31Z</time></trkpt>
 <trkpt lat="47.761572800" lon="12.560792400"><ele>1597</ele><time>2013-09-25T12:07:35Z</time></trkpt>
 <trkpt lat="47.761572800" lon="12.560792400"><ele>1598</ele><time>2013-09-25T12:07:39Z</time></trkpt>
 <trkpt lat="47.761574900" lon="12.560783700"><ele>1598</ele><time>2013-09-25T12:07:43Z</time></trkpt>
 <trkpt lat="47.761579100" lon="12.560776600"><ele>1598</ele><time>2013-09-25T12:07:47Z</time></trkpt>
 <trkpt lat="47.761584500" lon="12.560773300"><ele>1598</ele><time>2013-09-25T12:07:51Z</time></trkpt>
 <trkpt lat="47.761590800" lon="12.560769100"><ele>1598</ele><time>2013-09-25T12:07:55Z</time></trkpt>
 <trkpt lat="47.761606200" lon="12.560754900"><ele>1598</ele><time>2013-09-25T12:07:59Z</time></trkpt>
 <trkpt lat="47.761588300" lon="12.560757000"><ele>1598</ele><time>2013-09-25T12:08:03Z</time></trkpt>
 <trkpt lat="47.761579900" lon="12.560761200"><ele>1598</ele><time>2013-09-25T12:08:07Z</time></trkpt>
 <trkpt lat="47.761552400" lon="12.560754100"><ele>1598</ele><time>2013-09-25T12:08:11Z</time></trkpt>
 <trkpt lat="47.761520800" lon="12.560737400"><ele>1598</ele><time>2013-09-25T12:08:15Z</time></trkpt>
 <trkpt lat="47.761488300" lon="12.560712800"><ele>1599</ele><time>2013-09-25T12:08:19Z</time></trkpt>
 <trkpt lat="47.761464900" lon="12.560682800"><ele>1599</ele><time>2013-09-25T12:08:23Z</time></trkpt>
 <trkpt lat="47.761440800" lon="12.560658300"><ele>1599</ele><time>2013-09-25T12:08:27Z</time></trkpt>
 <trkpt lat="47.761417400" lon="12.560648700"><ele>1599</ele><time>2013-09-25T12:08:31Z</time></trkpt>
 <trkpt lat="47.761397400" lon="12.560630400"><ele>1599</ele><time>2013-09-25T12:08:36Z</time></trkpt>
 <trkpt lat="47.761377400" lon="12.560608700"><ele>1600</ele><time>2013-09-25T12:08:39Z</time></trkpt>
 <trkpt lat="47.761355400" lon="12.560584500"><ele>1600</ele><time>2013-09-25T12:08:43Z</time></trkpt>
 <trkpt lat="47.761336600" lon="12.560575400"><ele>1600</ele><time>2013-09-25T12:08:47Z</time></trkpt>
 <trkpt lat="47.761336600" lon="12.560575400"><ele>1600</ele><time>2013-09-25T12:08:51Z</time></trkpt>
 <trkpt lat="47.761330800" lon="12.560575000"><ele>1601</ele><time>2013-09-25T12:08:55Z</time></trkpt>
 <trkpt lat="47.761330800" lon="12.560575000"><ele>1601</ele><time>2013-09-25T12:08:59Z</time></trkpt>
 <trkpt lat="47.761325300" lon="12.560577000"><ele>1601</ele><time>2013-09-25T12:09:03Z</time></trkpt>
 <trkpt lat="47.761319500" lon="12.560577400"><ele>1601</ele><time>2013-09-25T12:09:07Z</time></trkpt>
 <trkpt lat="47.761318300" lon="12.560585800"><ele>1602</ele><time>2013-09-25T12:09:11Z</time></trkpt>
 <trkpt lat="47.761318300" lon="12.560585800"><ele>1602</ele><time>2013-09-25T12:09:15Z</time></trkpt>
 <trkpt lat="47.761310400" lon="12.560573700"><ele>1602</ele><time>2013-09-25T12:09:20Z</time></trkpt>
 <trkpt lat="47.761285800" lon="12.560557400"><ele>1602</ele><time>2013-09-25T12:09:23Z</time></trkpt>
 <trkpt lat="47.761262000" lon="12.560536600"><ele>1603</ele><time>2013-09-25T12:09:27Z</time></trkpt>
 <trkpt lat="47.761240300" lon="12.560526600"><ele>1603</ele><time>2013-09-25T12:09:31Z</time></trkpt>
 <trkpt lat="47.761222000" lon="12.560507800"><ele>1603</ele><time>2013-09-25T12:09:35Z</time></trkpt>
 <trkpt lat="47.761202000" lon="12.560474900"><ele>1603</ele><time>2013-09-25T12:09:39Z</time></trkpt>
 <trkpt lat="47.761190300" lon="12.560445300"><ele>1604</ele><time>2013-09-25T12:09:43Z</time></trkpt>
 <trkpt lat="47.761188300" lon="12.560435800"><ele>1604</ele><time>2013-09-25T12:09:47Z</time></trkpt>
 <trkpt lat="47.761188300" lon="12.560435800"><ele>1604</ele><time>2013-09-25T12:09:51Z</time></trkpt>
 <trkpt lat="47.761188300" lon="12.560435800"><ele>1604</ele><time>2013-09-25T12:09:55Z</time></trkpt>
 <trkpt lat="47.761186200" lon="12.560427800"><ele>1605</ele><time>2013-09-25T12:09:59Z</time></trkpt>
 <trkpt lat="47.761186200" lon="12.560427800"><ele>1605</ele><time>2013-09-25T12:10:03Z</time></trkpt>
 <trkpt lat="47.761220800" lon="12.560415800"><ele>1605</ele><time>2013-09-25T12:10:07Z</time></trkpt>
 <trkpt lat="47.761263300" lon="12.560416600"><ele>1606</ele><time>2013-09-25T12:10:11Z</time></trkpt>
 <trkpt lat="47.761307400" lon="12.560413700"><ele>1606</ele><time>2013-09-25T12:10:15Z</time></trkpt>
 <trkpt lat="47.761342800" lon="12.560399500"><ele>1606</ele><time>2013-09-25T12:10:19Z</time></trkpt>
 <trkpt lat="47.761359100" lon="12.560388300"><ele>1607</ele><time>2013-09-25T12:10:23Z</time></trkpt>
 <trkpt lat="47.761377500" lon="12.560377800"><ele>1608</ele><time>2013-09-25T12:10:27Z</time></trkpt>
 <trkpt lat="47.761402000" lon="12.560357400"><ele>1608</ele><time>2013-09-25T12:10:31Z</time></trkpt>
 <trkpt lat="47.761431200" lon="12.560341200"><ele>1609</ele><time>2013-09-25T12:10:35Z</time></trkpt>
 <trkpt lat="47.761459100" lon="12.560336200"><ele>1610</ele><time>2013-09-25T12:10:39Z</time></trkpt>
 <trkpt lat="47.761491200" lon="12.560344100"><ele>1611</ele><time>2013-09-25T12:10:43Z</time></trkpt>
 <trkpt lat="47.761504900" lon="12.560343300"><ele>1612</ele><time>2013-09-25T12:10:47Z</time></trkpt>
 <trkpt lat="47.761542000" lon="12.560343200"><ele>1614</ele><time>2013-09-25T12:10:51Z</time></trkpt>
 <trkpt lat="47.761579500" lon="12.560347000"><ele>1615</ele><time>2013-09-25T12:10:55Z</time></trkpt>
 <trkpt lat="47.761614100" lon="12.560344900"><ele>1617</ele><time>2013-09-25T12:10:59Z</time></trkpt>
 <trkpt lat="47.761644900" lon="12.560329900"><ele>1619</ele><time>2013-09-25T12:11:03Z</time></trkpt>
 <trkpt lat="47.761658300" lon="12.560321600"><ele>1620</ele><time>2013-09-25T12:11:07Z</time></trkpt>
 <trkpt lat="47.761690800" lon="12.560318300"><ele>1622</ele><time>2013-09-25T12:11:11Z</time></trkpt>
 <trkpt lat="47.761730800" lon="12.560305400"><ele>1623</ele><time>2013-09-25T12:11:15Z</time></trkpt>
 <trkpt lat="47.761775700" lon="12.560301200"><ele>1625</ele><time>2013-09-25T12:11:19Z</time></trkpt>
 <trkpt lat="47.761816600" lon="12.560291600"><ele>1626</ele><time>2013-09-25T12:11:23Z</time></trkpt>
 <trkpt lat="47.761852400" lon="12.560284500"><ele>1627</ele><time>2013-09-25T12:11:27Z</time></trkpt>
 <trkpt lat="47.761883200" lon="12.560277800"><ele>1629</ele><time>2013-09-25T12:11:31Z</time></trkpt>
 <trkpt lat="47.761895300" lon="12.560266200"><ele>1630</ele><time>2013-09-25T12:11:35Z</time></trkpt>
 <trkpt lat="47.761914900" lon="12.560248300"><ele>1631</ele><time>2013-09-25T12:11:39Z</time></trkpt>
 <trkpt lat="47.761948300" lon="12.560212000"><ele>1631</ele><time>2013-09-25T12:11:44Z</time></trkpt>
 <trkpt lat="47.761986600" lon="12.560208700"><ele>1632</ele><time>2013-09-25T12:11:47Z</time></trkpt>
 <trkpt lat="47.762021600" lon="12.560188700"><ele>1633</ele><time>2013-09-25T12:11:51Z</time></trkpt>
 <trkpt lat="47.762062000" lon="12.560181200"><ele>1633</ele><time>2013-09-25T12:11:55Z</time></trkpt>
 <trkpt lat="47.762096600" lon="12.560177800"><ele>1634</ele><time>2013-09-25T12:11:59Z</time></trkpt>
 <trkpt lat="47.762129100" lon="12.560167400"><ele>1634</ele><time>2013-09-25T12:12:03Z</time></trkpt>
 <trkpt lat="47.762158700" lon="12.560154900"><ele>1634</ele><time>2013-09-25T12:12:07Z</time></trkpt>
 <trkpt lat="47.762186600" lon="12.560143200"><ele>1634</ele><time>2013-09-25T12:12:11Z</time></trkpt>
 <trkpt lat="47.762210300" lon="12.560138700"><ele>1635</ele><time>2013-09-25T12:12:15Z</time></trkpt>
 <trkpt lat="47.762234100" lon="12.560141600"><ele>1635</ele><time>2013-09-25T12:12:19Z</time></trkpt>
 <trkpt lat="47.762258700" lon="12.560150800"><ele>1636</ele><time>2013-09-25T12:12:23Z</time></trkpt>
 <trkpt lat="47.762289500" lon="12.560162400"><ele>1636</ele><time>2013-09-25T12:12:27Z</time></trkpt>
 <trkpt lat="47.762316200" lon="12.560169100"><ele>1637</ele><time>2013-09-25T12:12:31Z</time></trkpt>
 <trkpt lat="47.762325800" lon="12.560165800"><ele>1637</ele><time>2013-09-25T12:12:35Z</time></trkpt>
 <trkpt lat="47.762320700" lon="12.560162000"><ele>1638</ele><time>2013-09-25T12:12:39Z</time></trkpt>
 <trkpt lat="47.762312000" lon="12.560144900"><ele>1638</ele><time>2013-09-25T12:12:43Z</time></trkpt>
 <trkpt lat="47.762312000" lon="12.560144900"><ele>1639</ele><time>2013-09-25T12:12:47Z</time></trkpt>
 <trkpt lat="47.762315400" lon="12.560137800"><ele>1639</ele><time>2013-09-25T12:12:51Z</time></trkpt>
 <trkpt lat="47.762315400" lon="12.560137800"><ele>1640</ele><time>2013-09-25T12:12:55Z</time></trkpt>
 <trkpt lat="47.762320800" lon="12.560133700"><ele>1640</ele><time>2013-09-25T12:12:59Z</time></trkpt>
 <trkpt lat="47.762326200" lon="12.560129500"><ele>1640</ele><time>2013-09-25T12:13:03Z</time></trkpt>
 <trkpt lat="47.762266600" lon="12.560088300"><ele>1640</ele><time>2013-09-25T12:13:07Z</time></trkpt>
 <trkpt lat="47.762232800" lon="12.560054100"><ele>1641</ele><time>2013-09-25T12:13:11Z</time></trkpt>
 <trkpt lat="47.762222000" lon="12.560039100"><ele>1641</ele><time>2013-09-25T12:13:15Z</time></trkpt>
 <trkpt lat="47.762216600" lon="12.560037000"><ele>1641</ele><time>2013-09-25T12:13:19Z</time></trkpt>
 <trkpt lat="47.762215000" lon="12.560027900"><ele>1641</ele><time>2013-09-25T12:13:23Z</time></trkpt>
 <trkpt lat="47.762208300" lon="12.560022400"><ele>1641</ele><time>2013-09-25T12:13:27Z</time></trkpt>
 <trkpt lat="47.762182900" lon="12.560004500"><ele>1640</ele><time>2013-09-25T12:13:31Z</time></trkpt>
 <trkpt lat="47.762176200" lon="12.559999500"><ele>1640</ele><time>2013-09-25T12:13:35Z</time></trkpt>
 <trkpt lat="47.762172400" lon="12.559988700"><ele>1640</ele><time>2013-09-25T12:13:39Z</time></trkpt>
 <trkpt lat="47.762183300" lon="12.559966600"><ele>1640</ele><time>2013-09-25T12:13:43Z</time></trkpt>
 <trkpt lat="47.762181600" lon="12.559931600"><ele>1640</ele><time>2013-09-25T12:13:47Z</time></trkpt>
 <trkpt lat="47.762183700" lon="12.559894100"><ele>1640</ele><time>2013-09-25T12:13:51Z</time></trkpt>
 <trkpt lat="47.762183300" lon="12.559867400"><ele>1640</ele><time>2013-09-25T12:13:55Z</time></trkpt>
 <trkpt lat="47.762174900" lon="12.559844100"><ele>1640</ele><time>2013-09-25T12:14:00Z</time></trkpt>
 <trkpt lat="47.762179500" lon="12.559836200"><ele>1640</ele><time>2013-09-25T12:14:04Z</time></trkpt>
 <trkpt lat="47.762179500" lon="12.559836200"><ele>1640</ele><time>2013-09-25T12:14:08Z</time></trkpt>
 <trkpt lat="47.762179500" lon="12.559836200"><ele>1640</ele><time>2013-09-25T12:14:12Z</time></trkpt>
 <trkpt lat="47.762176200" lon="12.559828200"><ele>1640</ele><time>2013-09-25T12:14:15Z</time></trkpt>
 <trkpt lat="47.762181600" lon="12.559809900"><ele>1640</ele><time>2013-09-25T12:14:19Z</time></trkpt>
 <trkpt lat="47.762200800" lon="12.559795800"><ele>1640</ele><time>2013-09-25T12:14:23Z</time></trkpt>
 <trkpt lat="47.762217900" lon="12.559788300"><ele>1640</ele><time>2013-09-25T12:14:28Z</time></trkpt>
 <trkpt lat="47.762244100" lon="12.559799500"><ele>1640</ele><time>2013-09-25T12:14:31Z</time></trkpt>
 <trkpt lat="47.762261600" lon="12.559800300"><ele>1640</ele><time>2013-09-25T12:14:35Z</time></trkpt>
 <trkpt lat="47.762293300" lon="12.559814100"><ele>1640</ele><time>2013-09-25T12:14:39Z</time></trkpt>
 <trkpt lat="47.762316200" lon="12.559839100"><ele>1641</ele><time>2013-09-25T12:14:43Z</time></trkpt>
 <trkpt lat="47.762337900" lon="12.559847000"><ele>1641</ele><time>2013-09-25T12:14:47Z</time></trkpt>
 <trkpt lat="47.762355800" lon="12.559848700"><ele>1641</ele><time>2013-09-25T12:14:51Z</time></trkpt>
 <trkpt lat="47.762361200" lon="12.559847000"><ele>1641</ele><time>2013-09-25T12:14:55Z</time></trkpt>
 <trkpt lat="47.762361200" lon="12.559847000"><ele>1641</ele><time>2013-09-25T12:15:00Z</time></trkpt>
 <trkpt lat="47.762368300" lon="12.559842800"><ele>1642</ele><time>2013-09-25T12:15:03Z</time></trkpt>
 <trkpt lat="47.762393300" lon="12.559824100"><ele>1642</ele><time>2013-09-25T12:15:07Z</time></trkpt>
 <trkpt lat="47.762415300" lon="12.559790300"><ele>1642</ele><time>2013-09-25T12:15:12Z</time></trkpt>
 <trkpt lat="47.762432000" lon="12.559742000"><ele>1642</ele><time>2013-09-25T12:15:15Z</time></trkpt>
 <trkpt lat="47.762432400" lon="12.559712000"><ele>1643</ele><time>2013-09-25T12:15:19Z</time></trkpt>
 <trkpt lat="47.762445800" lon="12.559687000"><ele>1643</ele><time>2013-09-25T12:15:23Z</time></trkpt>
 <trkpt lat="47.762450000" lon="12.559664500"><ele>1643</ele><time>2013-09-25T12:15:27Z</time></trkpt>
 <trkpt lat="47.762451200" lon="12.559654100"><ele>1644</ele><time>2013-09-25T12:15:31Z</time></trkpt>
 <trkpt lat="47.762454100" lon="12.559644900"><ele>1644</ele><time>2013-09-25T12:15:35Z</time></trkpt>
 <trkpt lat="47.762456600" lon="12.559634900"><ele>1644</ele><time>2013-09-25T12:15:39Z</time></trkpt>
 <trkpt lat="47.762457000" lon="12.559624500"><ele>1644</ele><time>2013-09-25T12:15:43Z</time></trkpt>
 <trkpt lat="47.762460800" lon="12.559616600"><ele>1644</ele><time>2013-09-25T12:15:47Z</time></trkpt>
 <trkpt lat="47.762465800" lon="12.559612800"><ele>1644</ele><time>2013-09-25T12:15:51Z</time></trkpt>
 <trkpt lat="47.762498300" lon="12.559700300"><ele>1644</ele><time>2013-09-25T12:15:55Z</time></trkpt>
 <trkpt lat="47.762582000" lon="12.559933200"><ele>1645</ele><time>2013-09-25T12:16:03Z</time></trkpt>
 <trkpt lat="47.762624100" lon="12.560044500"><ele>1645</ele><time>2013-09-25T12:16:07Z</time></trkpt>
 <trkpt lat="47.762640700" lon="12.560159500"><ele>1645</ele><time>2013-09-25T12:16:11Z</time></trkpt>
 <trkpt lat="47.762651200" lon="12.560265800"><ele>1645</ele><time>2013-09-25T12:16:15Z</time></trkpt>
 <trkpt lat="47.762652400" lon="12.560342400"><ele>1645</ele><time>2013-09-25T12:16:19Z</time></trkpt>
 <trkpt lat="47.762632400" lon="12.560336600"><ele>1645</ele><time>2013-09-25T12:16:23Z</time></trkpt>
 <trkpt lat="47.762634100" lon="12.560315300"><ele>1645</ele><time>2013-09-25T12:16:27Z</time></trkpt>
 <trkpt lat="47.762638700" lon="12.560282900"><ele>1645</ele><time>2013-09-25T12:16:31Z</time></trkpt>
</trkseg>
</trk>
<extensions>
</extensions>
</gpx>